<?xml version='1.0' encoding='UTF-8'?><gpx version="1.1" creator="JPX - https://github.com/jenetics/jpx" xmlns="http://www.topografix.com/GPX/1/1"><trk><trkseg><trkpt lat="39.3739085" lon="16.8861658"><ele>522.0</ele><time>2026-03-29T11:17:02.782Z</time></trkpt><trkpt lat="39.3739714" lon="16.8862648"><ele>522.0</ele><time>2026-03-29T11:17:04.768Z</time></trkpt><trkpt lat="39.3740113" lon="16.8863452"><ele>522.0</ele><time>2026-03-29T11:17:05.773Z</time></trkpt><trkpt lat="39.3740428" lon="16.8864234"><ele>522.0</ele><time>2026-03-29T11:17:06.766Z</time></trkpt><trkpt lat="39.3741064" lon="16.8865499"><ele>522.0</ele><time>2026-03-29T11:17:08.768Z</time></trkpt><trkpt lat="39.3741778" lon="16.8866739"><ele>523.8000000000001</ele><time>2026-03-29T11:17:10.77Z</time></trkpt><trkpt lat="39.3742542" lon="16.8867697"><ele>525.6</ele><time>2026-03-29T11:17:12.791Z</time></trkpt><trkpt lat="39.3743476" lon="16.8868126"><ele>527.4000000000001</ele><time>2026-03-29T11:17:14.797Z</time></trkpt><trkpt lat="39.3744148" lon="16.8868268"><ele>529.2</ele><time>2026-03-29T11:17:15.789Z</time></trkpt><trkpt lat="39.3744942" lon="16.8868429"><ele>531.0</ele><time>2026-03-29T11:17:16.799Z</time></trkpt><trkpt lat="39.3746047" lon="16.8868734"><ele>528.75</ele><time>2026-03-29T11:17:17.798Z</time></trkpt><trkpt lat="39.3747262" lon="16.886898"><ele>526.5</ele><time>2026-03-29T11:17:18.794Z</time></trkpt><trkpt lat="39.3748575" lon="16.8869015"><ele>524.25</ele><time>2026-03-29T11:17:19.793Z</time></trkpt><trkpt lat="39.37494" lon="16.8868896"><ele>522.0</ele><time>2026-03-29T11:17:20.784Z</time></trkpt><trkpt lat="39.3750701" lon="16.8868601"><ele>522.0</ele><time>2026-03-29T11:17:22.791Z</time></trkpt><trkpt lat="39.3751558" lon="16.8868406"><ele>522.0</ele><time>2026-03-29T11:17:23.794Z</time></trkpt><trkpt lat="39.3752481" lon="16.8868318"><ele>522.0</ele><time>2026-03-29T11:17:24.788Z</time></trkpt><trkpt lat="39.3753176" lon="16.8868344"><ele>522.0</ele><time>2026-03-29T11:17:25.797Z</time></trkpt><trkpt lat="39.3754023" lon="16.8868328"><ele>522.0</ele><time>2026-03-29T11:17:27.795Z</time></trkpt><trkpt lat="39.3754805" lon="16.8868212"><ele>522.0</ele><time>2026-03-29T11:17:29.777Z</time></trkpt><trkpt lat="39.3756224" lon="16.8868244"><ele>521.1666666666666</ele><time>2026-03-29T11:17:31.793Z</time></trkpt><trkpt lat="39.3756853" lon="16.8868142"><ele>520.3333333333334</ele><time>2026-03-29T11:17:32.795Z</time></trkpt><trkpt lat="39.3757965" lon="16.88671"><ele>519.5</ele><time>2026-03-29T11:17:34.814Z</time></trkpt><trkpt lat="39.3758469" lon="16.886642"><ele>518.6666666666667</ele><time>2026-03-29T11:17:35.794Z</time></trkpt><trkpt lat="39.3759079" lon="16.8865481"><ele>517.8333333333334</ele><time>2026-03-29T11:17:37.799Z</time></trkpt><trkpt lat="39.3759662" lon="16.8864834"><ele>517.0</ele><time>2026-03-29T11:17:39.798Z</time></trkpt><trkpt lat="39.3760649" lon="16.8864042"><ele>517.0</ele><time>2026-03-29T11:17:41.798Z</time></trkpt><trkpt lat="39.3761218" lon="16.8863581"><ele>517.0</ele><time>2026-03-29T11:17:42.792Z</time></trkpt><trkpt lat="39.3762286" lon="16.8862817"><ele>517.0</ele><time>2026-03-29T11:17:44.802Z</time></trkpt><trkpt lat="39.376314" lon="16.8862522"><ele>517.0</ele><time>2026-03-29T11:17:46.796Z</time></trkpt><trkpt lat="39.3764294" lon="16.8861815"><ele>517.0</ele><time>2026-03-29T11:17:48.789Z</time></trkpt><trkpt lat="39.376492" lon="16.8861227"><ele>516.1666666666667</ele><time>2026-03-29T11:17:49.795Z</time></trkpt><trkpt lat="39.3765465" lon="16.8860572"><ele>515.3333333333334</ele><time>2026-03-29T11:17:50.805Z</time></trkpt><trkpt lat="39.3766157" lon="16.8860168"><ele>514.5</ele><time>2026-03-29T11:17:51.799Z</time></trkpt><trkpt lat="39.3766918" lon="16.8859748"><ele>513.6666666666666</ele><time>2026-03-29T11:17:52.795Z</time></trkpt><trkpt lat="39.376773" lon="16.8859332"><ele>512.8333333333333</ele><time>2026-03-29T11:17:53.801Z</time></trkpt><trkpt lat="39.3768477" lon="16.8858971"><ele>512.0</ele><time>2026-03-29T11:17:54.799Z</time></trkpt><trkpt lat="39.376908" lon="16.8858536"><ele>512.0</ele><time>2026-03-29T11:17:55.799Z</time></trkpt><trkpt lat="39.376984" lon="16.8857319"><ele>512.0</ele><time>2026-03-29T11:17:57.792Z</time></trkpt><trkpt lat="39.3770196" lon="16.885639"><ele>512.0</ele><time>2026-03-29T11:17:58.784Z</time></trkpt><trkpt lat="39.377076" lon="16.885549"><ele>512.0</ele><time>2026-03-29T11:17:59.799Z</time></trkpt><trkpt lat="39.3771311" lon="16.8854563"><ele>512.0</ele><time>2026-03-29T11:18:00.784Z</time></trkpt><trkpt lat="39.3772064" lon="16.8853686"><ele>512.1666666666666</ele><time>2026-03-29T11:18:01.786Z</time></trkpt><trkpt lat="39.3772769" lon="16.8852925"><ele>512.3333333333333</ele><time>2026-03-29T11:18:02.796Z</time></trkpt><trkpt lat="39.3773404" lon="16.8852231"><ele>512.5</ele><time>2026-03-29T11:18:03.788Z</time></trkpt><trkpt lat="39.3774051" lon="16.8851635"><ele>512.6666666666666</ele><time>2026-03-29T11:18:04.786Z</time></trkpt><trkpt lat="39.3774746" lon="16.8851143"><ele>512.8333333333334</ele><time>2026-03-29T11:18:05.793Z</time></trkpt><trkpt lat="39.377548" lon="16.8850509"><ele>513.0</ele><time>2026-03-29T11:18:06.798Z</time></trkpt><trkpt lat="39.3776086" lon="16.8849782"><ele>513.0</ele><time>2026-03-29T11:18:07.799Z</time></trkpt><trkpt lat="39.377673" lon="16.8848977"><ele>513.0</ele><time>2026-03-29T11:18:08.794Z</time></trkpt><trkpt lat="39.377735" lon="16.8848087"><ele>513.0</ele><time>2026-03-29T11:18:09.792Z</time></trkpt><trkpt lat="39.3777735" lon="16.8847284"><ele>513.0</ele><time>2026-03-29T11:18:10.793Z</time></trkpt><trkpt lat="39.3778161" lon="16.8846489"><ele>513.0</ele><time>2026-03-29T11:18:11.806Z</time></trkpt><trkpt lat="39.3778805" lon="16.8845638"><ele>513.0</ele><time>2026-03-29T11:18:12.779Z</time></trkpt><trkpt lat="39.3779563" lon="16.8844835"><ele>512.8</ele><time>2026-03-29T11:18:13.792Z</time></trkpt><trkpt lat="39.378033" lon="16.8844202"><ele>512.5999999999999</ele><time>2026-03-29T11:18:14.792Z</time></trkpt><trkpt lat="39.3781124" lon="16.8843641"><ele>512.4000000000001</ele><time>2026-03-29T11:18:15.804Z</time></trkpt><trkpt lat="39.3782231" lon="16.8843163"><ele>512.2</ele><time>2026-03-29T11:18:16.802Z</time></trkpt><trkpt lat="39.378321" lon="16.8842788"><ele>512.0</ele><time>2026-03-29T11:18:17.793Z</time></trkpt><trkpt lat="39.3784158" lon="16.8842395"><ele>512.5</ele><time>2026-03-29T11:18:18.805Z</time></trkpt><trkpt lat="39.3784918" lon="16.8841772"><ele>513.0</ele><time>2026-03-29T11:18:19.793Z</time></trkpt><trkpt lat="39.3785597" lon="16.8840973"><ele>513.5</ele><time>2026-03-29T11:18:20.792Z</time></trkpt><trkpt lat="39.37861" lon="16.8840272"><ele>514.0</ele><time>2026-03-29T11:18:21.79Z</time></trkpt><trkpt lat="39.3786562" lon="16.8839688"><ele>514.5</ele><time>2026-03-29T11:18:22.793Z</time></trkpt><trkpt lat="39.3787079" lon="16.883908"><ele>515.0</ele><time>2026-03-29T11:18:23.791Z</time></trkpt><trkpt lat="39.3787645" lon="16.8838339"><ele>515.0</ele><time>2026-03-29T11:18:24.791Z</time></trkpt><trkpt lat="39.37884" lon="16.8837301"><ele>515.0</ele><time>2026-03-29T11:18:25.797Z</time></trkpt><trkpt lat="39.3789278" lon="16.8836073"><ele>515.0</ele><time>2026-03-29T11:18:26.806Z</time></trkpt><trkpt lat="39.379013" lon="16.8835116"><ele>515.0</ele><time>2026-03-29T11:18:27.799Z</time></trkpt><trkpt lat="39.3791041" lon="16.8834318"><ele>516.0</ele><time>2026-03-29T11:18:28.795Z</time></trkpt><trkpt lat="39.379177" lon="16.883358"><ele>517.0</ele><time>2026-03-29T11:18:29.8Z</time></trkpt><trkpt lat="39.3792443" lon="16.8832823"><ele>518.0</ele><time>2026-03-29T11:18:30.806Z</time></trkpt><trkpt lat="39.3793087" lon="16.8832103"><ele>519.0</ele><time>2026-03-29T11:18:31.812Z</time></trkpt><trkpt lat="39.3793849" lon="16.8831648"><ele>520.0</ele><time>2026-03-29T11:18:32.79Z</time></trkpt><trkpt lat="39.3794484" lon="16.8831193"><ele>521.0</ele><time>2026-03-29T11:18:33.79Z</time></trkpt><trkpt lat="39.3795306" lon="16.8830581"><ele>521.0</ele><time>2026-03-29T11:18:35.791Z</time></trkpt><trkpt lat="39.3795942" lon="16.8830064"><ele>521.0</ele><time>2026-03-29T11:18:37.772Z</time></trkpt><trkpt lat="39.3796735" lon="16.8829238"><ele>521.0</ele><time>2026-03-29T11:18:39.794Z</time></trkpt><trkpt lat="39.3797277" lon="16.8828701"><ele>521.0</ele><time>2026-03-29T11:18:40.787Z</time></trkpt><trkpt lat="39.3797829" lon="16.8828138"><ele>521.0</ele><time>2026-03-29T11:18:41.81Z</time></trkpt><trkpt lat="39.3798397" lon="16.8827567"><ele>521.0</ele><time>2026-03-29T11:18:42.793Z</time></trkpt><trkpt lat="39.379907" lon="16.8827089"><ele>521.6666666666666</ele><time>2026-03-29T11:18:43.806Z</time></trkpt><trkpt lat="39.3799814" lon="16.8826695"><ele>522.3333333333333</ele><time>2026-03-29T11:18:44.802Z</time></trkpt><trkpt lat="39.380058" lon="16.8826195"><ele>523.0</ele><time>2026-03-29T11:18:45.8Z</time></trkpt><trkpt lat="39.3801361" lon="16.8825602"><ele>523.6666666666666</ele><time>2026-03-29T11:18:46.799Z</time></trkpt><trkpt lat="39.3802136" lon="16.8824953"><ele>524.3333333333334</ele><time>2026-03-29T11:18:47.789Z</time></trkpt><trkpt lat="39.3802866" lon="16.8824352"><ele>525.0</ele><time>2026-03-29T11:18:48.794Z</time></trkpt><trkpt lat="39.3803533" lon="16.8823661"><ele>525.0</ele><time>2026-03-29T11:18:49.796Z</time></trkpt><trkpt lat="39.3804203" lon="16.8823088"><ele>525.0</ele><time>2026-03-29T11:18:50.796Z</time></trkpt><trkpt lat="39.3804861" lon="16.882253"><ele>525.0</ele><time>2026-03-29T11:18:51.788Z</time></trkpt><trkpt lat="39.380549" lon="16.8822002"><ele>525.0</ele><time>2026-03-29T11:18:52.791Z</time></trkpt><trkpt lat="39.3806095" lon="16.8821334"><ele>525.0</ele><time>2026-03-29T11:18:53.802Z</time></trkpt><trkpt lat="39.3806657" lon="16.8820564"><ele>525.0</ele><time>2026-03-29T11:18:54.799Z</time></trkpt><trkpt lat="39.3807241" lon="16.8819675"><ele>526.4</ele><time>2026-03-29T11:18:55.795Z</time></trkpt><trkpt lat="39.3807744" lon="16.8818699"><ele>527.8</ele><time>2026-03-29T11:18:56.791Z</time></trkpt><trkpt lat="39.3808191" lon="16.8817464"><ele>529.2</ele><time>2026-03-29T11:18:57.793Z</time></trkpt><trkpt lat="39.380856" lon="16.8816235"><ele>530.6</ele><time>2026-03-29T11:18:58.797Z</time></trkpt><trkpt lat="39.3808868" lon="16.8815073"><ele>532.0</ele><time>2026-03-29T11:18:59.8Z</time></trkpt><trkpt lat="39.380919" lon="16.8813935"><ele>532.0</ele><time>2026-03-29T11:19:00.796Z</time></trkpt><trkpt lat="39.3809518" lon="16.8813062"><ele>532.0</ele><time>2026-03-29T11:19:01.803Z</time></trkpt><trkpt lat="39.3810062" lon="16.8811759"><ele>532.0</ele><time>2026-03-29T11:19:03.789Z</time></trkpt><trkpt lat="39.3810863" lon="16.8810603"><ele>532.0</ele><time>2026-03-29T11:19:05.794Z</time></trkpt><trkpt lat="39.3811572" lon="16.8810127"><ele>532.0</ele><time>2026-03-29T11:19:06.797Z</time></trkpt><trkpt lat="39.3812258" lon="16.8809671"><ele>530.8000000000001</ele><time>2026-03-29T11:19:07.796Z</time></trkpt><trkpt lat="39.3813137" lon="16.8809166"><ele>529.6</ele><time>2026-03-29T11:19:09.79Z</time></trkpt><trkpt lat="39.3813764" lon="16.8808757"><ele>528.4000000000001</ele><time>2026-03-29T11:19:11.789Z</time></trkpt><trkpt lat="39.3814819" lon="16.8808205"><ele>527.2</ele><time>2026-03-29T11:19:13.802Z</time></trkpt><trkpt lat="39.3815917" lon="16.8807297"><ele>526.0</ele><time>2026-03-29T11:19:15.795Z</time></trkpt><trkpt lat="39.3816495" lon="16.8806894"><ele>526.0</ele><time>2026-03-29T11:19:16.801Z</time></trkpt><trkpt lat="39.3817216" lon="16.8806629"><ele>526.0</ele><time>2026-03-29T11:19:17.801Z</time></trkpt><trkpt lat="39.381812" lon="16.8806413"><ele>526.0</ele><time>2026-03-29T11:19:18.794Z</time></trkpt><trkpt lat="39.3819042" lon="16.8806196"><ele>526.0</ele><time>2026-03-29T11:19:19.784Z</time></trkpt><trkpt lat="39.3820006" lon="16.8805773"><ele>526.0</ele><time>2026-03-29T11:19:20.804Z</time></trkpt><trkpt lat="39.3820935" lon="16.880541"><ele>526.0</ele><time>2026-03-29T11:19:21.794Z</time></trkpt><trkpt lat="39.3821794" lon="16.8805228"><ele>526.0</ele><time>2026-03-29T11:19:22.786Z</time></trkpt><trkpt lat="39.3822563" lon="16.8805073"><ele>526.0</ele><time>2026-03-29T11:19:23.804Z</time></trkpt><trkpt lat="39.3823216" lon="16.8804762"><ele>526.0</ele><time>2026-03-29T11:19:24.799Z</time></trkpt><trkpt lat="39.38239" lon="16.8804442"><ele>526.0</ele><time>2026-03-29T11:19:25.808Z</time></trkpt><trkpt lat="39.3824704" lon="16.8803784"><ele>526.0</ele><time>2026-03-29T11:19:26.795Z</time></trkpt><trkpt lat="39.3825493" lon="16.880314"><ele>526.8</ele><time>2026-03-29T11:19:27.787Z</time></trkpt><trkpt lat="39.3826417" lon="16.8802682"><ele>527.6</ele><time>2026-03-29T11:19:28.795Z</time></trkpt><trkpt lat="39.3827397" lon="16.8802345"><ele>528.4</ele><time>2026-03-29T11:19:29.802Z</time></trkpt><trkpt lat="39.382842" lon="16.8802036"><ele>529.2</ele><time>2026-03-29T11:19:30.798Z</time></trkpt><trkpt lat="39.3829478" lon="16.8801822"><ele>530.0</ele><time>2026-03-29T11:19:31.795Z</time></trkpt><trkpt lat="39.3830457" lon="16.8801653"><ele>530.0</ele><time>2026-03-29T11:19:32.79Z</time></trkpt><trkpt lat="39.3831438" lon="16.8801569"><ele>530.0</ele><time>2026-03-29T11:19:33.791Z</time></trkpt><trkpt lat="39.3832522" lon="16.88015"><ele>530.0</ele><time>2026-03-29T11:19:34.792Z</time></trkpt><trkpt lat="39.3833569" lon="16.8801382"><ele>530.0</ele><time>2026-03-29T11:19:35.806Z</time></trkpt><trkpt lat="39.3834499" lon="16.8801247"><ele>530.0</ele><time>2026-03-29T11:19:36.795Z</time></trkpt><trkpt lat="39.383539" lon="16.8801118"><ele>530.0</ele><time>2026-03-29T11:19:37.798Z</time></trkpt><trkpt lat="39.3836096" lon="16.880095"><ele>530.0</ele><time>2026-03-29T11:19:38.787Z</time></trkpt><trkpt lat="39.383697" lon="16.8800829"><ele>530.0</ele><time>2026-03-29T11:19:40.794Z</time></trkpt><trkpt lat="39.3837767" lon="16.8800727"><ele>530.0</ele><time>2026-03-29T11:19:44.79Z</time></trkpt><trkpt lat="39.3838422" lon="16.8800726"><ele>530.0</ele><time>2026-03-29T11:19:46.788Z</time></trkpt><trkpt lat="39.383925" lon="16.8800716"><ele>530.0</ele><time>2026-03-29T11:19:48.789Z</time></trkpt><trkpt lat="39.3840291" lon="16.8800764"><ele>530.0</ele><time>2026-03-29T11:19:50.79Z</time></trkpt><trkpt lat="39.3841011" lon="16.8800779"><ele>530.0</ele><time>2026-03-29T11:19:51.789Z</time></trkpt><trkpt lat="39.3841874" lon="16.8800782"><ele>530.0</ele><time>2026-03-29T11:19:52.786Z</time></trkpt><trkpt lat="39.3842854" lon="16.8800774"><ele>530.0</ele><time>2026-03-29T11:19:53.788Z</time></trkpt><trkpt lat="39.3843883" lon="16.8800696"><ele>530.0</ele><time>2026-03-29T11:19:54.787Z</time></trkpt><trkpt lat="39.3844935" lon="16.8800621"><ele>530.0</ele><time>2026-03-29T11:19:55.79Z</time></trkpt><trkpt lat="39.3846019" lon="16.8800534"><ele>530.0</ele><time>2026-03-29T11:19:56.793Z</time></trkpt><trkpt lat="39.3846987" lon="16.8800513"><ele>530.0</ele><time>2026-03-29T11:19:57.794Z</time></trkpt><trkpt lat="39.3847926" lon="16.8800462"><ele>530.0</ele><time>2026-03-29T11:19:58.797Z</time></trkpt><trkpt lat="39.3848896" lon="16.8800375"><ele>530.0</ele><time>2026-03-29T11:19:59.785Z</time></trkpt><trkpt lat="39.3849889" lon="16.88002"><ele>528.8333333333333</ele><time>2026-03-29T11:20:00.786Z</time></trkpt><trkpt lat="39.3850797" lon="16.8799937"><ele>527.6666666666666</ele><time>2026-03-29T11:20:01.785Z</time></trkpt><trkpt lat="39.3851713" lon="16.8799687"><ele>526.5</ele><time>2026-03-29T11:20:02.791Z</time></trkpt><trkpt lat="39.3852588" lon="16.8799561"><ele>525.3333333333334</ele><time>2026-03-29T11:20:03.784Z</time></trkpt><trkpt lat="39.385337" lon="16.8799496"><ele>524.1666666666667</ele><time>2026-03-29T11:20:04.784Z</time></trkpt><trkpt lat="39.3854197" lon="16.8799315"><ele>523.0</ele><time>2026-03-29T11:20:05.789Z</time></trkpt><trkpt lat="39.3855067" lon="16.8799139"><ele>521.8333333333334</ele><time>2026-03-29T11:20:06.787Z</time></trkpt><trkpt lat="39.3855987" lon="16.8799046"><ele>520.6666666666667</ele><time>2026-03-29T11:20:07.79Z</time></trkpt><trkpt lat="39.3856726" lon="16.8798891"><ele>519.5</ele><time>2026-03-29T11:20:08.787Z</time></trkpt><trkpt lat="39.3857605" lon="16.8798431"><ele>518.3333333333334</ele><time>2026-03-29T11:20:10.798Z</time></trkpt><trkpt lat="39.3858557" lon="16.8797784"><ele>517.1666666666666</ele><time>2026-03-29T11:20:12.798Z</time></trkpt><trkpt lat="39.3859221" lon="16.8797214"><ele>516.0</ele><time>2026-03-29T11:20:14.794Z</time></trkpt><trkpt lat="39.3859989" lon="16.8796603"><ele>516.0</ele><time>2026-03-29T11:20:16.794Z</time></trkpt><trkpt lat="39.386064" lon="16.8796074"><ele>516.0</ele><time>2026-03-29T11:20:18.794Z</time></trkpt><trkpt lat="39.3861249" lon="16.8795611"><ele>516.0</ele><time>2026-03-29T11:20:23.786Z</time></trkpt><trkpt lat="39.3861828" lon="16.8795185"><ele>516.0</ele><time>2026-03-29T11:20:26.791Z</time></trkpt><trkpt lat="39.3862408" lon="16.8794368"><ele>516.0</ele><time>2026-03-29T11:20:28.775Z</time></trkpt><trkpt lat="39.386302" lon="16.8793833"><ele>516.0</ele><time>2026-03-29T11:20:30.776Z</time></trkpt><trkpt lat="39.3863816" lon="16.879314"><ele>515.3333333333334</ele><time>2026-03-29T11:20:32.807Z</time></trkpt><trkpt lat="39.3864877" lon="16.8792264"><ele>514.6666666666666</ele><time>2026-03-29T11:20:34.797Z</time></trkpt><trkpt lat="39.3865504" lon="16.8791731"><ele>514.0</ele><time>2026-03-29T11:20:35.803Z</time></trkpt><trkpt lat="39.3866111" lon="16.8791201"><ele>513.3333333333333</ele><time>2026-03-29T11:20:36.796Z</time></trkpt><trkpt lat="39.3866713" lon="16.8790678"><ele>512.6666666666666</ele><time>2026-03-29T11:20:37.794Z</time></trkpt><trkpt lat="39.3867399" lon="16.8790245"><ele>512.0</ele><time>2026-03-29T11:20:38.791Z</time></trkpt><trkpt lat="39.3868068" lon="16.8789865"><ele>512.0</ele><time>2026-03-29T11:20:39.789Z</time></trkpt><trkpt lat="39.3868698" lon="16.8789374"><ele>511.99999999999994</ele><time>2026-03-29T11:20:40.788Z</time></trkpt><trkpt lat="39.3869322" lon="16.8788783"><ele>512.0</ele><time>2026-03-29T11:20:41.789Z</time></trkpt><trkpt lat="39.3869881" lon="16.8788241"><ele>512.0</ele><time>2026-03-29T11:20:42.787Z</time></trkpt><trkpt lat="39.3870423" lon="16.8787751"><ele>511.99999999999994</ele><time>2026-03-29T11:20:43.783Z</time></trkpt><trkpt lat="39.3871019" lon="16.878721"><ele>512.0</ele><time>2026-03-29T11:20:44.796Z</time></trkpt><trkpt lat="39.3871724" lon="16.8786795"><ele>512.0</ele><time>2026-03-29T11:20:45.791Z</time></trkpt><trkpt lat="39.3872433" lon="16.8786554"><ele>511.16666666666663</ele><time>2026-03-29T11:20:46.793Z</time></trkpt><trkpt lat="39.3873137" lon="16.8786399"><ele>510.3333333333333</ele><time>2026-03-29T11:20:47.789Z</time></trkpt><trkpt lat="39.3873806" lon="16.8786131"><ele>509.5</ele><time>2026-03-29T11:20:48.79Z</time></trkpt><trkpt lat="39.3874508" lon="16.8785835"><ele>508.66666666666663</ele><time>2026-03-29T11:20:49.797Z</time></trkpt><trkpt lat="39.3875129" lon="16.8785458"><ele>507.8333333333333</ele><time>2026-03-29T11:20:50.812Z</time></trkpt><trkpt lat="39.3875766" lon="16.8785114"><ele>507.0</ele><time>2026-03-29T11:20:51.79Z</time></trkpt><trkpt lat="39.3876903" lon="16.878483"><ele>507.0</ele><time>2026-03-29T11:20:53.787Z</time></trkpt><trkpt lat="39.3877655" lon="16.8784686"><ele>507.0</ele><time>2026-03-29T11:20:55.8Z</time></trkpt><trkpt lat="39.3878406" lon="16.8784402"><ele>507.0</ele><time>2026-03-29T11:20:57.791Z</time></trkpt><trkpt lat="39.3879063" lon="16.8784233"><ele>507.0</ele><time>2026-03-29T11:20:58.798Z</time></trkpt><trkpt lat="39.3879804" lon="16.878411"><ele>507.0</ele><time>2026-03-29T11:20:59.792Z</time></trkpt><trkpt lat="39.388043" lon="16.8783973"><ele>507.0</ele><time>2026-03-29T11:21:00.789Z</time></trkpt><trkpt lat="39.3881162" lon="16.8783519"><ele>507.0</ele><time>2026-03-29T11:21:02.791Z</time></trkpt><trkpt lat="39.388195" lon="16.8783108"><ele>504.1666666666667</ele><time>2026-03-29T11:21:04.786Z</time></trkpt><trkpt lat="39.388274" lon="16.8783111"><ele>501.33333333333337</ele><time>2026-03-29T11:21:05.787Z</time></trkpt><trkpt lat="39.3883527" lon="16.8783275"><ele>498.5</ele><time>2026-03-29T11:21:06.802Z</time></trkpt><trkpt lat="39.3884249" lon="16.8783455"><ele>495.6666666666667</ele><time>2026-03-29T11:21:07.801Z</time></trkpt><trkpt lat="39.3885019" lon="16.8783574"><ele>492.83333333333337</ele><time>2026-03-29T11:21:08.796Z</time></trkpt><trkpt lat="39.3885886" lon="16.8783662"><ele>490.0</ele><time>2026-03-29T11:21:09.794Z</time></trkpt><trkpt lat="39.3886722" lon="16.8783831"><ele>490.00000000000006</ele><time>2026-03-29T11:21:10.793Z</time></trkpt><trkpt lat="39.3887487" lon="16.8784031"><ele>490.0</ele><time>2026-03-29T11:21:11.801Z</time></trkpt><trkpt lat="39.3888263" lon="16.8784244"><ele>490.0</ele><time>2026-03-29T11:21:12.785Z</time></trkpt><trkpt lat="39.3889002" lon="16.8784557"><ele>490.0</ele><time>2026-03-29T11:21:13.795Z</time></trkpt><trkpt lat="39.3889597" lon="16.8784848"><ele>490.00000000000006</ele><time>2026-03-29T11:21:14.79Z</time></trkpt><trkpt lat="39.3890336" lon="16.8784679"><ele>490.0</ele><time>2026-03-29T11:21:16.786Z</time></trkpt><trkpt lat="39.3890717" lon="16.8783561"><ele>488.0</ele><time>2026-03-29T11:21:18.786Z</time></trkpt><trkpt lat="39.389132" lon="16.8783846"><ele>486.0</ele><time>2026-03-29T11:21:22.771Z</time></trkpt><trkpt lat="39.3892002" lon="16.8783871"><ele>484.0</ele><time>2026-03-29T11:21:24.794Z</time></trkpt><trkpt lat="39.3893212" lon="16.8783088"><ele>482.0</ele><time>2026-03-29T11:21:26.792Z</time></trkpt><trkpt lat="39.3894068" lon="16.8782326"><ele>480.0</ele><time>2026-03-29T11:21:27.792Z</time></trkpt><trkpt lat="39.3894882" lon="16.8781826"><ele>480.0</ele><time>2026-03-29T11:21:28.782Z</time></trkpt><trkpt lat="39.3895804" lon="16.8781671"><ele>480.0</ele><time>2026-03-29T11:21:29.799Z</time></trkpt><trkpt lat="39.3896915" lon="16.8781888"><ele>480.0</ele><time>2026-03-29T11:21:30.788Z</time></trkpt><trkpt lat="39.3898074" lon="16.8782122"><ele>480.0</ele><time>2026-03-29T11:21:31.792Z</time></trkpt><trkpt lat="39.3899252" lon="16.8782255"><ele>480.0</ele><time>2026-03-29T11:21:32.787Z</time></trkpt><trkpt lat="39.3900244" lon="16.878192"><ele>479.6666666666667</ele><time>2026-03-29T11:21:33.8Z</time></trkpt><trkpt lat="39.3900932" lon="16.8781631"><ele>479.33333333333337</ele><time>2026-03-29T11:21:34.821Z</time></trkpt><trkpt lat="39.390179" lon="16.878139"><ele>479.0</ele><time>2026-03-29T11:21:36.788Z</time></trkpt><trkpt lat="39.3902804" lon="16.8782126"><ele>478.6666666666667</ele><time>2026-03-29T11:21:38.786Z</time></trkpt><trkpt lat="39.3903335" lon="16.8782702"><ele>478.33333333333337</ele><time>2026-03-29T11:21:39.805Z</time></trkpt><trkpt lat="39.390389" lon="16.8783577"><ele>478.0</ele><time>2026-03-29T11:21:40.8Z</time></trkpt><trkpt lat="39.3904667" lon="16.8784559"><ele>478.6666666666667</ele><time>2026-03-29T11:21:41.802Z</time></trkpt><trkpt lat="39.390539" lon="16.8785448"><ele>479.33333333333337</ele><time>2026-03-29T11:21:42.802Z</time></trkpt><trkpt lat="39.3906193" lon="16.8786038"><ele>480.0</ele><time>2026-03-29T11:21:43.802Z</time></trkpt><trkpt lat="39.3906967" lon="16.8786662"><ele>480.66666666666663</ele><time>2026-03-29T11:21:44.786Z</time></trkpt><trkpt lat="39.3907512" lon="16.8787364"><ele>481.3333333333333</ele><time>2026-03-29T11:21:45.794Z</time></trkpt><trkpt lat="39.3907971" lon="16.878811"><ele>482.0</ele><time>2026-03-29T11:21:46.789Z</time></trkpt><trkpt lat="39.3908214" lon="16.8789148"><ele>482.0</ele><time>2026-03-29T11:21:47.791Z</time></trkpt><trkpt lat="39.3908596" lon="16.8790186"><ele>482.00000000000006</ele><time>2026-03-29T11:21:48.801Z</time></trkpt><trkpt lat="39.3909167" lon="16.8791136"><ele>482.00000000000006</ele><time>2026-03-29T11:21:49.792Z</time></trkpt><trkpt lat="39.3909863" lon="16.8791933"><ele>482.0</ele><time>2026-03-29T11:21:50.794Z</time></trkpt><trkpt lat="39.3910645" lon="16.8792513"><ele>482.0</ele><time>2026-03-29T11:21:51.806Z</time></trkpt><trkpt lat="39.3911428" lon="16.8793149"><ele>482.40000000000003</ele><time>2026-03-29T11:21:52.78Z</time></trkpt><trkpt lat="39.3912224" lon="16.8793955"><ele>482.80000000000007</ele><time>2026-03-29T11:21:53.792Z</time></trkpt><trkpt lat="39.3913056" lon="16.8794825"><ele>483.2</ele><time>2026-03-29T11:21:54.797Z</time></trkpt><trkpt lat="39.3913774" lon="16.8795758"><ele>483.6</ele><time>2026-03-29T11:21:55.791Z</time></trkpt><trkpt lat="39.3914417" lon="16.8796497"><ele>484.0</ele><time>2026-03-29T11:21:56.796Z</time></trkpt><trkpt lat="39.3914894" lon="16.8797209"><ele>484.00000000000006</ele><time>2026-03-29T11:21:57.787Z</time></trkpt><trkpt lat="39.3915359" lon="16.8797774"><ele>484.0</ele><time>2026-03-29T11:21:58.793Z</time></trkpt><trkpt lat="39.3916386" lon="16.8798316"><ele>484.0</ele><time>2026-03-29T11:22:00.794Z</time></trkpt><trkpt lat="39.391707" lon="16.8798336"><ele>484.0</ele><time>2026-03-29T11:22:01.798Z</time></trkpt><trkpt lat="39.3917875" lon="16.8798291"><ele>484.00000000000006</ele><time>2026-03-29T11:22:02.782Z</time></trkpt><trkpt lat="39.3918782" lon="16.8798254"><ele>484.0</ele><time>2026-03-29T11:22:03.793Z</time></trkpt><trkpt lat="39.3919659" lon="16.8798272"><ele>484.00000000000006</ele><time>2026-03-29T11:22:04.786Z</time></trkpt><trkpt lat="39.3920356" lon="16.879827"><ele>484.0</ele><time>2026-03-29T11:22:05.794Z</time></trkpt><trkpt lat="39.3921292" lon="16.8798228"><ele>484.0</ele><time>2026-03-29T11:22:07.801Z</time></trkpt><trkpt lat="39.3920942" lon="16.8799376"><ele>484.0</ele><time>2026-03-29T11:22:10.786Z</time></trkpt><trkpt lat="39.3920376" lon="16.8799774"><ele>484.00000000000006</ele><time>2026-03-29T11:22:11.784Z</time></trkpt><trkpt lat="39.3919857" lon="16.8800443"><ele>484.0</ele><time>2026-03-29T11:22:12.784Z</time></trkpt><trkpt lat="39.3919448" lon="16.8801421"><ele>483.6</ele><time>2026-03-29T11:22:13.791Z</time></trkpt><trkpt lat="39.3919253" lon="16.8802667"><ele>483.2</ele><time>2026-03-29T11:22:14.798Z</time></trkpt><trkpt lat="39.3919229" lon="16.8804138"><ele>482.80000000000007</ele><time>2026-03-29T11:22:15.788Z</time></trkpt><trkpt lat="39.3919219" lon="16.8805621"><ele>482.40000000000003</ele><time>2026-03-29T11:22:16.787Z</time></trkpt><trkpt lat="39.3919427" lon="16.8806899"><ele>482.0</ele><time>2026-03-29T11:22:17.804Z</time></trkpt><trkpt lat="39.3919691" lon="16.880831"><ele>481.3333333333333</ele><time>2026-03-29T11:22:18.793Z</time></trkpt><trkpt lat="39.3920216" lon="16.8809621"><ele>480.66666666666663</ele><time>2026-03-29T11:22:19.788Z</time></trkpt><trkpt lat="39.392062" lon="16.8810628"><ele>480.0</ele><time>2026-03-29T11:22:20.794Z</time></trkpt><trkpt lat="39.3921078" lon="16.8811283"><ele>479.33333333333337</ele><time>2026-03-29T11:22:21.796Z</time></trkpt><trkpt lat="39.3921574" lon="16.8811991"><ele>478.6666666666667</ele><time>2026-03-29T11:22:22.787Z</time></trkpt><trkpt lat="39.3922366" lon="16.8812663"><ele>478.0</ele><time>2026-03-29T11:22:23.798Z</time></trkpt><trkpt lat="39.392302" lon="16.8813453"><ele>480.6666666666667</ele><time>2026-03-29T11:22:24.793Z</time></trkpt><trkpt lat="39.3923745" lon="16.8814043"><ele>483.33333333333337</ele><time>2026-03-29T11:22:25.795Z</time></trkpt><trkpt lat="39.3924511" lon="16.8814585"><ele>486.0</ele><time>2026-03-29T11:22:26.799Z</time></trkpt><trkpt lat="39.3925328" lon="16.8814522"><ele>488.66666666666663</ele><time>2026-03-29T11:22:27.794Z</time></trkpt><trkpt lat="39.3926018" lon="16.8814647"><ele>491.3333333333333</ele><time>2026-03-29T11:22:28.782Z</time></trkpt><trkpt lat="39.3926809" lon="16.8815356"><ele>494.0</ele><time>2026-03-29T11:22:30.79Z</time></trkpt><trkpt lat="39.3926874" lon="16.8816321"><ele>493.99999999999994</ele><time>2026-03-29T11:22:31.785Z</time></trkpt><trkpt lat="39.3927161" lon="16.8817414"><ele>494.0</ele><time>2026-03-29T11:22:32.788Z</time></trkpt><trkpt lat="39.3927415" lon="16.8818527"><ele>494.0</ele><time>2026-03-29T11:22:33.792Z</time></trkpt><trkpt lat="39.3927617" lon="16.8819462"><ele>494.0</ele><time>2026-03-29T11:22:34.797Z</time></trkpt><trkpt lat="39.3927269" lon="16.882028"><ele>493.99999999999994</ele><time>2026-03-29T11:22:35.799Z</time></trkpt><trkpt lat="39.3926649" lon="16.8821061"><ele>494.0</ele><time>2026-03-29T11:22:36.782Z</time></trkpt><trkpt lat="39.3926018" lon="16.8821871"><ele>493.49999999999994</ele><time>2026-03-29T11:22:37.784Z</time></trkpt><trkpt lat="39.3925332" lon="16.8822587"><ele>493.0</ele><time>2026-03-29T11:22:38.793Z</time></trkpt><trkpt lat="39.3924787" lon="16.8823496"><ele>492.5</ele><time>2026-03-29T11:22:39.788Z</time></trkpt><trkpt lat="39.3924239" lon="16.88243"><ele>492.0</ele><time>2026-03-29T11:22:40.79Z</time></trkpt><trkpt lat="39.3923606" lon="16.8825131"><ele>491.49999999999994</ele><time>2026-03-29T11:22:41.795Z</time></trkpt><trkpt lat="39.3922957" lon="16.8826087"><ele>491.0</ele><time>2026-03-29T11:22:42.774Z</time></trkpt><trkpt lat="39.3922263" lon="16.8826982"><ele>488.99999999999994</ele><time>2026-03-29T11:22:43.793Z</time></trkpt><trkpt lat="39.3921611" lon="16.8827705"><ele>487.0</ele><time>2026-03-29T11:22:44.8Z</time></trkpt><trkpt lat="39.3921047" lon="16.8828373"><ele>485.0</ele><time>2026-03-29T11:22:45.789Z</time></trkpt><trkpt lat="39.3920692" lon="16.8829118"><ele>483.0</ele><time>2026-03-29T11:22:46.794Z</time></trkpt><trkpt lat="39.3920621" lon="16.8830105"><ele>480.99999999999994</ele><time>2026-03-29T11:22:47.785Z</time></trkpt><trkpt lat="39.3920827" lon="16.883115"><ele>479.0</ele><time>2026-03-29T11:22:48.788Z</time></trkpt><trkpt lat="39.3921162" lon="16.8832096"><ele>478.99999999999994</ele><time>2026-03-29T11:22:49.796Z</time></trkpt><trkpt lat="39.3921312" lon="16.883304"><ele>479.0</ele><time>2026-03-29T11:22:50.793Z</time></trkpt><trkpt lat="39.3921459" lon="16.8833935"><ele>479.0</ele><time>2026-03-29T11:22:51.786Z</time></trkpt><trkpt lat="39.3921219" lon="16.8834895"><ele>479.0</ele><time>2026-03-29T11:22:52.795Z</time></trkpt><trkpt lat="39.392068" lon="16.8836029"><ele>478.99999999999994</ele><time>2026-03-29T11:22:53.795Z</time></trkpt><trkpt lat="39.3920195" lon="16.8837212"><ele>479.0</ele><time>2026-03-29T11:22:54.789Z</time></trkpt><trkpt lat="39.3919818" lon="16.883848"><ele>478.49999999999994</ele><time>2026-03-29T11:22:55.787Z</time></trkpt><trkpt lat="39.3919446" lon="16.8839774"><ele>478.0</ele><time>2026-03-29T11:22:56.801Z</time></trkpt><trkpt lat="39.3919222" lon="16.8841037"><ele>477.5</ele><time>2026-03-29T11:22:57.783Z</time></trkpt><trkpt lat="39.3918929" lon="16.8842086"><ele>477.0</ele><time>2026-03-29T11:22:58.796Z</time></trkpt><trkpt lat="39.3918595" lon="16.8842977"><ele>476.49999999999994</ele><time>2026-03-29T11:22:59.795Z</time></trkpt><trkpt lat="39.3918285" lon="16.8843872"><ele>476.0</ele><time>2026-03-29T11:23:00.803Z</time></trkpt><trkpt lat="39.3918062" lon="16.8844703"><ele>474.66666666666663</ele><time>2026-03-29T11:23:01.785Z</time></trkpt><trkpt lat="39.3917701" lon="16.8846162"><ele>473.3333333333333</ele><time>2026-03-29T11:23:03.801Z</time></trkpt><trkpt lat="39.3917357" lon="16.8847466"><ele>472.0</ele><time>2026-03-29T11:23:05.798Z</time></trkpt><trkpt lat="39.3917139" lon="16.8848257"><ele>470.66666666666663</ele><time>2026-03-29T11:23:06.797Z</time></trkpt><trkpt lat="39.3916932" lon="16.8849074"><ele>469.3333333333333</ele><time>2026-03-29T11:23:07.794Z</time></trkpt><trkpt lat="39.3916716" lon="16.8849851"><ele>468.0</ele><time>2026-03-29T11:23:08.789Z</time></trkpt><trkpt lat="39.391649" lon="16.8850747"><ele>465.59999999999997</ele><time>2026-03-29T11:23:09.793Z</time></trkpt><trkpt lat="39.3916216" lon="16.8851789"><ele>463.19999999999993</ele><time>2026-03-29T11:23:10.79Z</time></trkpt><trkpt lat="39.3915788" lon="16.885306"><ele>460.8</ele><time>2026-03-29T11:23:11.796Z</time></trkpt><trkpt lat="39.3915396" lon="16.8854238"><ele>458.4</ele><time>2026-03-29T11:23:12.791Z</time></trkpt><trkpt lat="39.3915078" lon="16.8855248"><ele>456.0</ele><time>2026-03-29T11:23:13.791Z</time></trkpt><trkpt lat="39.391475" lon="16.8856193"><ele>456.0</ele><time>2026-03-29T11:23:14.799Z</time></trkpt><trkpt lat="39.3914483" lon="16.8857208"><ele>456.0</ele><time>2026-03-29T11:23:15.782Z</time></trkpt><trkpt lat="39.3914185" lon="16.88582"><ele>456.0</ele><time>2026-03-29T11:23:16.79Z</time></trkpt><trkpt lat="39.3913893" lon="16.8859159"><ele>456.0</ele><time>2026-03-29T11:23:17.804Z</time></trkpt><trkpt lat="39.3913608" lon="16.8860103"><ele>456.0</ele><time>2026-03-29T11:23:18.794Z</time></trkpt><trkpt lat="39.3913395" lon="16.8861026"><ele>456.0</ele><time>2026-03-29T11:23:19.791Z</time></trkpt><trkpt lat="39.3913305" lon="16.8861972"><ele>452.6</ele><time>2026-03-29T11:23:20.804Z</time></trkpt><trkpt lat="39.3913236" lon="16.8863095"><ele>449.20000000000005</ele><time>2026-03-29T11:23:21.789Z</time></trkpt><trkpt lat="39.3913138" lon="16.8864378"><ele>445.79999999999995</ele><time>2026-03-29T11:23:22.786Z</time></trkpt><trkpt lat="39.3913038" lon="16.8865656"><ele>442.4</ele><time>2026-03-29T11:23:23.794Z</time></trkpt><trkpt lat="39.3912967" lon="16.8867019"><ele>439.0</ele><time>2026-03-29T11:23:24.807Z</time></trkpt><trkpt lat="39.3912875" lon="16.8868502"><ele>439.00000000000006</ele><time>2026-03-29T11:23:25.793Z</time></trkpt><trkpt lat="39.391283" lon="16.8869803"><ele>439.0</ele><time>2026-03-29T11:23:26.78Z</time></trkpt><trkpt lat="39.3912751" lon="16.8870925"><ele>439.0</ele><time>2026-03-29T11:23:27.798Z</time></trkpt><trkpt lat="39.3912519" lon="16.887207"><ele>439.0</ele><time>2026-03-29T11:23:28.809Z</time></trkpt><trkpt lat="39.3912234" lon="16.8873122"><ele>439.00000000000006</ele><time>2026-03-29T11:23:29.789Z</time></trkpt><trkpt lat="39.3911933" lon="16.8874048"><ele>439.0</ele><time>2026-03-29T11:23:30.796Z</time></trkpt><trkpt lat="39.3911549" lon="16.8874893"><ele>439.00000000000006</ele><time>2026-03-29T11:23:31.79Z</time></trkpt><trkpt lat="39.3911201" lon="16.8875803"><ele>439.0</ele><time>2026-03-29T11:23:32.788Z</time></trkpt><trkpt lat="39.3910892" lon="16.8876762"><ele>439.0</ele><time>2026-03-29T11:23:33.796Z</time></trkpt><trkpt lat="39.3910512" lon="16.8877855"><ele>439.0</ele><time>2026-03-29T11:23:34.815Z</time></trkpt><trkpt lat="39.3910193" lon="16.8878943"><ele>439.00000000000006</ele><time>2026-03-29T11:23:35.787Z</time></trkpt><trkpt lat="39.3909912" lon="16.8879911"><ele>439.0</ele><time>2026-03-29T11:23:36.794Z</time></trkpt><trkpt lat="39.3909702" lon="16.8880905"><ele>438.42857142857144</ele><time>2026-03-29T11:23:37.79Z</time></trkpt><trkpt lat="39.3909599" lon="16.8881925"><ele>437.85714285714283</ele><time>2026-03-29T11:23:38.802Z</time></trkpt><trkpt lat="39.3909398" lon="16.888287"><ele>437.28571428571433</ele><time>2026-03-29T11:23:39.814Z</time></trkpt><trkpt lat="39.3909161" lon="16.888382"><ele>436.7142857142857</ele><time>2026-03-29T11:23:40.79Z</time></trkpt><trkpt lat="39.3908916" lon="16.8884749"><ele>436.14285714285717</ele><time>2026-03-29T11:23:41.797Z</time></trkpt><trkpt lat="39.3908627" lon="16.8885587"><ele>435.5714285714286</ele><time>2026-03-29T11:23:42.791Z</time></trkpt><trkpt lat="39.3908346" lon="16.8886408"><ele>435.0</ele><time>2026-03-29T11:23:43.79Z</time></trkpt><trkpt lat="39.3908117" lon="16.8887206"><ele>432.5</ele><time>2026-03-29T11:23:44.785Z</time></trkpt><trkpt lat="39.3907991" lon="16.8888178"><ele>430.0</ele><time>2026-03-29T11:23:45.791Z</time></trkpt><trkpt lat="39.3907774" lon="16.8889289"><ele>427.5</ele><time>2026-03-29T11:23:46.794Z</time></trkpt><trkpt lat="39.3907464" lon="16.8890253"><ele>425.0</ele><time>2026-03-29T11:23:47.795Z</time></trkpt><trkpt lat="39.3907046" lon="16.8891008"><ele>422.5</ele><time>2026-03-29T11:23:48.797Z</time></trkpt><trkpt lat="39.3906602" lon="16.8891836"><ele>420.0</ele><time>2026-03-29T11:23:49.788Z</time></trkpt><trkpt lat="39.3906" lon="16.88926"><ele>418.1666666666667</ele><time>2026-03-29T11:23:50.799Z</time></trkpt><trkpt lat="39.3905386" lon="16.8893357"><ele>416.33333333333337</ele><time>2026-03-29T11:23:51.79Z</time></trkpt><trkpt lat="39.3904762" lon="16.8894117"><ele>414.5</ele><time>2026-03-29T11:23:52.797Z</time></trkpt><trkpt lat="39.3904036" lon="16.88947"><ele>412.6666666666667</ele><time>2026-03-29T11:23:53.809Z</time></trkpt><trkpt lat="39.3903272" lon="16.8895301"><ele>410.83333333333337</ele><time>2026-03-29T11:23:54.792Z</time></trkpt><trkpt lat="39.3902356" lon="16.8895591"><ele>409.0</ele><time>2026-03-29T11:23:55.792Z</time></trkpt><trkpt lat="39.3901438" lon="16.8895717"><ele>409.00000000000006</ele><time>2026-03-29T11:23:56.79Z</time></trkpt><trkpt lat="39.3900611" lon="16.8895825"><ele>409.0</ele><time>2026-03-29T11:23:57.784Z</time></trkpt><trkpt lat="39.3899865" lon="16.8896064"><ele>409.0</ele><time>2026-03-29T11:23:58.79Z</time></trkpt><trkpt lat="39.389921" lon="16.8896259"><ele>409.0</ele><time>2026-03-29T11:23:59.798Z</time></trkpt><trkpt lat="39.3898531" lon="16.8896447"><ele>409.00000000000006</ele><time>2026-03-29T11:24:00.795Z</time></trkpt><trkpt lat="39.3897896" lon="16.8897589"><ele>409.0</ele><time>2026-03-29T11:24:02.807Z</time></trkpt><trkpt lat="39.3898316" lon="16.8898289"><ele>409.0</ele><time>2026-03-29T11:24:05.79Z</time></trkpt><trkpt lat="39.3899255" lon="16.8898368"><ele>409.0</ele><time>2026-03-29T11:24:09.792Z</time></trkpt><trkpt lat="39.3900081" lon="16.8898556"><ele>409.0</ele><time>2026-03-29T11:24:11.796Z</time></trkpt><trkpt lat="39.390121" lon="16.8898604"><ele>409.0</ele><time>2026-03-29T11:24:13.787Z</time></trkpt><trkpt lat="39.3902035" lon="16.8898609"><ele>409.0</ele><time>2026-03-29T11:24:14.775Z</time></trkpt><trkpt lat="39.3903116" lon="16.8898566"><ele>409.00000000000006</ele><time>2026-03-29T11:24:15.782Z</time></trkpt><trkpt lat="39.3904091" lon="16.8898635"><ele>409.0</ele><time>2026-03-29T11:24:16.789Z</time></trkpt><trkpt lat="39.3904883" lon="16.8898847"><ele>409.0</ele><time>2026-03-29T11:24:17.784Z</time></trkpt><trkpt lat="39.390563" lon="16.8899022"><ele>409.0</ele><time>2026-03-29T11:24:18.787Z</time></trkpt><trkpt lat="39.3906462" lon="16.8899086"><ele>409.00000000000006</ele><time>2026-03-29T11:24:19.802Z</time></trkpt><trkpt lat="39.3907222" lon="16.8899028"><ele>409.0</ele><time>2026-03-29T11:24:20.785Z</time></trkpt><trkpt lat="39.3908026" lon="16.8898945"><ele>408.6666666666667</ele><time>2026-03-29T11:24:21.802Z</time></trkpt><trkpt lat="39.3908916" lon="16.8898649"><ele>408.33333333333337</ele><time>2026-03-29T11:24:22.795Z</time></trkpt><trkpt lat="39.3909718" lon="16.8898393"><ele>408.0</ele><time>2026-03-29T11:24:23.791Z</time></trkpt><trkpt lat="39.391038" lon="16.8898029"><ele>407.66666666666663</ele><time>2026-03-29T11:24:24.799Z</time></trkpt><trkpt lat="39.3911004" lon="16.8897565"><ele>407.3333333333333</ele><time>2026-03-29T11:24:25.788Z</time></trkpt><trkpt lat="39.3912047" lon="16.8896987"><ele>407.0</ele><time>2026-03-29T11:24:27.794Z</time></trkpt><trkpt lat="39.3912968" lon="16.8897289"><ele>406.99999999999994</ele><time>2026-03-29T11:24:29.795Z</time></trkpt><trkpt lat="39.391355" lon="16.8897665"><ele>407.0</ele><time>2026-03-29T11:24:30.793Z</time></trkpt><trkpt lat="39.3914134" lon="16.8898313"><ele>407.0</ele><time>2026-03-29T11:24:31.78Z</time></trkpt><trkpt lat="39.3914847" lon="16.8898662"><ele>407.0</ele><time>2026-03-29T11:24:32.781Z</time></trkpt><trkpt lat="39.3915949" lon="16.8898967"><ele>406.99999999999994</ele><time>2026-03-29T11:24:34.79Z</time></trkpt><trkpt lat="39.3916624" lon="16.8898917"><ele>407.0</ele><time>2026-03-29T11:24:35.793Z</time></trkpt><trkpt lat="39.39173" lon="16.8898679"><ele>407.00000000000006</ele><time>2026-03-29T11:24:36.795Z</time></trkpt><trkpt lat="39.3918091" lon="16.889851"><ele>407.0</ele><time>2026-03-29T11:24:37.791Z</time></trkpt><trkpt lat="39.3918926" lon="16.8898339"><ele>407.0</ele><time>2026-03-29T11:24:38.801Z</time></trkpt><trkpt lat="39.3919701" lon="16.8898062"><ele>407.0</ele><time>2026-03-29T11:24:39.788Z</time></trkpt><trkpt lat="39.3920395" lon="16.8897874"><ele>407.0</ele><time>2026-03-29T11:24:40.794Z</time></trkpt><trkpt lat="39.3921039" lon="16.8897706"><ele>407.00000000000006</ele><time>2026-03-29T11:24:41.781Z</time></trkpt><trkpt lat="39.3921702" lon="16.8897526"><ele>407.0</ele><time>2026-03-29T11:24:42.785Z</time></trkpt><trkpt lat="39.3922539" lon="16.8897277"><ele>410.0</ele><time>2026-03-29T11:24:43.798Z</time></trkpt><trkpt lat="39.3923408" lon="16.8897047"><ele>413.0</ele><time>2026-03-29T11:24:44.787Z</time></trkpt><trkpt lat="39.3924295" lon="16.8896874"><ele>416.0</ele><time>2026-03-29T11:24:45.783Z</time></trkpt><trkpt lat="39.3925329" lon="16.8896979"><ele>419.0</ele><time>2026-03-29T11:24:46.793Z</time></trkpt><trkpt lat="39.3926451" lon="16.889711"><ele>422.0</ele><time>2026-03-29T11:24:47.791Z</time></trkpt><trkpt lat="39.3927546" lon="16.8897235"><ele>422.0</ele><time>2026-03-29T11:24:48.786Z</time></trkpt><trkpt lat="39.3928507" lon="16.8897318"><ele>422.0</ele><time>2026-03-29T11:24:49.795Z</time></trkpt><trkpt lat="39.392941" lon="16.8897407"><ele>422.0</ele><time>2026-03-29T11:24:50.785Z</time></trkpt><trkpt lat="39.3930241" lon="16.8897747"><ele>422.0</ele><time>2026-03-29T11:24:51.788Z</time></trkpt><trkpt lat="39.3931077" lon="16.8898056"><ele>422.0</ele><time>2026-03-29T11:24:52.792Z</time></trkpt><trkpt lat="39.3931987" lon="16.8897794"><ele>424.0</ele><time>2026-03-29T11:24:53.791Z</time></trkpt><trkpt lat="39.3933015" lon="16.8897275"><ele>426.0</ele><time>2026-03-29T11:24:54.792Z</time></trkpt><trkpt lat="39.3934004" lon="16.8896663"><ele>428.00000000000006</ele><time>2026-03-29T11:24:55.789Z</time></trkpt><trkpt lat="39.3934932" lon="16.8896082"><ele>430.0</ele><time>2026-03-29T11:24:56.787Z</time></trkpt><trkpt lat="39.3935841" lon="16.8895748"><ele>432.0</ele><time>2026-03-29T11:24:57.796Z</time></trkpt><trkpt lat="39.3936559" lon="16.8895642"><ele>432.0</ele><time>2026-03-29T11:24:58.791Z</time></trkpt><trkpt lat="39.3937304" lon="16.8895806"><ele>432.00000000000006</ele><time>2026-03-29T11:24:59.808Z</time></trkpt><trkpt lat="39.3937984" lon="16.8896228"><ele>432.00000000000006</ele><time>2026-03-29T11:25:00.794Z</time></trkpt><trkpt lat="39.3938563" lon="16.889656"><ele>432.0</ele><time>2026-03-29T11:25:01.778Z</time></trkpt><trkpt lat="39.3940051" lon="16.8895999"><ele>432.0</ele><time>2026-03-29T11:25:03.79Z</time></trkpt><trkpt lat="39.3940916" lon="16.8895521"><ele>433.8</ele><time>2026-03-29T11:25:04.791Z</time></trkpt><trkpt lat="39.3941719" lon="16.8895181"><ele>435.6</ele><time>2026-03-29T11:25:05.785Z</time></trkpt><trkpt lat="39.3942655" lon="16.8895196"><ele>437.40000000000003</ele><time>2026-03-29T11:25:06.793Z</time></trkpt><trkpt lat="39.3943737" lon="16.8895407"><ele>439.20000000000005</ele><time>2026-03-29T11:25:07.789Z</time></trkpt><trkpt lat="39.3944921" lon="16.8895445"><ele>441.0</ele><time>2026-03-29T11:25:08.792Z</time></trkpt><trkpt lat="39.3945982" lon="16.8895799"><ele>440.8333333333333</ele><time>2026-03-29T11:25:09.794Z</time></trkpt><trkpt lat="39.3946897" lon="16.8896232"><ele>440.66666666666663</ele><time>2026-03-29T11:25:10.791Z</time></trkpt><trkpt lat="39.3947679" lon="16.8896685"><ele>440.5</ele><time>2026-03-29T11:25:11.79Z</time></trkpt><trkpt lat="39.3948417" lon="16.8897201"><ele>440.3333333333333</ele><time>2026-03-29T11:25:12.792Z</time></trkpt><trkpt lat="39.3949094" lon="16.8897667"><ele>440.16666666666663</ele><time>2026-03-29T11:25:13.791Z</time></trkpt><trkpt lat="39.3949714" lon="16.8898057"><ele>440.0</ele><time>2026-03-29T11:25:14.795Z</time></trkpt><trkpt lat="39.3950265" lon="16.8898545"><ele>439.99999999999994</ele><time>2026-03-29T11:25:15.797Z</time></trkpt><trkpt lat="39.3950929" lon="16.889895"><ele>440.0</ele><time>2026-03-29T11:25:16.787Z</time></trkpt><trkpt lat="39.3951732" lon="16.8899096"><ele>440.0</ele><time>2026-03-29T11:25:17.794Z</time></trkpt><trkpt lat="39.3952633" lon="16.8899154"><ele>440.0</ele><time>2026-03-29T11:25:18.779Z</time></trkpt><trkpt lat="39.3953519" lon="16.8899259"><ele>439.99999999999994</ele><time>2026-03-29T11:25:19.796Z</time></trkpt><trkpt lat="39.3954352" lon="16.8899488"><ele>440.0</ele><time>2026-03-29T11:25:20.797Z</time></trkpt><trkpt lat="39.3955041" lon="16.8899719"><ele>438.99999999999994</ele><time>2026-03-29T11:25:21.807Z</time></trkpt><trkpt lat="39.3955961" lon="16.8900197"><ele>438.0</ele><time>2026-03-29T11:25:23.806Z</time></trkpt><trkpt lat="39.3956571" lon="16.890074"><ele>437.0</ele><time>2026-03-29T11:25:27.777Z</time></trkpt><trkpt lat="39.3956839" lon="16.8901641"><ele>436.0</ele><time>2026-03-29T11:25:37.789Z</time></trkpt><trkpt lat="39.3956974" lon="16.890266"><ele>434.99999999999994</ele><time>2026-03-29T11:25:40.797Z</time></trkpt><trkpt lat="39.3957139" lon="16.8903772"><ele>434.0</ele><time>2026-03-29T11:25:42.784Z</time></trkpt><trkpt lat="39.3957305" lon="16.8905159"><ele>433.99999999999994</ele><time>2026-03-29T11:25:44.795Z</time></trkpt><trkpt lat="39.3957572" lon="16.8906693"><ele>434.0</ele><time>2026-03-29T11:25:46.787Z</time></trkpt><trkpt lat="39.395771" lon="16.8907571"><ele>434.0</ele><time>2026-03-29T11:25:47.807Z</time></trkpt><trkpt lat="39.3957807" lon="16.8908376"><ele>434.0</ele><time>2026-03-29T11:25:48.791Z</time></trkpt><trkpt lat="39.3958013" lon="16.8909359"><ele>433.99999999999994</ele><time>2026-03-29T11:25:51.788Z</time></trkpt><trkpt lat="39.395854" lon="16.8910302"><ele>434.0</ele><time>2026-03-29T11:25:54.794Z</time></trkpt><trkpt lat="39.3959128" lon="16.8911396"><ele>435.0</ele><time>2026-03-29T11:25:56.791Z</time></trkpt><trkpt lat="39.395954" lon="16.891256"><ele>436.0</ele><time>2026-03-29T11:25:58.786Z</time></trkpt><trkpt lat="39.3960207" lon="16.8914072"><ele>437.0</ele><time>2026-03-29T11:26:00.789Z</time></trkpt><trkpt lat="39.3960574" lon="16.8915035"><ele>438.0</ele><time>2026-03-29T11:26:01.786Z</time></trkpt><trkpt lat="39.3960904" lon="16.8915903"><ele>439.0</ele><time>2026-03-29T11:26:02.785Z</time></trkpt><trkpt lat="39.3961284" lon="16.8916599"><ele>439.00000000000006</ele><time>2026-03-29T11:26:03.807Z</time></trkpt><trkpt lat="39.3961755" lon="16.8917152"><ele>439.0</ele><time>2026-03-29T11:26:04.789Z</time></trkpt><trkpt lat="39.396292" lon="16.8917593"><ele>439.0</ele><time>2026-03-29T11:26:06.79Z</time></trkpt><trkpt lat="39.3963616" lon="16.8917794"><ele>439.0</ele><time>2026-03-29T11:26:07.784Z</time></trkpt><trkpt lat="39.3964314" lon="16.8918169"><ele>439.00000000000006</ele><time>2026-03-29T11:26:08.793Z</time></trkpt><trkpt lat="39.3964915" lon="16.891871"><ele>439.0</ele><time>2026-03-29T11:26:09.783Z</time></trkpt><trkpt lat="39.3965447" lon="16.8919187"><ele>434.33333333333337</ele><time>2026-03-29T11:26:10.788Z</time></trkpt><trkpt lat="39.3965983" lon="16.8919623"><ele>429.6666666666667</ele><time>2026-03-29T11:26:11.784Z</time></trkpt><trkpt lat="39.3966822" lon="16.8920707"><ele>425.0</ele><time>2026-03-29T11:26:13.801Z</time></trkpt><trkpt lat="39.3967364" lon="16.8921378"><ele>420.33333333333337</ele><time>2026-03-29T11:26:14.797Z</time></trkpt><trkpt lat="39.3967741" lon="16.8922252"><ele>415.6666666666667</ele><time>2026-03-29T11:26:15.796Z</time></trkpt><trkpt lat="39.3967929" lon="16.8923291"><ele>411.0</ele><time>2026-03-29T11:26:16.796Z</time></trkpt><trkpt lat="39.3968099" lon="16.8924315"><ele>411.0</ele><time>2026-03-29T11:26:17.798Z</time></trkpt><trkpt lat="39.3968238" lon="16.8925223"><ele>411.0</ele><time>2026-03-29T11:26:18.793Z</time></trkpt><trkpt lat="39.396857" lon="16.89263"><ele>411.0</ele><time>2026-03-29T11:26:20.794Z</time></trkpt><trkpt lat="39.3968842" lon="16.8927335"><ele>411.0</ele><time>2026-03-29T11:26:23.783Z</time></trkpt><trkpt lat="39.3968693" lon="16.8928857"><ele>411.0</ele><time>2026-03-29T11:26:25.785Z</time></trkpt><trkpt lat="39.3968696" lon="16.8930206"><ele>409.0</ele><time>2026-03-29T11:26:27.796Z</time></trkpt><trkpt lat="39.3969478" lon="16.8931052"><ele>407.0</ele><time>2026-03-29T11:26:29.797Z</time></trkpt><trkpt lat="39.3970445" lon="16.8931946"><ele>405.0</ele><time>2026-03-29T11:26:31.795Z</time></trkpt><trkpt lat="39.3971347" lon="16.8932671"><ele>403.0</ele><time>2026-03-29T11:26:33.785Z</time></trkpt><trkpt lat="39.3972152" lon="16.8933194"><ele>401.0</ele><time>2026-03-29T11:26:35.789Z</time></trkpt><trkpt lat="39.3972874" lon="16.8933831"><ele>394.6</ele><time>2026-03-29T11:26:37.789Z</time></trkpt><trkpt lat="39.3973397" lon="16.893474"><ele>388.20000000000005</ele><time>2026-03-29T11:26:39.782Z</time></trkpt><trkpt lat="39.3973666" lon="16.8936294"><ele>381.79999999999995</ele><time>2026-03-29T11:26:41.79Z</time></trkpt><trkpt lat="39.3974139" lon="16.8937597"><ele>375.4</ele><time>2026-03-29T11:26:43.807Z</time></trkpt><trkpt lat="39.3974883" lon="16.893792"><ele>369.0</ele><time>2026-03-29T11:26:45.784Z</time></trkpt><trkpt lat="39.3975521" lon="16.8937356"><ele>369.0</ele><time>2026-03-29T11:26:47.793Z</time></trkpt><trkpt lat="39.3976032" lon="16.8936569"><ele>369.0</ele><time>2026-03-29T11:26:49.791Z</time></trkpt><trkpt lat="39.3976157" lon="16.8935675"><ele>369.0</ele><time>2026-03-29T11:26:51.78Z</time></trkpt><trkpt lat="39.3976311" lon="16.8934785"><ele>369.0</ele><time>2026-03-29T11:26:53.781Z</time></trkpt><trkpt lat="39.397684" lon="16.8933616"><ele>369.0</ele><time>2026-03-29T11:26:56.777Z</time></trkpt><trkpt lat="39.3977357" lon="16.8933088"><ele>369.0</ele><time>2026-03-29T11:26:57.786Z</time></trkpt><trkpt lat="39.3978024" lon="16.8932559"><ele>366.8333333333333</ele><time>2026-03-29T11:26:58.791Z</time></trkpt><trkpt lat="39.3978695" lon="16.8932157"><ele>364.6666666666667</ele><time>2026-03-29T11:26:59.799Z</time></trkpt><trkpt lat="39.3979374" lon="16.8931905"><ele>362.5</ele><time>2026-03-29T11:27:00.783Z</time></trkpt><trkpt lat="39.3980276" lon="16.8931964"><ele>360.33333333333337</ele><time>2026-03-29T11:27:02.794Z</time></trkpt><trkpt lat="39.3980618" lon="16.8932856"><ele>358.1666666666667</ele><time>2026-03-29T11:27:06.798Z</time></trkpt><trkpt lat="39.398057" lon="16.8934047"><ele>356.0</ele><time>2026-03-29T11:27:09.788Z</time></trkpt><trkpt lat="39.3980771" lon="16.8934935"><ele>356.0</ele><time>2026-03-29T11:27:11.791Z</time></trkpt><trkpt lat="39.3981763" lon="16.8935123"><ele>356.0</ele><time>2026-03-29T11:27:15.784Z</time></trkpt><trkpt lat="39.3982779" lon="16.8934254"><ele>356.0</ele><time>2026-03-29T11:27:17.79Z</time></trkpt><trkpt lat="39.3983307" lon="16.8933779"><ele>356.0</ele><time>2026-03-29T11:27:18.788Z</time></trkpt><trkpt lat="39.3984374" lon="16.8933272"><ele>356.0</ele><time>2026-03-29T11:27:20.783Z</time></trkpt><trkpt lat="39.3985193" lon="16.8933586"><ele>354.5</ele><time>2026-03-29T11:27:22.785Z</time></trkpt><trkpt lat="39.3985745" lon="16.8934241"><ele>353.0</ele><time>2026-03-29T11:27:24.792Z</time></trkpt><trkpt lat="39.3986099" lon="16.8935358"><ele>351.5</ele><time>2026-03-29T11:27:26.788Z</time></trkpt><trkpt lat="39.3986874" lon="16.8936594"><ele>350.0</ele><time>2026-03-29T11:27:28.798Z</time></trkpt><trkpt lat="39.3987475" lon="16.8937264"><ele>348.5</ele><time>2026-03-29T11:27:29.807Z</time></trkpt><trkpt lat="39.3987849" lon="16.8938027"><ele>347.0</ele><time>2026-03-29T11:27:30.8Z</time></trkpt><trkpt lat="39.3988072" lon="16.8939082"><ele>347.0</ele><time>2026-03-29T11:27:31.781Z</time></trkpt><trkpt lat="39.3988298" lon="16.8940113"><ele>347.0</ele><time>2026-03-29T11:27:32.788Z</time></trkpt><trkpt lat="39.39885" lon="16.8941131"><ele>347.0</ele><time>2026-03-29T11:27:33.794Z</time></trkpt><trkpt lat="39.3988641" lon="16.8942099"><ele>347.0</ele><time>2026-03-29T11:27:34.785Z</time></trkpt><trkpt lat="39.3988708" lon="16.8943033"><ele>347.0</ele><time>2026-03-29T11:27:35.793Z</time></trkpt><trkpt lat="39.3988725" lon="16.8943902"><ele>347.0</ele><time>2026-03-29T11:27:36.793Z</time></trkpt><trkpt lat="39.3988577" lon="16.8945405"><ele>344.40000000000003</ele><time>2026-03-29T11:27:38.796Z</time></trkpt><trkpt lat="39.3988065" lon="16.8946438"><ele>341.8</ele><time>2026-03-29T11:27:40.796Z</time></trkpt><trkpt lat="39.3987851" lon="16.894739"><ele>339.2</ele><time>2026-03-29T11:27:44.795Z</time></trkpt><trkpt lat="39.3988364" lon="16.894854"><ele>336.6</ele><time>2026-03-29T11:27:47.786Z</time></trkpt><trkpt lat="39.3988962" lon="16.8949813"><ele>334.0</ele><time>2026-03-29T11:27:49.796Z</time></trkpt><trkpt lat="39.3990316" lon="16.895006"><ele>332.2</ele><time>2026-03-29T11:27:51.788Z</time></trkpt><trkpt lat="39.3991206" lon="16.8949769"><ele>330.4</ele><time>2026-03-29T11:27:52.789Z</time></trkpt><trkpt lat="39.3992246" lon="16.8949544"><ele>328.6</ele><time>2026-03-29T11:27:53.792Z</time></trkpt><trkpt lat="39.3993307" lon="16.8949302"><ele>326.8</ele><time>2026-03-29T11:27:54.8Z</time></trkpt><trkpt lat="39.3994285" lon="16.8949172"><ele>325.0</ele><time>2026-03-29T11:27:55.796Z</time></trkpt><trkpt lat="39.3995413" lon="16.8949037"><ele>324.4</ele><time>2026-03-29T11:27:56.788Z</time></trkpt><trkpt lat="39.3996701" lon="16.8948872"><ele>323.8</ele><time>2026-03-29T11:27:57.804Z</time></trkpt><trkpt lat="39.3997857" lon="16.894861"><ele>323.20000000000005</ele><time>2026-03-29T11:27:58.791Z</time></trkpt><trkpt lat="39.3998698" lon="16.8948397"><ele>322.6</ele><time>2026-03-29T11:27:59.795Z</time></trkpt><trkpt lat="39.3999488" lon="16.8948282"><ele>322.0</ele><time>2026-03-29T11:28:01.781Z</time></trkpt><trkpt lat="39.3999821" lon="16.8947385"><ele>322.0</ele><time>2026-03-29T11:28:05.789Z</time></trkpt><trkpt lat="39.3999962" lon="16.8946136"><ele>322.0</ele><time>2026-03-29T11:28:07.79Z</time></trkpt><trkpt lat="39.4000085" lon="16.8945308"><ele>322.0</ele><time>2026-03-29T11:28:08.793Z</time></trkpt><trkpt lat="39.4000226" lon="16.8944432"><ele>322.0</ele><time>2026-03-29T11:28:09.798Z</time></trkpt><trkpt lat="39.400042" lon="16.894358"><ele>322.0</ele><time>2026-03-29T11:28:10.798Z</time></trkpt><trkpt lat="39.4000633" lon="16.8942767"><ele>322.0</ele><time>2026-03-29T11:28:11.789Z</time></trkpt><trkpt lat="39.4000969" lon="16.8942021"><ele>322.0</ele><time>2026-03-29T11:28:12.792Z</time></trkpt><trkpt lat="39.4001352" lon="16.8941238"><ele>320.8</ele><time>2026-03-29T11:28:13.794Z</time></trkpt><trkpt lat="39.4001759" lon="16.8940486"><ele>319.6</ele><time>2026-03-29T11:28:14.792Z</time></trkpt><trkpt lat="39.4002137" lon="16.8939769"><ele>318.40000000000003</ele><time>2026-03-29T11:28:15.787Z</time></trkpt><trkpt lat="39.4002785" lon="16.8938461"><ele>317.20000000000005</ele><time>2026-03-29T11:28:17.79Z</time></trkpt><trkpt lat="39.400335" lon="16.8937106"><ele>316.0</ele><time>2026-03-29T11:28:19.79Z</time></trkpt><trkpt lat="39.4003861" lon="16.8935731"><ele>316.0</ele><time>2026-03-29T11:28:21.801Z</time></trkpt><trkpt lat="39.40043" lon="16.8934371"><ele>316.0</ele><time>2026-03-29T11:28:23.796Z</time></trkpt><trkpt lat="39.4004693" lon="16.8932886"><ele>316.0</ele><time>2026-03-29T11:28:25.789Z</time></trkpt><trkpt lat="39.4004897" lon="16.8932104"><ele>316.0</ele><time>2026-03-29T11:28:26.788Z</time></trkpt><trkpt lat="39.4005071" lon="16.8931315"><ele>316.0</ele><time>2026-03-29T11:28:27.79Z</time></trkpt><trkpt lat="39.4005389" lon="16.8929978"><ele>314.66666666666663</ele><time>2026-03-29T11:28:29.805Z</time></trkpt><trkpt lat="39.4005584" lon="16.8928489"><ele>313.3333333333333</ele><time>2026-03-29T11:28:31.793Z</time></trkpt><trkpt lat="39.4005707" lon="16.8926903"><ele>312.0</ele><time>2026-03-29T11:28:33.797Z</time></trkpt><trkpt lat="39.4005793" lon="16.8926092"><ele>310.6666666666667</ele><time>2026-03-29T11:28:34.793Z</time></trkpt><trkpt lat="39.4005892" lon="16.8925239"><ele>309.33333333333337</ele><time>2026-03-29T11:28:35.8Z</time></trkpt><trkpt lat="39.4006047" lon="16.8924398"><ele>308.0</ele><time>2026-03-29T11:28:36.791Z</time></trkpt><trkpt lat="39.4006308" lon="16.8923591"><ele>306.33333333333337</ele><time>2026-03-29T11:28:37.791Z</time></trkpt><trkpt lat="39.4006635" lon="16.8922805"><ele>304.6666666666667</ele><time>2026-03-29T11:28:38.791Z</time></trkpt><trkpt lat="39.4007024" lon="16.8922119"><ele>303.0</ele><time>2026-03-29T11:28:39.797Z</time></trkpt><trkpt lat="39.4007473" lon="16.8921532"><ele>301.3333333333333</ele><time>2026-03-29T11:28:40.776Z</time></trkpt><trkpt lat="39.4008513" lon="16.8920771"><ele>299.66666666666663</ele><time>2026-03-29T11:28:42.789Z</time></trkpt><trkpt lat="39.4009578" lon="16.8920625"><ele>298.0</ele><time>2026-03-29T11:28:44.797Z</time></trkpt><trkpt lat="39.4010577" lon="16.8920793"><ele>298.0</ele><time>2026-03-29T11:28:46.806Z</time></trkpt><trkpt lat="39.4011457" lon="16.8921393"><ele>298.0</ele><time>2026-03-29T11:28:48.813Z</time></trkpt><trkpt lat="39.4012131" lon="16.8921883"><ele>298.0</ele><time>2026-03-29T11:28:50.794Z</time></trkpt><trkpt lat="39.4012616" lon="16.8921179"><ele>298.0</ele><time>2026-03-29T11:28:53.785Z</time></trkpt><trkpt lat="39.4012603" lon="16.8919908"><ele>298.0</ele><time>2026-03-29T11:28:55.788Z</time></trkpt><trkpt lat="39.4012502" lon="16.8918436"><ele>295.25</ele><time>2026-03-29T11:28:57.79Z</time></trkpt><trkpt lat="39.4012403" lon="16.891706"><ele>292.5</ele><time>2026-03-29T11:28:59.789Z</time></trkpt><trkpt lat="39.4012308" lon="16.8915455"><ele>289.75</ele><time>2026-03-29T11:29:01.789Z</time></trkpt><trkpt lat="39.4012293" lon="16.891401"><ele>287.0</ele><time>2026-03-29T11:29:03.796Z</time></trkpt><trkpt lat="39.4012118" lon="16.8912538"><ele>287.0</ele><time>2026-03-29T11:29:05.776Z</time></trkpt><trkpt lat="39.4011732" lon="16.8911283"><ele>287.0</ele><time>2026-03-29T11:29:07.8Z</time></trkpt><trkpt lat="39.4011029" lon="16.8910339"><ele>287.0</ele><time>2026-03-29T11:29:09.792Z</time></trkpt><trkpt lat="39.4010731" lon="16.890958"><ele>287.0</ele><time>2026-03-29T11:29:11.787Z</time></trkpt><trkpt lat="39.4010791" lon="16.8907983"><ele>287.0</ele><time>2026-03-29T11:29:13.788Z</time></trkpt><trkpt lat="39.4010884" lon="16.8906687"><ele>286.1666666666667</ele><time>2026-03-29T11:29:15.788Z</time></trkpt><trkpt lat="39.4011204" lon="16.8905537"><ele>285.33333333333337</ele><time>2026-03-29T11:29:18.8Z</time></trkpt><trkpt lat="39.4011455" lon="16.8904263"><ele>284.5</ele><time>2026-03-29T11:29:20.793Z</time></trkpt><trkpt lat="39.4011417" lon="16.890333"><ele>283.6666666666667</ele><time>2026-03-29T11:29:21.79Z</time></trkpt><trkpt lat="39.4011122" lon="16.8902285"><ele>282.8333333333333</ele><time>2026-03-29T11:29:22.775Z</time></trkpt><trkpt lat="39.4010754" lon="16.890128"><ele>282.0</ele><time>2026-03-29T11:29:23.802Z</time></trkpt><trkpt lat="39.40104" lon="16.8900311"><ele>281.3333333333333</ele><time>2026-03-29T11:29:24.792Z</time></trkpt><trkpt lat="39.4010207" lon="16.8899337"><ele>280.6666666666667</ele><time>2026-03-29T11:29:25.784Z</time></trkpt><trkpt lat="39.4010433" lon="16.889831"><ele>280.0</ele><time>2026-03-29T11:29:26.785Z</time></trkpt><trkpt lat="39.4010641" lon="16.8897243"><ele>279.33333333333337</ele><time>2026-03-29T11:29:27.793Z</time></trkpt><trkpt lat="39.4010957" lon="16.8896284"><ele>278.6666666666667</ele><time>2026-03-29T11:29:28.793Z</time></trkpt><trkpt lat="39.4011249" lon="16.8895268"><ele>278.0</ele><time>2026-03-29T11:29:29.806Z</time></trkpt><trkpt lat="39.4011706" lon="16.8894273"><ele>278.0</ele><time>2026-03-29T11:29:30.787Z</time></trkpt><trkpt lat="39.4011892" lon="16.8893158"><ele>278.0</ele><time>2026-03-29T11:29:31.778Z</time></trkpt><trkpt lat="39.4011985" lon="16.8892115"><ele>278.0</ele><time>2026-03-29T11:29:32.793Z</time></trkpt><trkpt lat="39.4012219" lon="16.8891192"><ele>278.0</ele><time>2026-03-29T11:29:33.791Z</time></trkpt><trkpt lat="39.4012862" lon="16.8890047"><ele>278.0</ele><time>2026-03-29T11:29:35.789Z</time></trkpt><trkpt lat="39.4013371" lon="16.888903"><ele>278.0</ele><time>2026-03-29T11:29:37.79Z</time></trkpt><trkpt lat="39.4013918" lon="16.8888041"><ele>275.4</ele><time>2026-03-29T11:29:39.79Z</time></trkpt><trkpt lat="39.4014542" lon="16.8886846"><ele>272.8</ele><time>2026-03-29T11:29:41.79Z</time></trkpt><trkpt lat="39.4015144" lon="16.8885927"><ele>270.2</ele><time>2026-03-29T11:29:43.794Z</time></trkpt><trkpt lat="39.4015672" lon="16.8885373"><ele>267.6</ele><time>2026-03-29T11:29:46.789Z</time></trkpt><trkpt lat="39.4016184" lon="16.8884738"><ele>265.0</ele><time>2026-03-29T11:29:48.773Z</time></trkpt><trkpt lat="39.4017016" lon="16.8883578"><ele>265.0</ele><time>2026-03-29T11:29:50.775Z</time></trkpt><trkpt lat="39.4017483" lon="16.8882974"><ele>265.0</ele><time>2026-03-29T11:29:51.773Z</time></trkpt><trkpt lat="39.4018353" lon="16.8881715"><ele>265.0</ele><time>2026-03-29T11:29:53.797Z</time></trkpt><trkpt lat="39.4018864" lon="16.8881112"><ele>265.0</ele><time>2026-03-29T11:29:54.788Z</time></trkpt><trkpt lat="39.401919" lon="16.8880395"><ele>265.0</ele><time>2026-03-29T11:29:55.788Z</time></trkpt><trkpt lat="39.4020041" lon="16.8879041"><ele>265.0</ele><time>2026-03-29T11:29:57.784Z</time></trkpt><trkpt lat="39.4020797" lon="16.8878406"><ele>265.0</ele><time>2026-03-29T11:29:58.792Z</time></trkpt><trkpt lat="39.4021479" lon="16.8877776"><ele>265.0</ele><time>2026-03-29T11:29:59.792Z</time></trkpt><trkpt lat="39.4021954" lon="16.887699"><ele>265.0</ele><time>2026-03-29T11:30:00.797Z</time></trkpt><trkpt lat="39.4022402" lon="16.8876214"><ele>265.0</ele><time>2026-03-29T11:30:01.794Z</time></trkpt><trkpt lat="39.4022613" lon="16.8875036"><ele>265.0</ele><time>2026-03-29T11:30:02.784Z</time></trkpt><trkpt lat="39.4022825" lon="16.8873931"><ele>262.8333333333333</ele><time>2026-03-29T11:30:03.801Z</time></trkpt><trkpt lat="39.4022966" lon="16.8872916"><ele>260.66666666666663</ele><time>2026-03-29T11:30:04.775Z</time></trkpt><trkpt lat="39.4023217" lon="16.8872073"><ele>258.5</ele><time>2026-03-29T11:30:05.787Z</time></trkpt><trkpt lat="39.4023787" lon="16.887121"><ele>256.3333333333333</ele><time>2026-03-29T11:30:07.778Z</time></trkpt><trkpt lat="39.4024831" lon="16.8870414"><ele>254.16666666666666</ele><time>2026-03-29T11:30:09.79Z</time></trkpt><trkpt lat="39.4025343" lon="16.8869824"><ele>252.0</ele><time>2026-03-29T11:30:10.796Z</time></trkpt><trkpt lat="39.4025511" lon="16.8868979"><ele>252.0</ele><time>2026-03-29T11:30:11.792Z</time></trkpt><trkpt lat="39.4025853" lon="16.8867678"><ele>252.0</ele><time>2026-03-29T11:30:13.791Z</time></trkpt><trkpt lat="39.4026509" lon="16.8866747"><ele>252.0</ele><time>2026-03-29T11:30:15.789Z</time></trkpt><trkpt lat="39.4027051" lon="16.886623"><ele>252.0</ele><time>2026-03-29T11:30:16.794Z</time></trkpt><trkpt lat="39.4028026" lon="16.8865234"><ele>252.0</ele><time>2026-03-29T11:30:18.8Z</time></trkpt><trkpt lat="39.4028399" lon="16.8864555"><ele>250.28571428571428</ele><time>2026-03-29T11:30:19.79Z</time></trkpt><trkpt lat="39.402882" lon="16.8863727"><ele>248.57142857142856</ele><time>2026-03-29T11:30:20.802Z</time></trkpt><trkpt lat="39.4029314" lon="16.8862956"><ele>246.85714285714286</ele><time>2026-03-29T11:30:21.792Z</time></trkpt><trkpt lat="39.4029806" lon="16.8862132"><ele>245.14285714285714</ele><time>2026-03-29T11:30:22.791Z</time></trkpt><trkpt lat="39.4030249" lon="16.8861391"><ele>243.42857142857142</ele><time>2026-03-29T11:30:23.802Z</time></trkpt><trkpt lat="39.4030728" lon="16.8860806"><ele>241.71428571428572</ele><time>2026-03-29T11:30:24.795Z</time></trkpt><trkpt lat="39.4031209" lon="16.8860264"><ele>240.0</ele><time>2026-03-29T11:30:25.797Z</time></trkpt><trkpt lat="39.4031922" lon="16.8859181"><ele>236.5</ele><time>2026-03-29T11:30:27.797Z</time></trkpt><trkpt lat="39.4032283" lon="16.8857543"><ele>233.0</ele><time>2026-03-29T11:30:29.805Z</time></trkpt><trkpt lat="39.4032533" lon="16.8856555"><ele>229.5</ele><time>2026-03-29T11:30:30.804Z</time></trkpt><trkpt lat="39.4033008" lon="16.8855599"><ele>226.0</ele><time>2026-03-29T11:30:31.81Z</time></trkpt><trkpt lat="39.4033439" lon="16.8854795"><ele>222.5</ele><time>2026-03-29T11:30:32.802Z</time></trkpt><trkpt lat="39.4033916" lon="16.8854064"><ele>219.0</ele><time>2026-03-29T11:30:33.797Z</time></trkpt><trkpt lat="39.4034408" lon="16.8853364"><ele>219.0</ele><time>2026-03-29T11:30:34.793Z</time></trkpt><trkpt lat="39.403496" lon="16.8852743"><ele>219.0</ele><time>2026-03-29T11:30:35.802Z</time></trkpt><trkpt lat="39.4035426" lon="16.8852162"><ele>219.0</ele><time>2026-03-29T11:30:36.818Z</time></trkpt><trkpt lat="39.4035432" lon="16.8850798"><ele>219.0</ele><time>2026-03-29T11:30:38.788Z</time></trkpt><trkpt lat="39.4035232" lon="16.8849886"><ele>219.0</ele><time>2026-03-29T11:30:39.788Z</time></trkpt><trkpt lat="39.4035058" lon="16.884903"><ele>219.0</ele><time>2026-03-29T11:30:40.791Z</time></trkpt><trkpt lat="39.403493" lon="16.8847761"><ele>219.0</ele><time>2026-03-29T11:30:42.792Z</time></trkpt><trkpt lat="39.403553" lon="16.8847397"><ele>219.0</ele><time>2026-03-29T11:30:44.78Z</time></trkpt><trkpt lat="39.403588" lon="16.8848291"><ele>219.0</ele><time>2026-03-29T11:30:46.786Z</time></trkpt><trkpt lat="39.403605" lon="16.8849076"><ele>219.0</ele><time>2026-03-29T11:30:47.782Z</time></trkpt><trkpt lat="39.4036295" lon="16.8849831"><ele>219.0</ele><time>2026-03-29T11:30:48.796Z</time></trkpt><trkpt lat="39.4036798" lon="16.8851005"><ele>219.0</ele><time>2026-03-29T11:30:50.79Z</time></trkpt><trkpt lat="39.403738" lon="16.8851355"><ele>219.0</ele><time>2026-03-29T11:30:52.781Z</time></trkpt><trkpt lat="39.4037608" lon="16.8850418"><ele>218.2</ele><time>2026-03-29T11:30:54.791Z</time></trkpt><trkpt lat="39.403748" lon="16.8848814"><ele>217.39999999999998</ele><time>2026-03-29T11:30:56.79Z</time></trkpt><trkpt lat="39.4037727" lon="16.8847666"><ele>216.6</ele><time>2026-03-29T11:30:58.79Z</time></trkpt><trkpt lat="39.403848" lon="16.8847462"><ele>215.8</ele><time>2026-03-29T11:31:02.787Z</time></trkpt><trkpt lat="39.4039331" lon="16.8846631"><ele>215.0</ele><time>2026-03-29T11:31:05.788Z</time></trkpt><trkpt lat="39.4039807" lon="16.8845221"><ele>215.0</ele><time>2026-03-29T11:31:07.801Z</time></trkpt><trkpt lat="39.4040019" lon="16.8844409"><ele>215.0</ele><time>2026-03-29T11:31:10.787Z</time></trkpt><trkpt lat="39.4040094" lon="16.8843391"><ele>215.0</ele><time>2026-03-29T11:31:17.772Z</time></trkpt><trkpt lat="39.4040714" lon="16.884432"><ele>215.0</ele><time>2026-03-29T11:31:35.778Z</time></trkpt><trkpt lat="39.404074" lon="16.8845628"><ele>215.0</ele><time>2026-03-29T11:31:37.769Z</time></trkpt><trkpt lat="39.4040798" lon="16.8847402"><ele>215.00000000000003</ele><time>2026-03-29T11:31:39.795Z</time></trkpt><trkpt lat="39.40407" lon="16.8848451"><ele>215.0</ele><time>2026-03-29T11:31:40.795Z</time></trkpt><trkpt lat="39.404058" lon="16.8849567"><ele>215.0</ele><time>2026-03-29T11:31:41.793Z</time></trkpt><trkpt lat="39.4040328" lon="16.8850752"><ele>215.0</ele><time>2026-03-29T11:31:42.79Z</time></trkpt><trkpt lat="39.4040006" lon="16.8851851"><ele>215.00000000000003</ele><time>2026-03-29T11:31:43.795Z</time></trkpt><trkpt lat="39.4039633" lon="16.8852949"><ele>215.0</ele><time>2026-03-29T11:31:44.782Z</time></trkpt><trkpt lat="39.4039037" lon="16.8854091"><ele>215.66666666666669</ele><time>2026-03-29T11:31:45.789Z</time></trkpt><trkpt lat="39.4038505" lon="16.8855137"><ele>216.33333333333334</ele><time>2026-03-29T11:31:46.79Z</time></trkpt><trkpt lat="39.4038055" lon="16.8856045"><ele>217.0</ele><time>2026-03-29T11:31:47.788Z</time></trkpt><trkpt lat="39.4037649" lon="16.8856885"><ele>217.66666666666669</ele><time>2026-03-29T11:31:48.794Z</time></trkpt><trkpt lat="39.40373" lon="16.8857868"><ele>218.33333333333334</ele><time>2026-03-29T11:31:49.767Z</time></trkpt><trkpt lat="39.4037027" lon="16.8858879"><ele>219.0</ele><time>2026-03-29T11:31:50.77Z</time></trkpt><trkpt lat="39.4036705" lon="16.8859757"><ele>221.85714285714286</ele><time>2026-03-29T11:31:51.77Z</time></trkpt><trkpt lat="39.4036252" lon="16.8860373"><ele>224.71428571428572</ele><time>2026-03-29T11:31:52.77Z</time></trkpt><trkpt lat="39.4035698" lon="16.8860833"><ele>227.57142857142858</ele><time>2026-03-29T11:31:53.791Z</time></trkpt><trkpt lat="39.4035161" lon="16.8861348"><ele>230.42857142857144</ele><time>2026-03-29T11:31:54.793Z</time></trkpt><trkpt lat="39.4034552" lon="16.8862242"><ele>233.28571428571428</ele><time>2026-03-29T11:31:56.793Z</time></trkpt><trkpt lat="39.4034005" lon="16.8863086"><ele>236.14285714285717</ele><time>2026-03-29T11:32:03.789Z</time></trkpt><trkpt lat="39.4033458" lon="16.8863688"><ele>239.00000000000003</ele><time>2026-03-29T11:32:05.79Z</time></trkpt><trkpt lat="39.4033576" lon="16.8864497"><ele>239.00000000000003</ele><time>2026-03-29T11:32:09.795Z</time></trkpt><trkpt lat="39.4034331" lon="16.8863937"><ele>239.0</ele><time>2026-03-29T11:32:11.788Z</time></trkpt><trkpt lat="39.4035401" lon="16.8863512"><ele>239.0</ele><time>2026-03-29T11:32:13.78Z</time></trkpt><trkpt lat="39.4036074" lon="16.8863747"><ele>239.0</ele><time>2026-03-29T11:32:14.782Z</time></trkpt><trkpt lat="39.4037135" lon="16.8863722"><ele>239.00000000000003</ele><time>2026-03-29T11:32:16.789Z</time></trkpt><trkpt lat="39.4037592" lon="16.8863074"><ele>239.0</ele><time>2026-03-29T11:32:18.788Z</time></trkpt><trkpt lat="39.4038201" lon="16.8861941"><ele>237.79999999999998</ele><time>2026-03-29T11:32:20.786Z</time></trkpt><trkpt lat="39.4038982" lon="16.8860806"><ele>236.59999999999997</ele><time>2026-03-29T11:32:22.799Z</time></trkpt><trkpt lat="39.4039666" lon="16.8859724"><ele>235.4</ele><time>2026-03-29T11:32:24.792Z</time></trkpt><trkpt lat="39.4040415" lon="16.8858589"><ele>234.2</ele><time>2026-03-29T11:32:26.774Z</time></trkpt><trkpt lat="39.4040883" lon="16.8857877"><ele>233.0</ele><time>2026-03-29T11:32:27.769Z</time></trkpt><trkpt lat="39.4041319" lon="16.8857153"><ele>233.0</ele><time>2026-03-29T11:32:28.772Z</time></trkpt><trkpt lat="39.4042126" lon="16.8856301"><ele>233.0</ele><time>2026-03-29T11:32:30.785Z</time></trkpt><trkpt lat="39.4043181" lon="16.8856148"><ele>233.0</ele><time>2026-03-29T11:32:32.792Z</time></trkpt><trkpt lat="39.404383" lon="16.8856136"><ele>233.0</ele><time>2026-03-29T11:32:33.792Z</time></trkpt><trkpt lat="39.4044767" lon="16.8855504"><ele>233.0</ele><time>2026-03-29T11:32:35.796Z</time></trkpt><trkpt lat="39.4045853" lon="16.8855123"><ele>233.00000000000003</ele><time>2026-03-29T11:32:37.795Z</time></trkpt><trkpt lat="39.4046025" lon="16.8855951"><ele>233.0</ele><time>2026-03-29T11:32:39.786Z</time></trkpt><trkpt lat="39.4045829" lon="16.885693"><ele>233.0</ele><time>2026-03-29T11:32:41.79Z</time></trkpt><trkpt lat="39.4045338" lon="16.8857642"><ele>233.0</ele><time>2026-03-29T11:32:43.794Z</time></trkpt><trkpt lat="39.4044796" lon="16.8858287"><ele>233.00000000000003</ele><time>2026-03-29T11:32:45.803Z</time></trkpt><trkpt lat="39.4044494" lon="16.885923"><ele>233.0</ele><time>2026-03-29T11:32:47.786Z</time></trkpt><trkpt lat="39.4044072" lon="16.8860237"><ele>237.60000000000002</ele><time>2026-03-29T11:32:49.781Z</time></trkpt><trkpt lat="39.4043416" lon="16.8861268"><ele>242.20000000000002</ele><time>2026-03-29T11:32:51.787Z</time></trkpt><trkpt lat="39.4042856" lon="16.8862168"><ele>246.8</ele><time>2026-03-29T11:32:53.794Z</time></trkpt><trkpt lat="39.4042155" lon="16.8862742"><ele>251.4</ele><time>2026-03-29T11:33:03.782Z</time></trkpt><trkpt lat="39.4041037" lon="16.8863531"><ele>256.0</ele><time>2026-03-29T11:33:05.788Z</time></trkpt><trkpt lat="39.4040539" lon="16.8864163"><ele>256.0</ele><time>2026-03-29T11:33:06.788Z</time></trkpt><trkpt lat="39.4040117" lon="16.8864875"><ele>256.0</ele><time>2026-03-29T11:33:08.792Z</time></trkpt><trkpt lat="39.403954" lon="16.8866058"><ele>256.0</ele><time>2026-03-29T11:33:14.784Z</time></trkpt><trkpt lat="39.4039149" lon="16.8867425"><ele>256.0</ele><time>2026-03-29T11:33:16.792Z</time></trkpt><trkpt lat="39.403893" lon="16.8868921"><ele>256.0</ele><time>2026-03-29T11:33:18.788Z</time></trkpt><trkpt lat="39.4038618" lon="16.886969"><ele>257.2</ele><time>2026-03-29T11:33:19.795Z</time></trkpt><trkpt lat="39.403754" lon="16.8870315"><ele>258.40000000000003</ele><time>2026-03-29T11:33:21.792Z</time></trkpt><trkpt lat="39.4036786" lon="16.8870364"><ele>259.6</ele><time>2026-03-29T11:33:22.79Z</time></trkpt><trkpt lat="39.4035967" lon="16.8870542"><ele>260.8</ele><time>2026-03-29T11:33:23.787Z</time></trkpt><trkpt lat="39.4035108" lon="16.8870968"><ele>262.0</ele><time>2026-03-29T11:33:24.789Z</time></trkpt><trkpt lat="39.4034289" lon="16.8871349"><ele>262.0</ele><time>2026-03-29T11:33:25.79Z</time></trkpt><trkpt lat="39.403371" lon="16.8871855"><ele>262.0</ele><time>2026-03-29T11:33:26.785Z</time></trkpt><trkpt lat="39.4033204" lon="16.8872455"><ele>262.0</ele><time>2026-03-29T11:33:27.781Z</time></trkpt><trkpt lat="39.403272" lon="16.8873095"><ele>262.0</ele><time>2026-03-29T11:33:28.797Z</time></trkpt><trkpt lat="39.4032592" lon="16.8874008"><ele>262.0</ele><time>2026-03-29T11:33:29.77Z</time></trkpt><trkpt lat="39.4032697" lon="16.8875019"><ele>262.0</ele><time>2026-03-29T11:33:30.801Z</time></trkpt><trkpt lat="39.4032854" lon="16.8876036"><ele>262.0</ele><time>2026-03-29T11:33:31.775Z</time></trkpt><trkpt lat="39.4033132" lon="16.8876936"><ele>264.3333333333333</ele><time>2026-03-29T11:33:32.776Z</time></trkpt><trkpt lat="39.4033336" lon="16.8877734"><ele>266.66666666666663</ele><time>2026-03-29T11:33:33.794Z</time></trkpt><trkpt lat="39.403401" lon="16.8878157"><ele>269.0</ele><time>2026-03-29T11:33:34.797Z</time></trkpt><trkpt lat="39.4034703" lon="16.8878169"><ele>271.3333333333333</ele><time>2026-03-29T11:33:35.8Z</time></trkpt><trkpt lat="39.4035375" lon="16.8877907"><ele>273.6666666666667</ele><time>2026-03-29T11:33:36.793Z</time></trkpt><trkpt lat="39.4036182" lon="16.8877598"><ele>276.0</ele><time>2026-03-29T11:33:37.777Z</time></trkpt><trkpt lat="39.4037071" lon="16.8877373"><ele>276.0</ele><time>2026-03-29T11:33:38.788Z</time></trkpt><trkpt lat="39.4038046" lon="16.8877153"><ele>276.0</ele><time>2026-03-29T11:33:39.79Z</time></trkpt><trkpt lat="39.4038913" lon="16.8876995"><ele>276.0</ele><time>2026-03-29T11:33:40.792Z</time></trkpt><trkpt lat="39.4039652" lon="16.8876635"><ele>276.0</ele><time>2026-03-29T11:33:41.795Z</time></trkpt><trkpt lat="39.4040407" lon="16.8876023"><ele>276.0</ele><time>2026-03-29T11:33:42.789Z</time></trkpt><trkpt lat="39.4041191" lon="16.8875153"><ele>276.0</ele><time>2026-03-29T11:33:43.789Z</time></trkpt><trkpt lat="39.4042039" lon="16.8874217"><ele>276.0</ele><time>2026-03-29T11:33:44.792Z</time></trkpt><trkpt lat="39.4042723" lon="16.8873261"><ele>276.0</ele><time>2026-03-29T11:33:45.786Z</time></trkpt><trkpt lat="39.4043316" lon="16.8872572"><ele>276.0</ele><time>2026-03-29T11:33:46.789Z</time></trkpt><trkpt lat="39.4044076" lon="16.8872247"><ele>276.0</ele><time>2026-03-29T11:33:47.79Z</time></trkpt><trkpt lat="39.4044959" lon="16.8871932"><ele>276.0</ele><time>2026-03-29T11:33:48.792Z</time></trkpt><trkpt lat="39.4045975" lon="16.8872028"><ele>276.0</ele><time>2026-03-29T11:33:49.793Z</time></trkpt><trkpt lat="39.4046656" lon="16.887243"><ele>276.0</ele><time>2026-03-29T11:33:50.798Z</time></trkpt><trkpt lat="39.4047241" lon="16.8873923"><ele>276.0</ele><time>2026-03-29T11:33:52.794Z</time></trkpt><trkpt lat="39.404714" lon="16.8874939"><ele>276.0</ele><time>2026-03-29T11:33:53.793Z</time></trkpt><trkpt lat="39.4047021" lon="16.8875935"><ele>278.0</ele><time>2026-03-29T11:33:54.804Z</time></trkpt><trkpt lat="39.4046875" lon="16.8876874"><ele>280.0</ele><time>2026-03-29T11:33:55.801Z</time></trkpt><trkpt lat="39.4046897" lon="16.8877915"><ele>282.0</ele><time>2026-03-29T11:33:56.786Z</time></trkpt><trkpt lat="39.4046932" lon="16.887898"><ele>284.0</ele><time>2026-03-29T11:33:57.795Z</time></trkpt><trkpt lat="39.4046819" lon="16.888008"><ele>286.0</ele><time>2026-03-29T11:33:58.808Z</time></trkpt><trkpt lat="39.4046672" lon="16.8881309"><ele>288.0</ele><time>2026-03-29T11:33:59.792Z</time></trkpt><trkpt lat="39.4046507" lon="16.888282"><ele>290.2</ele><time>2026-03-29T11:34:00.796Z</time></trkpt><trkpt lat="39.4046341" lon="16.8884379"><ele>292.4</ele><time>2026-03-29T11:34:01.793Z</time></trkpt><trkpt lat="39.4046205" lon="16.8885798"><ele>294.59999999999997</ele><time>2026-03-29T11:34:02.784Z</time></trkpt><trkpt lat="39.4046002" lon="16.8886948"><ele>296.8</ele><time>2026-03-29T11:34:03.802Z</time></trkpt><trkpt lat="39.4045642" lon="16.8887921"><ele>299.0</ele><time>2026-03-29T11:34:04.795Z</time></trkpt><trkpt lat="39.4045353" lon="16.8889019"><ele>299.0</ele><time>2026-03-29T11:34:05.794Z</time></trkpt><trkpt lat="39.4045076" lon="16.8890153"><ele>299.0</ele><time>2026-03-29T11:34:06.79Z</time></trkpt><trkpt lat="39.4045174" lon="16.8891484"><ele>299.0</ele><time>2026-03-29T11:34:07.786Z</time></trkpt><trkpt lat="39.404522" lon="16.8892784"><ele>299.0</ele><time>2026-03-29T11:34:08.793Z</time></trkpt><trkpt lat="39.4045201" lon="16.8894165"><ele>299.0</ele><time>2026-03-29T11:34:09.781Z</time></trkpt><trkpt lat="39.404513" lon="16.8895406"><ele>301.6666666666667</ele><time>2026-03-29T11:34:10.789Z</time></trkpt><trkpt lat="39.4044969" lon="16.8896428"><ele>304.33333333333337</ele><time>2026-03-29T11:34:11.795Z</time></trkpt><trkpt lat="39.4044777" lon="16.8897388"><ele>307.0</ele><time>2026-03-29T11:34:12.79Z</time></trkpt><trkpt lat="39.4044375" lon="16.8898192"><ele>309.6666666666667</ele><time>2026-03-29T11:34:13.797Z</time></trkpt><trkpt lat="39.4043684" lon="16.889896"><ele>312.3333333333333</ele><time>2026-03-29T11:34:15.806Z</time></trkpt><trkpt lat="39.4042998" lon="16.8899957"><ele>315.0</ele><time>2026-03-29T11:34:17.792Z</time></trkpt><trkpt lat="39.4042395" lon="16.8900884"><ele>317.6</ele><time>2026-03-29T11:34:18.79Z</time></trkpt><trkpt lat="39.4041761" lon="16.8902054"><ele>320.2</ele><time>2026-03-29T11:34:19.794Z</time></trkpt><trkpt lat="39.4041184" lon="16.8903293"><ele>322.79999999999995</ele><time>2026-03-29T11:34:20.789Z</time></trkpt><trkpt lat="39.4040749" lon="16.8904416"><ele>325.4</ele><time>2026-03-29T11:34:21.786Z</time></trkpt><trkpt lat="39.4040466" lon="16.8905576"><ele>328.0</ele><time>2026-03-29T11:34:22.793Z</time></trkpt><trkpt lat="39.4040168" lon="16.8906812"><ele>328.0</ele><time>2026-03-29T11:34:23.798Z</time></trkpt><trkpt lat="39.4039806" lon="16.8908086"><ele>328.0</ele><time>2026-03-29T11:34:24.788Z</time></trkpt><trkpt lat="39.4039434" lon="16.8909329"><ele>328.0</ele><time>2026-03-29T11:34:25.788Z</time></trkpt><trkpt lat="39.4038972" lon="16.8910397"><ele>328.0</ele><time>2026-03-29T11:34:26.789Z</time></trkpt><trkpt lat="39.4038409" lon="16.8911359"><ele>328.0</ele><time>2026-03-29T11:34:27.795Z</time></trkpt><trkpt lat="39.4037806" lon="16.8912358"><ele>328.5</ele><time>2026-03-29T11:34:28.781Z</time></trkpt><trkpt lat="39.4037094" lon="16.8913378"><ele>329.0</ele><time>2026-03-29T11:34:29.789Z</time></trkpt><trkpt lat="39.4036359" lon="16.8914647"><ele>329.5</ele><time>2026-03-29T11:34:30.791Z</time></trkpt><trkpt lat="39.4035663" lon="16.8916021"><ele>330.0</ele><time>2026-03-29T11:34:31.796Z</time></trkpt><trkpt lat="39.4035159" lon="16.8917233"><ele>330.6</ele><time>2026-03-29T11:34:32.799Z</time></trkpt><trkpt lat="39.4034789" lon="16.8918306"><ele>331.2</ele><time>2026-03-29T11:34:33.801Z</time></trkpt><trkpt lat="39.4034419" lon="16.8919367"><ele>331.79999999999995</ele><time>2026-03-29T11:34:34.796Z</time></trkpt><trkpt lat="39.403404" lon="16.8920331"><ele>332.4</ele><time>2026-03-29T11:34:35.803Z</time></trkpt><trkpt lat="39.403359" lon="16.8921318"><ele>333.0</ele><time>2026-03-29T11:34:36.795Z</time></trkpt><trkpt lat="39.4033055" lon="16.8922433"><ele>333.0</ele><time>2026-03-29T11:34:37.794Z</time></trkpt><trkpt lat="39.4032542" lon="16.892365"><ele>333.0</ele><time>2026-03-29T11:34:38.796Z</time></trkpt><trkpt lat="39.4032141" lon="16.892489"><ele>333.0</ele><time>2026-03-29T11:34:39.785Z</time></trkpt><trkpt lat="39.4031873" lon="16.892606"><ele>333.0</ele><time>2026-03-29T11:34:40.807Z</time></trkpt><trkpt lat="39.4031712" lon="16.8927236"><ele>333.0</ele><time>2026-03-29T11:34:41.8Z</time></trkpt><trkpt lat="39.4031574" lon="16.8928387"><ele>332.59999999999997</ele><time>2026-03-29T11:34:42.797Z</time></trkpt><trkpt lat="39.4031771" lon="16.8929655"><ele>332.2</ele><time>2026-03-29T11:34:43.788Z</time></trkpt><trkpt lat="39.4032152" lon="16.8930883"><ele>331.8</ele><time>2026-03-29T11:34:44.791Z</time></trkpt><trkpt lat="39.4032774" lon="16.8932024"><ele>331.4</ele><time>2026-03-29T11:34:45.804Z</time></trkpt><trkpt lat="39.4033559" lon="16.8933138"><ele>331.0</ele><time>2026-03-29T11:34:46.79Z</time></trkpt><trkpt lat="39.4034337" lon="16.8934106"><ele>329.3333333333333</ele><time>2026-03-29T11:34:47.8Z</time></trkpt><trkpt lat="39.4035156" lon="16.8934922"><ele>327.66666666666663</ele><time>2026-03-29T11:34:48.795Z</time></trkpt><trkpt lat="39.4036018" lon="16.893561"><ele>326.0</ele><time>2026-03-29T11:34:49.799Z</time></trkpt><trkpt lat="39.4036807" lon="16.8936222"><ele>324.3333333333333</ele><time>2026-03-29T11:34:50.797Z</time></trkpt><trkpt lat="39.4037329" lon="16.893693"><ele>322.6666666666667</ele><time>2026-03-29T11:34:51.792Z</time></trkpt><trkpt lat="39.4037438" lon="16.8937766"><ele>321.0</ele><time>2026-03-29T11:34:52.791Z</time></trkpt><trkpt lat="39.4037432" lon="16.8938681"><ele>321.0</ele><time>2026-03-29T11:34:53.79Z</time></trkpt><trkpt lat="39.4037361" lon="16.8939785"><ele>321.0</ele><time>2026-03-29T11:34:54.788Z</time></trkpt><trkpt lat="39.4037263" lon="16.8940996"><ele>321.0</ele><time>2026-03-29T11:34:55.794Z</time></trkpt><trkpt lat="39.4037206" lon="16.8942144"><ele>321.0</ele><time>2026-03-29T11:34:56.794Z</time></trkpt><trkpt lat="39.4037142" lon="16.8943354"><ele>321.0</ele><time>2026-03-29T11:34:57.792Z</time></trkpt><trkpt lat="39.4037132" lon="16.8944687"><ele>321.0</ele><time>2026-03-29T11:34:58.795Z</time></trkpt><trkpt lat="39.4037169" lon="16.8946001"><ele>321.0</ele><time>2026-03-29T11:34:59.788Z</time></trkpt><trkpt lat="39.4037231" lon="16.8947159"><ele>321.0</ele><time>2026-03-29T11:35:00.782Z</time></trkpt><trkpt lat="39.4037515" lon="16.8948024"><ele>321.0</ele><time>2026-03-29T11:35:01.796Z</time></trkpt><trkpt lat="39.4037951" lon="16.8948678"><ele>321.0</ele><time>2026-03-29T11:35:02.796Z</time></trkpt><trkpt lat="39.4038746" lon="16.8949153"><ele>321.0</ele><time>2026-03-29T11:35:03.793Z</time></trkpt><trkpt lat="39.403968" lon="16.894982"><ele>321.1666666666667</ele><time>2026-03-29T11:35:04.801Z</time></trkpt><trkpt lat="39.4040416" lon="16.8950237"><ele>321.3333333333333</ele><time>2026-03-29T11:35:05.792Z</time></trkpt><trkpt lat="39.4041425" lon="16.8950368"><ele>321.5</ele><time>2026-03-29T11:35:07.795Z</time></trkpt><trkpt lat="39.4042106" lon="16.8950394"><ele>321.66666666666663</ele><time>2026-03-29T11:35:09.792Z</time></trkpt><trkpt lat="39.4042879" lon="16.8951086"><ele>321.8333333333333</ele><time>2026-03-29T11:35:11.796Z</time></trkpt><trkpt lat="39.4043471" lon="16.8951575"><ele>322.0</ele><time>2026-03-29T11:35:14.785Z</time></trkpt><trkpt lat="39.4044292" lon="16.8951702"><ele>321.40000000000003</ele><time>2026-03-29T11:35:34.772Z</time></trkpt><trkpt lat="39.4045247" lon="16.895164"><ele>320.8</ele><time>2026-03-29T11:35:37.773Z</time></trkpt><trkpt lat="39.4046059" lon="16.8951297"><ele>320.2</ele><time>2026-03-29T11:35:39.772Z</time></trkpt><trkpt lat="39.4047063" lon="16.8950652"><ele>319.6</ele><time>2026-03-29T11:35:41.768Z</time></trkpt><trkpt lat="39.4047888" lon="16.8950187"><ele>319.0</ele><time>2026-03-29T11:35:43.77Z</time></trkpt><trkpt lat="39.4048798" lon="16.895153"><ele>316.5</ele><time>2026-03-29T11:35:45.77Z</time></trkpt><trkpt lat="39.4049297" lon="16.8952415"><ele>314.0</ele><time>2026-03-29T11:35:46.774Z</time></trkpt><trkpt lat="39.4049796" lon="16.8953422"><ele>311.5</ele><time>2026-03-29T11:35:47.774Z</time></trkpt><trkpt lat="39.4050382" lon="16.8954396"><ele>309.0</ele><time>2026-03-29T11:35:48.767Z</time></trkpt><trkpt lat="39.4051001" lon="16.89552"><ele>306.5</ele><time>2026-03-29T11:35:49.776Z</time></trkpt><trkpt lat="39.4051556" lon="16.8955893"><ele>304.0</ele><time>2026-03-29T11:35:50.77Z</time></trkpt><trkpt lat="39.4052227" lon="16.8956225"><ele>304.0</ele><time>2026-03-29T11:35:51.769Z</time></trkpt><trkpt lat="39.4053001" lon="16.89564"><ele>304.0</ele><time>2026-03-29T11:35:52.764Z</time></trkpt><trkpt lat="39.4053749" lon="16.8956638"><ele>304.0</ele><time>2026-03-29T11:35:53.769Z</time></trkpt><trkpt lat="39.4054409" lon="16.8956793"><ele>304.0</ele><time>2026-03-29T11:35:54.766Z</time></trkpt><trkpt lat="39.4055509" lon="16.8957005"><ele>304.0</ele><time>2026-03-29T11:35:56.769Z</time></trkpt><trkpt lat="39.4056137" lon="16.8957552"><ele>304.0</ele><time>2026-03-29T11:35:58.77Z</time></trkpt><trkpt lat="39.4056435" lon="16.8958668"><ele>302.2</ele><time>2026-03-29T11:36:00.77Z</time></trkpt><trkpt lat="39.4056872" lon="16.895954"><ele>300.4</ele><time>2026-03-29T11:36:02.772Z</time></trkpt><trkpt lat="39.4057457" lon="16.8960517"><ele>298.6</ele><time>2026-03-29T11:36:04.768Z</time></trkpt><trkpt lat="39.4057964" lon="16.8961373"><ele>296.8</ele><time>2026-03-29T11:36:06.769Z</time></trkpt><trkpt lat="39.4058496" lon="16.8962356"><ele>295.0</ele><time>2026-03-29T11:36:08.768Z</time></trkpt><trkpt lat="39.4059016" lon="16.8963436"><ele>295.0</ele><time>2026-03-29T11:36:10.767Z</time></trkpt><trkpt lat="39.405957" lon="16.8964614"><ele>295.0</ele><time>2026-03-29T11:36:12.771Z</time></trkpt><trkpt lat="39.4060033" lon="16.8965779"><ele>295.0</ele><time>2026-03-29T11:36:14.767Z</time></trkpt><trkpt lat="39.4060496" lon="16.8967311"><ele>295.0</ele><time>2026-03-29T11:36:16.772Z</time></trkpt><trkpt lat="39.4060612" lon="16.8968805"><ele>291.8</ele><time>2026-03-29T11:36:18.77Z</time></trkpt><trkpt lat="39.4060921" lon="16.8970228"><ele>288.6</ele><time>2026-03-29T11:36:20.77Z</time></trkpt><trkpt lat="39.406128" lon="16.8971641"><ele>285.4</ele><time>2026-03-29T11:36:22.765Z</time></trkpt><trkpt lat="39.406153" lon="16.8972714"><ele>282.2</ele><time>2026-03-29T11:36:24.769Z</time></trkpt><trkpt lat="39.4061653" lon="16.8973701"><ele>279.0</ele><time>2026-03-29T11:36:28.765Z</time></trkpt><trkpt lat="39.4061655" lon="16.8974998"><ele>277.4</ele><time>2026-03-29T11:36:31.768Z</time></trkpt><trkpt lat="39.4062158" lon="16.8976285"><ele>275.79999999999995</ele><time>2026-03-29T11:36:33.824Z</time></trkpt><trkpt lat="39.406286" lon="16.8977217"><ele>274.20000000000005</ele><time>2026-03-29T11:36:35.77Z</time></trkpt><trkpt lat="39.4063036" lon="16.8978631"><ele>272.6</ele><time>2026-03-29T11:36:37.766Z</time></trkpt><trkpt lat="39.4062969" lon="16.8979484"><ele>271.0</ele><time>2026-03-29T11:36:38.771Z</time></trkpt><trkpt lat="39.4062878" lon="16.8980348"><ele>271.0</ele><time>2026-03-29T11:36:39.771Z</time></trkpt><trkpt lat="39.406282" lon="16.8981193"><ele>271.0</ele><time>2026-03-29T11:36:40.774Z</time></trkpt><trkpt lat="39.4062752" lon="16.8982744"><ele>271.0</ele><time>2026-03-29T11:36:42.769Z</time></trkpt><trkpt lat="39.406266" lon="16.8983565"><ele>271.0</ele><time>2026-03-29T11:36:43.767Z</time></trkpt><trkpt lat="39.4062576" lon="16.8984407"><ele>271.0</ele><time>2026-03-29T11:36:44.772Z</time></trkpt><trkpt lat="39.4062523" lon="16.8985258"><ele>271.0</ele><time>2026-03-29T11:36:45.773Z</time></trkpt><trkpt lat="39.4062432" lon="16.8986674"><ele>269.8</ele><time>2026-03-29T11:36:47.765Z</time></trkpt><trkpt lat="39.4062323" lon="16.8987839"><ele>268.6</ele><time>2026-03-29T11:36:49.77Z</time></trkpt><trkpt lat="39.4062167" lon="16.8989181"><ele>267.4</ele><time>2026-03-29T11:36:51.765Z</time></trkpt><trkpt lat="39.4061969" lon="16.8990848"><ele>266.2</ele><time>2026-03-29T11:36:53.769Z</time></trkpt><trkpt lat="39.4061791" lon="16.8991774"><ele>265.0</ele><time>2026-03-29T11:36:54.773Z</time></trkpt><trkpt lat="39.4061595" lon="16.8992794"><ele>263.8</ele><time>2026-03-29T11:36:55.768Z</time></trkpt><trkpt lat="39.4061386" lon="16.8993821"><ele>262.6</ele><time>2026-03-29T11:36:56.772Z</time></trkpt><trkpt lat="39.4061186" lon="16.8994789"><ele>261.4</ele><time>2026-03-29T11:36:57.766Z</time></trkpt><trkpt lat="39.4061044" lon="16.899566"><ele>260.2</ele><time>2026-03-29T11:36:58.766Z</time></trkpt><trkpt lat="39.4060926" lon="16.8997209"><ele>259.0</ele><time>2026-03-29T11:37:00.766Z</time></trkpt><trkpt lat="39.4060499" lon="16.8998747"><ele>259.0</ele><time>2026-03-29T11:37:02.769Z</time></trkpt><trkpt lat="39.4060134" lon="16.8999633"><ele>259.0</ele><time>2026-03-29T11:37:03.771Z</time></trkpt><trkpt lat="39.4059772" lon="16.9000568"><ele>259.0</ele><time>2026-03-29T11:37:04.767Z</time></trkpt><trkpt lat="39.405947" lon="16.9001537"><ele>259.0</ele><time>2026-03-29T11:37:05.767Z</time></trkpt><trkpt lat="39.4059213" lon="16.9002452"><ele>259.0</ele><time>2026-03-29T11:37:06.788Z</time></trkpt><trkpt lat="39.4059104" lon="16.9003341"><ele>259.0</ele><time>2026-03-29T11:37:07.77Z</time></trkpt><trkpt lat="39.4059323" lon="16.9004701"><ele>258.16666666666663</ele><time>2026-03-29T11:37:09.768Z</time></trkpt><trkpt lat="39.4059261" lon="16.9005607"><ele>257.3333333333333</ele><time>2026-03-29T11:37:11.784Z</time></trkpt><trkpt lat="39.4058812" lon="16.9007328"><ele>256.5</ele><time>2026-03-29T11:37:13.767Z</time></trkpt><trkpt lat="39.4058643" lon="16.9008351"><ele>255.66666666666669</ele><time>2026-03-29T11:37:14.769Z</time></trkpt><trkpt lat="39.4058459" lon="16.9009283"><ele>254.83333333333334</ele><time>2026-03-29T11:37:15.77Z</time></trkpt><trkpt lat="39.4058215" lon="16.901011"><ele>254.0</ele><time>2026-03-29T11:37:16.768Z</time></trkpt><trkpt lat="39.4058034" lon="16.901104"><ele>252.83333333333334</ele><time>2026-03-29T11:37:17.777Z</time></trkpt><trkpt lat="39.4057823" lon="16.9012001"><ele>251.66666666666669</ele><time>2026-03-29T11:37:18.768Z</time></trkpt><trkpt lat="39.4057638" lon="16.9012993"><ele>250.5</ele><time>2026-03-29T11:37:19.77Z</time></trkpt><trkpt lat="39.4057435" lon="16.9013921"><ele>249.33333333333331</ele><time>2026-03-29T11:37:20.77Z</time></trkpt><trkpt lat="39.4057269" lon="16.9014779"><ele>248.16666666666666</ele><time>2026-03-29T11:37:21.771Z</time></trkpt><trkpt lat="39.4057385" lon="16.9016353"><ele>247.0</ele><time>2026-03-29T11:37:23.766Z</time></trkpt><trkpt lat="39.4057566" lon="16.9017181"><ele>243.85714285714286</ele><time>2026-03-29T11:37:24.769Z</time></trkpt><trkpt lat="39.4057773" lon="16.9018091"><ele>240.71428571428572</ele><time>2026-03-29T11:37:25.772Z</time></trkpt><trkpt lat="39.4058055" lon="16.901886"><ele>237.57142857142858</ele><time>2026-03-29T11:37:26.77Z</time></trkpt><trkpt lat="39.4058426" lon="16.9019538"><ele>234.42857142857144</ele><time>2026-03-29T11:37:27.768Z</time></trkpt><trkpt lat="39.4058822" lon="16.9020191"><ele>231.28571428571428</ele><time>2026-03-29T11:37:28.771Z</time></trkpt><trkpt lat="39.4059403" lon="16.9020783"><ele>228.14285714285717</ele><time>2026-03-29T11:37:29.773Z</time></trkpt><trkpt lat="39.4059962" lon="16.9021548"><ele>225.00000000000003</ele><time>2026-03-29T11:37:30.768Z</time></trkpt><trkpt lat="39.4060479" lon="16.9022404"><ele>225.0</ele><time>2026-03-29T11:37:31.769Z</time></trkpt><trkpt lat="39.4060958" lon="16.9023134"><ele>225.0</ele><time>2026-03-29T11:37:32.768Z</time></trkpt><trkpt lat="39.4061409" lon="16.9023796"><ele>225.0</ele><time>2026-03-29T11:37:33.764Z</time></trkpt><trkpt lat="39.4061907" lon="16.9024384"><ele>225.0</ele><time>2026-03-29T11:37:34.77Z</time></trkpt><trkpt lat="39.4062894" lon="16.9025239"><ele>225.0</ele><time>2026-03-29T11:37:36.769Z</time></trkpt><trkpt lat="39.4063943" lon="16.9025974"><ele>225.0</ele><time>2026-03-29T11:37:38.773Z</time></trkpt><trkpt lat="39.4064565" lon="16.9026344"><ele>224.66666666666666</ele><time>2026-03-29T11:37:39.766Z</time></trkpt><trkpt lat="39.4065251" lon="16.9026572"><ele>224.33333333333331</ele><time>2026-03-29T11:37:40.771Z</time></trkpt><trkpt lat="39.4066493" lon="16.902676"><ele>224.0</ele><time>2026-03-29T11:37:42.769Z</time></trkpt><trkpt lat="39.4067143" lon="16.9026608"><ele>223.66666666666666</ele><time>2026-03-29T11:37:43.773Z</time></trkpt><trkpt lat="39.4067858" lon="16.9026356"><ele>223.33333333333331</ele><time>2026-03-29T11:37:44.767Z</time></trkpt><trkpt lat="39.4068601" lon="16.9026045"><ele>223.0</ele><time>2026-03-29T11:37:45.767Z</time></trkpt><trkpt lat="39.4069389" lon="16.9025671"><ele>225.16666666666666</ele><time>2026-03-29T11:37:46.767Z</time></trkpt><trkpt lat="39.4070124" lon="16.9025277"><ele>227.33333333333331</ele><time>2026-03-29T11:37:47.766Z</time></trkpt><trkpt lat="39.407082" lon="16.9024897"><ele>229.5</ele><time>2026-03-29T11:37:48.768Z</time></trkpt><trkpt lat="39.4071549" lon="16.9025082"><ele>231.66666666666669</ele><time>2026-03-29T11:37:49.772Z</time></trkpt><trkpt lat="39.4072297" lon="16.9025302"><ele>233.83333333333334</ele><time>2026-03-29T11:37:50.767Z</time></trkpt><trkpt lat="39.4073166" lon="16.9025488"><ele>236.0</ele><time>2026-03-29T11:37:51.765Z</time></trkpt><trkpt lat="39.4074086" lon="16.9025727"><ele>236.16666666666669</ele><time>2026-03-29T11:37:52.773Z</time></trkpt><trkpt lat="39.4074923" lon="16.9026037"><ele>236.33333333333334</ele><time>2026-03-29T11:37:53.77Z</time></trkpt><trkpt lat="39.4075611" lon="16.9026431"><ele>236.5</ele><time>2026-03-29T11:37:54.771Z</time></trkpt><trkpt lat="39.4076338" lon="16.9027012"><ele>236.66666666666669</ele><time>2026-03-29T11:37:56.768Z</time></trkpt><trkpt lat="39.4077148" lon="16.9027697"><ele>236.83333333333334</ele><time>2026-03-29T11:38:00.768Z</time></trkpt><trkpt lat="39.4077837" lon="16.9028252"><ele>237.0</ele><time>2026-03-29T11:38:02.767Z</time></trkpt><trkpt lat="39.4078442" lon="16.9028815"><ele>237.0</ele><time>2026-03-29T11:38:06.768Z</time></trkpt><trkpt lat="39.4078966" lon="16.9029776"><ele>237.0</ele><time>2026-03-29T11:38:11.77Z</time></trkpt><trkpt lat="39.407922" lon="16.903087"><ele>237.0</ele><time>2026-03-29T11:38:13.766Z</time></trkpt><trkpt lat="39.4079375" lon="16.903221"><ele>237.0</ele><time>2026-03-29T11:38:15.771Z</time></trkpt><trkpt lat="39.4079799" lon="16.9033168"><ele>237.0</ele><time>2026-03-29T11:38:17.769Z</time></trkpt><trkpt lat="39.4080345" lon="16.9033686"><ele>237.0</ele><time>2026-03-29T11:38:19.77Z</time></trkpt><trkpt lat="39.4080429" lon="16.9034584"><ele>236.8</ele><time>2026-03-29T11:38:22.776Z</time></trkpt><trkpt lat="39.4079824" lon="16.9035408"><ele>236.6</ele><time>2026-03-29T11:38:24.771Z</time></trkpt><trkpt lat="39.4078933" lon="16.9036136"><ele>236.40000000000003</ele><time>2026-03-29T11:38:26.769Z</time></trkpt><trkpt lat="39.4077784" lon="16.9036567"><ele>236.20000000000002</ele><time>2026-03-29T11:38:28.767Z</time></trkpt><trkpt lat="39.4076783" lon="16.9036845"><ele>236.0</ele><time>2026-03-29T11:38:30.765Z</time></trkpt><trkpt lat="39.4076025" lon="16.9037201"><ele>236.0</ele><time>2026-03-29T11:38:32.766Z</time></trkpt><trkpt lat="39.4075268" lon="16.9037532"><ele>236.00000000000003</ele><time>2026-03-29T11:38:34.776Z</time></trkpt><trkpt lat="39.4074436" lon="16.9037733"><ele>236.00000000000003</ele><time>2026-03-29T11:38:36.767Z</time></trkpt><trkpt lat="39.4073197" lon="16.9038385"><ele>236.0</ele><time>2026-03-29T11:38:40.776Z</time></trkpt><trkpt lat="39.4072184" lon="16.9038576"><ele>236.0</ele><time>2026-03-29T11:38:42.77Z</time></trkpt><trkpt lat="39.407091" lon="16.9039134"><ele>232.8</ele><time>2026-03-29T11:38:44.768Z</time></trkpt><trkpt lat="39.4070073" lon="16.9039607"><ele>229.60000000000002</ele><time>2026-03-29T11:38:45.769Z</time></trkpt><trkpt lat="39.4069176" lon="16.9040272"><ele>226.4</ele><time>2026-03-29T11:38:46.767Z</time></trkpt><trkpt lat="39.4068325" lon="16.9040901"><ele>223.2</ele><time>2026-03-29T11:38:47.77Z</time></trkpt><trkpt lat="39.4067503" lon="16.9041415"><ele>220.0</ele><time>2026-03-29T11:38:48.766Z</time></trkpt><trkpt lat="39.406665" lon="16.9041527"><ele>219.99999999999997</ele><time>2026-03-29T11:38:49.774Z</time></trkpt><trkpt lat="39.4065939" lon="16.904158"><ele>220.0</ele><time>2026-03-29T11:38:50.768Z</time></trkpt><trkpt lat="39.406491" lon="16.9041629"><ele>220.0</ele><time>2026-03-29T11:38:52.768Z</time></trkpt><trkpt lat="39.4064118" lon="16.9041694"><ele>220.0</ele><time>2026-03-29T11:38:54.771Z</time></trkpt><trkpt lat="39.4063332" lon="16.9041672"><ele>219.99999999999997</ele><time>2026-03-29T11:38:56.766Z</time></trkpt><trkpt lat="39.4062527" lon="16.9041702"><ele>220.0</ele><time>2026-03-29T11:38:58.766Z</time></trkpt><trkpt lat="39.4061569" lon="16.9041563"><ele>217.66666666666666</ele><time>2026-03-29T11:39:00.768Z</time></trkpt><trkpt lat="39.4060635" lon="16.9041449"><ele>215.33333333333331</ele><time>2026-03-29T11:39:02.771Z</time></trkpt><trkpt lat="39.4059794" lon="16.9041276"><ele>213.0</ele><time>2026-03-29T11:39:04.77Z</time></trkpt><trkpt lat="39.405896" lon="16.9041076"><ele>210.66666666666669</ele><time>2026-03-29T11:39:06.766Z</time></trkpt><trkpt lat="39.4058118" lon="16.904096"><ele>208.33333333333334</ele><time>2026-03-29T11:39:08.771Z</time></trkpt><trkpt lat="39.4057277" lon="16.9040719"><ele>206.0</ele><time>2026-03-29T11:39:11.773Z</time></trkpt><trkpt lat="39.4056591" lon="16.9040507"><ele>206.00000000000003</ele><time>2026-03-29T11:39:14.769Z</time></trkpt><trkpt lat="39.4055723" lon="16.9041274"><ele>206.0</ele><time>2026-03-29T11:39:17.765Z</time></trkpt><trkpt lat="39.4055441" lon="16.9042118"><ele>206.0</ele><time>2026-03-29T11:39:18.772Z</time></trkpt><trkpt lat="39.4055119" lon="16.9043139"><ele>206.0</ele><time>2026-03-29T11:39:19.77Z</time></trkpt><trkpt lat="39.4054776" lon="16.9044308"><ele>206.00000000000003</ele><time>2026-03-29T11:39:20.772Z</time></trkpt><trkpt lat="39.4054351" lon="16.9045236"><ele>206.0</ele><time>2026-03-29T11:39:21.771Z</time></trkpt><trkpt lat="39.4053769" lon="16.9046075"><ele>203.0</ele><time>2026-03-29T11:39:22.766Z</time></trkpt><trkpt lat="39.4053128" lon="16.9047014"><ele>200.0</ele><time>2026-03-29T11:39:23.77Z</time></trkpt><trkpt lat="39.4052491" lon="16.9047992"><ele>197.0</ele><time>2026-03-29T11:39:24.77Z</time></trkpt><trkpt lat="39.4052042" lon="16.9048919"><ele>194.0</ele><time>2026-03-29T11:39:25.766Z</time></trkpt><trkpt lat="39.4051554" lon="16.9049802"><ele>191.0</ele><time>2026-03-29T11:39:26.77Z</time></trkpt><trkpt lat="39.4050933" lon="16.9050579"><ele>191.16666666666666</ele><time>2026-03-29T11:39:27.769Z</time></trkpt><trkpt lat="39.4050286" lon="16.9051337"><ele>191.33333333333331</ele><time>2026-03-29T11:39:28.776Z</time></trkpt><trkpt lat="39.4049656" lon="16.9052204"><ele>191.5</ele><time>2026-03-29T11:39:29.767Z</time></trkpt><trkpt lat="39.4049031" lon="16.9053051"><ele>191.66666666666666</ele><time>2026-03-29T11:39:30.771Z</time></trkpt><trkpt lat="39.4048446" lon="16.9053882"><ele>191.83333333333334</ele><time>2026-03-29T11:39:31.772Z</time></trkpt><trkpt lat="39.4047911" lon="16.9054657"><ele>192.0</ele><time>2026-03-29T11:39:32.768Z</time></trkpt><trkpt lat="39.4047413" lon="16.9055502"><ele>192.0</ele><time>2026-03-29T11:39:33.769Z</time></trkpt><trkpt lat="39.4046978" lon="16.9056383"><ele>192.0</ele><time>2026-03-29T11:39:34.776Z</time></trkpt><trkpt lat="39.4046616" lon="16.9057125"><ele>192.0</ele><time>2026-03-29T11:39:35.781Z</time></trkpt><trkpt lat="39.4046382" lon="16.9058243"><ele>192.0</ele><time>2026-03-29T11:39:37.768Z</time></trkpt><trkpt lat="39.4046685" lon="16.9058973"><ele>192.0</ele><time>2026-03-29T11:39:40.776Z</time></trkpt><trkpt lat="39.4047206" lon="16.9059589"><ele>192.0</ele><time>2026-03-29T11:39:45.781Z</time></trkpt><trkpt lat="39.4047409" lon="16.9060817"><ele>190.83333333333334</ele><time>2026-03-29T11:39:48.781Z</time></trkpt><trkpt lat="39.4046587" lon="16.9061959"><ele>189.66666666666666</ele><time>2026-03-29T11:39:50.78Z</time></trkpt><trkpt lat="39.4046093" lon="16.9062606"><ele>188.5</ele><time>2026-03-29T11:39:51.784Z</time></trkpt><trkpt lat="39.4045572" lon="16.9063248"><ele>187.33333333333331</ele><time>2026-03-29T11:39:52.783Z</time></trkpt><trkpt lat="39.4045182" lon="16.9063988"><ele>186.16666666666666</ele><time>2026-03-29T11:39:53.779Z</time></trkpt><trkpt lat="39.4045096" lon="16.9064832"><ele>185.0</ele><time>2026-03-29T11:39:54.775Z</time></trkpt><trkpt lat="39.4045205" lon="16.9065809"><ele>185.0</ele><time>2026-03-29T11:39:55.79Z</time></trkpt><trkpt lat="39.4045294" lon="16.9066883"><ele>185.0</ele><time>2026-03-29T11:39:56.781Z</time></trkpt><trkpt lat="39.4045276" lon="16.9067977"><ele>185.0</ele><time>2026-03-29T11:39:57.782Z</time></trkpt><trkpt lat="39.404504" lon="16.9068842"><ele>185.0</ele><time>2026-03-29T11:39:58.778Z</time></trkpt><trkpt lat="39.4044304" lon="16.9069667"><ele>185.0</ele><time>2026-03-29T11:40:00.792Z</time></trkpt><trkpt lat="39.4043023" lon="16.9069963"><ele>185.33333333333331</ele><time>2026-03-29T11:40:02.775Z</time></trkpt><trkpt lat="39.4042396" lon="16.9070608"><ele>185.66666666666666</ele><time>2026-03-29T11:40:03.787Z</time></trkpt><trkpt lat="39.4041744" lon="16.9071535"><ele>186.0</ele><time>2026-03-29T11:40:04.782Z</time></trkpt><trkpt lat="39.4041323" lon="16.9072362"><ele>186.33333333333334</ele><time>2026-03-29T11:40:05.788Z</time></trkpt><trkpt lat="39.4040812" lon="16.9073524"><ele>186.66666666666669</ele><time>2026-03-29T11:40:07.796Z</time></trkpt><trkpt lat="39.4040708" lon="16.9074328"><ele>187.0</ele><time>2026-03-29T11:40:09.797Z</time></trkpt><trkpt lat="39.4040736" lon="16.9075696"><ele>186.28571428571428</ele><time>2026-03-29T11:40:11.794Z</time></trkpt><trkpt lat="39.404083" lon="16.9076679"><ele>185.57142857142858</ele><time>2026-03-29T11:40:12.791Z</time></trkpt><trkpt lat="39.4040926" lon="16.9077627"><ele>184.85714285714286</ele><time>2026-03-29T11:40:13.774Z</time></trkpt><trkpt lat="39.4040877" lon="16.907857"><ele>184.14285714285714</ele><time>2026-03-29T11:40:14.792Z</time></trkpt><trkpt lat="39.4040525" lon="16.9079438"><ele>183.42857142857144</ele><time>2026-03-29T11:40:15.781Z</time></trkpt><trkpt lat="39.4040178" lon="16.9080164"><ele>182.71428571428572</ele><time>2026-03-29T11:40:16.775Z</time></trkpt><trkpt lat="39.4039906" lon="16.9080952"><ele>182.0</ele><time>2026-03-29T11:40:17.789Z</time></trkpt><trkpt lat="39.4039738" lon="16.9081814"><ele>182.0</ele><time>2026-03-29T11:40:18.78Z</time></trkpt><trkpt lat="39.403967" lon="16.908273"><ele>182.0</ele><time>2026-03-29T11:40:19.775Z</time></trkpt><trkpt lat="39.403967" lon="16.9083608"><ele>182.0</ele><time>2026-03-29T11:40:20.782Z</time></trkpt><trkpt lat="39.4039554" lon="16.9085057"><ele>182.0</ele><time>2026-03-29T11:40:22.787Z</time></trkpt><trkpt lat="39.4039196" lon="16.908607"><ele>182.0</ele><time>2026-03-29T11:40:24.789Z</time></trkpt><trkpt lat="39.4038662" lon="16.9086991"><ele>182.0</ele><time>2026-03-29T11:40:26.787Z</time></trkpt><trkpt lat="39.4038004" lon="16.9087923"><ele>180.66666666666666</ele><time>2026-03-29T11:40:28.776Z</time></trkpt><trkpt lat="39.4037434" lon="16.9088849"><ele>179.33333333333331</ele><time>2026-03-29T11:40:30.784Z</time></trkpt><trkpt lat="39.403718" lon="16.9090026"><ele>178.0</ele><time>2026-03-29T11:40:32.776Z</time></trkpt><trkpt lat="39.4037237" lon="16.9091455"><ele>176.66666666666666</ele><time>2026-03-29T11:40:34.793Z</time></trkpt><trkpt lat="39.4037322" lon="16.9092457"><ele>175.33333333333334</ele><time>2026-03-29T11:40:36.772Z</time></trkpt><trkpt lat="39.4037413" lon="16.9093364"><ele>174.0</ele><time>2026-03-29T11:40:38.785Z</time></trkpt><trkpt lat="39.4037529" lon="16.9094917"><ele>173.0</ele><time>2026-03-29T11:40:40.785Z</time></trkpt><trkpt lat="39.403755" lon="16.9096546"><ele>172.0</ele><time>2026-03-29T11:40:42.792Z</time></trkpt><trkpt lat="39.4037568" lon="16.9097423"><ele>171.0</ele><time>2026-03-29T11:40:43.8Z</time></trkpt><trkpt lat="39.4037699" lon="16.9098305"><ele>170.0</ele><time>2026-03-29T11:40:44.79Z</time></trkpt><trkpt lat="39.4037926" lon="16.9099233"><ele>169.0</ele><time>2026-03-29T11:40:45.802Z</time></trkpt><trkpt lat="39.4038208" lon="16.9100187"><ele>168.0</ele><time>2026-03-29T11:40:46.783Z</time></trkpt><trkpt lat="39.4038508" lon="16.9101195"><ele>167.16666666666666</ele><time>2026-03-29T11:40:47.787Z</time></trkpt><trkpt lat="39.4038834" lon="16.9102229"><ele>166.33333333333334</ele><time>2026-03-29T11:40:48.786Z</time></trkpt><trkpt lat="39.4039082" lon="16.9103273"><ele>165.5</ele><time>2026-03-29T11:40:49.784Z</time></trkpt><trkpt lat="39.4039311" lon="16.9104315"><ele>164.66666666666669</ele><time>2026-03-29T11:40:50.783Z</time></trkpt><trkpt lat="39.4039591" lon="16.9105336"><ele>163.83333333333334</ele><time>2026-03-29T11:40:51.784Z</time></trkpt><trkpt lat="39.4039823" lon="16.9106331"><ele>163.0</ele><time>2026-03-29T11:40:52.773Z</time></trkpt><trkpt lat="39.4039966" lon="16.9107293"><ele>163.0</ele><time>2026-03-29T11:40:53.785Z</time></trkpt><trkpt lat="39.4040078" lon="16.9108178"><ele>163.0</ele><time>2026-03-29T11:40:54.784Z</time></trkpt><trkpt lat="39.4040234" lon="16.9108984"><ele>163.0</ele><time>2026-03-29T11:40:55.791Z</time></trkpt><trkpt lat="39.4040532" lon="16.9110356"><ele>163.0</ele><time>2026-03-29T11:40:57.781Z</time></trkpt><trkpt lat="39.4040991" lon="16.9111664"><ele>163.0</ele><time>2026-03-29T11:40:59.784Z</time></trkpt><trkpt lat="39.4041829" lon="16.9111944"><ele>163.0</ele><time>2026-03-29T11:41:01.792Z</time></trkpt><trkpt lat="39.4042613" lon="16.9111824"><ele>161.6</ele><time>2026-03-29T11:41:03.787Z</time></trkpt><trkpt lat="39.4043045" lon="16.9112627"><ele>160.20000000000002</ele><time>2026-03-29T11:41:06.784Z</time></trkpt><trkpt lat="39.4042555" lon="16.9113539"><ele>158.8</ele><time>2026-03-29T11:41:09.79Z</time></trkpt><trkpt lat="39.4041648" lon="16.9113978"><ele>157.4</ele><time>2026-03-29T11:41:11.781Z</time></trkpt><trkpt lat="39.4040562" lon="16.9114119"><ele>156.0</ele><time>2026-03-29T11:41:13.796Z</time></trkpt><trkpt lat="39.4039665" lon="16.9114804"><ele>156.0</ele><time>2026-03-29T11:41:15.779Z</time></trkpt><trkpt lat="39.4039327" lon="16.9116276"><ele>156.0</ele><time>2026-03-29T11:41:17.788Z</time></trkpt><trkpt lat="39.4039252" lon="16.9117136"><ele>156.0</ele><time>2026-03-29T11:41:18.781Z</time></trkpt><trkpt lat="39.4039153" lon="16.9117995"><ele>156.0</ele><time>2026-03-29T11:41:19.781Z</time></trkpt><trkpt lat="39.4038892" lon="16.9119529"><ele>156.0</ele><time>2026-03-29T11:41:21.788Z</time></trkpt><trkpt lat="39.4038306" lon="16.9120494"><ele>153.6</ele><time>2026-03-29T11:41:23.782Z</time></trkpt><trkpt lat="39.4037636" lon="16.9121033"><ele>151.2</ele><time>2026-03-29T11:41:25.783Z</time></trkpt><trkpt lat="39.4037317" lon="16.91222"><ele>148.8</ele><time>2026-03-29T11:41:27.785Z</time></trkpt><trkpt lat="39.4037087" lon="16.9123676"><ele>146.4</ele><time>2026-03-29T11:41:29.775Z</time></trkpt><trkpt lat="39.4036726" lon="16.9124949"><ele>144.0</ele><time>2026-03-29T11:41:31.785Z</time></trkpt><trkpt lat="39.403621" lon="16.912652"><ele>143.5</ele><time>2026-03-29T11:41:33.777Z</time></trkpt><trkpt lat="39.4035959" lon="16.9127403"><ele>143.0</ele><time>2026-03-29T11:41:34.782Z</time></trkpt><trkpt lat="39.4035737" lon="16.9128341"><ele>142.5</ele><time>2026-03-29T11:41:35.79Z</time></trkpt><trkpt lat="39.4035487" lon="16.9129315"><ele>142.0</ele><time>2026-03-29T11:41:36.78Z</time></trkpt><trkpt lat="39.4035202" lon="16.9130357"><ele>141.5</ele><time>2026-03-29T11:41:37.773Z</time></trkpt><trkpt lat="39.4034913" lon="16.9131522"><ele>141.0</ele><time>2026-03-29T11:41:38.777Z</time></trkpt><trkpt lat="39.4034639" lon="16.9132634"><ele>141.0</ele><time>2026-03-29T11:41:39.791Z</time></trkpt><trkpt lat="39.4034253" lon="16.9133613"><ele>141.0</ele><time>2026-03-29T11:41:40.781Z</time></trkpt><trkpt lat="39.4033822" lon="16.9134403"><ele>141.0</ele><time>2026-03-29T11:41:41.776Z</time></trkpt><trkpt lat="39.4033128" lon="16.9135325"><ele>141.0</ele><time>2026-03-29T11:41:43.793Z</time></trkpt><trkpt lat="39.4032269" lon="16.9135897"><ele>141.0</ele><time>2026-03-29T11:41:45.772Z</time></trkpt><trkpt lat="39.4031077" lon="16.9136322"><ele>141.5</ele><time>2026-03-29T11:41:47.789Z</time></trkpt><trkpt lat="39.4030287" lon="16.9136633"><ele>142.0</ele><time>2026-03-29T11:41:48.776Z</time></trkpt><trkpt lat="39.4029341" lon="16.9136979"><ele>142.5</ele><time>2026-03-29T11:41:49.774Z</time></trkpt><trkpt lat="39.4028449" lon="16.9137317"><ele>143.0</ele><time>2026-03-29T11:41:50.777Z</time></trkpt><trkpt lat="39.402768" lon="16.9137735"><ele>143.5</ele><time>2026-03-29T11:41:51.796Z</time></trkpt><trkpt lat="39.4026934" lon="16.9138222"><ele>144.0</ele><time>2026-03-29T11:41:52.782Z</time></trkpt><trkpt lat="39.4026137" lon="16.9138769"><ele>144.0</ele><time>2026-03-29T11:41:53.774Z</time></trkpt><trkpt lat="39.4025378" lon="16.9139304"><ele>144.0</ele><time>2026-03-29T11:41:54.778Z</time></trkpt><trkpt lat="39.4024708" lon="16.913988"><ele>144.0</ele><time>2026-03-29T11:41:55.784Z</time></trkpt><trkpt lat="39.4023999" lon="16.9140495"><ele>144.0</ele><time>2026-03-29T11:41:56.781Z</time></trkpt><trkpt lat="39.4023185" lon="16.9141262"><ele>144.0</ele><time>2026-03-29T11:41:57.776Z</time></trkpt><trkpt lat="39.4022574" lon="16.9141977"><ele>144.0</ele><time>2026-03-29T11:41:58.778Z</time></trkpt><trkpt lat="39.4022135" lon="16.9142633"><ele>141.8</ele><time>2026-03-29T11:41:59.789Z</time></trkpt><trkpt lat="39.4020916" lon="16.9143795"><ele>139.60000000000002</ele><time>2026-03-29T11:42:01.774Z</time></trkpt><trkpt lat="39.4020186" lon="16.9144556"><ele>137.4</ele><time>2026-03-29T11:42:02.777Z</time></trkpt><trkpt lat="39.4019441" lon="16.9145396"><ele>135.20000000000002</ele><time>2026-03-29T11:42:03.787Z</time></trkpt><trkpt lat="39.4018768" lon="16.9146231"><ele>133.0</ele><time>2026-03-29T11:42:04.776Z</time></trkpt><trkpt lat="39.4018182" lon="16.914702"><ele>133.0</ele><time>2026-03-29T11:42:05.794Z</time></trkpt><trkpt lat="39.4017675" lon="16.9147803"><ele>133.0</ele><time>2026-03-29T11:42:06.783Z</time></trkpt><trkpt lat="39.4017196" lon="16.9148686"><ele>133.0</ele><time>2026-03-29T11:42:07.783Z</time></trkpt><trkpt lat="39.4016725" lon="16.9149658"><ele>133.0</ele><time>2026-03-29T11:42:08.775Z</time></trkpt><trkpt lat="39.4016282" lon="16.9150747"><ele>133.0</ele><time>2026-03-29T11:42:09.781Z</time></trkpt><trkpt lat="39.4015929" lon="16.9152013"><ele>132.5</ele><time>2026-03-29T11:42:10.775Z</time></trkpt><trkpt lat="39.4015706" lon="16.9153434"><ele>132.0</ele><time>2026-03-29T11:42:11.786Z</time></trkpt><trkpt lat="39.4015632" lon="16.9155035"><ele>131.5</ele><time>2026-03-29T11:42:12.786Z</time></trkpt><trkpt lat="39.401558" lon="16.9156525"><ele>131.0</ele><time>2026-03-29T11:42:13.785Z</time></trkpt><trkpt lat="39.4015522" lon="16.9157876"><ele>131.0</ele><time>2026-03-29T11:42:14.792Z</time></trkpt><trkpt lat="39.4015419" lon="16.9159116"><ele>131.0</ele><time>2026-03-29T11:42:15.786Z</time></trkpt><trkpt lat="39.4015192" lon="16.9160183"><ele>131.0</ele><time>2026-03-29T11:42:16.772Z</time></trkpt><trkpt lat="39.4014826" lon="16.916137"><ele>131.0</ele><time>2026-03-29T11:42:18.781Z</time></trkpt><trkpt lat="39.4014419" lon="16.9162521"><ele>131.0</ele><time>2026-03-29T11:42:20.777Z</time></trkpt><trkpt lat="39.4014159" lon="16.9163951"><ele>131.0</ele><time>2026-03-29T11:42:22.785Z</time></trkpt><trkpt lat="39.4013924" lon="16.9164866"><ele>131.0</ele><time>2026-03-29T11:42:24.782Z</time></trkpt><trkpt lat="39.40141" lon="16.9166522"><ele>131.0</ele><time>2026-03-29T11:42:26.774Z</time></trkpt><trkpt lat="39.401453" lon="16.9167714"><ele>131.0</ele><time>2026-03-29T11:42:27.785Z</time></trkpt><trkpt lat="39.4014994" lon="16.9169216"><ele>131.0</ele><time>2026-03-29T11:42:28.777Z</time></trkpt><trkpt lat="39.4015421" lon="16.9170925"><ele>131.5</ele><time>2026-03-29T11:42:29.795Z</time></trkpt><trkpt lat="39.401587" lon="16.917286"><ele>132.0</ele><time>2026-03-29T11:42:30.773Z</time></trkpt><trkpt lat="39.401627" lon="16.9174595"><ele>132.5</ele><time>2026-03-29T11:42:31.777Z</time></trkpt><trkpt lat="39.4016661" lon="16.9176103"><ele>133.0</ele><time>2026-03-29T11:42:32.796Z</time></trkpt><trkpt lat="39.4017042" lon="16.9177742"><ele>133.25</ele><time>2026-03-29T11:42:33.809Z</time></trkpt><trkpt lat="39.4017448" lon="16.9179422"><ele>133.5</ele><time>2026-03-29T11:42:34.791Z</time></trkpt><trkpt lat="39.4017833" lon="16.9180931"><ele>133.75</ele><time>2026-03-29T11:42:35.782Z</time></trkpt><trkpt lat="39.401816" lon="16.918227"><ele>134.0</ele><time>2026-03-29T11:42:36.783Z</time></trkpt><trkpt lat="39.4018424" lon="16.9183456"><ele>133.2</ele><time>2026-03-29T11:42:37.79Z</time></trkpt><trkpt lat="39.401864" lon="16.9184633"><ele>132.4</ele><time>2026-03-29T11:42:38.782Z</time></trkpt><trkpt lat="39.4018803" lon="16.9185889"><ele>131.6</ele><time>2026-03-29T11:42:39.798Z</time></trkpt><trkpt lat="39.401885" lon="16.9187161"><ele>130.8</ele><time>2026-03-29T11:42:40.786Z</time></trkpt><trkpt lat="39.4018892" lon="16.9188527"><ele>130.0</ele><time>2026-03-29T11:42:41.776Z</time></trkpt><trkpt lat="39.4018833" lon="16.9189935"><ele>130.0</ele><time>2026-03-29T11:42:42.788Z</time></trkpt><trkpt lat="39.4018547" lon="16.9191544"><ele>130.0</ele><time>2026-03-29T11:42:43.788Z</time></trkpt><trkpt lat="39.4018273" lon="16.919308"><ele>130.0</ele><time>2026-03-29T11:42:44.792Z</time></trkpt><trkpt lat="39.4018003" lon="16.9194559"><ele>130.0</ele><time>2026-03-29T11:42:45.791Z</time></trkpt><trkpt lat="39.4017698" lon="16.9196081"><ele>129.25</ele><time>2026-03-29T11:42:46.784Z</time></trkpt><trkpt lat="39.4016909" lon="16.9197597"><ele>128.5</ele><time>2026-03-29T11:42:47.786Z</time></trkpt><trkpt lat="39.4016216" lon="16.9198986"><ele>127.75</ele><time>2026-03-29T11:42:48.782Z</time></trkpt><trkpt lat="39.40157" lon="16.920025"><ele>127.0</ele><time>2026-03-29T11:42:49.798Z</time></trkpt><trkpt lat="39.4015417" lon="16.9201438"><ele>126.0</ele><time>2026-03-29T11:42:50.781Z</time></trkpt><trkpt lat="39.401537" lon="16.9202568"><ele>124.99999999999999</ele><time>2026-03-29T11:42:51.784Z</time></trkpt><trkpt lat="39.4015501" lon="16.9203603"><ele>123.99999999999999</ele><time>2026-03-29T11:42:52.781Z</time></trkpt><trkpt lat="39.4015762" lon="16.920471"><ele>123.0</ele><time>2026-03-29T11:42:53.782Z</time></trkpt><trkpt lat="39.4016055" lon="16.9205979"><ele>122.0</ele><time>2026-03-29T11:42:54.787Z</time></trkpt><trkpt lat="39.4016312" lon="16.9207229"><ele>121.99999999999999</ele><time>2026-03-29T11:42:55.797Z</time></trkpt><trkpt lat="39.4016427" lon="16.9208491"><ele>122.0</ele><time>2026-03-29T11:42:56.785Z</time></trkpt><trkpt lat="39.4016421" lon="16.9209752"><ele>122.0</ele><time>2026-03-29T11:42:57.785Z</time></trkpt><trkpt lat="39.4016532" lon="16.921091"><ele>122.0</ele><time>2026-03-29T11:42:58.795Z</time></trkpt><trkpt lat="39.4016897" lon="16.9211723"><ele>121.99999999999999</ele><time>2026-03-29T11:42:59.787Z</time></trkpt><trkpt lat="39.4017436" lon="16.9212174"><ele>122.0</ele><time>2026-03-29T11:43:00.788Z</time></trkpt><trkpt lat="39.4018136" lon="16.9212594"><ele>121.33333333333333</ele><time>2026-03-29T11:43:01.785Z</time></trkpt><trkpt lat="39.4018937" lon="16.9213064"><ele>120.66666666666666</ele><time>2026-03-29T11:43:02.799Z</time></trkpt><trkpt lat="39.4019803" lon="16.9213612"><ele>120.0</ele><time>2026-03-29T11:43:03.78Z</time></trkpt><trkpt lat="39.4020575" lon="16.9214169"><ele>119.33333333333334</ele><time>2026-03-29T11:43:04.782Z</time></trkpt><trkpt lat="39.4021058" lon="16.9214698"><ele>118.66666666666667</ele><time>2026-03-29T11:43:05.778Z</time></trkpt><trkpt lat="39.4021672" lon="16.9215329"><ele>118.0</ele><time>2026-03-29T11:43:08.783Z</time></trkpt><trkpt lat="39.4022175" lon="16.9215902"><ele>118.0</ele><time>2026-03-29T11:43:12.783Z</time></trkpt><trkpt lat="39.4022886" lon="16.9216761"><ele>118.00000000000001</ele><time>2026-03-29T11:43:15.788Z</time></trkpt><trkpt lat="39.4023508" lon="16.9217537"><ele>118.00000000000001</ele><time>2026-03-29T11:43:17.789Z</time></trkpt><trkpt lat="39.4024136" lon="16.9218705"><ele>118.0</ele><time>2026-03-29T11:43:19.799Z</time></trkpt><trkpt lat="39.4024176" lon="16.9220293"><ele>118.0</ele><time>2026-03-29T11:43:21.789Z</time></trkpt><trkpt lat="39.4024494" lon="16.9221055"><ele>118.00000000000001</ele><time>2026-03-29T11:43:22.789Z</time></trkpt><trkpt lat="39.4025112" lon="16.92218"><ele>118.0</ele><time>2026-03-29T11:43:23.796Z</time></trkpt><trkpt lat="39.4025841" lon="16.9222407"><ele>118.0</ele><time>2026-03-29T11:43:24.783Z</time></trkpt><trkpt lat="39.4026482" lon="16.9222944"><ele>118.0</ele><time>2026-03-29T11:43:25.784Z</time></trkpt><trkpt lat="39.4027111" lon="16.9223644"><ele>118.00000000000001</ele><time>2026-03-29T11:43:26.787Z</time></trkpt><trkpt lat="39.4027776" lon="16.9224741"><ele>118.0</ele><time>2026-03-29T11:43:27.802Z</time></trkpt><trkpt lat="39.4028509" lon="16.9225781"><ele>118.25</ele><time>2026-03-29T11:43:28.782Z</time></trkpt><trkpt lat="39.4029283" lon="16.9226805"><ele>118.5</ele><time>2026-03-29T11:43:29.772Z</time></trkpt><trkpt lat="39.4030215" lon="16.9227707"><ele>118.75</ele><time>2026-03-29T11:43:30.78Z</time></trkpt><trkpt lat="39.4031297" lon="16.9228517"><ele>119.0</ele><time>2026-03-29T11:43:31.793Z</time></trkpt><trkpt lat="39.4032369" lon="16.9229088"><ele>118.66666666666666</ele><time>2026-03-29T11:43:32.78Z</time></trkpt><trkpt lat="39.4033226" lon="16.9229704"><ele>118.33333333333333</ele><time>2026-03-29T11:43:33.786Z</time></trkpt><trkpt lat="39.4033953" lon="16.9230258"><ele>118.0</ele><time>2026-03-29T11:43:34.774Z</time></trkpt><trkpt lat="39.4034526" lon="16.9230933"><ele>117.66666666666666</ele><time>2026-03-29T11:43:35.783Z</time></trkpt><trkpt lat="39.4034859" lon="16.9231709"><ele>117.33333333333333</ele><time>2026-03-29T11:43:36.78Z</time></trkpt><trkpt lat="39.4035011" lon="16.9232612"><ele>117.0</ele><time>2026-03-29T11:43:37.785Z</time></trkpt><trkpt lat="39.4035081" lon="16.9234227"><ele>117.83333333333333</ele><time>2026-03-29T11:43:39.784Z</time></trkpt><trkpt lat="39.4035221" lon="16.9235661"><ele>118.66666666666666</ele><time>2026-03-29T11:43:41.792Z</time></trkpt><trkpt lat="39.4035456" lon="16.9236727"><ele>119.5</ele><time>2026-03-29T11:43:43.781Z</time></trkpt><trkpt lat="39.4035162" lon="16.923792"><ele>120.33333333333333</ele><time>2026-03-29T11:43:45.776Z</time></trkpt><trkpt lat="39.4034683" lon="16.9238553"><ele>121.16666666666666</ele><time>2026-03-29T11:43:46.784Z</time></trkpt><trkpt lat="39.4034021" lon="16.9239255"><ele>122.0</ele><time>2026-03-29T11:43:47.78Z</time></trkpt><trkpt lat="39.4033283" lon="16.9240053"><ele>122.0</ele><time>2026-03-29T11:43:48.788Z</time></trkpt><trkpt lat="39.4032551" lon="16.9240985"><ele>122.0</ele><time>2026-03-29T11:43:49.8Z</time></trkpt><trkpt lat="39.4031687" lon="16.9242198"><ele>122.0</ele><time>2026-03-29T11:43:50.778Z</time></trkpt><trkpt lat="39.4030713" lon="16.9243754"><ele>122.0</ele><time>2026-03-29T11:43:51.779Z</time></trkpt><trkpt lat="39.4029814" lon="16.9245317"><ele>123.8</ele><time>2026-03-29T11:43:52.783Z</time></trkpt><trkpt lat="39.4029086" lon="16.9246727"><ele>125.6</ele><time>2026-03-29T11:43:53.787Z</time></trkpt><trkpt lat="39.4028602" lon="16.9247779"><ele>127.39999999999999</ele><time>2026-03-29T11:43:54.786Z</time></trkpt><trkpt lat="39.4028233" lon="16.9248926"><ele>129.2</ele><time>2026-03-29T11:43:56.783Z</time></trkpt><trkpt lat="39.4029122" lon="16.924919"><ele>131.0</ele><time>2026-03-29T11:43:59.776Z</time></trkpt><trkpt lat="39.4030152" lon="16.9248229"><ele>134.25</ele><time>2026-03-29T11:44:01.777Z</time></trkpt><trkpt lat="39.4030778" lon="16.9247325"><ele>137.5</ele><time>2026-03-29T11:44:02.776Z</time></trkpt><trkpt lat="39.4031557" lon="16.9246043"><ele>140.75</ele><time>2026-03-29T11:44:03.781Z</time></trkpt><trkpt lat="39.4032302" lon="16.9244784"><ele>144.0</ele><time>2026-03-29T11:44:04.777Z</time></trkpt><trkpt lat="39.4033062" lon="16.9243733"><ele>144.0</ele><time>2026-03-29T11:44:05.776Z</time></trkpt><trkpt lat="39.4033814" lon="16.9242678"><ele>144.0</ele><time>2026-03-29T11:44:06.786Z</time></trkpt><trkpt lat="39.403441" lon="16.9241532"><ele>144.0</ele><time>2026-03-29T11:44:07.789Z</time></trkpt><trkpt lat="39.4035096" lon="16.9240303"><ele>144.0</ele><time>2026-03-29T11:44:08.781Z</time></trkpt><trkpt lat="39.4035943" lon="16.9239226"><ele>140.75</ele><time>2026-03-29T11:44:09.781Z</time></trkpt><trkpt lat="39.4036953" lon="16.9238273"><ele>137.5</ele><time>2026-03-29T11:44:10.782Z</time></trkpt><trkpt lat="39.4038027" lon="16.9237316"><ele>134.25</ele><time>2026-03-29T11:44:11.79Z</time></trkpt><trkpt lat="39.4039179" lon="16.9236233"><ele>131.0</ele><time>2026-03-29T11:44:12.787Z</time></trkpt><trkpt lat="39.4040532" lon="16.9234957"><ele>129.0</ele><time>2026-03-29T11:44:13.784Z</time></trkpt><trkpt lat="39.4041907" lon="16.9233653"><ele>127.0</ele><time>2026-03-29T11:44:14.777Z</time></trkpt><trkpt lat="39.404329" lon="16.9232253"><ele>125.0</ele><time>2026-03-29T11:44:15.784Z</time></trkpt><trkpt lat="39.4044593" lon="16.9230973"><ele>125.0</ele><time>2026-03-29T11:44:16.796Z</time></trkpt><trkpt lat="39.404566" lon="16.922998"><ele>125.0</ele><time>2026-03-29T11:44:17.786Z</time></trkpt><trkpt lat="39.4046605" lon="16.9229322"><ele>125.0</ele><time>2026-03-29T11:44:18.776Z</time></trkpt><trkpt lat="39.4047623" lon="16.9229089"><ele>125.0</ele><time>2026-03-29T11:44:19.79Z</time></trkpt><trkpt lat="39.4048564" lon="16.9229333"><ele>125.0</ele><time>2026-03-29T11:44:20.772Z</time></trkpt><trkpt lat="39.4049292" lon="16.9229974"><ele>126.0</ele><time>2026-03-29T11:44:21.777Z</time></trkpt><trkpt lat="39.4049925" lon="16.9230944"><ele>127.0</ele><time>2026-03-29T11:44:22.791Z</time></trkpt><trkpt lat="39.4050413" lon="16.9232227"><ele>128.0</ele><time>2026-03-29T11:44:23.794Z</time></trkpt><trkpt lat="39.4050898" lon="16.9233859"><ele>129.0</ele><time>2026-03-29T11:44:24.785Z</time></trkpt><trkpt lat="39.4051443" lon="16.923544"><ele>129.0</ele><time>2026-03-29T11:44:25.78Z</time></trkpt><trkpt lat="39.4052126" lon="16.9236937"><ele>129.0</ele><time>2026-03-29T11:44:26.786Z</time></trkpt><trkpt lat="39.4053062" lon="16.9237813"><ele>129.0</ele><time>2026-03-29T11:44:27.787Z</time></trkpt><trkpt lat="39.4054296" lon="16.9238514"><ele>129.0</ele><time>2026-03-29T11:44:28.771Z</time></trkpt><trkpt lat="39.4055782" lon="16.9239287"><ele>132.0</ele><time>2026-03-29T11:44:29.8Z</time></trkpt><trkpt lat="39.4057205" lon="16.9240127"><ele>135.0</ele><time>2026-03-29T11:44:30.775Z</time></trkpt><trkpt lat="39.4058522" lon="16.9240848"><ele>138.0</ele><time>2026-03-29T11:44:31.785Z</time></trkpt><trkpt lat="39.4059552" lon="16.9241754"><ele>141.0</ele><time>2026-03-29T11:44:32.788Z</time></trkpt><trkpt lat="39.4060594" lon="16.9242474"><ele>141.0</ele><time>2026-03-29T11:44:33.79Z</time></trkpt><trkpt lat="39.4061782" lon="16.9243167"><ele>141.0</ele><time>2026-03-29T11:44:34.781Z</time></trkpt><trkpt lat="39.40631" lon="16.9243532"><ele>141.0</ele><time>2026-03-29T11:44:35.806Z</time></trkpt><trkpt lat="39.4064333" lon="16.9243822"><ele>141.0</ele><time>2026-03-29T11:44:36.797Z</time></trkpt><trkpt lat="39.4065525" lon="16.9244131"><ele>139.6</ele><time>2026-03-29T11:44:37.783Z</time></trkpt><trkpt lat="39.4066651" lon="16.924434"><ele>138.2</ele><time>2026-03-29T11:44:38.78Z</time></trkpt><trkpt lat="39.4067684" lon="16.9244526"><ele>136.8</ele><time>2026-03-29T11:44:39.79Z</time></trkpt><trkpt lat="39.4068681" lon="16.924472"><ele>135.4</ele><time>2026-03-29T11:44:40.783Z</time></trkpt><trkpt lat="39.4069608" lon="16.9245023"><ele>134.0</ele><time>2026-03-29T11:44:41.786Z</time></trkpt><trkpt lat="39.4070302" lon="16.9245335"><ele>134.0</ele><time>2026-03-29T11:44:42.781Z</time></trkpt><trkpt lat="39.4071313" lon="16.924592"><ele>134.0</ele><time>2026-03-29T11:44:44.779Z</time></trkpt><trkpt lat="39.4071819" lon="16.9246534"><ele>134.0</ele><time>2026-03-29T11:44:45.784Z</time></trkpt><trkpt lat="39.4072316" lon="16.9247314"><ele>134.0</ele><time>2026-03-29T11:44:46.778Z</time></trkpt><trkpt lat="39.4072888" lon="16.9248081"><ele>134.0</ele><time>2026-03-29T11:44:47.785Z</time></trkpt><trkpt lat="39.4073545" lon="16.9248833"><ele>134.0</ele><time>2026-03-29T11:44:48.781Z</time></trkpt><trkpt lat="39.4074159" lon="16.924975"><ele>134.8</ele><time>2026-03-29T11:44:49.784Z</time></trkpt><trkpt lat="39.407463" lon="16.9250643"><ele>135.60000000000002</ele><time>2026-03-29T11:44:50.779Z</time></trkpt><trkpt lat="39.4074948" lon="16.9251648"><ele>136.4</ele><time>2026-03-29T11:44:51.79Z</time></trkpt><trkpt lat="39.4075292" lon="16.9253065"><ele>137.20000000000002</ele><time>2026-03-29T11:44:52.78Z</time></trkpt><trkpt lat="39.4075697" lon="16.9254667"><ele>138.0</ele><time>2026-03-29T11:44:53.771Z</time></trkpt><trkpt lat="39.4075988" lon="16.9256685"><ele>138.0</ele><time>2026-03-29T11:44:54.779Z</time></trkpt><trkpt lat="39.4076435" lon="16.9258647"><ele>138.0</ele><time>2026-03-29T11:44:55.79Z</time></trkpt><trkpt lat="39.4076927" lon="16.9260566"><ele>138.0</ele><time>2026-03-29T11:44:56.778Z</time></trkpt><trkpt lat="39.4077699" lon="16.926235"><ele>136.5</ele><time>2026-03-29T11:44:57.78Z</time></trkpt><trkpt lat="39.407844" lon="16.9263848"><ele>135.0</ele><time>2026-03-29T11:44:58.788Z</time></trkpt><trkpt lat="39.4079143" lon="16.9265315"><ele>133.5</ele><time>2026-03-29T11:44:59.795Z</time></trkpt><trkpt lat="39.4079579" lon="16.9266819"><ele>132.0</ele><time>2026-03-29T11:45:00.787Z</time></trkpt><trkpt lat="39.4079806" lon="16.9268592"><ele>131.75</ele><time>2026-03-29T11:45:01.78Z</time></trkpt><trkpt lat="39.4079911" lon="16.9270272"><ele>131.5</ele><time>2026-03-29T11:45:02.781Z</time></trkpt><trkpt lat="39.4079925" lon="16.9271815"><ele>131.25</ele><time>2026-03-29T11:45:03.777Z</time></trkpt><trkpt lat="39.4079878" lon="16.9273327"><ele>131.0</ele><time>2026-03-29T11:45:04.777Z</time></trkpt><trkpt lat="39.4079872" lon="16.9274808"><ele>131.2</ele><time>2026-03-29T11:45:05.786Z</time></trkpt><trkpt lat="39.407987" lon="16.9276145"><ele>131.39999999999998</ele><time>2026-03-29T11:45:06.783Z</time></trkpt><trkpt lat="39.4079901" lon="16.927745"><ele>131.6</ele><time>2026-03-29T11:45:07.78Z</time></trkpt><trkpt lat="39.4080051" lon="16.9278755"><ele>131.79999999999998</ele><time>2026-03-29T11:45:08.778Z</time></trkpt><trkpt lat="39.4080413" lon="16.9280111"><ele>132.0</ele><time>2026-03-29T11:45:09.787Z</time></trkpt><trkpt lat="39.4081004" lon="16.9281422"><ele>132.0</ele><time>2026-03-29T11:45:10.785Z</time></trkpt><trkpt lat="39.4081787" lon="16.9282517"><ele>132.0</ele><time>2026-03-29T11:45:11.793Z</time></trkpt><trkpt lat="39.4082707" lon="16.9283376"><ele>132.0</ele><time>2026-03-29T11:45:12.787Z</time></trkpt><trkpt lat="39.408398" lon="16.9283856"><ele>132.0</ele><time>2026-03-29T11:45:13.776Z</time></trkpt><trkpt lat="39.4085213" lon="16.9284132"><ele>128.5</ele><time>2026-03-29T11:45:14.793Z</time></trkpt><trkpt lat="39.4086417" lon="16.9284263"><ele>125.0</ele><time>2026-03-29T11:45:15.783Z</time></trkpt><trkpt lat="39.4087721" lon="16.9284419"><ele>121.5</ele><time>2026-03-29T11:45:16.781Z</time></trkpt><trkpt lat="39.4088988" lon="16.9284527"><ele>118.0</ele><time>2026-03-29T11:45:17.783Z</time></trkpt><trkpt lat="39.4090138" lon="16.9284601"><ele>117.60000000000001</ele><time>2026-03-29T11:45:18.778Z</time></trkpt><trkpt lat="39.409122" lon="16.9284638"><ele>117.20000000000002</ele><time>2026-03-29T11:45:19.787Z</time></trkpt><trkpt lat="39.4092149" lon="16.9284767"><ele>116.8</ele><time>2026-03-29T11:45:20.787Z</time></trkpt><trkpt lat="39.4092937" lon="16.928506"><ele>116.4</ele><time>2026-03-29T11:45:21.792Z</time></trkpt><trkpt lat="39.4093618" lon="16.9285702"><ele>116.0</ele><time>2026-03-29T11:45:22.779Z</time></trkpt><trkpt lat="39.4094202" lon="16.9286545"><ele>116.0</ele><time>2026-03-29T11:45:23.794Z</time></trkpt><trkpt lat="39.4094634" lon="16.9287918"><ele>116.0</ele><time>2026-03-29T11:45:24.791Z</time></trkpt><trkpt lat="39.4094942" lon="16.9289789"><ele>116.0</ele><time>2026-03-29T11:45:25.78Z</time></trkpt><trkpt lat="39.4095251" lon="16.9291445"><ele>116.0</ele><time>2026-03-29T11:45:26.783Z</time></trkpt><trkpt lat="39.4095532" lon="16.9292845"><ele>117.75</ele><time>2026-03-29T11:45:27.801Z</time></trkpt><trkpt lat="39.4095861" lon="16.929423"><ele>119.5</ele><time>2026-03-29T11:45:28.796Z</time></trkpt><trkpt lat="39.409615" lon="16.9295668"><ele>121.25</ele><time>2026-03-29T11:45:29.784Z</time></trkpt><trkpt lat="39.4096398" lon="16.9297124"><ele>123.0</ele><time>2026-03-29T11:45:30.785Z</time></trkpt><trkpt lat="39.4096612" lon="16.9298554"><ele>123.0</ele><time>2026-03-29T11:45:31.784Z</time></trkpt><trkpt lat="39.4096783" lon="16.9299842"><ele>123.0</ele><time>2026-03-29T11:45:32.779Z</time></trkpt><trkpt lat="39.4097053" lon="16.9300985"><ele>123.0</ele><time>2026-03-29T11:45:33.796Z</time></trkpt><trkpt lat="39.4097377" lon="16.9301982"><ele>123.0</ele><time>2026-03-29T11:45:34.779Z</time></trkpt><trkpt lat="39.409782" lon="16.9302918"><ele>123.0</ele><time>2026-03-29T11:45:35.79Z</time></trkpt><trkpt lat="39.4098295" lon="16.9303729"><ele>123.0</ele><time>2026-03-29T11:45:36.787Z</time></trkpt><trkpt lat="39.4098895" lon="16.9304342"><ele>120.5</ele><time>2026-03-29T11:45:37.783Z</time></trkpt><trkpt lat="39.4099615" lon="16.9304783"><ele>118.0</ele><time>2026-03-29T11:45:38.779Z</time></trkpt><trkpt lat="39.410034" lon="16.9305019"><ele>115.5</ele><time>2026-03-29T11:45:39.797Z</time></trkpt><trkpt lat="39.4101107" lon="16.9305138"><ele>113.0</ele><time>2026-03-29T11:45:40.786Z</time></trkpt><trkpt lat="39.4101922" lon="16.9305195"><ele>110.5</ele><time>2026-03-29T11:45:41.788Z</time></trkpt><trkpt lat="39.4102799" lon="16.930522"><ele>108.0</ele><time>2026-03-29T11:45:42.791Z</time></trkpt><trkpt lat="39.410372" lon="16.9305235"><ele>108.0</ele><time>2026-03-29T11:45:43.793Z</time></trkpt><trkpt lat="39.4104698" lon="16.9305254"><ele>108.00000000000001</ele><time>2026-03-29T11:45:44.774Z</time></trkpt><trkpt lat="39.4105673" lon="16.9305225"><ele>108.00000000000001</ele><time>2026-03-29T11:45:45.787Z</time></trkpt><trkpt lat="39.4106583" lon="16.9305212"><ele>108.0</ele><time>2026-03-29T11:45:46.782Z</time></trkpt><trkpt lat="39.410746" lon="16.930526"><ele>108.0</ele><time>2026-03-29T11:45:47.784Z</time></trkpt><trkpt lat="39.4108277" lon="16.9305356"><ele>107.33333333333333</ele><time>2026-03-29T11:45:48.779Z</time></trkpt><trkpt lat="39.4109138" lon="16.9305393"><ele>106.66666666666666</ele><time>2026-03-29T11:45:49.781Z</time></trkpt><trkpt lat="39.411002" lon="16.9305416"><ele>106.0</ele><time>2026-03-29T11:45:50.794Z</time></trkpt><trkpt lat="39.4110839" lon="16.9305463"><ele>105.33333333333333</ele><time>2026-03-29T11:45:51.786Z</time></trkpt><trkpt lat="39.4111705" lon="16.9305556"><ele>104.66666666666666</ele><time>2026-03-29T11:45:52.773Z</time></trkpt><trkpt lat="39.4112581" lon="16.930555"><ele>104.0</ele><time>2026-03-29T11:45:53.783Z</time></trkpt><trkpt lat="39.4113499" lon="16.9305538"><ele>103.4</ele><time>2026-03-29T11:45:54.781Z</time></trkpt><trkpt lat="39.4114381" lon="16.930546"><ele>102.80000000000001</ele><time>2026-03-29T11:45:55.775Z</time></trkpt><trkpt lat="39.4115233" lon="16.9305238"><ele>102.19999999999999</ele><time>2026-03-29T11:45:56.781Z</time></trkpt><trkpt lat="39.4116094" lon="16.9304857"><ele>101.6</ele><time>2026-03-29T11:45:57.788Z</time></trkpt><trkpt lat="39.411703" lon="16.9304512"><ele>101.0</ele><time>2026-03-29T11:45:58.784Z</time></trkpt><trkpt lat="39.4118039" lon="16.9304128"><ele>101.0</ele><time>2026-03-29T11:45:59.776Z</time></trkpt><trkpt lat="39.4119151" lon="16.9303666"><ele>101.0</ele><time>2026-03-29T11:46:00.781Z</time></trkpt><trkpt lat="39.412026" lon="16.9303189"><ele>101.0</ele><time>2026-03-29T11:46:01.779Z</time></trkpt><trkpt lat="39.4121281" lon="16.9302717"><ele>101.0</ele><time>2026-03-29T11:46:02.781Z</time></trkpt><trkpt lat="39.4122314" lon="16.9302218"><ele>100.6</ele><time>2026-03-29T11:46:03.779Z</time></trkpt><trkpt lat="39.4123276" lon="16.9301658"><ele>100.19999999999999</ele><time>2026-03-29T11:46:04.779Z</time></trkpt><trkpt lat="39.4124152" lon="16.9301192"><ele>99.80000000000001</ele><time>2026-03-29T11:46:05.789Z</time></trkpt><trkpt lat="39.4125001" lon="16.9300777"><ele>99.4</ele><time>2026-03-29T11:46:06.787Z</time></trkpt><trkpt lat="39.4125964" lon="16.9300377"><ele>99.0</ele><time>2026-03-29T11:46:07.777Z</time></trkpt><trkpt lat="39.4127016" lon="16.9300107"><ele>99.80000000000001</ele><time>2026-03-29T11:46:08.777Z</time></trkpt><trkpt lat="39.4128098" lon="16.9299889"><ele>100.60000000000001</ele><time>2026-03-29T11:46:09.778Z</time></trkpt><trkpt lat="39.4129089" lon="16.9299718"><ele>101.4</ele><time>2026-03-29T11:46:10.777Z</time></trkpt><trkpt lat="39.4130005" lon="16.9299573"><ele>102.2</ele><time>2026-03-29T11:46:11.777Z</time></trkpt><trkpt lat="39.4130942" lon="16.9299416"><ele>103.0</ele><time>2026-03-29T11:46:12.781Z</time></trkpt><trkpt lat="39.4131892" lon="16.9299277"><ele>103.0</ele><time>2026-03-29T11:46:13.782Z</time></trkpt><trkpt lat="39.4132926" lon="16.9299225"><ele>103.0</ele><time>2026-03-29T11:46:14.788Z</time></trkpt><trkpt lat="39.4134079" lon="16.9299253"><ele>103.0</ele><time>2026-03-29T11:46:15.774Z</time></trkpt><trkpt lat="39.41353" lon="16.9299309"><ele>103.0</ele><time>2026-03-29T11:46:16.779Z</time></trkpt><trkpt lat="39.4136441" lon="16.9299373"><ele>103.0</ele><time>2026-03-29T11:46:17.789Z</time></trkpt><trkpt lat="39.413749" lon="16.9299454"><ele>103.0</ele><time>2026-03-29T11:46:18.789Z</time></trkpt><trkpt lat="39.4138539" lon="16.9299686"><ele>103.0</ele><time>2026-03-29T11:46:19.782Z</time></trkpt><trkpt lat="39.413956" lon="16.9300153"><ele>103.0</ele><time>2026-03-29T11:46:20.781Z</time></trkpt><trkpt lat="39.4140564" lon="16.9300791"><ele>103.0</ele><time>2026-03-29T11:46:21.783Z</time></trkpt><trkpt lat="39.4141554" lon="16.930162"><ele>101.80000000000001</ele><time>2026-03-29T11:46:22.782Z</time></trkpt><trkpt lat="39.4142432" lon="16.9302596"><ele>100.6</ele><time>2026-03-29T11:46:23.789Z</time></trkpt><trkpt lat="39.4143087" lon="16.9303645"><ele>99.4</ele><time>2026-03-29T11:46:24.79Z</time></trkpt><trkpt lat="39.4143698" lon="16.9304665"><ele>98.19999999999999</ele><time>2026-03-29T11:46:25.776Z</time></trkpt><trkpt lat="39.4144281" lon="16.9305706"><ele>97.0</ele><time>2026-03-29T11:46:26.778Z</time></trkpt><trkpt lat="39.4144815" lon="16.9306777"><ele>97.00000000000001</ele><time>2026-03-29T11:46:27.787Z</time></trkpt><trkpt lat="39.4145297" lon="16.9307867"><ele>97.0</ele><time>2026-03-29T11:46:28.787Z</time></trkpt><trkpt lat="39.4145715" lon="16.9308867"><ele>97.0</ele><time>2026-03-29T11:46:29.783Z</time></trkpt><trkpt lat="39.4146073" lon="16.9309736"><ele>97.0</ele><time>2026-03-29T11:46:30.779Z</time></trkpt><trkpt lat="39.414639" lon="16.9310457"><ele>97.00000000000001</ele><time>2026-03-29T11:46:31.786Z</time></trkpt><trkpt lat="39.4146866" lon="16.9311544"><ele>97.0</ele><time>2026-03-29T11:46:33.79Z</time></trkpt><trkpt lat="39.4147216" lon="16.9312684"><ele>96.16666666666667</ele><time>2026-03-29T11:46:35.783Z</time></trkpt><trkpt lat="39.4147837" lon="16.9313682"><ele>95.33333333333334</ele><time>2026-03-29T11:46:37.796Z</time></trkpt><trkpt lat="39.4148359" lon="16.9314189"><ele>94.5</ele><time>2026-03-29T11:46:38.789Z</time></trkpt><trkpt lat="39.4149038" lon="16.9314729"><ele>93.66666666666667</ele><time>2026-03-29T11:46:39.784Z</time></trkpt><trkpt lat="39.4149816" lon="16.9315258"><ele>92.83333333333334</ele><time>2026-03-29T11:46:40.79Z</time></trkpt><trkpt lat="39.415067" lon="16.9315805"><ele>92.0</ele><time>2026-03-29T11:46:41.787Z</time></trkpt><trkpt lat="39.4151629" lon="16.9316408"><ele>92.0</ele><time>2026-03-29T11:46:42.776Z</time></trkpt><trkpt lat="39.4152631" lon="16.9316994"><ele>92.0</ele><time>2026-03-29T11:46:43.802Z</time></trkpt><trkpt lat="39.4153594" lon="16.9317534"><ele>92.0</ele><time>2026-03-29T11:46:44.791Z</time></trkpt><trkpt lat="39.4154553" lon="16.9318055"><ele>92.0</ele><time>2026-03-29T11:46:45.78Z</time></trkpt><trkpt lat="39.4155459" lon="16.9318553"><ele>92.0</ele><time>2026-03-29T11:46:46.786Z</time></trkpt><trkpt lat="39.4156223" lon="16.931899"><ele>91.39999999999999</ele><time>2026-03-29T11:46:47.795Z</time></trkpt><trkpt lat="39.4157182" lon="16.9319606"><ele>90.8</ele><time>2026-03-29T11:46:49.782Z</time></trkpt><trkpt lat="39.4157994" lon="16.9320145"><ele>90.2</ele><time>2026-03-29T11:46:51.78Z</time></trkpt><trkpt lat="39.4158954" lon="16.9320556"><ele>89.6</ele><time>2026-03-29T11:46:53.781Z</time></trkpt><trkpt lat="39.4159937" lon="16.9320977"><ele>89.0</ele><time>2026-03-29T11:46:55.783Z</time></trkpt><trkpt lat="39.416057" lon="16.9321297"><ele>89.0</ele><time>2026-03-29T11:46:56.781Z</time></trkpt><trkpt lat="39.4161277" lon="16.9321692"><ele>89.0</ele><time>2026-03-29T11:46:57.8Z</time></trkpt><trkpt lat="39.416203" lon="16.9322099"><ele>89.0</ele><time>2026-03-29T11:46:58.79Z</time></trkpt><trkpt lat="39.4162801" lon="16.9322554"><ele>89.0</ele><time>2026-03-29T11:46:59.783Z</time></trkpt><trkpt lat="39.4163575" lon="16.9323116"><ele>89.0</ele><time>2026-03-29T11:47:00.794Z</time></trkpt><trkpt lat="39.4164417" lon="16.9323644"><ele>89.0</ele><time>2026-03-29T11:47:01.785Z</time></trkpt><trkpt lat="39.4165357" lon="16.9324177"><ele>89.0</ele><time>2026-03-29T11:47:02.779Z</time></trkpt><trkpt lat="39.4166439" lon="16.932484"><ele>89.0</ele><time>2026-03-29T11:47:03.787Z</time></trkpt><trkpt lat="39.4167694" lon="16.9325595"><ele>89.0</ele><time>2026-03-29T11:47:04.791Z</time></trkpt><trkpt lat="39.4168914" lon="16.9326393"><ele>89.0</ele><time>2026-03-29T11:47:05.799Z</time></trkpt><trkpt lat="39.4170109" lon="16.9327179"><ele>89.0</ele><time>2026-03-29T11:47:06.786Z</time></trkpt><trkpt lat="39.4171367" lon="16.932784"><ele>89.0</ele><time>2026-03-29T11:47:07.791Z</time></trkpt><trkpt lat="39.4172672" lon="16.9328508"><ele>89.0</ele><time>2026-03-29T11:47:08.788Z</time></trkpt><trkpt lat="39.4174081" lon="16.9329242"><ele>89.0</ele><time>2026-03-29T11:47:09.793Z</time></trkpt><trkpt lat="39.4175578" lon="16.9330004"><ele>89.25</ele><time>2026-03-29T11:47:10.784Z</time></trkpt><trkpt lat="39.4177006" lon="16.933076"><ele>89.5</ele><time>2026-03-29T11:47:11.796Z</time></trkpt><trkpt lat="39.4178282" lon="16.9331551"><ele>89.75</ele><time>2026-03-29T11:47:12.785Z</time></trkpt><trkpt lat="39.4179417" lon="16.933237"><ele>90.0</ele><time>2026-03-29T11:47:13.798Z</time></trkpt><trkpt lat="39.4180538" lon="16.9333084"><ele>89.4</ele><time>2026-03-29T11:47:14.786Z</time></trkpt><trkpt lat="39.4181511" lon="16.9333881"><ele>88.8</ele><time>2026-03-29T11:47:15.79Z</time></trkpt><trkpt lat="39.4182354" lon="16.9334685"><ele>88.19999999999999</ele><time>2026-03-29T11:47:16.776Z</time></trkpt><trkpt lat="39.4182998" lon="16.9335309"><ele>87.6</ele><time>2026-03-29T11:47:17.79Z</time></trkpt><trkpt lat="39.4183875" lon="16.9336157"><ele>87.0</ele><time>2026-03-29T11:47:19.777Z</time></trkpt><trkpt lat="39.4184753" lon="16.9337068"><ele>87.0</ele><time>2026-03-29T11:47:21.804Z</time></trkpt><trkpt lat="39.4185437" lon="16.9337815"><ele>87.0</ele><time>2026-03-29T11:47:22.79Z</time></trkpt><trkpt lat="39.4186319" lon="16.9338744"><ele>87.0</ele><time>2026-03-29T11:47:23.781Z</time></trkpt><trkpt lat="39.418735" lon="16.9339823"><ele>87.0</ele><time>2026-03-29T11:47:24.793Z</time></trkpt><trkpt lat="39.4188445" lon="16.9340879"><ele>86.75</ele><time>2026-03-29T11:47:25.795Z</time></trkpt><trkpt lat="39.4189517" lon="16.9341897"><ele>86.5</ele><time>2026-03-29T11:47:26.778Z</time></trkpt><trkpt lat="39.4190587" lon="16.9342768"><ele>86.25</ele><time>2026-03-29T11:47:27.793Z</time></trkpt><trkpt lat="39.4191613" lon="16.9343834"><ele>86.0</ele><time>2026-03-29T11:47:28.788Z</time></trkpt><trkpt lat="39.4192728" lon="16.9344918"><ele>86.0</ele><time>2026-03-29T11:47:29.784Z</time></trkpt><trkpt lat="39.4193778" lon="16.9345998"><ele>86.0</ele><time>2026-03-29T11:47:30.781Z</time></trkpt><trkpt lat="39.4194819" lon="16.9347124"><ele>86.0</ele><time>2026-03-29T11:47:31.784Z</time></trkpt><trkpt lat="39.419589" lon="16.9348222"><ele>86.0</ele><time>2026-03-29T11:47:32.782Z</time></trkpt><trkpt lat="39.4197015" lon="16.9349315"><ele>86.0</ele><time>2026-03-29T11:47:33.778Z</time></trkpt><trkpt lat="39.4198112" lon="16.9350403"><ele>86.0</ele><time>2026-03-29T11:47:34.784Z</time></trkpt><trkpt lat="39.419911" lon="16.935138"><ele>86.0</ele><time>2026-03-29T11:47:35.795Z</time></trkpt><trkpt lat="39.4199885" lon="16.9352175"><ele>86.0</ele><time>2026-03-29T11:47:36.782Z</time></trkpt><trkpt lat="39.4200585" lon="16.935288"><ele>86.0</ele><time>2026-03-29T11:47:37.774Z</time></trkpt><trkpt lat="39.4201355" lon="16.9353578"><ele>86.0</ele><time>2026-03-29T11:47:39.784Z</time></trkpt><trkpt lat="39.4202108" lon="16.9354131"><ele>86.0</ele><time>2026-03-29T11:47:44.782Z</time></trkpt><trkpt lat="39.4202753" lon="16.9354768"><ele>86.0</ele><time>2026-03-29T11:47:46.79Z</time></trkpt><trkpt lat="39.4203333" lon="16.9355564"><ele>86.0</ele><time>2026-03-29T11:47:48.778Z</time></trkpt><trkpt lat="39.4204237" lon="16.9356356"><ele>85.83333333333334</ele><time>2026-03-29T11:47:50.787Z</time></trkpt><trkpt lat="39.4204949" lon="16.9356959"><ele>85.66666666666667</ele><time>2026-03-29T11:47:53.79Z</time></trkpt><trkpt lat="39.4205577" lon="16.935758"><ele>85.5</ele><time>2026-03-29T11:47:55.786Z</time></trkpt><trkpt lat="39.4206394" lon="16.9358394"><ele>85.33333333333333</ele><time>2026-03-29T11:47:57.792Z</time></trkpt><trkpt lat="39.4206934" lon="16.9358997"><ele>85.16666666666666</ele><time>2026-03-29T11:47:58.777Z</time></trkpt><trkpt lat="39.4207619" lon="16.9359856"><ele>85.0</ele><time>2026-03-29T11:47:59.786Z</time></trkpt><trkpt lat="39.4208406" lon="16.9360894"><ele>85.0</ele><time>2026-03-29T11:48:00.788Z</time></trkpt><trkpt lat="39.4209021" lon="16.9361855"><ele>85.0</ele><time>2026-03-29T11:48:01.787Z</time></trkpt><trkpt lat="39.4209464" lon="16.9362597"><ele>85.0</ele><time>2026-03-29T11:48:02.786Z</time></trkpt><trkpt lat="39.4210028" lon="16.9363859"><ele>85.0</ele><time>2026-03-29T11:48:04.789Z</time></trkpt><trkpt lat="39.4210733" lon="16.9365431"><ele>85.0</ele><time>2026-03-29T11:48:06.779Z</time></trkpt><trkpt lat="39.4211082" lon="16.93666"><ele>85.0</ele><time>2026-03-29T11:48:07.774Z</time></trkpt><trkpt lat="39.4211318" lon="16.9367963"><ele>85.0</ele><time>2026-03-29T11:48:08.782Z</time></trkpt><trkpt lat="39.4211501" lon="16.9369498"><ele>85.0</ele><time>2026-03-29T11:48:09.785Z</time></trkpt><trkpt lat="39.4211734" lon="16.9371392"><ele>85.0</ele><time>2026-03-29T11:48:10.779Z</time></trkpt><trkpt lat="39.4212021" lon="16.9373484"><ele>85.0</ele><time>2026-03-29T11:48:11.786Z</time></trkpt><trkpt lat="39.421241" lon="16.9375365"><ele>85.0</ele><time>2026-03-29T11:48:12.781Z</time></trkpt><trkpt lat="39.4212921" lon="16.9377003"><ele>85.0</ele><time>2026-03-29T11:48:13.793Z</time></trkpt><trkpt lat="39.4213599" lon="16.93785"><ele>85.0</ele><time>2026-03-29T11:48:14.789Z</time></trkpt><trkpt lat="39.421435" lon="16.9380013"><ele>85.66666666666666</ele><time>2026-03-29T11:48:15.782Z</time></trkpt><trkpt lat="39.4215337" lon="16.9381558"><ele>86.33333333333333</ele><time>2026-03-29T11:48:16.789Z</time></trkpt><trkpt lat="39.4216478" lon="16.9383301"><ele>87.0</ele><time>2026-03-29T11:48:17.793Z</time></trkpt><trkpt lat="39.4217745" lon="16.9385262"><ele>87.66666666666667</ele><time>2026-03-29T11:48:18.776Z</time></trkpt><trkpt lat="39.4219084" lon="16.9387448"><ele>88.33333333333334</ele><time>2026-03-29T11:48:19.778Z</time></trkpt><trkpt lat="39.4220514" lon="16.9389761"><ele>89.0</ele><time>2026-03-29T11:48:20.787Z</time></trkpt><trkpt lat="39.4222009" lon="16.9392193"><ele>89.0</ele><time>2026-03-29T11:48:21.793Z</time></trkpt><trkpt lat="39.4223422" lon="16.9394562"><ele>89.0</ele><time>2026-03-29T11:48:22.79Z</time></trkpt><trkpt lat="39.4224722" lon="16.9396682"><ele>89.0</ele><time>2026-03-29T11:48:23.784Z</time></trkpt><trkpt lat="39.4225875" lon="16.9398548"><ele>89.0</ele><time>2026-03-29T11:48:24.787Z</time></trkpt><trkpt lat="39.4226856" lon="16.940026"><ele>89.0</ele><time>2026-03-29T11:48:25.794Z</time></trkpt><trkpt lat="39.4227771" lon="16.9401883"><ele>89.0</ele><time>2026-03-29T11:48:26.781Z</time></trkpt><trkpt lat="39.4228793" lon="16.9403515"><ele>89.5</ele><time>2026-03-29T11:48:27.788Z</time></trkpt><trkpt lat="39.4229726" lon="16.9405008"><ele>90.0</ele><time>2026-03-29T11:48:28.782Z</time></trkpt><trkpt lat="39.4230498" lon="16.940637"><ele>90.5</ele><time>2026-03-29T11:48:29.783Z</time></trkpt><trkpt lat="39.4231114" lon="16.9407701"><ele>91.0</ele><time>2026-03-29T11:48:30.788Z</time></trkpt><trkpt lat="39.4231614" lon="16.9409216"><ele>91.0</ele><time>2026-03-29T11:48:31.796Z</time></trkpt><trkpt lat="39.4232069" lon="16.9410884"><ele>91.0</ele><time>2026-03-29T11:48:32.785Z</time></trkpt><trkpt lat="39.4232448" lon="16.9412691"><ele>91.0</ele><time>2026-03-29T11:48:33.778Z</time></trkpt><trkpt lat="39.4232806" lon="16.9414622"><ele>91.0</ele><time>2026-03-29T11:48:34.785Z</time></trkpt><trkpt lat="39.4233165" lon="16.9416568"><ele>89.25</ele><time>2026-03-29T11:48:35.786Z</time></trkpt><trkpt lat="39.4233579" lon="16.9418356"><ele>87.5</ele><time>2026-03-29T11:48:36.786Z</time></trkpt><trkpt lat="39.4233927" lon="16.9420153"><ele>85.75</ele><time>2026-03-29T11:48:37.778Z</time></trkpt><trkpt lat="39.4234215" lon="16.942198"><ele>84.0</ele><time>2026-03-29T11:48:38.783Z</time></trkpt><trkpt lat="39.4234547" lon="16.9423826"><ele>83.0</ele><time>2026-03-29T11:48:39.789Z</time></trkpt><trkpt lat="39.4234899" lon="16.9425774"><ele>82.0</ele><time>2026-03-29T11:48:40.788Z</time></trkpt><trkpt lat="39.4235308" lon="16.942758"><ele>81.0</ele><time>2026-03-29T11:48:41.781Z</time></trkpt><trkpt lat="39.4235785" lon="16.9429278"><ele>80.0</ele><time>2026-03-29T11:48:42.782Z</time></trkpt><trkpt lat="39.423635" lon="16.943105"><ele>80.0</ele><time>2026-03-29T11:48:43.793Z</time></trkpt><trkpt lat="39.4236834" lon="16.9432904"><ele>80.0</ele><time>2026-03-29T11:48:44.787Z</time></trkpt><trkpt lat="39.423731" lon="16.9434571"><ele>80.0</ele><time>2026-03-29T11:48:45.789Z</time></trkpt><trkpt lat="39.4237735" lon="16.9436098"><ele>80.0</ele><time>2026-03-29T11:48:46.795Z</time></trkpt><trkpt lat="39.4238182" lon="16.9437527"><ele>80.5</ele><time>2026-03-29T11:48:47.789Z</time></trkpt><trkpt lat="39.4238874" lon="16.9439013"><ele>81.0</ele><time>2026-03-29T11:48:48.779Z</time></trkpt><trkpt lat="39.4239885" lon="16.9440369"><ele>81.5</ele><time>2026-03-29T11:48:49.791Z</time></trkpt><trkpt lat="39.424098" lon="16.944161"><ele>82.0</ele><time>2026-03-29T11:48:50.789Z</time></trkpt><trkpt lat="39.424215" lon="16.9442475"><ele>80.0</ele><time>2026-03-29T11:48:51.782Z</time></trkpt><trkpt lat="39.4243174" lon="16.9443193"><ele>78.0</ele><time>2026-03-29T11:48:52.788Z</time></trkpt><trkpt lat="39.424419" lon="16.9444008"><ele>76.0</ele><time>2026-03-29T11:48:53.795Z</time></trkpt><trkpt lat="39.4245043" lon="16.9445046"><ele>74.0</ele><time>2026-03-29T11:48:54.782Z</time></trkpt><trkpt lat="39.4245766" lon="16.9446285"><ele>74.0</ele><time>2026-03-29T11:48:55.786Z</time></trkpt><trkpt lat="39.4246323" lon="16.9447599"><ele>74.0</ele><time>2026-03-29T11:48:56.782Z</time></trkpt><trkpt lat="39.4246804" lon="16.9448899"><ele>74.0</ele><time>2026-03-29T11:48:57.792Z</time></trkpt><trkpt lat="39.4247275" lon="16.945018"><ele>74.0</ele><time>2026-03-29T11:48:58.785Z</time></trkpt><trkpt lat="39.4247718" lon="16.945137"><ele>74.0</ele><time>2026-03-29T11:48:59.793Z</time></trkpt><trkpt lat="39.4248112" lon="16.9452481"><ele>74.75</ele><time>2026-03-29T11:49:00.785Z</time></trkpt><trkpt lat="39.4248356" lon="16.9453712"><ele>75.5</ele><time>2026-03-29T11:49:01.8Z</time></trkpt><trkpt lat="39.4248835" lon="16.945499"><ele>76.25</ele><time>2026-03-29T11:49:02.785Z</time></trkpt><trkpt lat="39.4249452" lon="16.945653"><ele>77.0</ele><time>2026-03-29T11:49:03.782Z</time></trkpt><trkpt lat="39.425012" lon="16.9458212"><ele>76.2</ele><time>2026-03-29T11:49:04.785Z</time></trkpt><trkpt lat="39.4250851" lon="16.9459871"><ele>75.4</ele><time>2026-03-29T11:49:05.788Z</time></trkpt><trkpt lat="39.4251493" lon="16.9461213"><ele>74.6</ele><time>2026-03-29T11:49:06.78Z</time></trkpt><trkpt lat="39.4251974" lon="16.9462066"><ele>73.8</ele><time>2026-03-29T11:49:07.788Z</time></trkpt><trkpt lat="39.4252479" lon="16.9462996"><ele>73.0</ele><time>2026-03-29T11:49:09.793Z</time></trkpt><trkpt lat="39.4253147" lon="16.9464231"><ele>73.0</ele><time>2026-03-29T11:49:11.788Z</time></trkpt><trkpt lat="39.4253646" lon="16.9465259"><ele>73.0</ele><time>2026-03-29T11:49:12.78Z</time></trkpt><trkpt lat="39.4254402" lon="16.946663"><ele>73.0</ele><time>2026-03-29T11:49:13.789Z</time></trkpt><trkpt lat="39.4255202" lon="16.9468281"><ele>73.0</ele><time>2026-03-29T11:49:14.786Z</time></trkpt><trkpt lat="39.4256045" lon="16.947012"><ele>72.33333333333333</ele><time>2026-03-29T11:49:15.792Z</time></trkpt><trkpt lat="39.4256983" lon="16.9472131"><ele>71.66666666666667</ele><time>2026-03-29T11:49:16.785Z</time></trkpt><trkpt lat="39.425797" lon="16.9473953"><ele>71.0</ele><time>2026-03-29T11:49:17.784Z</time></trkpt><trkpt lat="39.4259008" lon="16.9475709"><ele>71.0</ele><time>2026-03-29T11:49:18.792Z</time></trkpt><trkpt lat="39.426023" lon="16.9477177"><ele>71.0</ele><time>2026-03-29T11:49:19.791Z</time></trkpt><trkpt lat="39.426154" lon="16.9478633"><ele>71.0</ele><time>2026-03-29T11:49:20.78Z</time></trkpt><trkpt lat="39.4262782" lon="16.9480032"><ele>71.0</ele><time>2026-03-29T11:49:21.783Z</time></trkpt><trkpt lat="39.4263974" lon="16.9481406"><ele>71.0</ele><time>2026-03-29T11:49:22.787Z</time></trkpt><trkpt lat="39.4265059" lon="16.9482637"><ele>71.0</ele><time>2026-03-29T11:49:23.788Z</time></trkpt><trkpt lat="39.4266088" lon="16.9483576"><ele>71.0</ele><time>2026-03-29T11:49:24.784Z</time></trkpt><trkpt lat="39.4267382" lon="16.9484065"><ele>71.0</ele><time>2026-03-29T11:49:25.779Z</time></trkpt><trkpt lat="39.426877" lon="16.9484336"><ele>71.0</ele><time>2026-03-29T11:49:26.79Z</time></trkpt><trkpt lat="39.4270406" lon="16.9484563"><ele>71.0</ele><time>2026-03-29T11:49:27.791Z</time></trkpt><trkpt lat="39.4272027" lon="16.9484479"><ele>70.5</ele><time>2026-03-29T11:49:28.785Z</time></trkpt><trkpt lat="39.4273578" lon="16.9484303"><ele>70.0</ele><time>2026-03-29T11:49:29.782Z</time></trkpt><trkpt lat="39.427494" lon="16.948423"><ele>69.5</ele><time>2026-03-29T11:49:30.783Z</time></trkpt><trkpt lat="39.4276051" lon="16.9484253"><ele>69.0</ele><time>2026-03-29T11:49:31.785Z</time></trkpt><trkpt lat="39.4277082" lon="16.94843"><ele>69.0</ele><time>2026-03-29T11:49:32.787Z</time></trkpt><trkpt lat="39.4278022" lon="16.9484763"><ele>69.0</ele><time>2026-03-29T11:49:33.782Z</time></trkpt><trkpt lat="39.4279123" lon="16.9485588"><ele>69.0</ele><time>2026-03-29T11:49:34.781Z</time></trkpt><trkpt lat="39.4280193" lon="16.9486623"><ele>69.0</ele><time>2026-03-29T11:49:35.804Z</time></trkpt><trkpt lat="39.4281334" lon="16.9487683"><ele>69.0</ele><time>2026-03-29T11:49:36.787Z</time></trkpt><trkpt lat="39.4282377" lon="16.9488508"><ele>69.0</ele><time>2026-03-29T11:49:37.794Z</time></trkpt><trkpt lat="39.428345" lon="16.9489385"><ele>69.0</ele><time>2026-03-29T11:49:38.783Z</time></trkpt><trkpt lat="39.4284219" lon="16.9490255"><ele>69.0</ele><time>2026-03-29T11:49:39.788Z</time></trkpt><trkpt lat="39.4285139" lon="16.9490938"><ele>69.0</ele><time>2026-03-29T11:49:40.785Z</time></trkpt><trkpt lat="39.4286164" lon="16.949159"><ele>69.0</ele><time>2026-03-29T11:49:41.794Z</time></trkpt><trkpt lat="39.4287271" lon="16.9492092"><ele>69.0</ele><time>2026-03-29T11:49:42.785Z</time></trkpt><trkpt lat="39.4288445" lon="16.9492466"><ele>69.0</ele><time>2026-03-29T11:49:43.788Z</time></trkpt><trkpt lat="39.4289605" lon="16.9492865"><ele>68.4</ele><time>2026-03-29T11:49:44.791Z</time></trkpt><trkpt lat="39.4290747" lon="16.9493284"><ele>67.80000000000001</ele><time>2026-03-29T11:49:45.794Z</time></trkpt><trkpt lat="39.4291836" lon="16.9493636"><ele>67.19999999999999</ele><time>2026-03-29T11:49:46.786Z</time></trkpt><trkpt lat="39.4292784" lon="16.9493861"><ele>66.6</ele><time>2026-03-29T11:49:47.779Z</time></trkpt><trkpt lat="39.4293662" lon="16.9493961"><ele>66.0</ele><time>2026-03-29T11:49:48.799Z</time></trkpt><trkpt lat="39.4294594" lon="16.9493967"><ele>66.0</ele><time>2026-03-29T11:49:49.795Z</time></trkpt><trkpt lat="39.4295544" lon="16.9493922"><ele>66.0</ele><time>2026-03-29T11:49:50.8Z</time></trkpt><trkpt lat="39.4296514" lon="16.9493928"><ele>66.0</ele><time>2026-03-29T11:49:51.777Z</time></trkpt><trkpt lat="39.4297515" lon="16.9493875"><ele>66.0</ele><time>2026-03-29T11:49:52.788Z</time></trkpt><trkpt lat="39.4298552" lon="16.9493795"><ele>66.0</ele><time>2026-03-29T11:49:53.797Z</time></trkpt><trkpt lat="39.4299609" lon="16.9493627"><ele>66.25</ele><time>2026-03-29T11:49:54.799Z</time></trkpt><trkpt lat="39.4300709" lon="16.949352"><ele>66.5</ele><time>2026-03-29T11:49:55.798Z</time></trkpt><trkpt lat="39.4301846" lon="16.9493574"><ele>66.75</ele><time>2026-03-29T11:49:56.78Z</time></trkpt><trkpt lat="39.4303041" lon="16.9493624"><ele>67.0</ele><time>2026-03-29T11:49:57.801Z</time></trkpt><trkpt lat="39.4304269" lon="16.9493573"><ele>67.0</ele><time>2026-03-29T11:49:58.787Z</time></trkpt><trkpt lat="39.4305522" lon="16.9493509"><ele>67.0</ele><time>2026-03-29T11:49:59.785Z</time></trkpt><trkpt lat="39.4306898" lon="16.949348"><ele>67.0</ele><time>2026-03-29T11:50:00.791Z</time></trkpt><trkpt lat="39.4308295" lon="16.9493473"><ele>67.0</ele><time>2026-03-29T11:50:01.794Z</time></trkpt><trkpt lat="39.4309674" lon="16.9493409"><ele>67.0</ele><time>2026-03-29T11:50:02.789Z</time></trkpt><trkpt lat="39.4310802" lon="16.9493322"><ele>67.0</ele><time>2026-03-29T11:50:03.786Z</time></trkpt><trkpt lat="39.4311699" lon="16.9493435"><ele>67.0</ele><time>2026-03-29T11:50:04.785Z</time></trkpt><trkpt lat="39.4312552" lon="16.9493426"><ele>67.0</ele><time>2026-03-29T11:50:05.796Z</time></trkpt><trkpt lat="39.4313537" lon="16.9493788"><ele>67.0</ele><time>2026-03-29T11:50:06.79Z</time></trkpt><trkpt lat="39.4314624" lon="16.9494346"><ele>66.33333333333333</ele><time>2026-03-29T11:50:07.795Z</time></trkpt><trkpt lat="39.4315863" lon="16.9495077"><ele>65.66666666666667</ele><time>2026-03-29T11:50:08.785Z</time></trkpt><trkpt lat="39.4317351" lon="16.9495978"><ele>65.0</ele><time>2026-03-29T11:50:09.786Z</time></trkpt><trkpt lat="39.4318856" lon="16.9496827"><ele>65.0</ele><time>2026-03-29T11:50:10.785Z</time></trkpt><trkpt lat="39.4320314" lon="16.9497628"><ele>65.0</ele><time>2026-03-29T11:50:11.796Z</time></trkpt><trkpt lat="39.432182" lon="16.9498447"><ele>65.0</ele><time>2026-03-29T11:50:12.796Z</time></trkpt><trkpt lat="39.4323208" lon="16.9499279"><ele>64.66666666666667</ele><time>2026-03-29T11:50:13.794Z</time></trkpt><trkpt lat="39.43245" lon="16.9500136"><ele>64.33333333333333</ele><time>2026-03-29T11:50:14.786Z</time></trkpt><trkpt lat="39.432578" lon="16.9501129"><ele>64.0</ele><time>2026-03-29T11:50:15.799Z</time></trkpt><trkpt lat="39.4327059" lon="16.950237"><ele>64.0</ele><time>2026-03-29T11:50:16.787Z</time></trkpt><trkpt lat="39.4328312" lon="16.950384"><ele>64.0</ele><time>2026-03-29T11:50:17.784Z</time></trkpt><trkpt lat="39.4329512" lon="16.950546"><ele>64.0</ele><time>2026-03-29T11:50:18.786Z</time></trkpt><trkpt lat="39.4330624" lon="16.9507229"><ele>63.666666666666664</ele><time>2026-03-29T11:50:19.794Z</time></trkpt><trkpt lat="39.43316" lon="16.9509092"><ele>63.33333333333333</ele><time>2026-03-29T11:50:20.782Z</time></trkpt><trkpt lat="39.4332465" lon="16.9510845"><ele>63.0</ele><time>2026-03-29T11:50:21.779Z</time></trkpt><trkpt lat="39.4333275" lon="16.9512461"><ele>63.0</ele><time>2026-03-29T11:50:22.794Z</time></trkpt><trkpt lat="39.4334052" lon="16.9513961"><ele>63.0</ele><time>2026-03-29T11:50:23.789Z</time></trkpt><trkpt lat="39.4334818" lon="16.9515516"><ele>63.0</ele><time>2026-03-29T11:50:24.78Z</time></trkpt><trkpt lat="39.4335627" lon="16.9517145"><ele>63.0</ele><time>2026-03-29T11:50:25.8Z</time></trkpt><trkpt lat="39.4336445" lon="16.9518769"><ele>63.0</ele><time>2026-03-29T11:50:26.782Z</time></trkpt><trkpt lat="39.4337269" lon="16.9520428"><ele>63.0</ele><time>2026-03-29T11:50:27.776Z</time></trkpt><trkpt lat="39.4338021" lon="16.9522041"><ele>63.0</ele><time>2026-03-29T11:50:28.785Z</time></trkpt><trkpt lat="39.4338736" lon="16.9523688"><ele>63.0</ele><time>2026-03-29T11:50:29.794Z</time></trkpt><trkpt lat="39.4339373" lon="16.9525468"><ele>62.66666666666667</ele><time>2026-03-29T11:50:30.788Z</time></trkpt><trkpt lat="39.4339915" lon="16.9527364"><ele>62.333333333333336</ele><time>2026-03-29T11:50:31.78Z</time></trkpt><trkpt lat="39.4340367" lon="16.9529307"><ele>62.0</ele><time>2026-03-29T11:50:32.779Z</time></trkpt><trkpt lat="39.4340684" lon="16.9531157"><ele>62.0</ele><time>2026-03-29T11:50:33.786Z</time></trkpt><trkpt lat="39.4340851" lon="16.9533057"><ele>62.0</ele><time>2026-03-29T11:50:34.789Z</time></trkpt><trkpt lat="39.4340902" lon="16.9535045"><ele>62.0</ele><time>2026-03-29T11:50:35.795Z</time></trkpt><trkpt lat="39.4340883" lon="16.9537086"><ele>61.333333333333336</ele><time>2026-03-29T11:50:36.789Z</time></trkpt><trkpt lat="39.4340878" lon="16.9539037"><ele>60.66666666666667</ele><time>2026-03-29T11:50:37.779Z</time></trkpt><trkpt lat="39.434098" lon="16.9541021"><ele>60.0</ele><time>2026-03-29T11:50:38.782Z</time></trkpt><trkpt lat="39.4341251" lon="16.9543037"><ele>59.75</ele><time>2026-03-29T11:50:39.79Z</time></trkpt><trkpt lat="39.434159" lon="16.9544959"><ele>59.5</ele><time>2026-03-29T11:50:40.784Z</time></trkpt><trkpt lat="39.4341917" lon="16.9546718"><ele>59.25</ele><time>2026-03-29T11:50:41.775Z</time></trkpt><trkpt lat="39.4342196" lon="16.954821"><ele>59.0</ele><time>2026-03-29T11:50:42.793Z</time></trkpt><trkpt lat="39.4342477" lon="16.9549615"><ele>59.0</ele><time>2026-03-29T11:50:43.792Z</time></trkpt><trkpt lat="39.4342764" lon="16.9551001"><ele>59.00000000000001</ele><time>2026-03-29T11:50:44.781Z</time></trkpt><trkpt lat="39.4343066" lon="16.9552353"><ele>59.00000000000001</ele><time>2026-03-29T11:50:45.782Z</time></trkpt><trkpt lat="39.4343369" lon="16.9553677"><ele>59.0</ele><time>2026-03-29T11:50:46.783Z</time></trkpt><trkpt lat="39.434363" lon="16.9554971"><ele>59.0</ele><time>2026-03-29T11:50:47.786Z</time></trkpt><trkpt lat="39.434385" lon="16.9556264"><ele>59.0</ele><time>2026-03-29T11:50:48.787Z</time></trkpt><trkpt lat="39.434409" lon="16.9557603"><ele>59.00000000000001</ele><time>2026-03-29T11:50:49.795Z</time></trkpt><trkpt lat="39.4344343" lon="16.9558942"><ele>59.00000000000001</ele><time>2026-03-29T11:50:50.787Z</time></trkpt><trkpt lat="39.4344613" lon="16.9560316"><ele>59.0</ele><time>2026-03-29T11:50:51.787Z</time></trkpt><trkpt lat="39.4344904" lon="16.9561764"><ele>59.0</ele><time>2026-03-29T11:50:52.792Z</time></trkpt><trkpt lat="39.4345267" lon="16.9563363"><ele>59.0</ele><time>2026-03-29T11:50:53.798Z</time></trkpt><trkpt lat="39.4345634" lon="16.9564902"><ele>59.0</ele><time>2026-03-29T11:50:54.789Z</time></trkpt><trkpt lat="39.4345994" lon="16.9566556"><ele>59.0</ele><time>2026-03-29T11:50:55.782Z</time></trkpt><trkpt lat="39.4346411" lon="16.9568585"><ele>59.0</ele><time>2026-03-29T11:50:56.789Z</time></trkpt><trkpt lat="39.4346783" lon="16.9570689"><ele>59.0</ele><time>2026-03-29T11:50:57.796Z</time></trkpt><trkpt lat="39.4347202" lon="16.9572702"><ele>59.0</ele><time>2026-03-29T11:50:58.786Z</time></trkpt><trkpt lat="39.4347635" lon="16.9574746"><ele>59.0</ele><time>2026-03-29T11:50:59.781Z</time></trkpt><trkpt lat="39.4348091" lon="16.9576733"><ele>59.0</ele><time>2026-03-29T11:51:00.788Z</time></trkpt><trkpt lat="39.4348665" lon="16.9578588"><ele>59.0</ele><time>2026-03-29T11:51:01.799Z</time></trkpt><trkpt lat="39.4349247" lon="16.9580586"><ele>59.0</ele><time>2026-03-29T11:51:02.789Z</time></trkpt><trkpt lat="39.4349801" lon="16.9582568"><ele>61.0</ele><time>2026-03-29T11:51:03.785Z</time></trkpt><trkpt lat="39.4350389" lon="16.9584449"><ele>63.0</ele><time>2026-03-29T11:51:04.791Z</time></trkpt><trkpt lat="39.4350951" lon="16.9586557"><ele>65.0</ele><time>2026-03-29T11:51:05.797Z</time></trkpt><trkpt lat="39.4351477" lon="16.9588586"><ele>65.0</ele><time>2026-03-29T11:51:06.787Z</time></trkpt><trkpt lat="39.4351949" lon="16.9590636"><ele>65.0</ele><time>2026-03-29T11:51:07.784Z</time></trkpt><trkpt lat="39.4352364" lon="16.9592572"><ele>65.0</ele><time>2026-03-29T11:51:08.798Z</time></trkpt><trkpt lat="39.4352629" lon="16.9594431"><ele>65.0</ele><time>2026-03-29T11:51:09.801Z</time></trkpt><trkpt lat="39.4352762" lon="16.9596251"><ele>65.0</ele><time>2026-03-29T11:51:10.793Z</time></trkpt><trkpt lat="39.4352702" lon="16.9598087"><ele>65.0</ele><time>2026-03-29T11:51:11.783Z</time></trkpt><trkpt lat="39.4352594" lon="16.9600005"><ele>65.0</ele><time>2026-03-29T11:51:12.787Z</time></trkpt><trkpt lat="39.4352453" lon="16.9602089"><ele>64.0</ele><time>2026-03-29T11:51:13.795Z</time></trkpt><trkpt lat="39.435233" lon="16.9604332"><ele>63.0</ele><time>2026-03-29T11:51:14.788Z</time></trkpt><trkpt lat="39.4352291" lon="16.9606483"><ele>62.0</ele><time>2026-03-29T11:51:15.78Z</time></trkpt><trkpt lat="39.4352383" lon="16.9608717"><ele>64.66666666666667</ele><time>2026-03-29T11:51:16.797Z</time></trkpt><trkpt lat="39.4352591" lon="16.9610887"><ele>67.33333333333333</ele><time>2026-03-29T11:51:17.79Z</time></trkpt><trkpt lat="39.4352896" lon="16.9613107"><ele>70.0</ele><time>2026-03-29T11:51:18.784Z</time></trkpt><trkpt lat="39.435324" lon="16.9615371"><ele>75.33333333333333</ele><time>2026-03-29T11:51:19.796Z</time></trkpt><trkpt lat="39.435362" lon="16.9617816"><ele>80.66666666666667</ele><time>2026-03-29T11:51:20.789Z</time></trkpt><trkpt lat="39.4354021" lon="16.9620286"><ele>86.0</ele><time>2026-03-29T11:51:21.778Z</time></trkpt><trkpt lat="39.4354408" lon="16.9622524"><ele>78.75</ele><time>2026-03-29T11:51:22.791Z</time></trkpt><trkpt lat="39.4354784" lon="16.9624539"><ele>71.5</ele><time>2026-03-29T11:51:23.796Z</time></trkpt><trkpt lat="39.4355137" lon="16.9626314"><ele>64.25</ele><time>2026-03-29T11:51:24.795Z</time></trkpt><trkpt lat="39.4355522" lon="16.9627993"><ele>57.0</ele><time>2026-03-29T11:51:25.778Z</time></trkpt><trkpt lat="39.4356018" lon="16.9629552"><ele>57.0</ele><time>2026-03-29T11:51:26.782Z</time></trkpt><trkpt lat="39.4356632" lon="16.9630794"><ele>57.0</ele><time>2026-03-29T11:51:27.784Z</time></trkpt><trkpt lat="39.4357376" lon="16.963183"><ele>57.0</ele><time>2026-03-29T11:51:28.785Z</time></trkpt><trkpt lat="39.4358101" lon="16.9633"><ele>57.0</ele><time>2026-03-29T11:51:29.778Z</time></trkpt><trkpt lat="39.4358768" lon="16.9634342"><ele>61.25</ele><time>2026-03-29T11:51:30.782Z</time></trkpt><trkpt lat="39.4359536" lon="16.9635922"><ele>65.5</ele><time>2026-03-29T11:51:31.784Z</time></trkpt><trkpt lat="39.4360349" lon="16.9637461"><ele>69.75</ele><time>2026-03-29T11:51:32.791Z</time></trkpt><trkpt lat="39.4361139" lon="16.9638845"><ele>74.0</ele><time>2026-03-29T11:51:33.776Z</time></trkpt><trkpt lat="39.4361943" lon="16.9640097"><ele>74.0</ele><time>2026-03-29T11:51:34.79Z</time></trkpt><trkpt lat="39.4362865" lon="16.9641207"><ele>74.0</ele><time>2026-03-29T11:51:35.795Z</time></trkpt><trkpt lat="39.4363985" lon="16.964225"><ele>74.0</ele><time>2026-03-29T11:51:36.776Z</time></trkpt><trkpt lat="39.4365195" lon="16.964326"><ele>74.0</ele><time>2026-03-29T11:51:37.788Z</time></trkpt><trkpt lat="39.4366483" lon="16.9644246"><ele>70.33333333333334</ele><time>2026-03-29T11:51:38.785Z</time></trkpt><trkpt lat="39.436784" lon="16.9645235"><ele>66.66666666666667</ele><time>2026-03-29T11:51:39.782Z</time></trkpt><trkpt lat="39.4369243" lon="16.9646217"><ele>63.0</ele><time>2026-03-29T11:51:40.784Z</time></trkpt><trkpt lat="39.4370543" lon="16.9647193"><ele>63.66666666666667</ele><time>2026-03-29T11:51:41.796Z</time></trkpt><trkpt lat="39.437177" lon="16.964833"><ele>64.33333333333334</ele><time>2026-03-29T11:51:42.793Z</time></trkpt><trkpt lat="39.4372997" lon="16.9649623"><ele>65.0</ele><time>2026-03-29T11:51:43.778Z</time></trkpt><trkpt lat="39.4374143" lon="16.9650876"><ele>65.0</ele><time>2026-03-29T11:51:44.786Z</time></trkpt><trkpt lat="39.4375247" lon="16.9652145"><ele>65.0</ele><time>2026-03-29T11:51:45.793Z</time></trkpt><trkpt lat="39.4376356" lon="16.96535"><ele>65.0</ele><time>2026-03-29T11:51:46.779Z</time></trkpt><trkpt lat="39.4377493" lon="16.9654934"><ele>65.0</ele><time>2026-03-29T11:51:47.777Z</time></trkpt><trkpt lat="39.4378672" lon="16.9656428"><ele>65.0</ele><time>2026-03-29T11:51:48.785Z</time></trkpt><trkpt lat="39.4379857" lon="16.9657924"><ele>65.0</ele><time>2026-03-29T11:51:49.779Z</time></trkpt><trkpt lat="39.4380997" lon="16.9659368"><ele>65.75</ele><time>2026-03-29T11:51:50.775Z</time></trkpt><trkpt lat="39.4382049" lon="16.9660709"><ele>66.5</ele><time>2026-03-29T11:51:51.784Z</time></trkpt><trkpt lat="39.4383072" lon="16.9661995"><ele>67.25</ele><time>2026-03-29T11:51:52.783Z</time></trkpt><trkpt lat="39.4384136" lon="16.9663275"><ele>68.0</ele><time>2026-03-29T11:51:53.779Z</time></trkpt><trkpt lat="39.4385274" lon="16.9664482"><ele>68.0</ele><time>2026-03-29T11:51:54.787Z</time></trkpt><trkpt lat="39.4386503" lon="16.9665571"><ele>68.0</ele><time>2026-03-29T11:51:55.781Z</time></trkpt><trkpt lat="39.4387807" lon="16.9666494"><ele>68.0</ele><time>2026-03-29T11:51:56.778Z</time></trkpt><trkpt lat="39.4389182" lon="16.966716"><ele>68.0</ele><time>2026-03-29T11:51:57.779Z</time></trkpt><trkpt lat="39.4390492" lon="16.9667602"><ele>69.0</ele><time>2026-03-29T11:51:58.779Z</time></trkpt><trkpt lat="39.4391687" lon="16.9667954"><ele>70.0</ele><time>2026-03-29T11:51:59.784Z</time></trkpt><trkpt lat="39.4392735" lon="16.9668382"><ele>71.0</ele><time>2026-03-29T11:52:00.789Z</time></trkpt><trkpt lat="39.4393787" lon="16.9668846"><ele>72.0</ele><time>2026-03-29T11:52:01.787Z</time></trkpt><trkpt lat="39.4394981" lon="16.9669121"><ele>72.0</ele><time>2026-03-29T11:52:02.773Z</time></trkpt><trkpt lat="39.4396298" lon="16.9669447"><ele>72.0</ele><time>2026-03-29T11:52:03.781Z</time></trkpt><trkpt lat="39.4397595" lon="16.9669823"><ele>72.0</ele><time>2026-03-29T11:52:04.79Z</time></trkpt><trkpt lat="39.439875" lon="16.967007"><ele>72.0</ele><time>2026-03-29T11:52:05.778Z</time></trkpt><trkpt lat="39.439981" lon="16.9670357"><ele>68.25</ele><time>2026-03-29T11:52:06.788Z</time></trkpt><trkpt lat="39.4400958" lon="16.9670924"><ele>64.5</ele><time>2026-03-29T11:52:07.783Z</time></trkpt><trkpt lat="39.4402147" lon="16.9671804"><ele>60.75</ele><time>2026-03-29T11:52:08.777Z</time></trkpt><trkpt lat="39.4403346" lon="16.967293"><ele>57.0</ele><time>2026-03-29T11:52:09.791Z</time></trkpt><trkpt lat="39.4404533" lon="16.9674301"><ele>59.0</ele><time>2026-03-29T11:52:10.79Z</time></trkpt><trkpt lat="39.4405843" lon="16.9675951"><ele>61.0</ele><time>2026-03-29T11:52:11.775Z</time></trkpt><trkpt lat="39.4407149" lon="16.9677606"><ele>63.0</ele><time>2026-03-29T11:52:12.78Z</time></trkpt><trkpt lat="39.4408374" lon="16.9679132"><ele>63.0</ele><time>2026-03-29T11:52:13.791Z</time></trkpt><trkpt lat="39.4409505" lon="16.9680538"><ele>63.0</ele><time>2026-03-29T11:52:14.786Z</time></trkpt><trkpt lat="39.4410555" lon="16.9681856"><ele>63.0</ele><time>2026-03-29T11:52:15.777Z</time></trkpt><trkpt lat="39.4411571" lon="16.9683108"><ele>63.0</ele><time>2026-03-29T11:52:16.779Z</time></trkpt><trkpt lat="39.4412529" lon="16.9684303"><ele>61.25</ele><time>2026-03-29T11:52:17.795Z</time></trkpt><trkpt lat="39.4413439" lon="16.9685581"><ele>59.5</ele><time>2026-03-29T11:52:18.794Z</time></trkpt><trkpt lat="39.4414269" lon="16.9686975"><ele>57.75</ele><time>2026-03-29T11:52:19.784Z</time></trkpt><trkpt lat="39.4414988" lon="16.9688397"><ele>56.0</ele><time>2026-03-29T11:52:20.786Z</time></trkpt><trkpt lat="39.4415604" lon="16.9689724"><ele>56.0</ele><time>2026-03-29T11:52:21.802Z</time></trkpt><trkpt lat="39.4416042" lon="16.9691106"><ele>56.0</ele><time>2026-03-29T11:52:22.791Z</time></trkpt><trkpt lat="39.4416378" lon="16.9692484"><ele>56.0</ele><time>2026-03-29T11:52:23.801Z</time></trkpt><trkpt lat="39.4416804" lon="16.9693895"><ele>56.0</ele><time>2026-03-29T11:52:24.789Z</time></trkpt><trkpt lat="39.4417206" lon="16.9695548"><ele>58.5</ele><time>2026-03-29T11:52:25.789Z</time></trkpt><trkpt lat="39.4417633" lon="16.96973"><ele>61.0</ele><time>2026-03-29T11:52:26.785Z</time></trkpt><trkpt lat="39.4418192" lon="16.9698927"><ele>63.5</ele><time>2026-03-29T11:52:27.795Z</time></trkpt><trkpt lat="39.441878" lon="16.9700454"><ele>66.0</ele><time>2026-03-29T11:52:28.793Z</time></trkpt><trkpt lat="39.4419406" lon="16.9701746"><ele>67.39999999999999</ele><time>2026-03-29T11:52:29.788Z</time></trkpt><trkpt lat="39.4420091" lon="16.9702839"><ele>68.8</ele><time>2026-03-29T11:52:30.78Z</time></trkpt><trkpt lat="39.4420877" lon="16.9703831"><ele>70.19999999999999</ele><time>2026-03-29T11:52:31.783Z</time></trkpt><trkpt lat="39.4421658" lon="16.970478"><ele>71.6</ele><time>2026-03-29T11:52:32.782Z</time></trkpt><trkpt lat="39.4422343" lon="16.9705552"><ele>73.0</ele><time>2026-03-29T11:52:33.786Z</time></trkpt><trkpt lat="39.4422926" lon="16.9706318"><ele>70.6</ele><time>2026-03-29T11:52:34.792Z</time></trkpt><trkpt lat="39.4423797" lon="16.9707272"><ele>68.19999999999999</ele><time>2026-03-29T11:52:36.777Z</time></trkpt><trkpt lat="39.4424387" lon="16.9708325"><ele>65.8</ele><time>2026-03-29T11:52:38.78Z</time></trkpt><trkpt lat="39.4425201" lon="16.9709204"><ele>63.4</ele><time>2026-03-29T11:52:40.782Z</time></trkpt><trkpt lat="39.4425835" lon="16.9710058"><ele>61.0</ele><time>2026-03-29T11:52:42.783Z</time></trkpt><trkpt lat="39.4426784" lon="16.9710994"><ele>61.0</ele><time>2026-03-29T11:52:44.791Z</time></trkpt><trkpt lat="39.442756" lon="16.9711773"><ele>60.99999999999999</ele><time>2026-03-29T11:52:45.796Z</time></trkpt><trkpt lat="39.4428298" lon="16.9712502"><ele>60.99999999999999</ele><time>2026-03-29T11:52:46.781Z</time></trkpt><trkpt lat="39.4429115" lon="16.9713304"><ele>61.0</ele><time>2026-03-29T11:52:47.786Z</time></trkpt><trkpt lat="39.4429999" lon="16.9714528"><ele>61.0</ele><time>2026-03-29T11:52:48.793Z</time></trkpt><trkpt lat="39.4430787" lon="16.9715891"><ele>62.0</ele><time>2026-03-29T11:52:49.8Z</time></trkpt><trkpt lat="39.4431589" lon="16.9717134"><ele>63.0</ele><time>2026-03-29T11:52:50.779Z</time></trkpt><trkpt lat="39.4432452" lon="16.9718085"><ele>64.0</ele><time>2026-03-29T11:52:51.781Z</time></trkpt><trkpt lat="39.4433219" lon="16.9719038"><ele>65.0</ele><time>2026-03-29T11:52:52.802Z</time></trkpt><trkpt lat="39.4434249" lon="16.9719843"><ele>65.0</ele><time>2026-03-29T11:52:53.794Z</time></trkpt><trkpt lat="39.4435298" lon="16.9720642"><ele>65.0</ele><time>2026-03-29T11:52:54.784Z</time></trkpt><trkpt lat="39.4436441" lon="16.9721416"><ele>65.0</ele><time>2026-03-29T11:52:55.794Z</time></trkpt><trkpt lat="39.4437512" lon="16.9722037"><ele>65.0</ele><time>2026-03-29T11:52:56.788Z</time></trkpt><trkpt lat="39.4438388" lon="16.9722674"><ele>64.5</ele><time>2026-03-29T11:52:57.783Z</time></trkpt><trkpt lat="39.4439185" lon="16.972343"><ele>64.0</ele><time>2026-03-29T11:52:58.791Z</time></trkpt><trkpt lat="39.4440072" lon="16.9724484"><ele>63.5</ele><time>2026-03-29T11:52:59.78Z</time></trkpt><trkpt lat="39.4441133" lon="16.9725373"><ele>63.0</ele><time>2026-03-29T11:53:00.785Z</time></trkpt><trkpt lat="39.4442019" lon="16.9726096"><ele>63.0</ele><time>2026-03-29T11:53:01.777Z</time></trkpt><trkpt lat="39.4442663" lon="16.9726656"><ele>63.0</ele><time>2026-03-29T11:53:02.783Z</time></trkpt><trkpt lat="39.444332" lon="16.9727177"><ele>63.0</ele><time>2026-03-29T11:53:03.792Z</time></trkpt><trkpt lat="39.4444032" lon="16.9727639"><ele>63.0</ele><time>2026-03-29T11:53:04.782Z</time></trkpt><trkpt lat="39.4445048" lon="16.9728019"><ele>63.0</ele><time>2026-03-29T11:53:05.778Z</time></trkpt><trkpt lat="39.4445995" lon="16.9728362"><ele>63.0</ele><time>2026-03-29T11:53:06.782Z</time></trkpt><trkpt lat="39.4447073" lon="16.9729017"><ele>60.5</ele><time>2026-03-29T11:53:07.798Z</time></trkpt><trkpt lat="39.4448097" lon="16.9730037"><ele>58.0</ele><time>2026-03-29T11:53:08.792Z</time></trkpt><trkpt lat="39.4449068" lon="16.9730788"><ele>55.5</ele><time>2026-03-29T11:53:09.789Z</time></trkpt><trkpt lat="39.4450048" lon="16.9731676"><ele>53.0</ele><time>2026-03-29T11:53:10.784Z</time></trkpt><trkpt lat="39.4450966" lon="16.9732508"><ele>53.0</ele><time>2026-03-29T11:53:11.789Z</time></trkpt><trkpt lat="39.4451894" lon="16.9733213"><ele>53.0</ele><time>2026-03-29T11:53:12.787Z</time></trkpt><trkpt lat="39.4452832" lon="16.9734035"><ele>53.0</ele><time>2026-03-29T11:53:13.79Z</time></trkpt><trkpt lat="39.4453874" lon="16.9734926"><ele>53.0</ele><time>2026-03-29T11:53:14.785Z</time></trkpt><trkpt lat="39.4454948" lon="16.9735886"><ele>52.0</ele><time>2026-03-29T11:53:15.796Z</time></trkpt><trkpt lat="39.445603" lon="16.9737152"><ele>51.0</ele><time>2026-03-29T11:53:16.791Z</time></trkpt><trkpt lat="39.4456869" lon="16.9738422"><ele>50.0</ele><time>2026-03-29T11:53:17.78Z</time></trkpt><trkpt lat="39.44576" lon="16.9739805"><ele>49.0</ele><time>2026-03-29T11:53:18.778Z</time></trkpt><trkpt lat="39.4457966" lon="16.9741728"><ele>50.666666666666664</ele><time>2026-03-29T11:53:19.778Z</time></trkpt><trkpt lat="39.445843" lon="16.9743977"><ele>52.33333333333333</ele><time>2026-03-29T11:53:20.786Z</time></trkpt><trkpt lat="39.4458952" lon="16.9746426"><ele>54.0</ele><time>2026-03-29T11:53:21.785Z</time></trkpt><trkpt lat="39.4459487" lon="16.974872"><ele>56.0</ele><time>2026-03-29T11:53:22.775Z</time></trkpt><trkpt lat="39.4459988" lon="16.9750902"><ele>58.0</ele><time>2026-03-29T11:53:23.786Z</time></trkpt><trkpt lat="39.4460453" lon="16.9753131"><ele>60.0</ele><time>2026-03-29T11:53:24.779Z</time></trkpt><trkpt lat="39.4460958" lon="16.9755373"><ele>60.0</ele><time>2026-03-29T11:53:25.786Z</time></trkpt><trkpt lat="39.4461449" lon="16.9757539"><ele>60.0</ele><time>2026-03-29T11:53:26.784Z</time></trkpt><trkpt lat="39.4461885" lon="16.9759536"><ele>60.0</ele><time>2026-03-29T11:53:27.793Z</time></trkpt><trkpt lat="39.4462234" lon="16.9761261"><ele>60.33333333333333</ele><time>2026-03-29T11:53:28.776Z</time></trkpt><trkpt lat="39.4462378" lon="16.9762984"><ele>60.666666666666664</ele><time>2026-03-29T11:53:29.773Z</time></trkpt><trkpt lat="39.4462234" lon="16.9764935"><ele>61.0</ele><time>2026-03-29T11:53:30.779Z</time></trkpt><trkpt lat="39.4461975" lon="16.9767065"><ele>60.0</ele><time>2026-03-29T11:53:31.785Z</time></trkpt><trkpt lat="39.446185" lon="16.9769231"><ele>59.0</ele><time>2026-03-29T11:53:32.781Z</time></trkpt><trkpt lat="39.4461737" lon="16.9771521"><ele>58.0</ele><time>2026-03-29T11:53:33.778Z</time></trkpt><trkpt lat="39.4461652" lon="16.9773483"><ele>56.5</ele><time>2026-03-29T11:53:34.784Z</time></trkpt><trkpt lat="39.4461585" lon="16.977528"><ele>55.0</ele><time>2026-03-29T11:53:35.793Z</time></trkpt><trkpt lat="39.4461464" lon="16.9776974"><ele>53.5</ele><time>2026-03-29T11:53:36.791Z</time></trkpt><trkpt lat="39.4461233" lon="16.9778439"><ele>52.0</ele><time>2026-03-29T11:53:37.782Z</time></trkpt><trkpt lat="39.4460855" lon="16.9779702"><ele>52.0</ele><time>2026-03-29T11:53:38.792Z</time></trkpt><trkpt lat="39.4460008" lon="16.9781013"><ele>52.0</ele><time>2026-03-29T11:53:39.795Z</time></trkpt><trkpt lat="39.4459059" lon="16.9781744"><ele>52.0</ele><time>2026-03-29T11:53:40.784Z</time></trkpt><trkpt lat="39.4457947" lon="16.9782224"><ele>52.0</ele><time>2026-03-29T11:53:41.781Z</time></trkpt><trkpt lat="39.4456527" lon="16.9782512"><ele>52.0</ele><time>2026-03-29T11:53:42.794Z</time></trkpt><trkpt lat="39.445507" lon="16.9782707"><ele>52.0</ele><time>2026-03-29T11:53:43.806Z</time></trkpt><trkpt lat="39.4453638" lon="16.9783065"><ele>52.0</ele><time>2026-03-29T11:53:44.785Z</time></trkpt><trkpt lat="39.4452133" lon="16.978341"><ele>52.0</ele><time>2026-03-29T11:53:45.781Z</time></trkpt><trkpt lat="39.4450703" lon="16.9783616"><ele>52.5</ele><time>2026-03-29T11:53:46.779Z</time></trkpt><trkpt lat="39.4449276" lon="16.9783869"><ele>53.0</ele><time>2026-03-29T11:53:47.785Z</time></trkpt><trkpt lat="39.4447836" lon="16.9784194"><ele>53.5</ele><time>2026-03-29T11:53:48.787Z</time></trkpt><trkpt lat="39.4446343" lon="16.9784672"><ele>54.0</ele><time>2026-03-29T11:53:49.788Z</time></trkpt><trkpt lat="39.444477" lon="16.9785332"><ele>54.0</ele><time>2026-03-29T11:53:50.785Z</time></trkpt><trkpt lat="39.4443127" lon="16.9786105"><ele>54.0</ele><time>2026-03-29T11:53:51.779Z</time></trkpt><trkpt lat="39.4441581" lon="16.9786841"><ele>54.0</ele><time>2026-03-29T11:53:52.778Z</time></trkpt><trkpt lat="39.4439946" lon="16.9787428"><ele>54.0</ele><time>2026-03-29T11:53:53.782Z</time></trkpt><trkpt lat="39.4438277" lon="16.978781"><ele>54.0</ele><time>2026-03-29T11:53:54.778Z</time></trkpt><trkpt lat="39.4436711" lon="16.9788083"><ele>54.0</ele><time>2026-03-29T11:53:55.782Z</time></trkpt><trkpt lat="39.4435238" lon="16.9788257"><ele>54.25</ele><time>2026-03-29T11:53:56.776Z</time></trkpt><trkpt lat="39.4433801" lon="16.9788362"><ele>54.5</ele><time>2026-03-29T11:53:57.783Z</time></trkpt><trkpt lat="39.4432279" lon="16.978847"><ele>54.75</ele><time>2026-03-29T11:53:58.776Z</time></trkpt><trkpt lat="39.4430834" lon="16.9788615"><ele>55.0</ele><time>2026-03-29T11:53:59.789Z</time></trkpt><trkpt lat="39.4429484" lon="16.9788785"><ele>55.5</ele><time>2026-03-29T11:54:00.78Z</time></trkpt><trkpt lat="39.442814" lon="16.9788924"><ele>56.0</ele><time>2026-03-29T11:54:01.77Z</time></trkpt><trkpt lat="39.4426882" lon="16.9788971"><ele>56.5</ele><time>2026-03-29T11:54:02.778Z</time></trkpt><trkpt lat="39.4425544" lon="16.9788925"><ele>57.0</ele><time>2026-03-29T11:54:03.782Z</time></trkpt><trkpt lat="39.4424101" lon="16.9788658"><ele>57.0</ele><time>2026-03-29T11:54:04.783Z</time></trkpt><trkpt lat="39.4422772" lon="16.9788368"><ele>57.0</ele><time>2026-03-29T11:54:05.775Z</time></trkpt><trkpt lat="39.4421506" lon="16.9788187"><ele>57.0</ele><time>2026-03-29T11:54:06.786Z</time></trkpt><trkpt lat="39.4420222" lon="16.9788219"><ele>57.0</ele><time>2026-03-29T11:54:07.785Z</time></trkpt><trkpt lat="39.4418982" lon="16.9788594"><ele>56.75</ele><time>2026-03-29T11:54:08.781Z</time></trkpt><trkpt lat="39.4417829" lon="16.9789155"><ele>56.5</ele><time>2026-03-29T11:54:09.78Z</time></trkpt><trkpt lat="39.4416706" lon="16.9789773"><ele>56.25</ele><time>2026-03-29T11:54:10.783Z</time></trkpt><trkpt lat="39.4415608" lon="16.9790414"><ele>56.0</ele><time>2026-03-29T11:54:11.778Z</time></trkpt><trkpt lat="39.4414534" lon="16.9791019"><ele>56.0</ele><time>2026-03-29T11:54:12.779Z</time></trkpt><trkpt lat="39.4413442" lon="16.9791438"><ele>55.99999999999999</ele><time>2026-03-29T11:54:13.79Z</time></trkpt><trkpt lat="39.4412379" lon="16.979152"><ele>55.99999999999999</ele><time>2026-03-29T11:54:14.784Z</time></trkpt><trkpt lat="39.4411332" lon="16.9791229"><ele>56.0</ele><time>2026-03-29T11:54:15.781Z</time></trkpt><trkpt lat="39.4410247" lon="16.9790767"><ele>56.0</ele><time>2026-03-29T11:54:16.78Z</time></trkpt><trkpt lat="39.440915" lon="16.9790257"><ele>56.599999999999994</ele><time>2026-03-29T11:54:17.786Z</time></trkpt><trkpt lat="39.4408066" lon="16.9789781"><ele>57.199999999999996</ele><time>2026-03-29T11:54:18.784Z</time></trkpt><trkpt lat="39.4407018" lon="16.9789315"><ele>57.800000000000004</ele><time>2026-03-29T11:54:19.776Z</time></trkpt><trkpt lat="39.4406013" lon="16.9788856"><ele>58.400000000000006</ele><time>2026-03-29T11:54:20.783Z</time></trkpt><trkpt lat="39.4404996" lon="16.978838"><ele>59.0</ele><time>2026-03-29T11:54:21.784Z</time></trkpt><trkpt lat="39.4403994" lon="16.9787946"><ele>59.00000000000001</ele><time>2026-03-29T11:54:22.777Z</time></trkpt><trkpt lat="39.4403103" lon="16.9787595"><ele>59.0</ele><time>2026-03-29T11:54:23.793Z</time></trkpt><trkpt lat="39.4402342" lon="16.9787387"><ele>59.0</ele><time>2026-03-29T11:54:24.777Z</time></trkpt><trkpt lat="39.4401682" lon="16.9787334"><ele>59.0</ele><time>2026-03-29T11:54:25.776Z</time></trkpt><trkpt lat="39.4400564" lon="16.9787485"><ele>59.00000000000001</ele><time>2026-03-29T11:54:27.796Z</time></trkpt><trkpt lat="39.4399797" lon="16.9787865"><ele>59.0</ele><time>2026-03-29T11:54:29.778Z</time></trkpt><trkpt lat="39.4399018" lon="16.9788496"><ele>59.0</ele><time>2026-03-29T11:54:39.784Z</time></trkpt><trkpt lat="39.4397793" lon="16.9789453"><ele>59.0</ele><time>2026-03-29T11:54:45.79Z</time></trkpt><trkpt lat="39.4396833" lon="16.9790195"><ele>59.0</ele><time>2026-03-29T11:54:46.795Z</time></trkpt><trkpt lat="39.439578" lon="16.9791015"><ele>59.0</ele><time>2026-03-29T11:54:47.788Z</time></trkpt><trkpt lat="39.4394643" lon="16.9791807"><ele>58.0</ele><time>2026-03-29T11:54:48.788Z</time></trkpt><trkpt lat="39.4393563" lon="16.9792667"><ele>57.0</ele><time>2026-03-29T11:54:49.79Z</time></trkpt><trkpt lat="39.4392571" lon="16.9793663"><ele>56.0</ele><time>2026-03-29T11:54:50.784Z</time></trkpt><trkpt lat="39.4391738" lon="16.9794874"><ele>55.0</ele><time>2026-03-29T11:54:51.771Z</time></trkpt><trkpt lat="39.4391091" lon="16.9796284"><ele>55.0</ele><time>2026-03-29T11:54:52.776Z</time></trkpt><trkpt lat="39.4390597" lon="16.979802"><ele>55.0</ele><time>2026-03-29T11:54:53.785Z</time></trkpt><trkpt lat="39.4390316" lon="16.9799781"><ele>55.0</ele><time>2026-03-29T11:54:54.78Z</time></trkpt><trkpt lat="39.4390105" lon="16.9801529"><ele>55.0</ele><time>2026-03-29T11:54:55.776Z</time></trkpt><trkpt lat="39.438995" lon="16.9803375"><ele>55.2</ele><time>2026-03-29T11:54:56.783Z</time></trkpt><trkpt lat="39.4389802" lon="16.9805016"><ele>55.4</ele><time>2026-03-29T11:54:57.788Z</time></trkpt><trkpt lat="39.4389655" lon="16.9806433"><ele>55.599999999999994</ele><time>2026-03-29T11:54:58.776Z</time></trkpt><trkpt lat="39.4389551" lon="16.9807584"><ele>55.8</ele><time>2026-03-29T11:54:59.771Z</time></trkpt><trkpt lat="39.4389632" lon="16.9808607"><ele>56.0</ele><time>2026-03-29T11:55:00.791Z</time></trkpt><trkpt lat="39.4389964" lon="16.980976"><ele>57.199999999999996</ele><time>2026-03-29T11:55:01.787Z</time></trkpt><trkpt lat="39.4390492" lon="16.9811059"><ele>58.39999999999999</ele><time>2026-03-29T11:55:02.789Z</time></trkpt><trkpt lat="39.4390965" lon="16.9812265"><ele>59.6</ele><time>2026-03-29T11:55:03.774Z</time></trkpt><trkpt lat="39.4391309" lon="16.9813507"><ele>60.8</ele><time>2026-03-29T11:55:04.776Z</time></trkpt><trkpt lat="39.4391427" lon="16.9814782"><ele>62.0</ele><time>2026-03-29T11:55:05.782Z</time></trkpt><trkpt lat="39.4391481" lon="16.9816068"><ele>61.0</ele><time>2026-03-29T11:55:06.783Z</time></trkpt><trkpt lat="39.4391111" lon="16.9817466"><ele>60.0</ele><time>2026-03-29T11:55:07.771Z</time></trkpt><trkpt lat="39.4390754" lon="16.9818832"><ele>59.0</ele><time>2026-03-29T11:55:08.777Z</time></trkpt><trkpt lat="39.4390515" lon="16.9820326"><ele>58.0</ele><time>2026-03-29T11:55:09.781Z</time></trkpt><trkpt lat="39.4390616" lon="16.9821857"><ele>58.0</ele><time>2026-03-29T11:55:10.78Z</time></trkpt><trkpt lat="39.4390832" lon="16.9823328"><ele>58.0</ele><time>2026-03-29T11:55:11.773Z</time></trkpt><trkpt lat="39.4391384" lon="16.9824778"><ele>58.0</ele><time>2026-03-29T11:55:12.78Z</time></trkpt><trkpt lat="39.4392158" lon="16.9826128"><ele>58.0</ele><time>2026-03-29T11:55:13.773Z</time></trkpt><trkpt lat="39.4393111" lon="16.9827333"><ele>58.25</ele><time>2026-03-29T11:55:14.768Z</time></trkpt><trkpt lat="39.4394139" lon="16.9828318"><ele>58.5</ele><time>2026-03-29T11:55:15.78Z</time></trkpt><trkpt lat="39.4395346" lon="16.9829159"><ele>58.75</ele><time>2026-03-29T11:55:16.783Z</time></trkpt><trkpt lat="39.4396738" lon="16.9829994"><ele>59.0</ele><time>2026-03-29T11:55:17.768Z</time></trkpt><trkpt lat="39.4398105" lon="16.9830784"><ele>59.333333333333336</ele><time>2026-03-29T11:55:18.784Z</time></trkpt><trkpt lat="39.4399455" lon="16.9831442"><ele>59.66666666666667</ele><time>2026-03-29T11:55:19.785Z</time></trkpt><trkpt lat="39.4400952" lon="16.9832078"><ele>60.0</ele><time>2026-03-29T11:55:20.789Z</time></trkpt><trkpt lat="39.4402534" lon="16.9832704"><ele>60.0</ele><time>2026-03-29T11:55:21.779Z</time></trkpt><trkpt lat="39.4403998" lon="16.9833359"><ele>60.0</ele><time>2026-03-29T11:55:22.783Z</time></trkpt><trkpt lat="39.4405365" lon="16.9834237"><ele>60.0</ele><time>2026-03-29T11:55:23.792Z</time></trkpt><trkpt lat="39.4406646" lon="16.983498"><ele>60.0</ele><time>2026-03-29T11:55:24.779Z</time></trkpt><trkpt lat="39.4408072" lon="16.9835449"><ele>62.2</ele><time>2026-03-29T11:55:25.775Z</time></trkpt><trkpt lat="39.4409453" lon="16.9835614"><ele>64.4</ele><time>2026-03-29T11:55:26.776Z</time></trkpt><trkpt lat="39.4410597" lon="16.9835663"><ele>66.6</ele><time>2026-03-29T11:55:27.792Z</time></trkpt><trkpt lat="39.4411518" lon="16.9835703"><ele>68.8</ele><time>2026-03-29T11:55:28.777Z</time></trkpt><trkpt lat="39.4412295" lon="16.9835729"><ele>71.0</ele><time>2026-03-29T11:55:29.776Z</time></trkpt><trkpt lat="39.4412932" lon="16.9835884"><ele>70.39999999999999</ele><time>2026-03-29T11:55:30.783Z</time></trkpt><trkpt lat="39.4413483" lon="16.9836618"><ele>69.8</ele><time>2026-03-29T11:55:32.777Z</time></trkpt><trkpt lat="39.4414036" lon="16.9837611"><ele>69.19999999999999</ele><time>2026-03-29T11:55:34.77Z</time></trkpt><trkpt lat="39.4414508" lon="16.9838381"><ele>68.6</ele><time>2026-03-29T11:55:35.787Z</time></trkpt><trkpt lat="39.4415109" lon="16.9839388"><ele>68.0</ele><time>2026-03-29T11:55:36.777Z</time></trkpt><trkpt lat="39.44159" lon="16.9840722"><ele>70.6</ele><time>2026-03-29T11:55:37.779Z</time></trkpt><trkpt lat="39.4416731" lon="16.9842078"><ele>73.19999999999999</ele><time>2026-03-29T11:55:38.785Z</time></trkpt><trkpt lat="39.441748" lon="16.9843207"><ele>75.8</ele><time>2026-03-29T11:55:39.784Z</time></trkpt><trkpt lat="39.4418224" lon="16.9844064"><ele>78.39999999999999</ele><time>2026-03-29T11:55:40.772Z</time></trkpt><trkpt lat="39.4419129" lon="16.9844535"><ele>81.0</ele><time>2026-03-29T11:55:41.779Z</time></trkpt><trkpt lat="39.4420187" lon="16.9844852"><ele>80.5</ele><time>2026-03-29T11:55:42.783Z</time></trkpt><trkpt lat="39.4421602" lon="16.9844739"><ele>80.0</ele><time>2026-03-29T11:55:43.779Z</time></trkpt><trkpt lat="39.4422945" lon="16.9844636"><ele>79.5</ele><time>2026-03-29T11:55:44.773Z</time></trkpt><trkpt lat="39.4424234" lon="16.9844736"><ele>79.0</ele><time>2026-03-29T11:55:45.777Z</time></trkpt><trkpt lat="39.4425534" lon="16.9845572"><ele>79.0</ele><time>2026-03-29T11:55:46.779Z</time></trkpt><trkpt lat="39.4426908" lon="16.9846611"><ele>79.0</ele><time>2026-03-29T11:55:47.78Z</time></trkpt><trkpt lat="39.4428242" lon="16.9847531"><ele>79.0</ele><time>2026-03-29T11:55:48.777Z</time></trkpt><trkpt lat="39.4429693" lon="16.9848372"><ele>78.75</ele><time>2026-03-29T11:55:49.791Z</time></trkpt><trkpt lat="39.4431164" lon="16.9849143"><ele>78.5</ele><time>2026-03-29T11:55:50.777Z</time></trkpt><trkpt lat="39.4432567" lon="16.9849938"><ele>78.25</ele><time>2026-03-29T11:55:51.779Z</time></trkpt><trkpt lat="39.4433743" lon="16.9850669"><ele>78.0</ele><time>2026-03-29T11:55:52.78Z</time></trkpt><trkpt lat="39.443473" lon="16.9851185"><ele>79.75</ele><time>2026-03-29T11:55:53.786Z</time></trkpt><trkpt lat="39.4435812" lon="16.9851461"><ele>81.5</ele><time>2026-03-29T11:55:54.777Z</time></trkpt><trkpt lat="39.4437059" lon="16.9851539"><ele>83.25</ele><time>2026-03-29T11:55:55.791Z</time></trkpt><trkpt lat="39.4438424" lon="16.985159"><ele>85.0</ele><time>2026-03-29T11:55:56.784Z</time></trkpt><trkpt lat="39.4439866" lon="16.9851585"><ele>85.0</ele><time>2026-03-29T11:55:57.782Z</time></trkpt><trkpt lat="39.4441312" lon="16.9851549"><ele>85.0</ele><time>2026-03-29T11:55:58.771Z</time></trkpt><trkpt lat="39.4442652" lon="16.9851454"><ele>85.0</ele><time>2026-03-29T11:55:59.781Z</time></trkpt><trkpt lat="39.4443803" lon="16.9851306"><ele>85.0</ele><time>2026-03-29T11:56:00.779Z</time></trkpt><trkpt lat="39.444474" lon="16.9851312"><ele>85.0</ele><time>2026-03-29T11:56:01.785Z</time></trkpt><trkpt lat="39.4445398" lon="16.9851747"><ele>85.0</ele><time>2026-03-29T11:56:02.78Z</time></trkpt><trkpt lat="39.4445883" lon="16.9852638"><ele>85.0</ele><time>2026-03-29T11:56:03.777Z</time></trkpt><trkpt lat="39.4446268" lon="16.9853855"><ele>85.0</ele><time>2026-03-29T11:56:04.772Z</time></trkpt><trkpt lat="39.4446678" lon="16.9855241"><ele>85.0</ele><time>2026-03-29T11:56:05.773Z</time></trkpt><trkpt lat="39.4447161" lon="16.9856581"><ele>85.0</ele><time>2026-03-29T11:56:06.785Z</time></trkpt><trkpt lat="39.4447767" lon="16.9857584"><ele>85.0</ele><time>2026-03-29T11:56:07.779Z</time></trkpt><trkpt lat="39.4448571" lon="16.9858176"><ele>85.0</ele><time>2026-03-29T11:56:08.776Z</time></trkpt><trkpt lat="39.4449535" lon="16.9858492"><ele>85.0</ele><time>2026-03-29T11:56:09.786Z</time></trkpt><trkpt lat="39.4450604" lon="16.9858665"><ele>85.0</ele><time>2026-03-29T11:56:10.772Z</time></trkpt><trkpt lat="39.4451813" lon="16.9858743"><ele>86.2</ele><time>2026-03-29T11:56:11.774Z</time></trkpt><trkpt lat="39.4453032" lon="16.985889"><ele>87.4</ele><time>2026-03-29T11:56:12.776Z</time></trkpt><trkpt lat="39.44542" lon="16.985907"><ele>88.6</ele><time>2026-03-29T11:56:13.783Z</time></trkpt><trkpt lat="39.4455206" lon="16.9859387"><ele>89.8</ele><time>2026-03-29T11:56:14.79Z</time></trkpt><trkpt lat="39.4456015" lon="16.9860003"><ele>91.0</ele><time>2026-03-29T11:56:15.789Z</time></trkpt><trkpt lat="39.445654" lon="16.9860966"><ele>91.0</ele><time>2026-03-29T11:56:16.784Z</time></trkpt><trkpt lat="39.4456716" lon="16.9862205"><ele>91.0</ele><time>2026-03-29T11:56:17.783Z</time></trkpt><trkpt lat="39.4456575" lon="16.9863662"><ele>91.0</ele><time>2026-03-29T11:56:18.779Z</time></trkpt><trkpt lat="39.4456252" lon="16.9865379"><ele>91.0</ele><time>2026-03-29T11:56:19.791Z</time></trkpt><trkpt lat="39.4455959" lon="16.9867311"><ele>93.75</ele><time>2026-03-29T11:56:20.791Z</time></trkpt><trkpt lat="39.4455869" lon="16.9869173"><ele>96.5</ele><time>2026-03-29T11:56:21.789Z</time></trkpt><trkpt lat="39.4455905" lon="16.9870743"><ele>99.25</ele><time>2026-03-29T11:56:22.785Z</time></trkpt><trkpt lat="39.4456182" lon="16.9871914"><ele>102.0</ele><time>2026-03-29T11:56:23.78Z</time></trkpt><trkpt lat="39.4456725" lon="16.9873123"><ele>102.0</ele><time>2026-03-29T11:56:24.784Z</time></trkpt><trkpt lat="39.4457452" lon="16.987454"><ele>102.0</ele><time>2026-03-29T11:56:25.792Z</time></trkpt><trkpt lat="39.44581" lon="16.9876167"><ele>102.0</ele><time>2026-03-29T11:56:26.785Z</time></trkpt><trkpt lat="39.4458454" lon="16.9878029"><ele>102.0</ele><time>2026-03-29T11:56:27.784Z</time></trkpt><trkpt lat="39.4458538" lon="16.9880161"><ele>103.75</ele><time>2026-03-29T11:56:28.79Z</time></trkpt><trkpt lat="39.4458608" lon="16.9882252"><ele>105.5</ele><time>2026-03-29T11:56:29.794Z</time></trkpt><trkpt lat="39.4458787" lon="16.9884167"><ele>107.25</ele><time>2026-03-29T11:56:30.786Z</time></trkpt><trkpt lat="39.4459162" lon="16.9885675"><ele>109.0</ele><time>2026-03-29T11:56:31.771Z</time></trkpt><trkpt lat="39.4459613" lon="16.9887017"><ele>110.16666666666667</ele><time>2026-03-29T11:56:32.781Z</time></trkpt><trkpt lat="39.4459976" lon="16.9888045"><ele>111.33333333333334</ele><time>2026-03-29T11:56:33.781Z</time></trkpt><trkpt lat="39.4460262" lon="16.988896"><ele>112.5</ele><time>2026-03-29T11:56:34.78Z</time></trkpt><trkpt lat="39.4460226" lon="16.9889875"><ele>113.66666666666666</ele><time>2026-03-29T11:56:35.772Z</time></trkpt><trkpt lat="39.4459911" lon="16.9890709"><ele>114.83333333333333</ele><time>2026-03-29T11:56:36.781Z</time></trkpt><trkpt lat="39.4459384" lon="16.9891257"><ele>116.0</ele><time>2026-03-29T11:56:37.782Z</time></trkpt><trkpt lat="39.4458203" lon="16.9891624"><ele>115.66666666666666</ele><time>2026-03-29T11:56:39.782Z</time></trkpt><trkpt lat="39.4457547" lon="16.989181"><ele>115.33333333333333</ele><time>2026-03-29T11:56:40.784Z</time></trkpt><trkpt lat="39.4456905" lon="16.9892096"><ele>115.0</ele><time>2026-03-29T11:56:41.792Z</time></trkpt><trkpt lat="39.4455792" lon="16.9892691"><ele>114.66666666666666</ele><time>2026-03-29T11:56:43.775Z</time></trkpt><trkpt lat="39.4454869" lon="16.9893196"><ele>114.33333333333333</ele><time>2026-03-29T11:56:45.78Z</time></trkpt><trkpt lat="39.4454215" lon="16.9893464"><ele>114.0</ele><time>2026-03-29T11:56:50.788Z</time></trkpt><trkpt lat="39.4453327" lon="16.9893856"><ele>117.0</ele><time>2026-03-29T11:56:52.779Z</time></trkpt><trkpt lat="39.4452696" lon="16.9894075"><ele>120.0</ele><time>2026-03-29T11:56:53.79Z</time></trkpt><trkpt lat="39.4452021" lon="16.9894315"><ele>123.0</ele><time>2026-03-29T11:56:54.783Z</time></trkpt><trkpt lat="39.4451175" lon="16.9894621"><ele>126.0</ele><time>2026-03-29T11:56:55.776Z</time></trkpt><trkpt lat="39.4450293" lon="16.9894914"><ele>129.0</ele><time>2026-03-29T11:56:56.788Z</time></trkpt><trkpt lat="39.4449622" lon="16.9895085"><ele>132.0</ele><time>2026-03-29T11:56:57.796Z</time></trkpt><trkpt lat="39.4448809" lon="16.9895173"><ele>132.0</ele><time>2026-03-29T11:57:00.785Z</time></trkpt><trkpt lat="39.4448084" lon="16.9895447"><ele>132.0</ele><time>2026-03-29T11:57:02.789Z</time></trkpt><trkpt lat="39.4446998" lon="16.9895812"><ele>132.0</ele><time>2026-03-29T11:57:04.778Z</time></trkpt><trkpt lat="39.4446195" lon="16.989602"><ele>132.0</ele><time>2026-03-29T11:57:06.786Z</time></trkpt><trkpt lat="39.444553" lon="16.9896149"><ele>132.0</ele><time>2026-03-29T11:57:07.78Z</time></trkpt><trkpt lat="39.4444656" lon="16.9896409"><ele>132.0</ele><time>2026-03-29T11:57:08.779Z</time></trkpt><trkpt lat="39.4443681" lon="16.9896814"><ele>135.4</ele><time>2026-03-29T11:57:09.789Z</time></trkpt><trkpt lat="39.444275" lon="16.9897251"><ele>138.79999999999998</ele><time>2026-03-29T11:57:10.779Z</time></trkpt><trkpt lat="39.4441958" lon="16.9897582"><ele>142.2</ele><time>2026-03-29T11:57:11.778Z</time></trkpt><trkpt lat="39.4440783" lon="16.989769"><ele>145.6</ele><time>2026-03-29T11:57:13.79Z</time></trkpt><trkpt lat="39.4439556" lon="16.9897251"><ele>149.0</ele><time>2026-03-29T11:57:15.786Z</time></trkpt><trkpt lat="39.4438867" lon="16.9896888"><ele>153.16666666666666</ele><time>2026-03-29T11:57:16.778Z</time></trkpt><trkpt lat="39.4437925" lon="16.9896386"><ele>157.33333333333331</ele><time>2026-03-29T11:57:18.78Z</time></trkpt><trkpt lat="39.4437327" lon="16.9896014"><ele>161.5</ele><time>2026-03-29T11:57:20.783Z</time></trkpt><trkpt lat="39.4436417" lon="16.9895505"><ele>165.66666666666666</ele><time>2026-03-29T11:57:22.776Z</time></trkpt><trkpt lat="39.4435795" lon="16.9895184"><ele>169.83333333333334</ele><time>2026-03-29T11:57:23.785Z</time></trkpt><trkpt lat="39.4435133" lon="16.9894888"><ele>174.0</ele><time>2026-03-29T11:57:24.771Z</time></trkpt><trkpt lat="39.4434507" lon="16.9894707"><ele>174.0</ele><time>2026-03-29T11:57:25.78Z</time></trkpt><trkpt lat="39.4433367" lon="16.9894581"><ele>174.0</ele><time>2026-03-29T11:57:27.778Z</time></trkpt><trkpt lat="39.4432384" lon="16.989443"><ele>174.0</ele><time>2026-03-29T11:57:29.78Z</time></trkpt><trkpt lat="39.4431471" lon="16.9893902"><ele>174.0</ele><time>2026-03-29T11:57:31.785Z</time></trkpt><trkpt lat="39.4430619" lon="16.9893381"><ele>174.0</ele><time>2026-03-29T11:57:33.787Z</time></trkpt><trkpt lat="39.4429585" lon="16.9893196"><ele>173.39999999999998</ele><time>2026-03-29T11:57:35.775Z</time></trkpt><trkpt lat="39.4428437" lon="16.9893148"><ele>172.8</ele><time>2026-03-29T11:57:37.787Z</time></trkpt><trkpt lat="39.4427477" lon="16.9892828"><ele>172.2</ele><time>2026-03-29T11:57:39.773Z</time></trkpt><trkpt lat="39.4426395" lon="16.9892471"><ele>171.60000000000002</ele><time>2026-03-29T11:57:41.785Z</time></trkpt><trkpt lat="39.442543" lon="16.9891943"><ele>171.0</ele><time>2026-03-29T11:57:43.774Z</time></trkpt><trkpt lat="39.4424634" lon="16.9890977"><ele>171.0</ele><time>2026-03-29T11:58:02.792Z</time></trkpt><trkpt lat="39.4423806" lon="16.9889915"><ele>171.0</ele><time>2026-03-29T11:58:03.796Z</time></trkpt><trkpt lat="39.4422961" lon="16.9889162"><ele>171.0</ele><time>2026-03-29T11:58:04.787Z</time></trkpt><trkpt lat="39.4422148" lon="16.9888641"><ele>171.0</ele><time>2026-03-29T11:58:05.785Z</time></trkpt><trkpt lat="39.4421217" lon="16.9888294"><ele>171.0</ele><time>2026-03-29T11:58:06.785Z</time></trkpt><trkpt lat="39.442038" lon="16.9888015"><ele>173.7142857142857</ele><time>2026-03-29T11:58:07.79Z</time></trkpt><trkpt lat="39.4419671" lon="16.9887654"><ele>176.42857142857142</ele><time>2026-03-29T11:58:08.778Z</time></trkpt><trkpt lat="39.4419092" lon="16.9887202"><ele>179.14285714285714</ele><time>2026-03-29T11:58:09.772Z</time></trkpt><trkpt lat="39.4418518" lon="16.9886746"><ele>181.85714285714283</ele><time>2026-03-29T11:58:10.781Z</time></trkpt><trkpt lat="39.4417927" lon="16.9886357"><ele>184.57142857142858</ele><time>2026-03-29T11:58:11.786Z</time></trkpt><trkpt lat="39.4417299" lon="16.9886051"><ele>187.28571428571428</ele><time>2026-03-29T11:58:12.785Z</time></trkpt><trkpt lat="39.4416654" lon="16.9885718"><ele>190.0</ele><time>2026-03-29T11:58:13.782Z</time></trkpt><trkpt lat="39.4415393" lon="16.9885353"><ele>190.0</ele><time>2026-03-29T11:58:15.775Z</time></trkpt><trkpt lat="39.4414559" lon="16.9885326"><ele>190.0</ele><time>2026-03-29T11:58:16.778Z</time></trkpt><trkpt lat="39.4413603" lon="16.9885444"><ele>190.0</ele><time>2026-03-29T11:58:17.795Z</time></trkpt><trkpt lat="39.441265" lon="16.9885472"><ele>190.0</ele><time>2026-03-29T11:58:18.78Z</time></trkpt><trkpt lat="39.4411674" lon="16.9885261"><ele>190.0</ele><time>2026-03-29T11:58:19.776Z</time></trkpt><trkpt lat="39.4410647" lon="16.9884896"><ele>190.6</ele><time>2026-03-29T11:58:20.787Z</time></trkpt><trkpt lat="39.440967" lon="16.988454"><ele>191.2</ele><time>2026-03-29T11:58:21.791Z</time></trkpt><trkpt lat="39.4408768" lon="16.9884311"><ele>191.8</ele><time>2026-03-29T11:58:22.783Z</time></trkpt><trkpt lat="39.4407849" lon="16.988424"><ele>192.4</ele><time>2026-03-29T11:58:23.78Z</time></trkpt><trkpt lat="39.4406876" lon="16.9884317"><ele>193.0</ele><time>2026-03-29T11:58:24.787Z</time></trkpt><trkpt lat="39.4405944" lon="16.9884526"><ele>192.99999999999997</ele><time>2026-03-29T11:58:25.778Z</time></trkpt><trkpt lat="39.4405132" lon="16.9884782"><ele>193.0</ele><time>2026-03-29T11:58:26.779Z</time></trkpt><trkpt lat="39.4404405" lon="16.9885322"><ele>193.0</ele><time>2026-03-29T11:58:27.794Z</time></trkpt><trkpt lat="39.4403689" lon="16.9886024"><ele>193.0</ele><time>2026-03-29T11:58:28.777Z</time></trkpt><trkpt lat="39.440309" lon="16.9886787"><ele>192.99999999999997</ele><time>2026-03-29T11:58:29.78Z</time></trkpt><trkpt lat="39.4402571" lon="16.988744"><ele>193.0</ele><time>2026-03-29T11:58:30.787Z</time></trkpt><trkpt lat="39.440153" lon="16.9887754"><ele>193.14285714285717</ele><time>2026-03-29T11:58:32.788Z</time></trkpt><trkpt lat="39.440088" lon="16.9887432"><ele>193.28571428571428</ele><time>2026-03-29T11:58:33.773Z</time></trkpt><trkpt lat="39.4400215" lon="16.9887211"><ele>193.42857142857144</ele><time>2026-03-29T11:58:34.782Z</time></trkpt><trkpt lat="39.4399576" lon="16.9887165"><ele>193.57142857142858</ele><time>2026-03-29T11:58:35.783Z</time></trkpt><trkpt lat="39.4398923" lon="16.9887176"><ele>193.71428571428572</ele><time>2026-03-29T11:58:36.784Z</time></trkpt><trkpt lat="39.4398229" lon="16.9887201"><ele>193.85714285714286</ele><time>2026-03-29T11:58:37.787Z</time></trkpt><trkpt lat="39.4397529" lon="16.9887351"><ele>194.0</ele><time>2026-03-29T11:58:38.781Z</time></trkpt><trkpt lat="39.4396859" lon="16.9887613"><ele>193.28571428571428</ele><time>2026-03-29T11:58:39.775Z</time></trkpt><trkpt lat="39.4396168" lon="16.9887897"><ele>192.57142857142858</ele><time>2026-03-29T11:58:40.78Z</time></trkpt><trkpt lat="39.4395436" lon="16.9888208"><ele>191.85714285714286</ele><time>2026-03-29T11:58:41.795Z</time></trkpt><trkpt lat="39.4394716" lon="16.9888587"><ele>191.14285714285714</ele><time>2026-03-29T11:58:42.778Z</time></trkpt><trkpt lat="39.4394053" lon="16.9889011"><ele>190.42857142857144</ele><time>2026-03-29T11:58:43.775Z</time></trkpt><trkpt lat="39.4393511" lon="16.9889603"><ele>189.71428571428572</ele><time>2026-03-29T11:58:44.786Z</time></trkpt><trkpt lat="39.4393066" lon="16.9890356"><ele>189.0</ele><time>2026-03-29T11:58:45.792Z</time></trkpt><trkpt lat="39.4392649" lon="16.9891244"><ele>192.83333333333334</ele><time>2026-03-29T11:58:46.794Z</time></trkpt><trkpt lat="39.4392219" lon="16.989215"><ele>196.66666666666669</ele><time>2026-03-29T11:58:47.785Z</time></trkpt><trkpt lat="39.439176" lon="16.9893023"><ele>200.5</ele><time>2026-03-29T11:58:48.777Z</time></trkpt><trkpt lat="39.439124" lon="16.9893882"><ele>204.33333333333334</ele><time>2026-03-29T11:58:49.778Z</time></trkpt><trkpt lat="39.4390652" lon="16.9894674"><ele>208.16666666666669</ele><time>2026-03-29T11:58:50.786Z</time></trkpt><trkpt lat="39.4389905" lon="16.989547"><ele>212.0</ele><time>2026-03-29T11:58:51.774Z</time></trkpt><trkpt lat="39.438913" lon="16.9896217"><ele>212.00000000000003</ele><time>2026-03-29T11:58:52.785Z</time></trkpt><trkpt lat="39.438851" lon="16.9896884"><ele>212.0</ele><time>2026-03-29T11:58:53.785Z</time></trkpt><trkpt lat="39.4387996" lon="16.9897508"><ele>212.0</ele><time>2026-03-29T11:58:54.777Z</time></trkpt><trkpt lat="39.4387488" lon="16.9898178"><ele>212.0</ele><time>2026-03-29T11:58:55.786Z</time></trkpt><trkpt lat="39.4386915" lon="16.9898982"><ele>212.00000000000003</ele><time>2026-03-29T11:58:56.782Z</time></trkpt><trkpt lat="39.438628" lon="16.9899742"><ele>212.0</ele><time>2026-03-29T11:58:57.776Z</time></trkpt><trkpt lat="39.4385597" lon="16.990041"><ele>210.50000000000003</ele><time>2026-03-29T11:58:58.78Z</time></trkpt><trkpt lat="39.438496" lon="16.9901012"><ele>209.0</ele><time>2026-03-29T11:58:59.791Z</time></trkpt><trkpt lat="39.438439" lon="16.9901498"><ele>207.5</ele><time>2026-03-29T11:59:00.783Z</time></trkpt><trkpt lat="39.4383524" lon="16.9901972"><ele>206.0</ele><time>2026-03-29T11:59:02.786Z</time></trkpt><trkpt lat="39.4382734" lon="16.9902426"><ele>204.50000000000003</ele><time>2026-03-29T11:59:06.789Z</time></trkpt><trkpt lat="39.4382113" lon="16.9902645"><ele>203.0</ele><time>2026-03-29T11:59:08.783Z</time></trkpt><trkpt lat="39.4381141" lon="16.990391"><ele>203.00000000000003</ele><time>2026-03-29T11:59:12.78Z</time></trkpt><trkpt lat="39.4380535" lon="16.990463"><ele>203.0</ele><time>2026-03-29T11:59:13.787Z</time></trkpt><trkpt lat="39.4379955" lon="16.990542"><ele>203.0</ele><time>2026-03-29T11:59:14.783Z</time></trkpt><trkpt lat="39.4379305" lon="16.9906225"><ele>203.0</ele><time>2026-03-29T11:59:15.78Z</time></trkpt><trkpt lat="39.4378559" lon="16.9906964"><ele>203.00000000000003</ele><time>2026-03-29T11:59:16.787Z</time></trkpt><trkpt lat="39.4377663" lon="16.9907442"><ele>203.0</ele><time>2026-03-29T11:59:17.786Z</time></trkpt><trkpt lat="39.4376858" lon="16.9908165"><ele>202.66666666666669</ele><time>2026-03-29T11:59:18.779Z</time></trkpt><trkpt lat="39.4376224" lon="16.9908921"><ele>202.33333333333334</ele><time>2026-03-29T11:59:19.775Z</time></trkpt><trkpt lat="39.4375627" lon="16.9909775"><ele>202.0</ele><time>2026-03-29T11:59:20.784Z</time></trkpt><trkpt lat="39.437508" lon="16.9910771"><ele>201.66666666666669</ele><time>2026-03-29T11:59:21.782Z</time></trkpt><trkpt lat="39.4374477" lon="16.9911615"><ele>201.33333333333334</ele><time>2026-03-29T11:59:22.776Z</time></trkpt><trkpt lat="39.4373838" lon="16.9912318"><ele>201.0</ele><time>2026-03-29T11:59:23.788Z</time></trkpt><trkpt lat="39.4372922" lon="16.9912752"><ele>201.0</ele><time>2026-03-29T11:59:24.782Z</time></trkpt><trkpt lat="39.4371966" lon="16.9913096"><ele>201.0</ele><time>2026-03-29T11:59:25.775Z</time></trkpt><trkpt lat="39.4371149" lon="16.991338"><ele>201.0</ele><time>2026-03-29T11:59:26.78Z</time></trkpt><trkpt lat="39.4370582" lon="16.9913986"><ele>201.0</ele><time>2026-03-29T11:59:27.787Z</time></trkpt><trkpt lat="39.4370051" lon="16.9915091"><ele>201.0</ele><time>2026-03-29T11:59:28.788Z</time></trkpt><trkpt lat="39.4369546" lon="16.9916362"><ele>199.60000000000002</ele><time>2026-03-29T11:59:29.779Z</time></trkpt><trkpt lat="39.4369076" lon="16.9917521"><ele>198.2</ele><time>2026-03-29T11:59:30.782Z</time></trkpt><trkpt lat="39.4368456" lon="16.991837"><ele>196.8</ele><time>2026-03-29T11:59:31.804Z</time></trkpt><trkpt lat="39.4367586" lon="16.991897"><ele>195.39999999999998</ele><time>2026-03-29T11:59:32.787Z</time></trkpt><trkpt lat="39.4366809" lon="16.9919702"><ele>194.0</ele><time>2026-03-29T11:59:33.786Z</time></trkpt><trkpt lat="39.4366191" lon="16.9920407"><ele>194.00000000000003</ele><time>2026-03-29T11:59:34.777Z</time></trkpt><trkpt lat="39.4365951" lon="16.9921351"><ele>194.0</ele><time>2026-03-29T11:59:35.783Z</time></trkpt><trkpt lat="39.4365917" lon="16.9922513"><ele>194.0</ele><time>2026-03-29T11:59:36.774Z</time></trkpt><trkpt lat="39.4365735" lon="16.9923593"><ele>194.0</ele><time>2026-03-29T11:59:37.783Z</time></trkpt><trkpt lat="39.4365217" lon="16.9924221"><ele>194.00000000000003</ele><time>2026-03-29T11:59:38.78Z</time></trkpt><trkpt lat="39.4364353" lon="16.9924322"><ele>194.0</ele><time>2026-03-29T11:59:39.783Z</time></trkpt><trkpt lat="39.4363393" lon="16.9924426"><ele>193.2</ele><time>2026-03-29T11:59:40.778Z</time></trkpt><trkpt lat="39.4362425" lon="16.9924394"><ele>192.39999999999998</ele><time>2026-03-29T11:59:41.772Z</time></trkpt><trkpt lat="39.4361564" lon="16.992451"><ele>191.6</ele><time>2026-03-29T11:59:42.784Z</time></trkpt><trkpt lat="39.4361067" lon="16.9925065"><ele>190.8</ele><time>2026-03-29T11:59:43.785Z</time></trkpt><trkpt lat="39.4360927" lon="16.9926454"><ele>190.0</ele><time>2026-03-29T11:59:45.779Z</time></trkpt><trkpt lat="39.4360689" lon="16.9927696"><ele>190.0</ele><time>2026-03-29T11:59:47.799Z</time></trkpt><trkpt lat="39.436055" lon="16.992857"><ele>190.0</ele><time>2026-03-29T11:59:49.781Z</time></trkpt><trkpt lat="39.4360386" lon="16.9929724"><ele>190.0</ele><time>2026-03-29T11:59:52.787Z</time></trkpt><trkpt lat="39.4360052" lon="16.9930567"><ele>190.0</ele><time>2026-03-29T11:59:55.782Z</time></trkpt><trkpt lat="39.4359348" lon="16.9930981"><ele>190.0</ele><time>2026-03-29T11:59:58.782Z</time></trkpt><trkpt lat="39.4358638" lon="16.9931222"><ele>190.0</ele><time>2026-03-29T12:00:00.784Z</time></trkpt><trkpt lat="39.4357937" lon="16.9931913"><ele>190.0</ele><time>2026-03-29T12:00:02.774Z</time></trkpt><trkpt lat="39.4357335" lon="16.9932553"><ele>190.0</ele><time>2026-03-29T12:00:04.79Z</time></trkpt><trkpt lat="39.4356461" lon="16.9933163"><ele>190.0</ele><time>2026-03-29T12:00:06.78Z</time></trkpt><trkpt lat="39.4355662" lon="16.993351"><ele>190.0</ele><time>2026-03-29T12:00:08.778Z</time></trkpt><trkpt lat="39.4354933" lon="16.9933761"><ele>190.0</ele><time>2026-03-29T12:00:10.789Z</time></trkpt><trkpt lat="39.4354019" lon="16.9934195"><ele>190.0</ele><time>2026-03-29T12:00:12.776Z</time></trkpt><trkpt lat="39.4353072" lon="16.9934435"><ele>190.4</ele><time>2026-03-29T12:00:14.778Z</time></trkpt><trkpt lat="39.4351806" lon="16.9934664"><ele>190.8</ele><time>2026-03-29T12:00:16.784Z</time></trkpt><trkpt lat="39.4351168" lon="16.9934887"><ele>191.2</ele><time>2026-03-29T12:00:17.789Z</time></trkpt><trkpt lat="39.4350239" lon="16.993538"><ele>191.6</ele><time>2026-03-29T12:00:19.794Z</time></trkpt><trkpt lat="39.4349523" lon="16.9936031"><ele>192.0</ele><time>2026-03-29T12:00:21.784Z</time></trkpt><trkpt lat="39.43491" lon="16.9936813"><ele>192.0</ele><time>2026-03-29T12:00:24.779Z</time></trkpt><trkpt lat="39.4348722" lon="16.9937844"><ele>192.0</ele><time>2026-03-29T12:00:28.78Z</time></trkpt><trkpt lat="39.4348512" lon="16.993906"><ele>192.0</ele><time>2026-03-29T12:00:30.772Z</time></trkpt><trkpt lat="39.4348388" lon="16.9939865"><ele>192.0</ele><time>2026-03-29T12:00:31.786Z</time></trkpt><trkpt lat="39.4348159" lon="16.9940698"><ele>192.0</ele><time>2026-03-29T12:00:32.78Z</time></trkpt><trkpt lat="39.4347904" lon="16.9941544"><ele>192.0</ele><time>2026-03-29T12:00:33.772Z</time></trkpt><trkpt lat="39.4347671" lon="16.994237"><ele>193.28571428571428</ele><time>2026-03-29T12:00:34.785Z</time></trkpt><trkpt lat="39.4347328" lon="16.9943099"><ele>194.57142857142856</ele><time>2026-03-29T12:00:35.788Z</time></trkpt><trkpt lat="39.4346997" lon="16.994387"><ele>195.85714285714283</ele><time>2026-03-29T12:00:36.781Z</time></trkpt><trkpt lat="39.4346693" lon="16.994468"><ele>197.14285714285714</ele><time>2026-03-29T12:00:37.773Z</time></trkpt><trkpt lat="39.4346387" lon="16.994551"><ele>198.42857142857144</ele><time>2026-03-29T12:00:38.783Z</time></trkpt><trkpt lat="39.4346251" lon="16.9946405"><ele>199.7142857142857</ele><time>2026-03-29T12:00:39.791Z</time></trkpt><trkpt lat="39.4346124" lon="16.9947363"><ele>201.0</ele><time>2026-03-29T12:00:40.776Z</time></trkpt><trkpt lat="39.4346068" lon="16.99485"><ele>198.0</ele><time>2026-03-29T12:00:41.78Z</time></trkpt><trkpt lat="39.4345993" lon="16.9949546"><ele>195.0</ele><time>2026-03-29T12:00:42.777Z</time></trkpt><trkpt lat="39.4345903" lon="16.9950533"><ele>192.0</ele><time>2026-03-29T12:00:43.784Z</time></trkpt><trkpt lat="39.4345811" lon="16.9951427"><ele>189.0</ele><time>2026-03-29T12:00:44.783Z</time></trkpt><trkpt lat="39.4345557" lon="16.9952339"><ele>186.0</ele><time>2026-03-29T12:00:45.79Z</time></trkpt><trkpt lat="39.4345237" lon="16.9953279"><ele>183.0</ele><time>2026-03-29T12:00:46.782Z</time></trkpt><trkpt lat="39.4344909" lon="16.9954279"><ele>183.0</ele><time>2026-03-29T12:00:47.784Z</time></trkpt><trkpt lat="39.4344618" lon="16.9955239"><ele>183.0</ele><time>2026-03-29T12:00:48.782Z</time></trkpt><trkpt lat="39.4344287" lon="16.9956108"><ele>183.0</ele><time>2026-03-29T12:00:49.779Z</time></trkpt><trkpt lat="39.4343934" lon="16.9956814"><ele>183.0</ele><time>2026-03-29T12:00:50.776Z</time></trkpt><trkpt lat="39.4343588" lon="16.9957604"><ele>183.0</ele><time>2026-03-29T12:00:51.782Z</time></trkpt><trkpt lat="39.4343211" lon="16.9958509"><ele>183.0</ele><time>2026-03-29T12:00:52.78Z</time></trkpt><trkpt lat="39.4342852" lon="16.9959311"><ele>183.0</ele><time>2026-03-29T12:00:53.783Z</time></trkpt><trkpt lat="39.4342462" lon="16.9960363"><ele>184.0</ele><time>2026-03-29T12:00:55.791Z</time></trkpt><trkpt lat="39.434255" lon="16.9961676"><ele>185.0</ele><time>2026-03-29T12:00:57.784Z</time></trkpt><trkpt lat="39.4342623" lon="16.9962543"><ele>186.0</ele><time>2026-03-29T12:00:58.78Z</time></trkpt><trkpt lat="39.4342804" lon="16.9963542"><ele>187.0</ele><time>2026-03-29T12:00:59.796Z</time></trkpt><trkpt lat="39.4342951" lon="16.9964567"><ele>188.0</ele><time>2026-03-29T12:01:00.791Z</time></trkpt><trkpt lat="39.4343014" lon="16.996564"><ele>189.0</ele><time>2026-03-29T12:01:01.782Z</time></trkpt><trkpt lat="39.4342705" lon="16.9966624"><ele>190.33333333333334</ele><time>2026-03-29T12:01:02.787Z</time></trkpt><trkpt lat="39.4342443" lon="16.9967406"><ele>191.66666666666669</ele><time>2026-03-29T12:01:03.786Z</time></trkpt><trkpt lat="39.4342322" lon="16.9968251"><ele>193.0</ele><time>2026-03-29T12:01:04.785Z</time></trkpt><trkpt lat="39.4342468" lon="16.9969223"><ele>194.33333333333334</ele><time>2026-03-29T12:01:05.778Z</time></trkpt><trkpt lat="39.4342738" lon="16.9970443"><ele>195.66666666666669</ele><time>2026-03-29T12:01:06.772Z</time></trkpt><trkpt lat="39.4342794" lon="16.9971782"><ele>197.0</ele><time>2026-03-29T12:01:07.786Z</time></trkpt><trkpt lat="39.4342657" lon="16.9973009"><ele>197.00000000000003</ele><time>2026-03-29T12:01:08.777Z</time></trkpt><trkpt lat="39.4342384" lon="16.9974073"><ele>197.0</ele><time>2026-03-29T12:01:09.772Z</time></trkpt><trkpt lat="39.4342103" lon="16.997494"><ele>197.0</ele><time>2026-03-29T12:01:10.771Z</time></trkpt><trkpt lat="39.4341851" lon="16.9975759"><ele>197.0</ele><time>2026-03-29T12:01:11.771Z</time></trkpt><trkpt lat="39.4341517" lon="16.99765"><ele>197.00000000000003</ele><time>2026-03-29T12:01:12.776Z</time></trkpt><trkpt lat="39.4340767" lon="16.9977145"><ele>197.0</ele><time>2026-03-29T12:01:14.775Z</time></trkpt><trkpt lat="39.4340017" lon="16.9977462"><ele>197.39999999999998</ele><time>2026-03-29T12:01:20.774Z</time></trkpt><trkpt lat="39.4339192" lon="16.9977601"><ele>197.79999999999998</ele><time>2026-03-29T12:01:22.781Z</time></trkpt><trkpt lat="39.4338142" lon="16.9977846"><ele>198.2</ele><time>2026-03-29T12:01:24.789Z</time></trkpt><trkpt lat="39.4337056" lon="16.9978205"><ele>198.6</ele><time>2026-03-29T12:01:26.787Z</time></trkpt><trkpt lat="39.4336104" lon="16.9978738"><ele>199.0</ele><time>2026-03-29T12:01:28.772Z</time></trkpt><trkpt lat="39.4335297" lon="16.9979236"><ele>198.99999999999997</ele><time>2026-03-29T12:01:30.789Z</time></trkpt><trkpt lat="39.4334702" lon="16.9979992"><ele>199.0</ele><time>2026-03-29T12:01:32.786Z</time></trkpt><trkpt lat="39.4334273" lon="16.9980616"><ele>199.0</ele><time>2026-03-29T12:01:34.781Z</time></trkpt><trkpt lat="39.4333544" lon="16.9981497"><ele>199.0</ele><time>2026-03-29T12:01:36.79Z</time></trkpt><trkpt lat="39.4333042" lon="16.9982058"><ele>198.99999999999997</ele><time>2026-03-29T12:01:37.791Z</time></trkpt><trkpt lat="39.4332535" lon="16.998265"><ele>199.0</ele><time>2026-03-29T12:01:38.772Z</time></trkpt><trkpt lat="39.4332078" lon="16.9983376"><ele>200.0</ele><time>2026-03-29T12:01:39.783Z</time></trkpt><trkpt lat="39.4331522" lon="16.9984037"><ele>201.0</ele><time>2026-03-29T12:01:40.78Z</time></trkpt><trkpt lat="39.4330672" lon="16.9984976"><ele>202.0</ele><time>2026-03-29T12:01:42.781Z</time></trkpt><trkpt lat="39.432989" lon="16.9985672"><ele>203.0</ele><time>2026-03-29T12:01:44.781Z</time></trkpt><trkpt lat="39.4329143" lon="16.9986798"><ele>204.0</ele><time>2026-03-29T12:01:46.779Z</time></trkpt><trkpt lat="39.432833" lon="16.9987833"><ele>204.66666666666666</ele><time>2026-03-29T12:01:48.777Z</time></trkpt><trkpt lat="39.4327977" lon="16.9989216"><ele>205.33333333333331</ele><time>2026-03-29T12:01:50.775Z</time></trkpt><trkpt lat="39.4328088" lon="16.9990047"><ele>206.0</ele><time>2026-03-29T12:01:51.788Z</time></trkpt><trkpt lat="39.4328083" lon="16.9990968"><ele>206.66666666666666</ele><time>2026-03-29T12:01:52.777Z</time></trkpt><trkpt lat="39.4327991" lon="16.9991792"><ele>207.33333333333331</ele><time>2026-03-29T12:01:53.78Z</time></trkpt><trkpt lat="39.43279" lon="16.9992636"><ele>208.0</ele><time>2026-03-29T12:01:54.781Z</time></trkpt><trkpt lat="39.4327689" lon="16.9993564"><ele>208.16666666666666</ele><time>2026-03-29T12:01:55.79Z</time></trkpt><trkpt lat="39.432738" lon="16.9994455"><ele>208.33333333333331</ele><time>2026-03-29T12:01:56.779Z</time></trkpt><trkpt lat="39.432701" lon="16.9995222"><ele>208.5</ele><time>2026-03-29T12:01:57.788Z</time></trkpt><trkpt lat="39.4326614" lon="16.9995876"><ele>208.66666666666669</ele><time>2026-03-29T12:01:58.795Z</time></trkpt><trkpt lat="39.432623" lon="16.9996608"><ele>208.83333333333334</ele><time>2026-03-29T12:01:59.794Z</time></trkpt><trkpt lat="39.4325945" lon="16.9997346"><ele>209.0</ele><time>2026-03-29T12:02:00.785Z</time></trkpt><trkpt lat="39.4325799" lon="16.9998844"><ele>209.00000000000003</ele><time>2026-03-29T12:02:02.78Z</time></trkpt><trkpt lat="39.4325879" lon="16.9999795"><ele>209.0</ele><time>2026-03-29T12:02:03.78Z</time></trkpt><trkpt lat="39.4325954" lon="17.0000687"><ele>209.0</ele><time>2026-03-29T12:02:04.782Z</time></trkpt><trkpt lat="39.432537" lon="17.0002099"><ele>209.0</ele><time>2026-03-29T12:02:06.778Z</time></trkpt><trkpt lat="39.4324769" lon="17.0002481"><ele>209.00000000000003</ele><time>2026-03-29T12:02:07.786Z</time></trkpt><trkpt lat="39.432379" lon="17.0003187"><ele>209.0</ele><time>2026-03-29T12:02:09.786Z</time></trkpt><trkpt lat="39.4323067" lon="17.0004113"><ele>209.0</ele><time>2026-03-29T12:02:11.783Z</time></trkpt><trkpt lat="39.4322586" lon="17.000498"><ele>209.0</ele><time>2026-03-29T12:02:14.779Z</time></trkpt><trkpt lat="39.4322199" lon="17.0006266"><ele>209.0</ele><time>2026-03-29T12:02:16.775Z</time></trkpt><trkpt lat="39.4321886" lon="17.0007426"><ele>209.0</ele><time>2026-03-29T12:02:19.787Z</time></trkpt><trkpt lat="39.4321584" lon="17.0008573"><ele>209.0</ele><time>2026-03-29T12:02:21.873Z</time></trkpt><trkpt lat="39.432189" lon="17.0009635"><ele>210.16666666666669</ele><time>2026-03-29T12:02:23.789Z</time></trkpt><trkpt lat="39.4322541" lon="17.000998"><ele>211.33333333333334</ele><time>2026-03-29T12:02:25.82Z</time></trkpt><trkpt lat="39.4323565" lon="17.0009028"><ele>212.5</ele><time>2026-03-29T12:02:27.785Z</time></trkpt><trkpt lat="39.4324209" lon="17.0008593"><ele>213.66666666666669</ele><time>2026-03-29T12:02:28.78Z</time></trkpt><trkpt lat="39.4325139" lon="17.0008353"><ele>214.83333333333334</ele><time>2026-03-29T12:02:30.785Z</time></trkpt><trkpt lat="39.4325728" lon="17.0008875"><ele>216.0</ele><time>2026-03-29T12:02:32.789Z</time></trkpt><trkpt lat="39.4326207" lon="17.0009594"><ele>216.0</ele><time>2026-03-29T12:02:35.8Z</time></trkpt><trkpt lat="39.4325853" lon="17.001027"><ele>216.0</ele><time>2026-03-29T12:02:45.788Z</time></trkpt><trkpt lat="39.4325335" lon="17.0010867"><ele>216.0</ele><time>2026-03-29T12:02:50.781Z</time></trkpt><trkpt lat="39.4324793" lon="17.0011696"><ele>216.0</ele><time>2026-03-29T12:03:46.789Z</time></trkpt><trkpt lat="39.432438" lon="17.0012342"><ele>216.0</ele><time>2026-03-29T12:03:48.782Z</time></trkpt><trkpt lat="39.432413" lon="17.0013437"><ele>216.0</ele><time>2026-03-29T12:03:51.784Z</time></trkpt><trkpt lat="39.4324381" lon="17.0014507"><ele>216.0</ele><time>2026-03-29T12:03:54.773Z</time></trkpt><trkpt lat="39.4324799" lon="17.0015448"><ele>216.0</ele><time>2026-03-29T12:03:57.774Z</time></trkpt><trkpt lat="39.4325282" lon="17.0016458"><ele>216.0</ele><time>2026-03-29T12:04:00.791Z</time></trkpt><trkpt lat="39.4325601" lon="17.0017182"><ele>216.0</ele><time>2026-03-29T12:04:02.784Z</time></trkpt><trkpt lat="39.4325961" lon="17.0018247"><ele>216.0</ele><time>2026-03-29T12:04:05.799Z</time></trkpt><trkpt lat="39.4326154" lon="17.0019321"><ele>216.0</ele><time>2026-03-29T12:04:08.778Z</time></trkpt><trkpt lat="39.4326501" lon="17.0020258"><ele>218.83333333333334</ele><time>2026-03-29T12:04:11.793Z</time></trkpt><trkpt lat="39.4327329" lon="17.002082"><ele>221.66666666666669</ele><time>2026-03-29T12:04:14.778Z</time></trkpt><trkpt lat="39.4328007" lon="17.0021216"><ele>224.5</ele><time>2026-03-29T12:04:16.788Z</time></trkpt><trkpt lat="39.4328426" lon="17.0021916"><ele>227.33333333333334</ele><time>2026-03-29T12:04:20.782Z</time></trkpt><trkpt lat="39.4329023" lon="17.0022635"><ele>230.16666666666669</ele><time>2026-03-29T12:04:24.777Z</time></trkpt><trkpt lat="39.4329773" lon="17.0022839"><ele>233.0</ele><time>2026-03-29T12:04:27.794Z</time></trkpt><trkpt lat="39.4330462" lon="17.0022952"><ele>233.00000000000003</ele><time>2026-03-29T12:04:29.782Z</time></trkpt><trkpt lat="39.4331058" lon="17.0023307"><ele>233.0</ele><time>2026-03-29T12:04:31.791Z</time></trkpt><trkpt lat="39.4331072" lon="17.0024334"><ele>233.0</ele><time>2026-03-29T12:04:34.791Z</time></trkpt><trkpt lat="39.4330507" lon="17.0025126"><ele>233.0</ele><time>2026-03-29T12:04:37.787Z</time></trkpt><trkpt lat="39.4329884" lon="17.002553"><ele>233.00000000000003</ele><time>2026-03-29T12:04:39.782Z</time></trkpt><trkpt lat="39.4329028" lon="17.0026125"><ele>233.0</ele><time>2026-03-29T12:04:41.796Z</time></trkpt><trkpt lat="39.4328196" lon="17.0026679"><ele>235.00000000000003</ele><time>2026-03-29T12:04:43.779Z</time></trkpt><trkpt lat="39.4327464" lon="17.0027245"><ele>237.0</ele><time>2026-03-29T12:04:46.776Z</time></trkpt><trkpt lat="39.4326821" lon="17.002766"><ele>239.0</ele><time>2026-03-29T12:04:52.785Z</time></trkpt><trkpt lat="39.4325994" lon="17.0028475"><ele>241.0</ele><time>2026-03-29T12:04:54.781Z</time></trkpt><trkpt lat="39.4325565" lon="17.0029185"><ele>243.00000000000003</ele><time>2026-03-29T12:04:55.797Z</time></trkpt><trkpt lat="39.4325207" lon="17.0030047"><ele>245.0</ele><time>2026-03-29T12:04:56.783Z</time></trkpt><trkpt lat="39.4324816" lon="17.0031022"><ele>245.00000000000003</ele><time>2026-03-29T12:04:57.78Z</time></trkpt><trkpt lat="39.4324507" lon="17.0032177"><ele>245.0</ele><time>2026-03-29T12:04:58.788Z</time></trkpt><trkpt lat="39.4324147" lon="17.0033136"><ele>245.0</ele><time>2026-03-29T12:04:59.785Z</time></trkpt><trkpt lat="39.4323552" lon="17.0033905"><ele>245.0</ele><time>2026-03-29T12:05:00.772Z</time></trkpt><trkpt lat="39.4322809" lon="17.0034395"><ele>245.00000000000003</ele><time>2026-03-29T12:05:01.792Z</time></trkpt><trkpt lat="39.4322054" lon="17.0034679"><ele>245.0</ele><time>2026-03-29T12:05:02.786Z</time></trkpt><trkpt lat="39.4321313" lon="17.0034858"><ele>244.85714285714286</ele><time>2026-03-29T12:05:03.784Z</time></trkpt><trkpt lat="39.4320628" lon="17.0034921"><ele>244.71428571428572</ele><time>2026-03-29T12:05:04.784Z</time></trkpt><trkpt lat="39.4319966" lon="17.0034888"><ele>244.57142857142856</ele><time>2026-03-29T12:05:05.796Z</time></trkpt><trkpt lat="39.43193" lon="17.0034648"><ele>244.42857142857142</ele><time>2026-03-29T12:05:06.789Z</time></trkpt><trkpt lat="39.4318675" lon="17.0034417"><ele>244.28571428571428</ele><time>2026-03-29T12:05:07.787Z</time></trkpt><trkpt lat="39.4318098" lon="17.0033913"><ele>244.1428571428571</ele><time>2026-03-29T12:05:08.795Z</time></trkpt><trkpt lat="39.4317476" lon="17.0033319"><ele>243.99999999999997</ele><time>2026-03-29T12:05:09.784Z</time></trkpt><trkpt lat="39.4316611" lon="17.0032561"><ele>243.99999999999997</ele><time>2026-03-29T12:05:10.778Z</time></trkpt><trkpt lat="39.4315835" lon="17.0031786"><ele>244.0</ele><time>2026-03-29T12:05:11.785Z</time></trkpt><trkpt lat="39.4315376" lon="17.0030925"><ele>244.0</ele><time>2026-03-29T12:05:12.796Z</time></trkpt><trkpt lat="39.4315147" lon="17.0029857"><ele>244.0</ele><time>2026-03-29T12:05:13.786Z</time></trkpt><trkpt lat="39.4314929" lon="17.0028751"><ele>243.99999999999997</ele><time>2026-03-29T12:05:14.795Z</time></trkpt><trkpt lat="39.4314698" lon="17.0027802"><ele>244.0</ele><time>2026-03-29T12:05:15.796Z</time></trkpt><trkpt lat="39.4314162" lon="17.002716"><ele>243.99999999999997</ele><time>2026-03-29T12:05:16.795Z</time></trkpt><trkpt lat="39.4313278" lon="17.0026803"><ele>244.0</ele><time>2026-03-29T12:05:17.786Z</time></trkpt><trkpt lat="39.4312479" lon="17.0026698"><ele>244.0</ele><time>2026-03-29T12:05:18.776Z</time></trkpt><trkpt lat="39.4311718" lon="17.0026612"><ele>244.0</ele><time>2026-03-29T12:05:20.78Z</time></trkpt><trkpt lat="39.4311024" lon="17.0026629"><ele>243.99999999999997</ele><time>2026-03-29T12:05:25.794Z</time></trkpt><trkpt lat="39.4310361" lon="17.0026599"><ele>244.0</ele><time>2026-03-29T12:05:27.79Z</time></trkpt><trkpt lat="39.4309639" lon="17.0026628"><ele>249.2</ele><time>2026-03-29T12:05:29.783Z</time></trkpt><trkpt lat="39.4308538" lon="17.0026666"><ele>254.39999999999998</ele><time>2026-03-29T12:05:31.788Z</time></trkpt><trkpt lat="39.4307356" lon="17.0026486"><ele>259.6</ele><time>2026-03-29T12:05:33.784Z</time></trkpt><trkpt lat="39.4306126" lon="17.002619"><ele>264.8</ele><time>2026-03-29T12:05:35.789Z</time></trkpt><trkpt lat="39.43055" lon="17.0026028"><ele>270.0</ele><time>2026-03-29T12:05:36.79Z</time></trkpt><trkpt lat="39.4304321" lon="17.0025593"><ele>274.3333333333333</ele><time>2026-03-29T12:05:38.783Z</time></trkpt><trkpt lat="39.4303494" lon="17.0024371"><ele>278.6666666666667</ele><time>2026-03-29T12:05:40.778Z</time></trkpt><trkpt lat="39.4303154" lon="17.002366"><ele>283.0</ele><time>2026-03-29T12:05:41.791Z</time></trkpt><trkpt lat="39.430204" lon="17.0023248"><ele>287.33333333333337</ele><time>2026-03-29T12:05:43.781Z</time></trkpt><trkpt lat="39.430146" lon="17.002365"><ele>291.6666666666667</ele><time>2026-03-29T12:05:44.784Z</time></trkpt><trkpt lat="39.4300828" lon="17.0024228"><ele>296.0</ele><time>2026-03-29T12:05:45.785Z</time></trkpt><trkpt lat="39.430014" lon="17.0024834"><ele>296.0</ele><time>2026-03-29T12:05:46.785Z</time></trkpt><trkpt lat="39.4299417" lon="17.0025345"><ele>296.0</ele><time>2026-03-29T12:05:47.781Z</time></trkpt><trkpt lat="39.4298704" lon="17.0025723"><ele>296.0</ele><time>2026-03-29T12:05:48.773Z</time></trkpt><trkpt lat="39.4298106" lon="17.0026042"><ele>296.0</ele><time>2026-03-29T12:05:49.791Z</time></trkpt><trkpt lat="39.4297509" lon="17.0026318"><ele>296.0</ele><time>2026-03-29T12:05:51.778Z</time></trkpt><trkpt lat="39.4296866" lon="17.002617"><ele>296.0</ele><time>2026-03-29T12:05:57.786Z</time></trkpt><trkpt lat="39.4297269" lon="17.0025317"><ele>296.0</ele><time>2026-03-29T12:06:00.774Z</time></trkpt><trkpt lat="39.429815" lon="17.0024802"><ele>296.0</ele><time>2026-03-29T12:06:02.779Z</time></trkpt><trkpt lat="39.4299033" lon="17.0023582"><ele>296.0</ele><time>2026-03-29T12:06:04.774Z</time></trkpt><trkpt lat="39.42994" lon="17.0022848"><ele>296.0</ele><time>2026-03-29T12:06:05.788Z</time></trkpt><trkpt lat="39.4299875" lon="17.0021581"><ele>296.0</ele><time>2026-03-29T12:06:07.778Z</time></trkpt><trkpt lat="39.4300063" lon="17.0020717"><ele>296.0</ele><time>2026-03-29T12:06:08.789Z</time></trkpt><trkpt lat="39.4300198" lon="17.0019733"><ele>296.0</ele><time>2026-03-29T12:06:09.805Z</time></trkpt><trkpt lat="39.430023" lon="17.001871"><ele>296.0</ele><time>2026-03-29T12:06:10.787Z</time></trkpt><trkpt lat="39.4300122" lon="17.0017654"><ele>296.0</ele><time>2026-03-29T12:06:11.788Z</time></trkpt><trkpt lat="39.4299882" lon="17.001656"><ele>296.0</ele><time>2026-03-29T12:06:12.785Z</time></trkpt><trkpt lat="39.4299493" lon="17.001549"><ele>296.0</ele><time>2026-03-29T12:06:13.793Z</time></trkpt><trkpt lat="39.4298969" lon="17.0014539"><ele>296.0</ele><time>2026-03-29T12:06:14.789Z</time></trkpt><trkpt lat="39.4298437" lon="17.0013785"><ele>294.2</ele><time>2026-03-29T12:06:15.784Z</time></trkpt><trkpt lat="39.4297834" lon="17.0013063"><ele>292.40000000000003</ele><time>2026-03-29T12:06:16.783Z</time></trkpt><trkpt lat="39.4297091" lon="17.0012124"><ele>290.6</ele><time>2026-03-29T12:06:17.793Z</time></trkpt><trkpt lat="39.4296367" lon="17.001132"><ele>288.8</ele><time>2026-03-29T12:06:18.782Z</time></trkpt><trkpt lat="39.4295417" lon="17.0010385"><ele>287.0</ele><time>2026-03-29T12:06:19.786Z</time></trkpt><trkpt lat="39.4294302" lon="17.0009503"><ele>291.8</ele><time>2026-03-29T12:06:20.784Z</time></trkpt><trkpt lat="39.4293286" lon="17.0008903"><ele>296.6</ele><time>2026-03-29T12:06:21.803Z</time></trkpt><trkpt lat="39.4292391" lon="17.0008588"><ele>301.40000000000003</ele><time>2026-03-29T12:06:22.791Z</time></trkpt><trkpt lat="39.4291601" lon="17.0008436"><ele>306.2</ele><time>2026-03-29T12:06:23.784Z</time></trkpt><trkpt lat="39.4290642" lon="17.0008434"><ele>311.0</ele><time>2026-03-29T12:06:24.781Z</time></trkpt><trkpt lat="39.4289387" lon="17.0008682"><ele>308.6666666666667</ele><time>2026-03-29T12:06:25.786Z</time></trkpt><trkpt lat="39.4287924" lon="17.0009254"><ele>306.3333333333333</ele><time>2026-03-29T12:06:26.781Z</time></trkpt><trkpt lat="39.4286473" lon="17.0010104"><ele>304.0</ele><time>2026-03-29T12:06:27.784Z</time></trkpt><trkpt lat="39.4285191" lon="17.001134"><ele>304.0</ele><time>2026-03-29T12:06:28.787Z</time></trkpt><trkpt lat="39.4283988" lon="17.0013032"><ele>304.0</ele><time>2026-03-29T12:06:29.789Z</time></trkpt><trkpt lat="39.4282775" lon="17.0014891"><ele>304.0</ele><time>2026-03-29T12:06:30.792Z</time></trkpt><trkpt lat="39.4281639" lon="17.0016605"><ele>305.3333333333333</ele><time>2026-03-29T12:06:31.777Z</time></trkpt><trkpt lat="39.4280525" lon="17.0018002"><ele>306.6666666666667</ele><time>2026-03-29T12:06:32.794Z</time></trkpt><trkpt lat="39.4279287" lon="17.0019004"><ele>308.0</ele><time>2026-03-29T12:06:33.783Z</time></trkpt><trkpt lat="39.4277766" lon="17.0019582"><ele>308.0</ele><time>2026-03-29T12:06:34.775Z</time></trkpt><trkpt lat="39.4276" lon="17.0019993"><ele>308.0</ele><time>2026-03-29T12:06:35.787Z</time></trkpt><trkpt lat="39.427406" lon="17.0020361"><ele>308.0</ele><time>2026-03-29T12:06:36.792Z</time></trkpt><trkpt lat="39.4272245" lon="17.0020698"><ele>307.33333333333337</ele><time>2026-03-29T12:06:37.792Z</time></trkpt><trkpt lat="39.4270602" lon="17.0021262"><ele>306.6666666666667</ele><time>2026-03-29T12:06:38.771Z</time></trkpt><trkpt lat="39.4268965" lon="17.0022241"><ele>306.0</ele><time>2026-03-29T12:06:39.787Z</time></trkpt><trkpt lat="39.4267248" lon="17.0023485"><ele>306.0</ele><time>2026-03-29T12:06:40.792Z</time></trkpt><trkpt lat="39.4265376" lon="17.0024697"><ele>306.0</ele><time>2026-03-29T12:06:41.801Z</time></trkpt><trkpt lat="39.4263555" lon="17.0026019"><ele>306.0</ele><time>2026-03-29T12:06:42.788Z</time></trkpt><trkpt lat="39.4261913" lon="17.0027068"><ele>310.0</ele><time>2026-03-29T12:06:43.776Z</time></trkpt><trkpt lat="39.4260576" lon="17.002801"><ele>314.0</ele><time>2026-03-29T12:06:44.781Z</time></trkpt><trkpt lat="39.4259427" lon="17.0028927"><ele>318.0</ele><time>2026-03-29T12:06:45.786Z</time></trkpt><trkpt lat="39.4258609" lon="17.0029956"><ele>322.0</ele><time>2026-03-29T12:06:46.782Z</time></trkpt><trkpt lat="39.4257909" lon="17.003083"><ele>322.0</ele><time>2026-03-29T12:06:47.786Z</time></trkpt><trkpt lat="39.4257264" lon="17.0031609"><ele>322.0</ele><time>2026-03-29T12:06:48.781Z</time></trkpt><trkpt lat="39.4256675" lon="17.0032258"><ele>322.0</ele><time>2026-03-29T12:06:49.803Z</time></trkpt><trkpt lat="39.4256077" lon="17.0032593"><ele>322.0</ele><time>2026-03-29T12:06:50.777Z</time></trkpt><trkpt lat="39.4255369" lon="17.0033985"><ele>322.0</ele><time>2026-03-29T12:06:58.793Z</time></trkpt><trkpt lat="39.4255624" lon="17.003476"><ele>322.0</ele><time>2026-03-29T12:06:59.791Z</time></trkpt><trkpt lat="39.4255891" lon="17.0035616"><ele>324.5</ele><time>2026-03-29T12:07:00.782Z</time></trkpt><trkpt lat="39.4256102" lon="17.0036665"><ele>327.0</ele><time>2026-03-29T12:07:01.776Z</time></trkpt><trkpt lat="39.4255925" lon="17.0037574"><ele>329.5</ele><time>2026-03-29T12:07:02.783Z</time></trkpt><trkpt lat="39.4255647" lon="17.0038749"><ele>332.0</ele><time>2026-03-29T12:07:03.786Z</time></trkpt><trkpt lat="39.4255245" lon="17.0039835"><ele>334.5</ele><time>2026-03-29T12:07:04.784Z</time></trkpt><trkpt lat="39.4254923" lon="17.004072"><ele>337.0</ele><time>2026-03-29T12:07:05.777Z</time></trkpt><trkpt lat="39.425466" lon="17.0041595"><ele>339.0</ele><time>2026-03-29T12:07:06.788Z</time></trkpt><trkpt lat="39.4254509" lon="17.0042393"><ele>341.0</ele><time>2026-03-29T12:07:07.793Z</time></trkpt><trkpt lat="39.4254357" lon="17.0043508"><ele>343.0</ele><time>2026-03-29T12:07:09.779Z</time></trkpt><trkpt lat="39.4253859" lon="17.0044639"><ele>345.0</ele><time>2026-03-29T12:07:11.786Z</time></trkpt><trkpt lat="39.4253136" lon="17.0045168"><ele>347.0</ele><time>2026-03-29T12:07:12.792Z</time></trkpt><trkpt lat="39.4252237" lon="17.0045432"><ele>349.0</ele><time>2026-03-29T12:07:13.791Z</time></trkpt><trkpt lat="39.4251336" lon="17.004572"><ele>349.0</ele><time>2026-03-29T12:07:14.78Z</time></trkpt><trkpt lat="39.4250555" lon="17.0046224"><ele>349.0</ele><time>2026-03-29T12:07:15.779Z</time></trkpt><trkpt lat="39.4249841" lon="17.0047025"><ele>349.0</ele><time>2026-03-29T12:07:16.783Z</time></trkpt><trkpt lat="39.4248989" lon="17.0047826"><ele>349.0</ele><time>2026-03-29T12:07:17.787Z</time></trkpt><trkpt lat="39.4247894" lon="17.0048559"><ele>349.0</ele><time>2026-03-29T12:07:18.779Z</time></trkpt><trkpt lat="39.4246633" lon="17.0049194"><ele>351.25</ele><time>2026-03-29T12:07:19.777Z</time></trkpt><trkpt lat="39.4245483" lon="17.0049767"><ele>353.5</ele><time>2026-03-29T12:07:20.777Z</time></trkpt><trkpt lat="39.4244314" lon="17.0050305"><ele>355.75</ele><time>2026-03-29T12:07:21.794Z</time></trkpt><trkpt lat="39.4243175" lon="17.0050804"><ele>358.0</ele><time>2026-03-29T12:07:22.783Z</time></trkpt><trkpt lat="39.4242198" lon="17.0051243"><ele>356.8333333333333</ele><time>2026-03-29T12:07:23.782Z</time></trkpt><trkpt lat="39.424137" lon="17.0051534"><ele>355.66666666666663</ele><time>2026-03-29T12:07:24.781Z</time></trkpt><trkpt lat="39.4240496" lon="17.0051481"><ele>354.5</ele><time>2026-03-29T12:07:25.79Z</time></trkpt><trkpt lat="39.4239583" lon="17.0051114"><ele>353.3333333333333</ele><time>2026-03-29T12:07:26.772Z</time></trkpt><trkpt lat="39.4238699" lon="17.0050829"><ele>352.1666666666667</ele><time>2026-03-29T12:07:27.77Z</time></trkpt><trkpt lat="39.4237852" lon="17.0050942"><ele>351.0</ele><time>2026-03-29T12:07:28.776Z</time></trkpt><trkpt lat="39.423697" lon="17.0051411"><ele>351.0</ele><time>2026-03-29T12:07:29.781Z</time></trkpt><trkpt lat="39.4236108" lon="17.0051875"><ele>351.0</ele><time>2026-03-29T12:07:30.77Z</time></trkpt><trkpt lat="39.4235452" lon="17.0052594"><ele>351.0</ele><time>2026-03-29T12:07:31.773Z</time></trkpt><trkpt lat="39.4234997" lon="17.0053579"><ele>351.0</ele><time>2026-03-29T12:07:32.788Z</time></trkpt><trkpt lat="39.4234677" lon="17.0054806"><ele>351.0</ele><time>2026-03-29T12:07:33.793Z</time></trkpt><trkpt lat="39.4234439" lon="17.0055953"><ele>351.0</ele><time>2026-03-29T12:07:34.79Z</time></trkpt><trkpt lat="39.4234115" lon="17.0056868"><ele>351.0</ele><time>2026-03-29T12:07:35.781Z</time></trkpt><trkpt lat="39.4233566" lon="17.0057711"><ele>351.0</ele><time>2026-03-29T12:07:36.782Z</time></trkpt><trkpt lat="39.4232598" lon="17.0058413"><ele>351.0</ele><time>2026-03-29T12:07:38.777Z</time></trkpt><trkpt lat="39.4231895" lon="17.005904"><ele>351.0</ele><time>2026-03-29T12:07:40.788Z</time></trkpt><trkpt lat="39.423132" lon="17.0059713"><ele>351.0</ele><time>2026-03-29T12:07:41.786Z</time></trkpt><trkpt lat="39.4230518" lon="17.0060406"><ele>351.8</ele><time>2026-03-29T12:07:42.774Z</time></trkpt><trkpt lat="39.4229605" lon="17.0060906"><ele>352.6</ele><time>2026-03-29T12:07:43.776Z</time></trkpt><trkpt lat="39.4228686" lon="17.0061408"><ele>353.4</ele><time>2026-03-29T12:07:44.773Z</time></trkpt><trkpt lat="39.4227753" lon="17.0061994"><ele>354.2</ele><time>2026-03-29T12:07:45.792Z</time></trkpt><trkpt lat="39.4226878" lon="17.0062573"><ele>355.0</ele><time>2026-03-29T12:07:46.778Z</time></trkpt><trkpt lat="39.4226113" lon="17.0063124"><ele>355.0</ele><time>2026-03-29T12:07:47.79Z</time></trkpt><trkpt lat="39.4225419" lon="17.0063552"><ele>355.0</ele><time>2026-03-29T12:07:48.776Z</time></trkpt><trkpt lat="39.4224681" lon="17.006397"><ele>355.0</ele><time>2026-03-29T12:07:49.787Z</time></trkpt><trkpt lat="39.4223955" lon="17.0064817"><ele>355.0</ele><time>2026-03-29T12:07:50.778Z</time></trkpt><trkpt lat="39.4223068" lon="17.0065834"><ele>355.0</ele><time>2026-03-29T12:07:51.787Z</time></trkpt><trkpt lat="39.422207" lon="17.0066857"><ele>351.8</ele><time>2026-03-29T12:07:52.778Z</time></trkpt><trkpt lat="39.4221353" lon="17.0067669"><ele>348.6</ele><time>2026-03-29T12:07:53.793Z</time></trkpt><trkpt lat="39.422079" lon="17.0068243"><ele>345.4</ele><time>2026-03-29T12:07:54.789Z</time></trkpt><trkpt lat="39.4219445" lon="17.0068546"><ele>342.2</ele><time>2026-03-29T12:07:56.796Z</time></trkpt><trkpt lat="39.4218676" lon="17.0068554"><ele>339.0</ele><time>2026-03-29T12:07:57.791Z</time></trkpt><trkpt lat="39.4217781" lon="17.0068678"><ele>339.0</ele><time>2026-03-29T12:07:58.794Z</time></trkpt><trkpt lat="39.4216781" lon="17.0068903"><ele>339.0</ele><time>2026-03-29T12:07:59.796Z</time></trkpt><trkpt lat="39.4215814" lon="17.0069198"><ele>339.0</ele><time>2026-03-29T12:08:00.794Z</time></trkpt><trkpt lat="39.4215015" lon="17.0069459"><ele>339.0</ele><time>2026-03-29T12:08:01.789Z</time></trkpt><trkpt lat="39.4214279" lon="17.0069145"><ele>339.0</ele><time>2026-03-29T12:08:02.782Z</time></trkpt><trkpt lat="39.4213018" lon="17.0069449"><ele>336.25</ele><time>2026-03-29T12:08:04.783Z</time></trkpt><trkpt lat="39.4212453" lon="17.0070627"><ele>333.5</ele><time>2026-03-29T12:08:06.787Z</time></trkpt><trkpt lat="39.421248" lon="17.0072305"><ele>330.75</ele><time>2026-03-29T12:08:08.777Z</time></trkpt><trkpt lat="39.421206" lon="17.00738"><ele>328.0</ele><time>2026-03-29T12:08:10.788Z</time></trkpt><trkpt lat="39.4211121" lon="17.0074106"><ele>328.0</ele><time>2026-03-29T12:08:11.782Z</time></trkpt><trkpt lat="39.421023" lon="17.007419"><ele>328.0</ele><time>2026-03-29T12:08:12.776Z</time></trkpt><trkpt lat="39.4209438" lon="17.0074465"><ele>328.0</ele><time>2026-03-29T12:08:13.782Z</time></trkpt><trkpt lat="39.4208759" lon="17.0074837"><ele>328.0</ele><time>2026-03-29T12:08:14.79Z</time></trkpt><trkpt lat="39.4208001" lon="17.0075813"><ele>328.0</ele><time>2026-03-29T12:08:16.791Z</time></trkpt><trkpt lat="39.4207697" lon="17.007653"><ele>328.0</ele><time>2026-03-29T12:08:18.792Z</time></trkpt><trkpt lat="39.420709" lon="17.0077362"><ele>325.5</ele><time>2026-03-29T12:08:21.796Z</time></trkpt><trkpt lat="39.4206223" lon="17.0078459"><ele>323.0</ele><time>2026-03-29T12:08:23.808Z</time></trkpt><trkpt lat="39.4205778" lon="17.007909"><ele>320.5</ele><time>2026-03-29T12:08:24.778Z</time></trkpt><trkpt lat="39.4205372" lon="17.0079751"><ele>318.0</ele><time>2026-03-29T12:08:25.801Z</time></trkpt><trkpt lat="39.4204865" lon="17.0080494"><ele>315.5</ele><time>2026-03-29T12:08:26.786Z</time></trkpt><trkpt lat="39.4204344" lon="17.0081339"><ele>313.0</ele><time>2026-03-29T12:08:27.78Z</time></trkpt><trkpt lat="39.4203907" lon="17.0082572"><ele>310.4</ele><time>2026-03-29T12:08:28.783Z</time></trkpt><trkpt lat="39.420341" lon="17.0083594"><ele>307.8</ele><time>2026-03-29T12:08:29.796Z</time></trkpt><trkpt lat="39.4203208" lon="17.0084687"><ele>305.2</ele><time>2026-03-29T12:08:30.786Z</time></trkpt><trkpt lat="39.4202663" lon="17.0085794"><ele>302.6</ele><time>2026-03-29T12:08:31.779Z</time></trkpt><trkpt lat="39.4201928" lon="17.0086981"><ele>300.0</ele><time>2026-03-29T12:08:32.787Z</time></trkpt><trkpt lat="39.4201168" lon="17.0088186"><ele>300.0</ele><time>2026-03-29T12:08:33.797Z</time></trkpt><trkpt lat="39.4200496" lon="17.0089229"><ele>300.0</ele><time>2026-03-29T12:08:34.781Z</time></trkpt><trkpt lat="39.4199735" lon="17.0090337"><ele>300.0</ele><time>2026-03-29T12:08:35.778Z</time></trkpt><trkpt lat="39.4198993" lon="17.0090773"><ele>300.0</ele><time>2026-03-29T12:08:36.782Z</time></trkpt><trkpt lat="39.4198506" lon="17.0091743"><ele>300.0</ele><time>2026-03-29T12:08:37.789Z</time></trkpt><trkpt lat="39.4198103" lon="17.0092767"><ele>303.2</ele><time>2026-03-29T12:08:38.782Z</time></trkpt><trkpt lat="39.4197995" lon="17.0094122"><ele>306.4</ele><time>2026-03-29T12:08:39.777Z</time></trkpt><trkpt lat="39.4198074" lon="17.0095478"><ele>309.6</ele><time>2026-03-29T12:08:40.783Z</time></trkpt><trkpt lat="39.4198215" lon="17.0096834"><ele>312.8</ele><time>2026-03-29T12:08:41.784Z</time></trkpt><trkpt lat="39.4198248" lon="17.0098107"><ele>316.0</ele><time>2026-03-29T12:08:42.783Z</time></trkpt><trkpt lat="39.4197911" lon="17.0098965"><ele>316.0</ele><time>2026-03-29T12:08:43.778Z</time></trkpt><trkpt lat="39.4197344" lon="17.0099739"><ele>316.0</ele><time>2026-03-29T12:08:44.79Z</time></trkpt><trkpt lat="39.4196863" lon="17.0100667"><ele>316.0</ele><time>2026-03-29T12:08:45.786Z</time></trkpt><trkpt lat="39.4196471" lon="17.0101793"><ele>316.0</ele><time>2026-03-29T12:08:46.773Z</time></trkpt><trkpt lat="39.4196109" lon="17.0102761"><ele>316.0</ele><time>2026-03-29T12:08:47.785Z</time></trkpt><trkpt lat="39.4195805" lon="17.0103543"><ele>316.0</ele><time>2026-03-29T12:08:48.78Z</time></trkpt><trkpt lat="39.419476" lon="17.0103828"><ele>315.8333333333333</ele><time>2026-03-29T12:08:50.777Z</time></trkpt><trkpt lat="39.419406" lon="17.0103485"><ele>315.66666666666663</ele><time>2026-03-29T12:08:51.775Z</time></trkpt><trkpt lat="39.4193276" lon="17.0103519"><ele>315.5</ele><time>2026-03-29T12:08:52.78Z</time></trkpt><trkpt lat="39.4192487" lon="17.0103627"><ele>315.3333333333333</ele><time>2026-03-29T12:08:53.768Z</time></trkpt><trkpt lat="39.4191893" lon="17.0104254"><ele>315.1666666666667</ele><time>2026-03-29T12:08:54.779Z</time></trkpt><trkpt lat="39.4191348" lon="17.0105076"><ele>315.0</ele><time>2026-03-29T12:08:55.788Z</time></trkpt><trkpt lat="39.4190768" lon="17.0105919"><ele>315.0</ele><time>2026-03-29T12:08:56.773Z</time></trkpt><trkpt lat="39.4190467" lon="17.0107013"><ele>315.0</ele><time>2026-03-29T12:08:57.77Z</time></trkpt><trkpt lat="39.4190303" lon="17.0108186"><ele>315.0</ele><time>2026-03-29T12:08:58.777Z</time></trkpt><trkpt lat="39.4190539" lon="17.0109539"><ele>315.0</ele><time>2026-03-29T12:08:59.78Z</time></trkpt><trkpt lat="39.4190946" lon="17.0110887"><ele>315.0</ele><time>2026-03-29T12:09:00.779Z</time></trkpt><trkpt lat="39.4191304" lon="17.0112125"><ele>314.5</ele><time>2026-03-29T12:09:01.77Z</time></trkpt><trkpt lat="39.4191665" lon="17.0113161"><ele>314.0</ele><time>2026-03-29T12:09:02.787Z</time></trkpt><trkpt lat="39.419198" lon="17.0114099"><ele>313.5</ele><time>2026-03-29T12:09:03.791Z</time></trkpt><trkpt lat="39.4191994" lon="17.0114952"><ele>313.0</ele><time>2026-03-29T12:09:04.779Z</time></trkpt><trkpt lat="39.4191499" lon="17.0116244"><ele>312.5</ele><time>2026-03-29T12:09:06.784Z</time></trkpt><trkpt lat="39.4190958" lon="17.0116679"><ele>312.0</ele><time>2026-03-29T12:09:08.782Z</time></trkpt><trkpt lat="39.4190374" lon="17.0117035"><ele>309.0</ele><time>2026-03-29T12:09:10.785Z</time></trkpt><trkpt lat="39.4189766" lon="17.0117286"><ele>306.0</ele><time>2026-03-29T12:09:12.789Z</time></trkpt><trkpt lat="39.4188507" lon="17.0117555"><ele>303.0</ele><time>2026-03-29T12:09:14.784Z</time></trkpt><trkpt lat="39.4187792" lon="17.0117843"><ele>300.0</ele><time>2026-03-29T12:09:15.782Z</time></trkpt><trkpt lat="39.4187213" lon="17.0118416"><ele>297.0</ele><time>2026-03-29T12:09:16.792Z</time></trkpt><trkpt lat="39.418672" lon="17.0119314"><ele>294.0</ele><time>2026-03-29T12:09:17.78Z</time></trkpt><trkpt lat="39.4186546" lon="17.0120488"><ele>293.8</ele><time>2026-03-29T12:09:18.776Z</time></trkpt><trkpt lat="39.4186433" lon="17.0121713"><ele>293.59999999999997</ele><time>2026-03-29T12:09:19.791Z</time></trkpt><trkpt lat="39.418605" lon="17.012285"><ele>293.4</ele><time>2026-03-29T12:09:20.78Z</time></trkpt><trkpt lat="39.4185226" lon="17.0123637"><ele>293.2</ele><time>2026-03-29T12:09:21.771Z</time></trkpt><trkpt lat="39.4184385" lon="17.0124393"><ele>293.0</ele><time>2026-03-29T12:09:22.79Z</time></trkpt><trkpt lat="39.4183596" lon="17.0124932"><ele>292.5</ele><time>2026-03-29T12:09:23.788Z</time></trkpt><trkpt lat="39.4182818" lon="17.0125279"><ele>292.0</ele><time>2026-03-29T12:09:24.793Z</time></trkpt><trkpt lat="39.4182235" lon="17.0125844"><ele>291.5</ele><time>2026-03-29T12:09:25.781Z</time></trkpt><trkpt lat="39.4181764" lon="17.0126451"><ele>291.0</ele><time>2026-03-29T12:09:26.793Z</time></trkpt><trkpt lat="39.4180935" lon="17.0127646"><ele>290.5</ele><time>2026-03-29T12:09:28.78Z</time></trkpt><trkpt lat="39.4180556" lon="17.0128454"><ele>290.0</ele><time>2026-03-29T12:09:29.791Z</time></trkpt><trkpt lat="39.4180325" lon="17.0129303"><ele>290.0</ele><time>2026-03-29T12:09:30.791Z</time></trkpt><trkpt lat="39.4180106" lon="17.0130183"><ele>290.0</ele><time>2026-03-29T12:09:31.784Z</time></trkpt><trkpt lat="39.4180021" lon="17.0131243"><ele>290.0</ele><time>2026-03-29T12:09:32.789Z</time></trkpt><trkpt lat="39.4179696" lon="17.0132319"><ele>290.0</ele><time>2026-03-29T12:09:33.784Z</time></trkpt><trkpt lat="39.4179057" lon="17.0133403"><ele>290.0</ele><time>2026-03-29T12:09:34.776Z</time></trkpt><trkpt lat="39.4178546" lon="17.0134436"><ele>290.0</ele><time>2026-03-29T12:09:35.797Z</time></trkpt><trkpt lat="39.417806" lon="17.0135393"><ele>288.33333333333337</ele><time>2026-03-29T12:09:36.789Z</time></trkpt><trkpt lat="39.4177668" lon="17.0136152"><ele>286.6666666666667</ele><time>2026-03-29T12:09:37.781Z</time></trkpt><trkpt lat="39.4177226" lon="17.0136934"><ele>285.0</ele><time>2026-03-29T12:09:38.788Z</time></trkpt><trkpt lat="39.4176863" lon="17.0137801"><ele>283.3333333333333</ele><time>2026-03-29T12:09:39.784Z</time></trkpt><trkpt lat="39.4176583" lon="17.0138842"><ele>281.66666666666663</ele><time>2026-03-29T12:09:40.786Z</time></trkpt><trkpt lat="39.4176234" lon="17.0139982"><ele>280.0</ele><time>2026-03-29T12:09:41.769Z</time></trkpt><trkpt lat="39.417589" lon="17.0141074"><ele>281.5</ele><time>2026-03-29T12:09:42.781Z</time></trkpt><trkpt lat="39.4175581" lon="17.0142153"><ele>283.0</ele><time>2026-03-29T12:09:43.782Z</time></trkpt><trkpt lat="39.4175405" lon="17.0143175"><ele>284.5</ele><time>2026-03-29T12:09:44.77Z</time></trkpt><trkpt lat="39.417509" lon="17.0144079"><ele>286.0</ele><time>2026-03-29T12:09:45.775Z</time></trkpt><trkpt lat="39.4174724" lon="17.0144984"><ele>287.5</ele><time>2026-03-29T12:09:46.79Z</time></trkpt><trkpt lat="39.4174015" lon="17.0145608"><ele>289.0</ele><time>2026-03-29T12:09:47.783Z</time></trkpt><trkpt lat="39.4173225" lon="17.0146017"><ele>289.0</ele><time>2026-03-29T12:09:48.78Z</time></trkpt><trkpt lat="39.4172412" lon="17.014618"><ele>289.0</ele><time>2026-03-29T12:09:49.803Z</time></trkpt><trkpt lat="39.4171585" lon="17.0146333"><ele>289.0</ele><time>2026-03-29T12:09:50.785Z</time></trkpt><trkpt lat="39.4170701" lon="17.0146347"><ele>289.0</ele><time>2026-03-29T12:09:51.775Z</time></trkpt><trkpt lat="39.4169739" lon="17.0146386"><ele>289.0</ele><time>2026-03-29T12:09:52.782Z</time></trkpt><trkpt lat="39.416881" lon="17.0146529"><ele>289.0</ele><time>2026-03-29T12:09:53.792Z</time></trkpt><trkpt lat="39.4167962" lon="17.0146887"><ele>288.66666666666663</ele><time>2026-03-29T12:09:54.788Z</time></trkpt><trkpt lat="39.416707" lon="17.0147262"><ele>288.3333333333333</ele><time>2026-03-29T12:09:55.777Z</time></trkpt><trkpt lat="39.41663" lon="17.0147769"><ele>288.0</ele><time>2026-03-29T12:09:56.781Z</time></trkpt><trkpt lat="39.416552" lon="17.014823"><ele>287.6666666666667</ele><time>2026-03-29T12:09:57.79Z</time></trkpt><trkpt lat="39.4164895" lon="17.0148885"><ele>287.33333333333337</ele><time>2026-03-29T12:09:58.787Z</time></trkpt><trkpt lat="39.4164541" lon="17.0149956"><ele>287.0</ele><time>2026-03-29T12:09:59.776Z</time></trkpt><trkpt lat="39.4164196" lon="17.0150991"><ele>287.83333333333337</ele><time>2026-03-29T12:10:00.787Z</time></trkpt><trkpt lat="39.4163981" lon="17.0152039"><ele>288.6666666666667</ele><time>2026-03-29T12:10:01.784Z</time></trkpt><trkpt lat="39.4163977" lon="17.0153158"><ele>289.5</ele><time>2026-03-29T12:10:02.782Z</time></trkpt><trkpt lat="39.4164073" lon="17.0154215"><ele>290.3333333333333</ele><time>2026-03-29T12:10:03.792Z</time></trkpt><trkpt lat="39.41642" lon="17.0155156"><ele>291.16666666666663</ele><time>2026-03-29T12:10:04.786Z</time></trkpt><trkpt lat="39.4163881" lon="17.0155901"><ele>292.0</ele><time>2026-03-29T12:10:05.781Z</time></trkpt><trkpt lat="39.416354" lon="17.0156622"><ele>292.0</ele><time>2026-03-29T12:10:06.786Z</time></trkpt><trkpt lat="39.4163357" lon="17.0157636"><ele>292.0</ele><time>2026-03-29T12:10:07.788Z</time></trkpt><trkpt lat="39.41636" lon="17.0158834"><ele>292.0</ele><time>2026-03-29T12:10:08.787Z</time></trkpt><trkpt lat="39.416381" lon="17.0159839"><ele>292.0</ele><time>2026-03-29T12:10:09.785Z</time></trkpt><trkpt lat="39.4163579" lon="17.0160616"><ele>292.0</ele><time>2026-03-29T12:10:10.784Z</time></trkpt><trkpt lat="39.4162747" lon="17.0161843"><ele>292.0</ele><time>2026-03-29T12:10:12.778Z</time></trkpt><trkpt lat="39.4162314" lon="17.0162446"><ele>290.6</ele><time>2026-03-29T12:10:13.778Z</time></trkpt><trkpt lat="39.4161428" lon="17.0163534"><ele>289.2</ele><time>2026-03-29T12:10:15.794Z</time></trkpt><trkpt lat="39.4160712" lon="17.0164759"><ele>287.8</ele><time>2026-03-29T12:10:17.776Z</time></trkpt><trkpt lat="39.4160473" lon="17.0165531"><ele>286.4</ele><time>2026-03-29T12:10:18.788Z</time></trkpt><trkpt lat="39.4160188" lon="17.0166429"><ele>285.0</ele><time>2026-03-29T12:10:19.788Z</time></trkpt><trkpt lat="39.4159858" lon="17.0167312"><ele>285.0</ele><time>2026-03-29T12:10:20.784Z</time></trkpt><trkpt lat="39.4159464" lon="17.0168265"><ele>285.0</ele><time>2026-03-29T12:10:21.773Z</time></trkpt><trkpt lat="39.4158726" lon="17.0169026"><ele>285.0</ele><time>2026-03-29T12:10:22.776Z</time></trkpt><trkpt lat="39.4158097" lon="17.0169663"><ele>285.0</ele><time>2026-03-29T12:10:23.798Z</time></trkpt><trkpt lat="39.4157509" lon="17.017013"><ele>285.0</ele><time>2026-03-29T12:10:24.785Z</time></trkpt><trkpt lat="39.4156441" lon="17.0170875"><ele>285.0</ele><time>2026-03-29T12:10:26.783Z</time></trkpt><trkpt lat="39.4155755" lon="17.0171169"><ele>285.0</ele><time>2026-03-29T12:10:27.796Z</time></trkpt><trkpt lat="39.4154979" lon="17.0171453"><ele>285.0</ele><time>2026-03-29T12:10:28.789Z</time></trkpt><trkpt lat="39.41542" lon="17.0172004"><ele>285.0</ele><time>2026-03-29T12:10:29.779Z</time></trkpt><trkpt lat="39.4153532" lon="17.0173015"><ele>285.0</ele><time>2026-03-29T12:10:30.79Z</time></trkpt><trkpt lat="39.4152864" lon="17.017409"><ele>285.0</ele><time>2026-03-29T12:10:31.789Z</time></trkpt><trkpt lat="39.4152304" lon="17.0175222"><ele>278.75</ele><time>2026-03-29T12:10:32.776Z</time></trkpt><trkpt lat="39.4151793" lon="17.0176597"><ele>272.5</ele><time>2026-03-29T12:10:33.793Z</time></trkpt><trkpt lat="39.4151555" lon="17.0178322"><ele>266.25</ele><time>2026-03-29T12:10:34.791Z</time></trkpt><trkpt lat="39.4151241" lon="17.0180048"><ele>260.0</ele><time>2026-03-29T12:10:35.784Z</time></trkpt><trkpt lat="39.4151013" lon="17.018158"><ele>260.0</ele><time>2026-03-29T12:10:36.791Z</time></trkpt><trkpt lat="39.4150788" lon="17.0182928"><ele>260.0</ele><time>2026-03-29T12:10:37.783Z</time></trkpt><trkpt lat="39.415037" lon="17.0184055"><ele>260.0</ele><time>2026-03-29T12:10:38.777Z</time></trkpt><trkpt lat="39.4149958" lon="17.0185161"><ele>260.0</ele><time>2026-03-29T12:10:39.791Z</time></trkpt><trkpt lat="39.4149453" lon="17.0186387"><ele>260.0</ele><time>2026-03-29T12:10:40.781Z</time></trkpt><trkpt lat="39.4148954" lon="17.0187557"><ele>262.4</ele><time>2026-03-29T12:10:41.785Z</time></trkpt><trkpt lat="39.4148556" lon="17.0188697"><ele>264.8</ele><time>2026-03-29T12:10:42.784Z</time></trkpt><trkpt lat="39.4148335" lon="17.0189959"><ele>267.2</ele><time>2026-03-29T12:10:43.791Z</time></trkpt><trkpt lat="39.4148145" lon="17.0191237"><ele>269.6</ele><time>2026-03-29T12:10:44.783Z</time></trkpt><trkpt lat="39.4148281" lon="17.0192582"><ele>272.0</ele><time>2026-03-29T12:10:45.783Z</time></trkpt><trkpt lat="39.4148438" lon="17.0193779"><ele>271.0</ele><time>2026-03-29T12:10:46.789Z</time></trkpt><trkpt lat="39.4148419" lon="17.0194661"><ele>270.0</ele><time>2026-03-29T12:10:47.787Z</time></trkpt><trkpt lat="39.4147966" lon="17.0195521"><ele>269.0</ele><time>2026-03-29T12:10:48.789Z</time></trkpt><trkpt lat="39.4147353" lon="17.0196494"><ele>268.0</ele><time>2026-03-29T12:10:49.785Z</time></trkpt><trkpt lat="39.4146767" lon="17.019757"><ele>267.0</ele><time>2026-03-29T12:10:50.776Z</time></trkpt><trkpt lat="39.4146157" lon="17.0198694"><ele>270.6</ele><time>2026-03-29T12:10:51.795Z</time></trkpt><trkpt lat="39.4145673" lon="17.0199883"><ele>274.2</ele><time>2026-03-29T12:10:52.788Z</time></trkpt><trkpt lat="39.4145295" lon="17.020085"><ele>277.8</ele><time>2026-03-29T12:10:53.785Z</time></trkpt><trkpt lat="39.4145265" lon="17.0202021"><ele>281.4</ele><time>2026-03-29T12:10:54.781Z</time></trkpt><trkpt lat="39.414525" lon="17.0203207"><ele>285.0</ele><time>2026-03-29T12:10:55.788Z</time></trkpt><trkpt lat="39.4145246" lon="17.0204481"><ele>285.0</ele><time>2026-03-29T12:10:56.781Z</time></trkpt><trkpt lat="39.4145136" lon="17.0205812"><ele>285.0</ele><time>2026-03-29T12:10:57.79Z</time></trkpt><trkpt lat="39.4144822" lon="17.0207183"><ele>285.0</ele><time>2026-03-29T12:10:58.784Z</time></trkpt><trkpt lat="39.4144531" lon="17.0208569"><ele>285.0</ele><time>2026-03-29T12:10:59.782Z</time></trkpt><trkpt lat="39.4144258" lon="17.0209576"><ele>285.0</ele><time>2026-03-29T12:11:00.785Z</time></trkpt><trkpt lat="39.4143874" lon="17.0210594"><ele>286.0</ele><time>2026-03-29T12:11:02.786Z</time></trkpt><trkpt lat="39.4144096" lon="17.0211439"><ele>287.0</ele><time>2026-03-29T12:11:16.794Z</time></trkpt><trkpt lat="39.4144784" lon="17.021253"><ele>288.0</ele><time>2026-03-29T12:11:18.785Z</time></trkpt><trkpt lat="39.414526" lon="17.0213142"><ele>289.0</ele><time>2026-03-29T12:11:19.796Z</time></trkpt><trkpt lat="39.4145856" lon="17.0213836"><ele>290.0</ele><time>2026-03-29T12:11:20.775Z</time></trkpt><trkpt lat="39.4146486" lon="17.0214562"><ele>291.0</ele><time>2026-03-29T12:11:21.791Z</time></trkpt><trkpt lat="39.4147007" lon="17.0215412"><ele>291.8333333333333</ele><time>2026-03-29T12:11:22.783Z</time></trkpt><trkpt lat="39.414752" lon="17.0216164"><ele>292.6666666666667</ele><time>2026-03-29T12:11:23.775Z</time></trkpt><trkpt lat="39.414828" lon="17.0216416"><ele>293.5</ele><time>2026-03-29T12:11:24.781Z</time></trkpt><trkpt lat="39.4149193" lon="17.0216678"><ele>294.33333333333337</ele><time>2026-03-29T12:11:25.784Z</time></trkpt><trkpt lat="39.4150029" lon="17.0217031"><ele>295.1666666666667</ele><time>2026-03-29T12:11:26.775Z</time></trkpt><trkpt lat="39.4150739" lon="17.0217282"><ele>296.0</ele><time>2026-03-29T12:11:27.78Z</time></trkpt><trkpt lat="39.4151789" lon="17.0217843"><ele>299.2</ele><time>2026-03-29T12:11:29.785Z</time></trkpt><trkpt lat="39.4152231" lon="17.0218743"><ele>302.40000000000003</ele><time>2026-03-29T12:11:30.772Z</time></trkpt><trkpt lat="39.4152619" lon="17.0219708"><ele>305.6</ele><time>2026-03-29T12:11:31.795Z</time></trkpt><trkpt lat="39.4153074" lon="17.0220748"><ele>308.8</ele><time>2026-03-29T12:11:32.788Z</time></trkpt><trkpt lat="39.4153663" lon="17.0221853"><ele>312.0</ele><time>2026-03-29T12:11:33.781Z</time></trkpt><trkpt lat="39.4154288" lon="17.0223025"><ele>314.0</ele><time>2026-03-29T12:11:34.782Z</time></trkpt><trkpt lat="39.4154919" lon="17.0224182"><ele>316.0</ele><time>2026-03-29T12:11:35.796Z</time></trkpt><trkpt lat="39.4155536" lon="17.0225305"><ele>318.0</ele><time>2026-03-29T12:11:36.789Z</time></trkpt><trkpt lat="39.4156082" lon="17.0226242"><ele>320.0</ele><time>2026-03-29T12:11:37.782Z</time></trkpt><trkpt lat="39.4156547" lon="17.0227064"><ele>322.0</ele><time>2026-03-29T12:11:38.787Z</time></trkpt><trkpt lat="39.4156858" lon="17.022793"><ele>322.40000000000003</ele><time>2026-03-29T12:11:39.781Z</time></trkpt><trkpt lat="39.4157102" lon="17.022873"><ele>322.8</ele><time>2026-03-29T12:11:40.777Z</time></trkpt><trkpt lat="39.4157743" lon="17.023017"><ele>323.2</ele><time>2026-03-29T12:11:42.777Z</time></trkpt><trkpt lat="39.4158231" lon="17.0230856"><ele>323.6</ele><time>2026-03-29T12:11:43.785Z</time></trkpt><trkpt lat="39.4158729" lon="17.0231433"><ele>324.0</ele><time>2026-03-29T12:11:44.772Z</time></trkpt><trkpt lat="39.4159836" lon="17.0232116"><ele>324.0</ele><time>2026-03-29T12:11:46.773Z</time></trkpt><trkpt lat="39.4160468" lon="17.0232158"><ele>324.0</ele><time>2026-03-29T12:11:47.779Z</time></trkpt><trkpt lat="39.4161246" lon="17.0231941"><ele>324.0</ele><time>2026-03-29T12:11:48.781Z</time></trkpt><trkpt lat="39.4162344" lon="17.0231598"><ele>324.0</ele><time>2026-03-29T12:11:49.775Z</time></trkpt><trkpt lat="39.4163686" lon="17.023148"><ele>324.0</ele><time>2026-03-29T12:11:50.776Z</time></trkpt><trkpt lat="39.4165013" lon="17.023157"><ele>322.75</ele><time>2026-03-29T12:11:51.778Z</time></trkpt><trkpt lat="39.4166337" lon="17.023179"><ele>321.5</ele><time>2026-03-29T12:11:52.781Z</time></trkpt><trkpt lat="39.4167507" lon="17.0232035"><ele>320.25</ele><time>2026-03-29T12:11:53.791Z</time></trkpt><trkpt lat="39.4168696" lon="17.0232137"><ele>319.0</ele><time>2026-03-29T12:11:54.776Z</time></trkpt><trkpt lat="39.4169766" lon="17.0232319"><ele>319.0</ele><time>2026-03-29T12:11:55.779Z</time></trkpt><trkpt lat="39.417074" lon="17.0232667"><ele>319.0</ele><time>2026-03-29T12:11:56.785Z</time></trkpt><trkpt lat="39.4171483" lon="17.0233011"><ele>319.0</ele><time>2026-03-29T12:11:57.79Z</time></trkpt><trkpt lat="39.4172317" lon="17.0232731"><ele>319.0</ele><time>2026-03-29T12:11:58.777Z</time></trkpt><trkpt lat="39.4173084" lon="17.0232146"><ele>319.0</ele><time>2026-03-29T12:11:59.794Z</time></trkpt><trkpt lat="39.417381" lon="17.0231613"><ele>319.0</ele><time>2026-03-29T12:12:00.784Z</time></trkpt><trkpt lat="39.4174448" lon="17.0230837"><ele>315.2</ele><time>2026-03-29T12:12:02.785Z</time></trkpt><trkpt lat="39.41748" lon="17.0229973"><ele>311.4</ele><time>2026-03-29T12:12:04.782Z</time></trkpt><trkpt lat="39.4175463" lon="17.022861"><ele>307.6</ele><time>2026-03-29T12:12:06.789Z</time></trkpt><trkpt lat="39.4176063" lon="17.0228103"><ele>303.8</ele><time>2026-03-29T12:12:07.788Z</time></trkpt><trkpt lat="39.4176959" lon="17.0227684"><ele>300.0</ele><time>2026-03-29T12:12:08.784Z</time></trkpt><trkpt lat="39.4178001" lon="17.0227239"><ele>300.0</ele><time>2026-03-29T12:12:09.791Z</time></trkpt><trkpt lat="39.4178827" lon="17.022657"><ele>300.0</ele><time>2026-03-29T12:12:10.779Z</time></trkpt><trkpt lat="39.4179563" lon="17.0226241"><ele>300.0</ele><time>2026-03-29T12:12:11.787Z</time></trkpt><trkpt lat="39.4180249" lon="17.0226246"><ele>300.0</ele><time>2026-03-29T12:12:12.776Z</time></trkpt><trkpt lat="39.4180918" lon="17.0226185"><ele>300.0</ele><time>2026-03-29T12:12:13.788Z</time></trkpt><trkpt lat="39.4181598" lon="17.0225706"><ele>300.0</ele><time>2026-03-29T12:12:14.778Z</time></trkpt><trkpt lat="39.4182282" lon="17.0224911"><ele>296.4</ele><time>2026-03-29T12:12:15.783Z</time></trkpt><trkpt lat="39.4183016" lon="17.0224159"><ele>292.8</ele><time>2026-03-29T12:12:16.781Z</time></trkpt><trkpt lat="39.4183845" lon="17.0223813"><ele>289.2</ele><time>2026-03-29T12:12:17.79Z</time></trkpt><trkpt lat="39.4184878" lon="17.0223857"><ele>285.6</ele><time>2026-03-29T12:12:18.776Z</time></trkpt><trkpt lat="39.4186047" lon="17.0224143"><ele>282.0</ele><time>2026-03-29T12:12:19.788Z</time></trkpt><trkpt lat="39.4187477" lon="17.0224414"><ele>280.5</ele><time>2026-03-29T12:12:20.781Z</time></trkpt><trkpt lat="39.4188885" lon="17.0224661"><ele>279.0</ele><time>2026-03-29T12:12:21.79Z</time></trkpt><trkpt lat="39.4190214" lon="17.0224847"><ele>277.5</ele><time>2026-03-29T12:12:22.786Z</time></trkpt><trkpt lat="39.4191354" lon="17.0224859"><ele>276.0</ele><time>2026-03-29T12:12:23.793Z</time></trkpt><trkpt lat="39.4192273" lon="17.0224781"><ele>276.0</ele><time>2026-03-29T12:12:24.781Z</time></trkpt><trkpt lat="39.4192933" lon="17.0224795"><ele>276.0</ele><time>2026-03-29T12:12:25.788Z</time></trkpt><trkpt lat="39.4193656" lon="17.0225147"><ele>276.0</ele><time>2026-03-29T12:12:27.795Z</time></trkpt><trkpt lat="39.4194268" lon="17.0225589"><ele>276.0</ele><time>2026-03-29T12:12:30.784Z</time></trkpt><trkpt lat="39.4195151" lon="17.0226109"><ele>276.0</ele><time>2026-03-29T12:12:33.785Z</time></trkpt><trkpt lat="39.4196163" lon="17.0226543"><ele>276.0</ele><time>2026-03-29T12:12:35.796Z</time></trkpt><trkpt lat="39.4197333" lon="17.0226933"><ele>277.40000000000003</ele><time>2026-03-29T12:12:37.783Z</time></trkpt><trkpt lat="39.4198254" lon="17.0227646"><ele>278.8</ele><time>2026-03-29T12:12:39.789Z</time></trkpt><trkpt lat="39.4198264" lon="17.0229167"><ele>280.20000000000005</ele><time>2026-03-29T12:12:41.787Z</time></trkpt><trkpt lat="39.4197869" lon="17.0229908"><ele>281.6</ele><time>2026-03-29T12:12:42.776Z</time></trkpt><trkpt lat="39.4197554" lon="17.0230629"><ele>283.0</ele><time>2026-03-29T12:12:43.79Z</time></trkpt><trkpt lat="39.4197372" lon="17.0232062"><ele>283.16666666666663</ele><time>2026-03-29T12:12:45.785Z</time></trkpt><trkpt lat="39.4197347" lon="17.0233234"><ele>283.3333333333333</ele><time>2026-03-29T12:12:47.793Z</time></trkpt><trkpt lat="39.4197386" lon="17.023433"><ele>283.5</ele><time>2026-03-29T12:12:53.799Z</time></trkpt><trkpt lat="39.4197297" lon="17.023532"><ele>283.6666666666667</ele><time>2026-03-29T12:12:55.796Z</time></trkpt><trkpt lat="39.4196929" lon="17.0236385"><ele>283.83333333333337</ele><time>2026-03-29T12:12:57.783Z</time></trkpt><trkpt lat="39.4196403" lon="17.0237052"><ele>284.0</ele><time>2026-03-29T12:12:59.775Z</time></trkpt><trkpt lat="39.4195397" lon="17.0236781"><ele>284.0</ele><time>2026-03-29T12:13:01.781Z</time></trkpt><trkpt lat="39.4194388" lon="17.023616"><ele>284.0</ele><time>2026-03-29T12:13:03.773Z</time></trkpt><trkpt lat="39.4193383" lon="17.0236179"><ele>284.0</ele><time>2026-03-29T12:13:05.783Z</time></trkpt><trkpt lat="39.4193151" lon="17.0237092"><ele>284.0</ele><time>2026-03-29T12:13:07.777Z</time></trkpt><trkpt lat="39.4193599" lon="17.023812"><ele>284.0</ele><time>2026-03-29T12:13:09.797Z</time></trkpt><trkpt lat="39.4193585" lon="17.0239437"><ele>284.0</ele><time>2026-03-29T12:13:12.779Z</time></trkpt><trkpt lat="39.4193464" lon="17.0240353"><ele>284.0</ele><time>2026-03-29T12:13:14.786Z</time></trkpt><trkpt lat="39.4193806" lon="17.0241369"><ele>284.0</ele><time>2026-03-29T12:13:17.78Z</time></trkpt><trkpt lat="39.4194452" lon="17.0242472"><ele>284.0</ele><time>2026-03-29T12:13:19.773Z</time></trkpt><trkpt lat="39.4195266" lon="17.0243529"><ele>284.0</ele><time>2026-03-29T12:13:21.788Z</time></trkpt><trkpt lat="39.4196094" lon="17.0244738"><ele>280.2857142857143</ele><time>2026-03-29T12:13:23.782Z</time></trkpt><trkpt lat="39.4196497" lon="17.0245503"><ele>276.57142857142856</ele><time>2026-03-29T12:13:24.777Z</time></trkpt><trkpt lat="39.4197048" lon="17.0246171"><ele>272.85714285714283</ele><time>2026-03-29T12:13:25.768Z</time></trkpt><trkpt lat="39.4197656" lon="17.0246765"><ele>269.1428571428571</ele><time>2026-03-29T12:13:26.781Z</time></trkpt><trkpt lat="39.4198206" lon="17.0247315"><ele>265.42857142857144</ele><time>2026-03-29T12:13:27.787Z</time></trkpt><trkpt lat="39.4198738" lon="17.0247823"><ele>261.71428571428567</ele><time>2026-03-29T12:13:28.778Z</time></trkpt><trkpt lat="39.4199305" lon="17.0248348"><ele>258.0</ele><time>2026-03-29T12:13:29.773Z</time></trkpt><trkpt lat="39.42004" lon="17.0249091"><ele>257.5</ele><time>2026-03-29T12:13:31.783Z</time></trkpt><trkpt lat="39.4201129" lon="17.0249435"><ele>257.0</ele><time>2026-03-29T12:13:32.784Z</time></trkpt><trkpt lat="39.4201849" lon="17.0249901"><ele>256.5</ele><time>2026-03-29T12:13:33.78Z</time></trkpt><trkpt lat="39.4202453" lon="17.0250418"><ele>256.0</ele><time>2026-03-29T12:13:34.792Z</time></trkpt><trkpt lat="39.4202966" lon="17.0250958"><ele>255.5</ele><time>2026-03-29T12:13:35.788Z</time></trkpt><trkpt lat="39.4203634" lon="17.0251234"><ele>255.0</ele><time>2026-03-29T12:13:36.776Z</time></trkpt><trkpt lat="39.4204657" lon="17.0251694"><ele>249.2</ele><time>2026-03-29T12:13:38.789Z</time></trkpt><trkpt lat="39.4205542" lon="17.025199"><ele>243.4</ele><time>2026-03-29T12:13:40.789Z</time></trkpt><trkpt lat="39.4206485" lon="17.0251927"><ele>237.60000000000002</ele><time>2026-03-29T12:13:42.781Z</time></trkpt><trkpt lat="39.4207366" lon="17.0252664"><ele>231.8</ele><time>2026-03-29T12:13:44.778Z</time></trkpt><trkpt lat="39.4208153" lon="17.0253696"><ele>226.0</ele><time>2026-03-29T12:13:46.797Z</time></trkpt><trkpt lat="39.4208576" lon="17.0254305"><ele>226.0</ele><time>2026-03-29T12:13:47.792Z</time></trkpt><trkpt lat="39.4209348" lon="17.0255376"><ele>226.00000000000003</ele><time>2026-03-29T12:13:49.798Z</time></trkpt><trkpt lat="39.420991" lon="17.0256955"><ele>226.00000000000003</ele><time>2026-03-29T12:13:51.773Z</time></trkpt><trkpt lat="39.4210423" lon="17.0257852"><ele>226.0</ele><time>2026-03-29T12:13:52.782Z</time></trkpt><trkpt lat="39.4211034" lon="17.025883"><ele>226.0</ele><time>2026-03-29T12:13:53.781Z</time></trkpt><trkpt lat="39.4211713" lon="17.0259898"><ele>224.5</ele><time>2026-03-29T12:13:54.779Z</time></trkpt><trkpt lat="39.4212635" lon="17.0260972"><ele>223.0</ele><time>2026-03-29T12:13:55.792Z</time></trkpt><trkpt lat="39.421377" lon="17.0262199"><ele>221.5</ele><time>2026-03-29T12:13:56.785Z</time></trkpt><trkpt lat="39.4214897" lon="17.0263329"><ele>220.0</ele><time>2026-03-29T12:13:57.774Z</time></trkpt><trkpt lat="39.4215956" lon="17.0264356"><ele>216.5</ele><time>2026-03-29T12:13:58.789Z</time></trkpt><trkpt lat="39.4216926" lon="17.0265283"><ele>213.0</ele><time>2026-03-29T12:13:59.79Z</time></trkpt><trkpt lat="39.4217846" lon="17.0266136"><ele>209.5</ele><time>2026-03-29T12:14:00.779Z</time></trkpt><trkpt lat="39.4218761" lon="17.0266976"><ele>206.0</ele><time>2026-03-29T12:14:01.772Z</time></trkpt><trkpt lat="39.4219662" lon="17.0267783"><ele>205.5</ele><time>2026-03-29T12:14:02.781Z</time></trkpt><trkpt lat="39.4220691" lon="17.0268522"><ele>205.0</ele><time>2026-03-29T12:14:03.791Z</time></trkpt><trkpt lat="39.4221718" lon="17.0269236"><ele>204.5</ele><time>2026-03-29T12:14:04.785Z</time></trkpt><trkpt lat="39.4222739" lon="17.0269941"><ele>204.0</ele><time>2026-03-29T12:14:05.774Z</time></trkpt><trkpt lat="39.4223687" lon="17.0270442"><ele>203.16666666666666</ele><time>2026-03-29T12:14:06.786Z</time></trkpt><trkpt lat="39.422454" lon="17.0270899"><ele>202.33333333333331</ele><time>2026-03-29T12:14:07.793Z</time></trkpt><trkpt lat="39.4225288" lon="17.027138"><ele>201.5</ele><time>2026-03-29T12:14:08.778Z</time></trkpt><trkpt lat="39.4225982" lon="17.0271863"><ele>200.66666666666666</ele><time>2026-03-29T12:14:09.775Z</time></trkpt><trkpt lat="39.4226529" lon="17.0272623"><ele>199.83333333333331</ele><time>2026-03-29T12:14:10.776Z</time></trkpt><trkpt lat="39.4226812" lon="17.0273774"><ele>199.0</ele><time>2026-03-29T12:14:11.785Z</time></trkpt><trkpt lat="39.4227072" lon="17.0274991"><ele>198.99999999999997</ele><time>2026-03-29T12:14:12.786Z</time></trkpt><trkpt lat="39.422734" lon="17.0276214"><ele>199.0</ele><time>2026-03-29T12:14:13.78Z</time></trkpt><trkpt lat="39.4227584" lon="17.027733"><ele>199.0</ele><time>2026-03-29T12:14:14.775Z</time></trkpt><trkpt lat="39.4227732" lon="17.0278405"><ele>199.0</ele><time>2026-03-29T12:14:15.792Z</time></trkpt><trkpt lat="39.4227599" lon="17.0279418"><ele>198.99999999999997</ele><time>2026-03-29T12:14:16.784Z</time></trkpt><trkpt lat="39.4227357" lon="17.0280509"><ele>199.0</ele><time>2026-03-29T12:14:17.782Z</time></trkpt><trkpt lat="39.4227346" lon="17.028169"><ele>199.0</ele><time>2026-03-29T12:14:18.786Z</time></trkpt><trkpt lat="39.4227663" lon="17.0282743"><ele>199.0</ele><time>2026-03-29T12:14:19.788Z</time></trkpt><trkpt lat="39.422822" lon="17.0283728"><ele>199.0</ele><time>2026-03-29T12:14:20.778Z</time></trkpt><trkpt lat="39.4228924" lon="17.0284611"><ele>199.0</ele><time>2026-03-29T12:14:21.782Z</time></trkpt><trkpt lat="39.4229716" lon="17.0285483"><ele>199.0</ele><time>2026-03-29T12:14:22.788Z</time></trkpt><trkpt lat="39.4230667" lon="17.0286357"><ele>200.2</ele><time>2026-03-29T12:14:23.794Z</time></trkpt><trkpt lat="39.423177" lon="17.0287171"><ele>201.39999999999998</ele><time>2026-03-29T12:14:24.787Z</time></trkpt><trkpt lat="39.4232793" lon="17.0287895"><ele>202.6</ele><time>2026-03-29T12:14:25.78Z</time></trkpt><trkpt lat="39.4233714" lon="17.0288562"><ele>203.8</ele><time>2026-03-29T12:14:26.784Z</time></trkpt><trkpt lat="39.4234589" lon="17.02892"><ele>205.0</ele><time>2026-03-29T12:14:27.791Z</time></trkpt><trkpt lat="39.4235427" lon="17.028979"><ele>204.99999999999997</ele><time>2026-03-29T12:14:28.788Z</time></trkpt><trkpt lat="39.4236255" lon="17.0290268"><ele>205.0</ele><time>2026-03-29T12:14:29.777Z</time></trkpt><trkpt lat="39.4237045" lon="17.0290654"><ele>205.0</ele><time>2026-03-29T12:14:30.783Z</time></trkpt><trkpt lat="39.4237802" lon="17.0290927"><ele>205.0</ele><time>2026-03-29T12:14:31.792Z</time></trkpt><trkpt lat="39.4238566" lon="17.0291181"><ele>204.99999999999997</ele><time>2026-03-29T12:14:32.783Z</time></trkpt><trkpt lat="39.4239294" lon="17.02914"><ele>205.0</ele><time>2026-03-29T12:14:33.784Z</time></trkpt><trkpt lat="39.423999" lon="17.0291493"><ele>202.85714285714286</ele><time>2026-03-29T12:14:34.793Z</time></trkpt><trkpt lat="39.4240699" lon="17.0291648"><ele>200.7142857142857</ele><time>2026-03-29T12:14:35.793Z</time></trkpt><trkpt lat="39.4241407" lon="17.0291929"><ele>198.57142857142856</ele><time>2026-03-29T12:14:36.785Z</time></trkpt><trkpt lat="39.4242067" lon="17.0292439"><ele>196.42857142857144</ele><time>2026-03-29T12:14:37.776Z</time></trkpt><trkpt lat="39.424257" lon="17.0293141"><ele>194.28571428571428</ele><time>2026-03-29T12:14:38.777Z</time></trkpt><trkpt lat="39.4242961" lon="17.0293906"><ele>192.14285714285714</ele><time>2026-03-29T12:14:39.793Z</time></trkpt><trkpt lat="39.4243238" lon="17.0294704"><ele>190.0</ele><time>2026-03-29T12:14:40.779Z</time></trkpt><trkpt lat="39.4243491" lon="17.0295517"><ele>190.0</ele><time>2026-03-29T12:14:41.778Z</time></trkpt><trkpt lat="39.4243796" lon="17.029634"><ele>190.0</ele><time>2026-03-29T12:14:42.779Z</time></trkpt><trkpt lat="39.4244229" lon="17.0297227"><ele>190.0</ele><time>2026-03-29T12:14:43.789Z</time></trkpt><trkpt lat="39.4244742" lon="17.0298089"><ele>190.0</ele><time>2026-03-29T12:14:44.782Z</time></trkpt><trkpt lat="39.4245254" lon="17.0298987"><ele>190.0</ele><time>2026-03-29T12:14:45.774Z</time></trkpt><trkpt lat="39.4245793" lon="17.0299857"><ele>190.0</ele><time>2026-03-29T12:14:46.784Z</time></trkpt><trkpt lat="39.4246521" lon="17.0300623"><ele>185.2</ele><time>2026-03-29T12:14:47.796Z</time></trkpt><trkpt lat="39.4247394" lon="17.0301307"><ele>180.4</ele><time>2026-03-29T12:14:48.782Z</time></trkpt><trkpt lat="39.4248331" lon="17.030191"><ele>175.60000000000002</ele><time>2026-03-29T12:14:49.776Z</time></trkpt><trkpt lat="39.4249337" lon="17.0302398"><ele>170.8</ele><time>2026-03-29T12:14:50.782Z</time></trkpt><trkpt lat="39.4250401" lon="17.0302866"><ele>166.0</ele><time>2026-03-29T12:14:51.786Z</time></trkpt><trkpt lat="39.4251501" lon="17.0303365"><ele>166.0</ele><time>2026-03-29T12:14:52.78Z</time></trkpt><trkpt lat="39.4252594" lon="17.0303938"><ele>166.0</ele><time>2026-03-29T12:14:53.777Z</time></trkpt><trkpt lat="39.4253647" lon="17.0304489"><ele>166.0</ele><time>2026-03-29T12:14:54.785Z</time></trkpt><trkpt lat="39.4254543" lon="17.0305295"><ele>166.0</ele><time>2026-03-29T12:14:55.786Z</time></trkpt><trkpt lat="39.4255298" lon="17.0306203"><ele>166.0</ele><time>2026-03-29T12:14:56.779Z</time></trkpt><trkpt lat="39.4255887" lon="17.0307399"><ele>166.75</ele><time>2026-03-29T12:14:57.78Z</time></trkpt><trkpt lat="39.4256444" lon="17.0308799"><ele>167.5</ele><time>2026-03-29T12:14:58.783Z</time></trkpt><trkpt lat="39.4257" lon="17.0310298"><ele>168.25</ele><time>2026-03-29T12:14:59.791Z</time></trkpt><trkpt lat="39.4257574" lon="17.0311776"><ele>169.0</ele><time>2026-03-29T12:15:00.779Z</time></trkpt><trkpt lat="39.4258163" lon="17.0313303"><ele>169.0</ele><time>2026-03-29T12:15:01.788Z</time></trkpt><trkpt lat="39.4258699" lon="17.0314827"><ele>169.0</ele><time>2026-03-29T12:15:02.779Z</time></trkpt><trkpt lat="39.4259072" lon="17.0316323"><ele>169.0</ele><time>2026-03-29T12:15:03.789Z</time></trkpt><trkpt lat="39.4259305" lon="17.0317639"><ele>169.0</ele><time>2026-03-29T12:15:04.777Z</time></trkpt><trkpt lat="39.4259375" lon="17.0318752"><ele>169.0</ele><time>2026-03-29T12:15:05.783Z</time></trkpt><trkpt lat="39.4259536" lon="17.03197"><ele>167.39999999999998</ele><time>2026-03-29T12:15:06.783Z</time></trkpt><trkpt lat="39.4259732" lon="17.0320669"><ele>165.8</ele><time>2026-03-29T12:15:07.776Z</time></trkpt><trkpt lat="39.426001" lon="17.0321747"><ele>164.2</ele><time>2026-03-29T12:15:08.779Z</time></trkpt><trkpt lat="39.426036" lon="17.0323012"><ele>162.60000000000002</ele><time>2026-03-29T12:15:09.8Z</time></trkpt><trkpt lat="39.4260755" lon="17.0324312"><ele>161.0</ele><time>2026-03-29T12:15:10.783Z</time></trkpt><trkpt lat="39.426118" lon="17.0325551"><ele>160.60000000000002</ele><time>2026-03-29T12:15:11.775Z</time></trkpt><trkpt lat="39.4261771" lon="17.0326512"><ele>160.20000000000002</ele><time>2026-03-29T12:15:12.788Z</time></trkpt><trkpt lat="39.4262509" lon="17.0327183"><ele>159.8</ele><time>2026-03-29T12:15:13.784Z</time></trkpt><trkpt lat="39.4263286" lon="17.0327701"><ele>159.4</ele><time>2026-03-29T12:15:14.775Z</time></trkpt><trkpt lat="39.4264097" lon="17.0328197"><ele>159.0</ele><time>2026-03-29T12:15:15.774Z</time></trkpt><trkpt lat="39.4264944" lon="17.0328661"><ele>159.0</ele><time>2026-03-29T12:15:16.786Z</time></trkpt><trkpt lat="39.4265867" lon="17.0329092"><ele>159.0</ele><time>2026-03-29T12:15:17.784Z</time></trkpt><trkpt lat="39.4266868" lon="17.032939"><ele>159.0</ele><time>2026-03-29T12:15:18.774Z</time></trkpt><trkpt lat="39.4267895" lon="17.0329398"><ele>159.0</ele><time>2026-03-29T12:15:19.77Z</time></trkpt><trkpt lat="39.4268922" lon="17.0329364"><ele>159.0</ele><time>2026-03-29T12:15:20.779Z</time></trkpt><trkpt lat="39.4269865" lon="17.0329588"><ele>159.0</ele><time>2026-03-29T12:15:21.774Z</time></trkpt><trkpt lat="39.427072" lon="17.0329928"><ele>159.0</ele><time>2026-03-29T12:15:22.78Z</time></trkpt><trkpt lat="39.4271505" lon="17.0330318"><ele>159.0</ele><time>2026-03-29T12:15:23.774Z</time></trkpt><trkpt lat="39.427223" lon="17.0330834"><ele>159.0</ele><time>2026-03-29T12:15:24.78Z</time></trkpt><trkpt lat="39.4272939" lon="17.0331404"><ele>159.0</ele><time>2026-03-29T12:15:25.777Z</time></trkpt><trkpt lat="39.4273627" lon="17.0332045"><ele>159.0</ele><time>2026-03-29T12:15:26.776Z</time></trkpt><trkpt lat="39.427428" lon="17.0332726"><ele>153.83333333333334</ele><time>2026-03-29T12:15:27.775Z</time></trkpt><trkpt lat="39.4274893" lon="17.0333443"><ele>148.66666666666666</ele><time>2026-03-29T12:15:28.784Z</time></trkpt><trkpt lat="39.4275456" lon="17.0334198"><ele>143.5</ele><time>2026-03-29T12:15:29.79Z</time></trkpt><trkpt lat="39.4275863" lon="17.0335044"><ele>138.33333333333331</ele><time>2026-03-29T12:15:30.776Z</time></trkpt><trkpt lat="39.4276125" lon="17.0335991"><ele>133.16666666666666</ele><time>2026-03-29T12:15:31.776Z</time></trkpt><trkpt lat="39.4276321" lon="17.0337102"><ele>128.0</ele><time>2026-03-29T12:15:32.777Z</time></trkpt><trkpt lat="39.4276506" lon="17.0338258"><ele>128.0</ele><time>2026-03-29T12:15:33.782Z</time></trkpt><trkpt lat="39.4276716" lon="17.0339362"><ele>128.0</ele><time>2026-03-29T12:15:34.778Z</time></trkpt><trkpt lat="39.4276988" lon="17.0340551"><ele>128.0</ele><time>2026-03-29T12:15:35.792Z</time></trkpt><trkpt lat="39.4277334" lon="17.0341833"><ele>128.0</ele><time>2026-03-29T12:15:36.775Z</time></trkpt><trkpt lat="39.4277785" lon="17.0343169"><ele>128.0</ele><time>2026-03-29T12:15:37.771Z</time></trkpt><trkpt lat="39.4278244" lon="17.0344513"><ele>126.0</ele><time>2026-03-29T12:15:38.787Z</time></trkpt><trkpt lat="39.4278851" lon="17.034574"><ele>124.00000000000001</ele><time>2026-03-29T12:15:39.781Z</time></trkpt><trkpt lat="39.4279524" lon="17.0346785"><ele>122.00000000000001</ele><time>2026-03-29T12:15:40.771Z</time></trkpt><trkpt lat="39.4280104" lon="17.0347616"><ele>120.0</ele><time>2026-03-29T12:15:41.803Z</time></trkpt><trkpt lat="39.4280863" lon="17.0347853"><ele>118.0</ele><time>2026-03-29T12:15:42.778Z</time></trkpt><trkpt lat="39.4281623" lon="17.0347898"><ele>116.80000000000001</ele><time>2026-03-29T12:15:43.778Z</time></trkpt><trkpt lat="39.4282415" lon="17.034814"><ele>115.60000000000001</ele><time>2026-03-29T12:15:44.783Z</time></trkpt><trkpt lat="39.4283114" lon="17.0348921"><ele>114.39999999999999</ele><time>2026-03-29T12:15:45.782Z</time></trkpt><trkpt lat="39.4283735" lon="17.0349912"><ele>113.19999999999999</ele><time>2026-03-29T12:15:46.774Z</time></trkpt><trkpt lat="39.4284371" lon="17.0350979"><ele>112.0</ele><time>2026-03-29T12:15:47.778Z</time></trkpt><trkpt lat="39.4284696" lon="17.0352156"><ele>112.0</ele><time>2026-03-29T12:15:48.786Z</time></trkpt><trkpt lat="39.4284993" lon="17.0353333"><ele>111.99999999999999</ele><time>2026-03-29T12:15:49.801Z</time></trkpt><trkpt lat="39.4285247" lon="17.0354494"><ele>111.99999999999999</ele><time>2026-03-29T12:15:50.781Z</time></trkpt><trkpt lat="39.4285662" lon="17.0355554"><ele>112.0</ele><time>2026-03-29T12:15:51.768Z</time></trkpt><trkpt lat="39.4285991" lon="17.0356653"><ele>112.0</ele><time>2026-03-29T12:15:52.784Z</time></trkpt><trkpt lat="39.4286155" lon="17.0357819"><ele>111.50000000000001</ele><time>2026-03-29T12:15:53.785Z</time></trkpt><trkpt lat="39.4286313" lon="17.0359013"><ele>111.0</ele><time>2026-03-29T12:15:54.773Z</time></trkpt><trkpt lat="39.4286397" lon="17.0360245"><ele>110.5</ele><time>2026-03-29T12:15:55.782Z</time></trkpt><trkpt lat="39.4286399" lon="17.036133"><ele>110.0</ele><time>2026-03-29T12:15:56.78Z</time></trkpt><trkpt lat="39.4286214" lon="17.0362318"><ele>109.50000000000001</ele><time>2026-03-29T12:15:57.772Z</time></trkpt><trkpt lat="39.4285847" lon="17.0363269"><ele>109.0</ele><time>2026-03-29T12:15:58.773Z</time></trkpt><trkpt lat="39.4285524" lon="17.0364205"><ele>109.00000000000001</ele><time>2026-03-29T12:15:59.79Z</time></trkpt><trkpt lat="39.4285469" lon="17.0365077"><ele>109.0</ele><time>2026-03-29T12:16:00.776Z</time></trkpt><trkpt lat="39.4285445" lon="17.0365957"><ele>109.0</ele><time>2026-03-29T12:16:01.773Z</time></trkpt><trkpt lat="39.4285885" lon="17.0366688"><ele>109.0</ele><time>2026-03-29T12:16:02.779Z</time></trkpt><trkpt lat="39.428644" lon="17.0367441"><ele>109.00000000000001</ele><time>2026-03-29T12:16:03.788Z</time></trkpt><trkpt lat="39.428705" lon="17.0368268"><ele>109.0</ele><time>2026-03-29T12:16:04.776Z</time></trkpt><trkpt lat="39.4287724" lon="17.0369112"><ele>106.50000000000001</ele><time>2026-03-29T12:16:05.773Z</time></trkpt><trkpt lat="39.4288366" lon="17.0370054"><ele>104.0</ele><time>2026-03-29T12:16:06.788Z</time></trkpt><trkpt lat="39.4288831" lon="17.0371095"><ele>101.5</ele><time>2026-03-29T12:16:07.786Z</time></trkpt><trkpt lat="39.4288965" lon="17.0372127"><ele>99.0</ele><time>2026-03-29T12:16:08.78Z</time></trkpt><trkpt lat="39.4288743" lon="17.0373035"><ele>96.5</ele><time>2026-03-29T12:16:09.773Z</time></trkpt><trkpt lat="39.4288515" lon="17.037387"><ele>94.0</ele><time>2026-03-29T12:16:10.781Z</time></trkpt><trkpt lat="39.4288146" lon="17.0374568"><ele>93.80000000000001</ele><time>2026-03-29T12:16:11.778Z</time></trkpt><trkpt lat="39.4288238" lon="17.0375882"><ele>93.60000000000001</ele><time>2026-03-29T12:16:13.787Z</time></trkpt><trkpt lat="39.4289101" lon="17.0377099"><ele>93.4</ele><time>2026-03-29T12:16:15.768Z</time></trkpt><trkpt lat="39.428959" lon="17.0377758"><ele>93.2</ele><time>2026-03-29T12:16:16.783Z</time></trkpt><trkpt lat="39.4290295" lon="17.0378414"><ele>93.0</ele><time>2026-03-29T12:16:17.79Z</time></trkpt><trkpt lat="39.4291053" lon="17.0379053"><ele>93.0</ele><time>2026-03-29T12:16:18.78Z</time></trkpt><trkpt lat="39.4291913" lon="17.0379524"><ele>93.0</ele><time>2026-03-29T12:16:19.774Z</time></trkpt><trkpt lat="39.4292786" lon="17.0379865"><ele>93.0</ele><time>2026-03-29T12:16:20.774Z</time></trkpt><trkpt lat="39.4293683" lon="17.0380234"><ele>93.0</ele><time>2026-03-29T12:16:21.774Z</time></trkpt><trkpt lat="39.4294645" lon="17.0380618"><ele>93.0</ele><time>2026-03-29T12:16:22.773Z</time></trkpt><trkpt lat="39.4295636" lon="17.0380963"><ele>90.4</ele><time>2026-03-29T12:16:23.775Z</time></trkpt><trkpt lat="39.4296613" lon="17.0381308"><ele>87.80000000000001</ele><time>2026-03-29T12:16:24.778Z</time></trkpt><trkpt lat="39.4297507" lon="17.0381845"><ele>85.2</ele><time>2026-03-29T12:16:25.783Z</time></trkpt><trkpt lat="39.4298249" lon="17.0382583"><ele>82.6</ele><time>2026-03-29T12:16:26.78Z</time></trkpt><trkpt lat="39.4298845" lon="17.038344"><ele>80.0</ele><time>2026-03-29T12:16:27.781Z</time></trkpt><trkpt lat="39.4299371" lon="17.0384357"><ele>79.6</ele><time>2026-03-29T12:16:28.778Z</time></trkpt><trkpt lat="39.4299864" lon="17.0385378"><ele>79.2</ele><time>2026-03-29T12:16:29.78Z</time></trkpt><trkpt lat="39.4300261" lon="17.0386526"><ele>78.8</ele><time>2026-03-29T12:16:30.775Z</time></trkpt><trkpt lat="39.4300661" lon="17.0387732"><ele>78.4</ele><time>2026-03-29T12:16:31.785Z</time></trkpt><trkpt lat="39.4301049" lon="17.0388967"><ele>78.0</ele><time>2026-03-29T12:16:32.779Z</time></trkpt><trkpt lat="39.4301322" lon="17.0390252"><ele>78.6</ele><time>2026-03-29T12:16:33.783Z</time></trkpt><trkpt lat="39.430149" lon="17.0391549"><ele>79.19999999999999</ele><time>2026-03-29T12:16:34.775Z</time></trkpt><trkpt lat="39.4301623" lon="17.0392803"><ele>79.8</ele><time>2026-03-29T12:16:35.78Z</time></trkpt><trkpt lat="39.4301721" lon="17.0394051"><ele>80.39999999999999</ele><time>2026-03-29T12:16:36.777Z</time></trkpt><trkpt lat="39.4301713" lon="17.0395185"><ele>81.0</ele><time>2026-03-29T12:16:37.775Z</time></trkpt><trkpt lat="39.4301693" lon="17.0396208"><ele>81.0</ele><time>2026-03-29T12:16:38.768Z</time></trkpt><trkpt lat="39.4301851" lon="17.0397004"><ele>81.0</ele><time>2026-03-29T12:16:39.777Z</time></trkpt><trkpt lat="39.4302811" lon="17.0398084"><ele>81.0</ele><time>2026-03-29T12:16:41.773Z</time></trkpt><trkpt lat="39.4303497" lon="17.0398466"><ele>81.0</ele><time>2026-03-29T12:16:42.78Z</time></trkpt><trkpt lat="39.430421" lon="17.0399014"><ele>81.0</ele><time>2026-03-29T12:16:43.781Z</time></trkpt><trkpt lat="39.4304787" lon="17.0399846"><ele>81.0</ele><time>2026-03-29T12:16:44.785Z</time></trkpt><trkpt lat="39.4305131" lon="17.0400881"><ele>80.66666666666667</ele><time>2026-03-29T12:16:45.779Z</time></trkpt><trkpt lat="39.4305185" lon="17.0401906"><ele>80.33333333333333</ele><time>2026-03-29T12:16:46.781Z</time></trkpt><trkpt lat="39.4304867" lon="17.040262"><ele>80.0</ele><time>2026-03-29T12:16:47.79Z</time></trkpt><trkpt lat="39.4304347" lon="17.0403286"><ele>79.66666666666666</ele><time>2026-03-29T12:16:48.788Z</time></trkpt><trkpt lat="39.4303811" lon="17.0404186"><ele>79.33333333333333</ele><time>2026-03-29T12:16:49.785Z</time></trkpt><trkpt lat="39.430334" lon="17.0405264"><ele>79.0</ele><time>2026-03-29T12:16:50.78Z</time></trkpt><trkpt lat="39.4302964" lon="17.0406468"><ele>79.0</ele><time>2026-03-29T12:16:51.789Z</time></trkpt><trkpt lat="39.4302815" lon="17.0407666"><ele>79.0</ele><time>2026-03-29T12:16:52.785Z</time></trkpt><trkpt lat="39.4302839" lon="17.0408824"><ele>79.0</ele><time>2026-03-29T12:16:53.786Z</time></trkpt><trkpt lat="39.4302775" lon="17.0409848"><ele>79.0</ele><time>2026-03-29T12:16:54.784Z</time></trkpt><trkpt lat="39.4302637" lon="17.0410743"><ele>79.0</ele><time>2026-03-29T12:16:55.777Z</time></trkpt><trkpt lat="39.4302367" lon="17.0412102"><ele>79.0</ele><time>2026-03-29T12:16:57.795Z</time></trkpt><trkpt lat="39.4302156" lon="17.0412944"><ele>78.83333333333333</ele><time>2026-03-29T12:16:59.803Z</time></trkpt><trkpt lat="39.4301855" lon="17.0414134"><ele>78.66666666666666</ele><time>2026-03-29T12:17:02.786Z</time></trkpt><trkpt lat="39.4301643" lon="17.0415026"><ele>78.5</ele><time>2026-03-29T12:17:05.783Z</time></trkpt><trkpt lat="39.4301456" lon="17.0415833"><ele>78.33333333333333</ele><time>2026-03-29T12:17:07.79Z</time></trkpt><trkpt lat="39.4301233" lon="17.0416788"><ele>78.16666666666667</ele><time>2026-03-29T12:17:09.79Z</time></trkpt><trkpt lat="39.4300976" lon="17.0417903"><ele>78.0</ele><time>2026-03-29T12:17:12.781Z</time></trkpt><trkpt lat="39.4300788" lon="17.0418712"><ele>77.8</ele><time>2026-03-29T12:17:14.782Z</time></trkpt><trkpt lat="39.4300503" lon="17.0419916"><ele>77.6</ele><time>2026-03-29T12:17:16.777Z</time></trkpt><trkpt lat="39.4300152" lon="17.0421521"><ele>77.4</ele><time>2026-03-29T12:17:18.785Z</time></trkpt><trkpt lat="39.4299999" lon="17.0422447"><ele>77.2</ele><time>2026-03-29T12:17:19.802Z</time></trkpt><trkpt lat="39.4299979" lon="17.0423486"><ele>77.0</ele><time>2026-03-29T12:17:20.777Z</time></trkpt><trkpt lat="39.4299888" lon="17.0424583"><ele>77.0</ele><time>2026-03-29T12:17:21.788Z</time></trkpt><trkpt lat="39.4299828" lon="17.0425688"><ele>77.0</ele><time>2026-03-29T12:17:22.789Z</time></trkpt><trkpt lat="39.4299742" lon="17.0426842"><ele>77.0</ele><time>2026-03-29T12:17:23.795Z</time></trkpt><trkpt lat="39.4299678" lon="17.0428013"><ele>77.0</ele><time>2026-03-29T12:17:24.783Z</time></trkpt><trkpt lat="39.4299688" lon="17.0429188"><ele>77.0</ele><time>2026-03-29T12:17:25.789Z</time></trkpt><trkpt lat="39.4299758" lon="17.0430361"><ele>77.0</ele><time>2026-03-29T12:17:26.783Z</time></trkpt><trkpt lat="39.4299847" lon="17.0431532"><ele>77.0</ele><time>2026-03-29T12:17:27.798Z</time></trkpt><trkpt lat="39.4300114" lon="17.0432676"><ele>77.0</ele><time>2026-03-29T12:17:28.787Z</time></trkpt><trkpt lat="39.4300497" lon="17.0433721"><ele>77.0</ele><time>2026-03-29T12:17:29.791Z</time></trkpt><trkpt lat="39.4300863" lon="17.0434715"><ele>77.0</ele><time>2026-03-29T12:17:30.781Z</time></trkpt><trkpt lat="39.4301437" lon="17.0435633"><ele>77.0</ele><time>2026-03-29T12:17:31.785Z</time></trkpt><trkpt lat="39.4302117" lon="17.0436684"><ele>76.2</ele><time>2026-03-29T12:17:32.779Z</time></trkpt><trkpt lat="39.4302802" lon="17.0437759"><ele>75.4</ele><time>2026-03-29T12:17:33.793Z</time></trkpt><trkpt lat="39.4303501" lon="17.0438851"><ele>74.6</ele><time>2026-03-29T12:17:34.775Z</time></trkpt><trkpt lat="39.4304201" lon="17.044"><ele>73.8</ele><time>2026-03-29T12:17:35.79Z</time></trkpt><trkpt lat="39.430473" lon="17.0441209"><ele>73.0</ele><time>2026-03-29T12:17:36.781Z</time></trkpt><trkpt lat="39.4305177" lon="17.0442533"><ele>72.4</ele><time>2026-03-29T12:17:37.792Z</time></trkpt><trkpt lat="39.4305684" lon="17.0443901"><ele>71.8</ele><time>2026-03-29T12:17:38.788Z</time></trkpt><trkpt lat="39.4306165" lon="17.0445213"><ele>71.2</ele><time>2026-03-29T12:17:39.79Z</time></trkpt><trkpt lat="39.4306655" lon="17.0446291"><ele>70.6</ele><time>2026-03-29T12:17:40.789Z</time></trkpt><trkpt lat="39.4307258" lon="17.0446964"><ele>70.0</ele><time>2026-03-29T12:17:41.782Z</time></trkpt><trkpt lat="39.4307858" lon="17.0447613"><ele>70.0</ele><time>2026-03-29T12:17:42.785Z</time></trkpt><trkpt lat="39.4308716" lon="17.0447954"><ele>70.0</ele><time>2026-03-29T12:17:43.788Z</time></trkpt><trkpt lat="39.4309799" lon="17.0448326"><ele>70.0</ele><time>2026-03-29T12:17:44.778Z</time></trkpt><trkpt lat="39.4310864" lon="17.04486"><ele>70.0</ele><time>2026-03-29T12:17:45.779Z</time></trkpt><trkpt lat="39.4312" lon="17.0448873"><ele>70.0</ele><time>2026-03-29T12:17:46.784Z</time></trkpt><trkpt lat="39.4313183" lon="17.0449192"><ele>68.75</ele><time>2026-03-29T12:17:47.796Z</time></trkpt><trkpt lat="39.431435" lon="17.0449522"><ele>67.5</ele><time>2026-03-29T12:17:48.78Z</time></trkpt><trkpt lat="39.431557" lon="17.0449812"><ele>66.25</ele><time>2026-03-29T12:17:49.792Z</time></trkpt><trkpt lat="39.4316703" lon="17.0450017"><ele>65.0</ele><time>2026-03-29T12:17:50.781Z</time></trkpt><trkpt lat="39.4317689" lon="17.0450281"><ele>65.0</ele><time>2026-03-29T12:17:51.793Z</time></trkpt><trkpt lat="39.4318475" lon="17.0450755"><ele>65.0</ele><time>2026-03-29T12:17:52.784Z</time></trkpt><trkpt lat="39.4319052" lon="17.0451506"><ele>65.0</ele><time>2026-03-29T12:17:53.8Z</time></trkpt><trkpt lat="39.4319705" lon="17.0452375"><ele>65.0</ele><time>2026-03-29T12:17:54.787Z</time></trkpt><trkpt lat="39.4320374" lon="17.0453513"><ele>65.0</ele><time>2026-03-29T12:17:55.787Z</time></trkpt><trkpt lat="39.4321125" lon="17.045473"><ele>63.25</ele><time>2026-03-29T12:17:56.78Z</time></trkpt><trkpt lat="39.4321828" lon="17.0455875"><ele>61.5</ele><time>2026-03-29T12:17:57.79Z</time></trkpt><trkpt lat="39.4322573" lon="17.0457057"><ele>59.75</ele><time>2026-03-29T12:17:58.777Z</time></trkpt><trkpt lat="39.4323343" lon="17.0458199"><ele>58.0</ele><time>2026-03-29T12:17:59.789Z</time></trkpt><trkpt lat="39.432409" lon="17.0459455"><ele>58.0</ele><time>2026-03-29T12:18:00.783Z</time></trkpt><trkpt lat="39.4324769" lon="17.0460794"><ele>58.0</ele><time>2026-03-29T12:18:01.783Z</time></trkpt><trkpt lat="39.4325493" lon="17.0462128"><ele>58.0</ele><time>2026-03-29T12:18:02.784Z</time></trkpt><trkpt lat="39.4326249" lon="17.0463396"><ele>58.0</ele><time>2026-03-29T12:18:03.784Z</time></trkpt><trkpt lat="39.4326956" lon="17.0464425"><ele>57.99999999999999</ele><time>2026-03-29T12:18:04.778Z</time></trkpt><trkpt lat="39.4327613" lon="17.0465236"><ele>58.0</ele><time>2026-03-29T12:18:05.786Z</time></trkpt><trkpt lat="39.4328224" lon="17.0466"><ele>58.0</ele><time>2026-03-29T12:18:06.789Z</time></trkpt><trkpt lat="39.4328809" lon="17.0466724"><ele>58.0</ele><time>2026-03-29T12:18:07.786Z</time></trkpt><trkpt lat="39.4329466" lon="17.0467514"><ele>57.99999999999999</ele><time>2026-03-29T12:18:08.787Z</time></trkpt><trkpt lat="39.4330156" lon="17.0468335"><ele>58.0</ele><time>2026-03-29T12:18:09.785Z</time></trkpt><trkpt lat="39.4330951" lon="17.0469192"><ele>57.0</ele><time>2026-03-29T12:18:10.793Z</time></trkpt><trkpt lat="39.4331722" lon="17.0470007"><ele>56.0</ele><time>2026-03-29T12:18:11.788Z</time></trkpt><trkpt lat="39.4332471" lon="17.0470768"><ele>55.0</ele><time>2026-03-29T12:18:12.785Z</time></trkpt><trkpt lat="39.4333227" lon="17.0471515"><ele>54.0</ele><time>2026-03-29T12:18:13.787Z</time></trkpt><trkpt lat="39.433401" lon="17.047212"><ele>53.0</ele><time>2026-03-29T12:18:14.787Z</time></trkpt><trkpt lat="39.4334918" lon="17.047263"><ele>53.0</ele><time>2026-03-29T12:18:15.773Z</time></trkpt><trkpt lat="39.4335837" lon="17.0473141"><ele>53.0</ele><time>2026-03-29T12:18:16.785Z</time></trkpt><trkpt lat="39.433683" lon="17.0473555"><ele>53.0</ele><time>2026-03-29T12:18:17.79Z</time></trkpt><trkpt lat="39.4337747" lon="17.047393"><ele>53.0</ele><time>2026-03-29T12:18:18.778Z</time></trkpt><trkpt lat="39.4338588" lon="17.0474239"><ele>53.0</ele><time>2026-03-29T12:18:19.772Z</time></trkpt><trkpt lat="39.4339312" lon="17.0474669"><ele>53.2</ele><time>2026-03-29T12:18:20.782Z</time></trkpt><trkpt lat="39.4339901" lon="17.0475015"><ele>53.4</ele><time>2026-03-29T12:18:21.794Z</time></trkpt><trkpt lat="39.4340638" lon="17.0475986"><ele>53.60000000000001</ele><time>2026-03-29T12:18:23.777Z</time></trkpt><trkpt lat="39.4341271" lon="17.047702"><ele>53.800000000000004</ele><time>2026-03-29T12:18:25.786Z</time></trkpt><trkpt lat="39.43411" lon="17.0478396"><ele>54.0</ele><time>2026-03-29T12:18:27.782Z</time></trkpt><trkpt lat="39.434101" lon="17.0479371"><ele>54.0</ele><time>2026-03-29T12:18:28.786Z</time></trkpt><trkpt lat="39.4340946" lon="17.0480323"><ele>54.0</ele><time>2026-03-29T12:18:29.787Z</time></trkpt><trkpt lat="39.434095" lon="17.0481222"><ele>54.0</ele><time>2026-03-29T12:18:30.79Z</time></trkpt><trkpt lat="39.4341164" lon="17.0482086"><ele>54.0</ele><time>2026-03-29T12:18:31.791Z</time></trkpt><trkpt lat="39.4341579" lon="17.0483006"><ele>54.0</ele><time>2026-03-29T12:18:32.779Z</time></trkpt><trkpt lat="39.4342111" lon="17.0483871"><ele>54.0</ele><time>2026-03-29T12:18:33.794Z</time></trkpt><trkpt lat="39.4342642" lon="17.0484801"><ele>54.2</ele><time>2026-03-29T12:18:34.786Z</time></trkpt><trkpt lat="39.4343148" lon="17.0485747"><ele>54.400000000000006</ele><time>2026-03-29T12:18:35.783Z</time></trkpt><trkpt lat="39.4343696" lon="17.0486695"><ele>54.6</ele><time>2026-03-29T12:18:36.783Z</time></trkpt><trkpt lat="39.434431" lon="17.0487666"><ele>54.8</ele><time>2026-03-29T12:18:37.796Z</time></trkpt><trkpt lat="39.4344958" lon="17.0488744"><ele>55.0</ele><time>2026-03-29T12:18:38.791Z</time></trkpt><trkpt lat="39.434564" lon="17.0489872"><ele>55.0</ele><time>2026-03-29T12:18:39.777Z</time></trkpt><trkpt lat="39.4346333" lon="17.0491039"><ele>55.0</ele><time>2026-03-29T12:18:40.784Z</time></trkpt><trkpt lat="39.4347029" lon="17.0492163"><ele>55.0</ele><time>2026-03-29T12:18:41.794Z</time></trkpt><trkpt lat="39.4347717" lon="17.0493267"><ele>55.0</ele><time>2026-03-29T12:18:42.785Z</time></trkpt><trkpt lat="39.4348386" lon="17.0494352"><ele>55.0</ele><time>2026-03-29T12:18:43.778Z</time></trkpt><trkpt lat="39.4348945" lon="17.0495522"><ele>52.6</ele><time>2026-03-29T12:18:44.788Z</time></trkpt><trkpt lat="39.4349504" lon="17.0496727"><ele>50.2</ele><time>2026-03-29T12:18:45.791Z</time></trkpt><trkpt lat="39.4350111" lon="17.0497902"><ele>47.8</ele><time>2026-03-29T12:18:46.784Z</time></trkpt><trkpt lat="39.4350765" lon="17.0498811"><ele>45.4</ele><time>2026-03-29T12:18:47.776Z</time></trkpt><trkpt lat="39.4351409" lon="17.0499634"><ele>43.0</ele><time>2026-03-29T12:18:48.794Z</time></trkpt><trkpt lat="39.435231" lon="17.0500086"><ele>43.0</ele><time>2026-03-29T12:18:49.791Z</time></trkpt><trkpt lat="39.4353236" lon="17.0500536"><ele>43.0</ele><time>2026-03-29T12:18:50.786Z</time></trkpt><trkpt lat="39.4354233" lon="17.050101"><ele>43.0</ele><time>2026-03-29T12:18:51.778Z</time></trkpt><trkpt lat="39.4355301" lon="17.05015"><ele>43.0</ele><time>2026-03-29T12:18:52.783Z</time></trkpt><trkpt lat="39.4356379" lon="17.0502106"><ele>43.0</ele><time>2026-03-29T12:18:53.786Z</time></trkpt><trkpt lat="39.4357475" lon="17.0502762"><ele>38.5</ele><time>2026-03-29T12:18:54.778Z</time></trkpt><trkpt lat="39.4358536" lon="17.0503357"><ele>34.0</ele><time>2026-03-29T12:18:55.777Z</time></trkpt><trkpt lat="39.4359652" lon="17.0503839"><ele>29.5</ele><time>2026-03-29T12:18:56.781Z</time></trkpt><trkpt lat="39.4360745" lon="17.0504343"><ele>25.0</ele><time>2026-03-29T12:18:57.792Z</time></trkpt><trkpt lat="39.4361858" lon="17.0504958"><ele>25.0</ele><time>2026-03-29T12:18:58.782Z</time></trkpt><trkpt lat="39.4362923" lon="17.0505785"><ele>25.0</ele><time>2026-03-29T12:18:59.78Z</time></trkpt><trkpt lat="39.4363917" lon="17.0506709"><ele>25.0</ele><time>2026-03-29T12:19:00.784Z</time></trkpt><trkpt lat="39.4364932" lon="17.050761"><ele>25.0</ele><time>2026-03-29T12:19:01.795Z</time></trkpt><trkpt lat="39.4365933" lon="17.0508491"><ele>24.0</ele><time>2026-03-29T12:19:02.791Z</time></trkpt><trkpt lat="39.4366916" lon="17.050932"><ele>23.0</ele><time>2026-03-29T12:19:03.779Z</time></trkpt><trkpt lat="39.4367861" lon="17.051011"><ele>22.0</ele><time>2026-03-29T12:19:04.784Z</time></trkpt><trkpt lat="39.4368803" lon="17.0510888"><ele>21.0</ele><time>2026-03-29T12:19:05.79Z</time></trkpt><trkpt lat="39.4369649" lon="17.0511527"><ele>20.0</ele><time>2026-03-29T12:19:06.783Z</time></trkpt><trkpt lat="39.4370493" lon="17.0511945"><ele>20.0</ele><time>2026-03-29T12:19:07.789Z</time></trkpt><trkpt lat="39.4371306" lon="17.0512329"><ele>20.0</ele><time>2026-03-29T12:19:08.789Z</time></trkpt><trkpt lat="39.4372167" lon="17.0512756"><ele>20.0</ele><time>2026-03-29T12:19:09.798Z</time></trkpt><trkpt lat="39.4373072" lon="17.0513196"><ele>20.0</ele><time>2026-03-29T12:19:10.786Z</time></trkpt><trkpt lat="39.4373946" lon="17.0513633"><ele>20.0</ele><time>2026-03-29T12:19:11.773Z</time></trkpt><trkpt lat="39.4374802" lon="17.0514059"><ele>19.666666666666668</ele><time>2026-03-29T12:19:12.79Z</time></trkpt><trkpt lat="39.4375662" lon="17.0514442"><ele>19.333333333333336</ele><time>2026-03-29T12:19:13.793Z</time></trkpt><trkpt lat="39.4376424" lon="17.0514834"><ele>19.0</ele><time>2026-03-29T12:19:14.779Z</time></trkpt><trkpt lat="39.4377047" lon="17.0515322"><ele>18.666666666666668</ele><time>2026-03-29T12:19:15.771Z</time></trkpt><trkpt lat="39.437756" lon="17.0515843"><ele>18.333333333333332</ele><time>2026-03-29T12:19:16.783Z</time></trkpt><trkpt lat="39.4378266" lon="17.0516744"><ele>18.0</ele><time>2026-03-29T12:19:18.78Z</time></trkpt><trkpt lat="39.4378137" lon="17.0517565"><ele>17.833333333333332</ele><time>2026-03-29T12:19:36.783Z</time></trkpt><trkpt lat="39.4377573" lon="17.0518374"><ele>17.666666666666668</ele><time>2026-03-29T12:19:38.778Z</time></trkpt><trkpt lat="39.4376668" lon="17.0519497"><ele>17.5</ele><time>2026-03-29T12:19:40.787Z</time></trkpt><trkpt lat="39.4376172" lon="17.0520139"><ele>17.333333333333336</ele><time>2026-03-29T12:19:41.788Z</time></trkpt><trkpt lat="39.437567" lon="17.0520768"><ele>17.166666666666668</ele><time>2026-03-29T12:19:42.781Z</time></trkpt><trkpt lat="39.4375211" lon="17.0521378"><ele>17.0</ele><time>2026-03-29T12:19:43.797Z</time></trkpt><trkpt lat="39.437474" lon="17.052198"><ele>17.0</ele><time>2026-03-29T12:19:44.788Z</time></trkpt><trkpt lat="39.4373872" lon="17.0523029"><ele>17.0</ele><time>2026-03-29T12:19:46.784Z</time></trkpt><trkpt lat="39.4373001" lon="17.0524109"><ele>17.0</ele><time>2026-03-29T12:19:48.789Z</time></trkpt><trkpt lat="39.4372506" lon="17.0524748"><ele>17.0</ele><time>2026-03-29T12:19:49.78Z</time></trkpt><trkpt lat="39.4372036" lon="17.0525494"><ele>17.0</ele><time>2026-03-29T12:19:50.791Z</time></trkpt><trkpt lat="39.4371568" lon="17.0526249"><ele>19.0</ele><time>2026-03-29T12:19:51.801Z</time></trkpt><trkpt lat="39.4371085" lon="17.0526968"><ele>21.0</ele><time>2026-03-29T12:19:52.795Z</time></trkpt><trkpt lat="39.4370534" lon="17.052772"><ele>23.0</ele><time>2026-03-29T12:19:53.784Z</time></trkpt><trkpt lat="39.4370001" lon="17.0528482"><ele>25.0</ele><time>2026-03-29T12:19:54.783Z</time></trkpt><trkpt lat="39.4369518" lon="17.0529182"><ele>26.999999999999996</ele><time>2026-03-29T12:19:55.793Z</time></trkpt><trkpt lat="39.4368563" lon="17.0530305"><ele>29.0</ele><time>2026-03-29T12:19:57.783Z</time></trkpt><trkpt lat="39.436776" lon="17.0531284"><ele>28.999999999999996</ele><time>2026-03-29T12:19:59.795Z</time></trkpt><trkpt lat="39.4367277" lon="17.0532018"><ele>29.0</ele><time>2026-03-29T12:20:01.793Z</time></trkpt><trkpt lat="39.4366767" lon="17.053289"><ele>29.0</ele><time>2026-03-29T12:20:04.787Z</time></trkpt><trkpt lat="39.4366233" lon="17.0533668"><ele>29.0</ele><time>2026-03-29T12:20:07.784Z</time></trkpt><trkpt lat="39.436585" lon="17.0534469"><ele>28.999999999999996</ele><time>2026-03-29T12:20:09.788Z</time></trkpt><trkpt lat="39.4365252" lon="17.0535678"><ele>29.0</ele><time>2026-03-29T12:20:11.799Z</time></trkpt><trkpt lat="39.4364862" lon="17.053633"><ele>28.6</ele><time>2026-03-29T12:20:12.786Z</time></trkpt><trkpt lat="39.4363882" lon="17.0537439"><ele>28.2</ele><time>2026-03-29T12:20:14.783Z</time></trkpt><trkpt lat="39.4363242" lon="17.0538077"><ele>27.800000000000004</ele><time>2026-03-29T12:20:15.805Z</time></trkpt><trkpt lat="39.4362548" lon="17.0538797"><ele>27.400000000000002</ele><time>2026-03-29T12:20:16.782Z</time></trkpt><trkpt lat="39.4361833" lon="17.0539583"><ele>27.0</ele><time>2026-03-29T12:20:17.786Z</time></trkpt><trkpt lat="39.4361101" lon="17.0540402"><ele>24.8</ele><time>2026-03-29T12:20:18.79Z</time></trkpt><trkpt lat="39.4360354" lon="17.0541239"><ele>22.6</ele><time>2026-03-29T12:20:19.795Z</time></trkpt><trkpt lat="39.4359597" lon="17.0542114"><ele>20.400000000000002</ele><time>2026-03-29T12:20:20.785Z</time></trkpt><trkpt lat="39.4358828" lon="17.0543014"><ele>18.200000000000003</ele><time>2026-03-29T12:20:21.786Z</time></trkpt><trkpt lat="39.4358059" lon="17.054393"><ele>16.0</ele><time>2026-03-29T12:20:22.789Z</time></trkpt><trkpt lat="39.4357279" lon="17.0544839"><ele>16.0</ele><time>2026-03-29T12:20:23.799Z</time></trkpt><trkpt lat="39.4356491" lon="17.0545739"><ele>16.0</ele><time>2026-03-29T12:20:24.786Z</time></trkpt><trkpt lat="39.4355713" lon="17.0546677"><ele>16.0</ele><time>2026-03-29T12:20:25.779Z</time></trkpt><trkpt lat="39.4354957" lon="17.0547646"><ele>16.0</ele><time>2026-03-29T12:20:26.786Z</time></trkpt><trkpt lat="39.4354223" lon="17.0548572"><ele>16.0</ele><time>2026-03-29T12:20:27.783Z</time></trkpt><trkpt lat="39.4353527" lon="17.0549435"><ele>15.666666666666666</ele><time>2026-03-29T12:20:28.791Z</time></trkpt><trkpt lat="39.4352863" lon="17.0550249"><ele>15.333333333333332</ele><time>2026-03-29T12:20:29.791Z</time></trkpt><trkpt lat="39.4352225" lon="17.0551024"><ele>15.0</ele><time>2026-03-29T12:20:30.787Z</time></trkpt><trkpt lat="39.43516" lon="17.0551817"><ele>14.666666666666668</ele><time>2026-03-29T12:20:31.803Z</time></trkpt><trkpt lat="39.4350966" lon="17.0552608"><ele>14.333333333333334</ele><time>2026-03-29T12:20:32.784Z</time></trkpt><trkpt lat="39.4350333" lon="17.0553393"><ele>14.0</ele><time>2026-03-29T12:20:33.779Z</time></trkpt><trkpt lat="39.4349701" lon="17.0554193"><ele>14.0</ele><time>2026-03-29T12:20:34.783Z</time></trkpt><trkpt lat="39.434905" lon="17.0555006"><ele>13.999999999999998</ele><time>2026-03-29T12:20:35.793Z</time></trkpt><trkpt lat="39.4348391" lon="17.0555851"><ele>13.999999999999998</ele><time>2026-03-29T12:20:36.781Z</time></trkpt><trkpt lat="39.4347714" lon="17.055671"><ele>14.0</ele><time>2026-03-29T12:20:37.784Z</time></trkpt><trkpt lat="39.4347028" lon="17.0557572"><ele>14.0</ele><time>2026-03-29T12:20:38.782Z</time></trkpt><trkpt lat="39.4346322" lon="17.0558391"><ele>13.2</ele><time>2026-03-29T12:20:39.805Z</time></trkpt><trkpt lat="39.4345586" lon="17.0559169"><ele>12.399999999999999</ele><time>2026-03-29T12:20:40.78Z</time></trkpt><trkpt lat="39.4344777" lon="17.0559899"><ele>11.6</ele><time>2026-03-29T12:20:41.779Z</time></trkpt><trkpt lat="39.4343858" lon="17.0560504"><ele>10.8</ele><time>2026-03-29T12:20:42.782Z</time></trkpt><trkpt lat="39.4342822" lon="17.0560924"><ele>10.0</ele><time>2026-03-29T12:20:43.793Z</time></trkpt><trkpt lat="39.4341719" lon="17.0561204"><ele>10.0</ele><time>2026-03-29T12:20:44.797Z</time></trkpt><trkpt lat="39.4340579" lon="17.0561367"><ele>10.0</ele><time>2026-03-29T12:20:45.789Z</time></trkpt><trkpt lat="39.4339424" lon="17.0561365"><ele>10.0</ele><time>2026-03-29T12:20:46.784Z</time></trkpt><trkpt lat="39.4338268" lon="17.0561195"><ele>10.0</ele><time>2026-03-29T12:20:47.794Z</time></trkpt><trkpt lat="39.4337127" lon="17.0561009"><ele>11.0</ele><time>2026-03-29T12:20:48.786Z</time></trkpt><trkpt lat="39.4336054" lon="17.0560514"><ele>12.0</ele><time>2026-03-29T12:20:49.8Z</time></trkpt><trkpt lat="39.4335175" lon="17.0560044"><ele>13.0</ele><time>2026-03-29T12:20:50.781Z</time></trkpt><trkpt lat="39.4334481" lon="17.055968"><ele>14.0</ele><time>2026-03-29T12:20:51.786Z</time></trkpt><trkpt lat="39.4333516" lon="17.0559148"><ele>15.0</ele><time>2026-03-29T12:20:53.796Z</time></trkpt><trkpt lat="39.433289" lon="17.0559518"><ele>15.0</ele><time>2026-03-29T12:20:56.78Z</time></trkpt><trkpt lat="39.4333404" lon="17.0560302"><ele>15.0</ele><time>2026-03-29T12:21:00.787Z</time></trkpt><trkpt lat="39.4333435" lon="17.0561302"><ele>15.0</ele><time>2026-03-29T12:21:03.78Z</time></trkpt><trkpt lat="39.4332665" lon="17.0561664"><ele>15.0</ele><time>2026-03-29T12:21:05.801Z</time></trkpt><trkpt lat="39.4331702" lon="17.0562009"><ele>15.0</ele><time>2026-03-29T12:21:07.793Z</time></trkpt><trkpt lat="39.4330792" lon="17.0562693"><ele>15.0</ele><time>2026-03-29T12:21:09.788Z</time></trkpt><trkpt lat="39.4329844" lon="17.0563727"><ele>16.142857142857142</ele><time>2026-03-29T12:21:11.783Z</time></trkpt><trkpt lat="39.4329245" lon="17.0564273"><ele>17.285714285714285</ele><time>2026-03-29T12:21:12.792Z</time></trkpt><trkpt lat="39.4328711" lon="17.0564883"><ele>18.42857142857143</ele><time>2026-03-29T12:21:13.8Z</time></trkpt><trkpt lat="39.4328216" lon="17.0565469"><ele>19.57142857142857</ele><time>2026-03-29T12:21:14.792Z</time></trkpt><trkpt lat="39.4327884" lon="17.056623"><ele>20.71428571428571</ele><time>2026-03-29T12:21:15.778Z</time></trkpt><trkpt lat="39.4327575" lon="17.0566943"><ele>21.857142857142858</ele><time>2026-03-29T12:21:16.791Z</time></trkpt><trkpt lat="39.4327275" lon="17.056774"><ele>23.0</ele><time>2026-03-29T12:21:18.778Z</time></trkpt><trkpt lat="39.4327267" lon="17.0568754"><ele>24.666666666666668</ele><time>2026-03-29T12:21:20.79Z</time></trkpt><trkpt lat="39.4327073" lon="17.056985"><ele>26.333333333333336</ele><time>2026-03-29T12:21:22.79Z</time></trkpt><trkpt lat="39.4326069" lon="17.0570159"><ele>28.0</ele><time>2026-03-29T12:21:24.786Z</time></trkpt><trkpt lat="39.4325419" lon="17.0570338"><ele>29.666666666666668</ele><time>2026-03-29T12:21:25.79Z</time></trkpt><trkpt lat="39.4324741" lon="17.0570518"><ele>31.333333333333332</ele><time>2026-03-29T12:21:26.786Z</time></trkpt><trkpt lat="39.4323708" lon="17.0570991"><ele>33.0</ele><time>2026-03-29T12:21:28.798Z</time></trkpt><trkpt lat="39.4322829" lon="17.0571451"><ele>33.0</ele><time>2026-03-29T12:21:30.79Z</time></trkpt><trkpt lat="39.4321697" lon="17.0571956"><ele>33.0</ele><time>2026-03-29T12:21:32.786Z</time></trkpt><trkpt lat="39.4321092" lon="17.05723"><ele>33.0</ele><time>2026-03-29T12:21:33.801Z</time></trkpt><trkpt lat="39.4320477" lon="17.0572602"><ele>33.0</ele><time>2026-03-29T12:21:34.796Z</time></trkpt><trkpt lat="39.4319745" lon="17.0572732"><ele>33.0</ele><time>2026-03-29T12:21:35.787Z</time></trkpt><trkpt lat="39.4318836" lon="17.0572858"><ele>33.0</ele><time>2026-03-29T12:21:36.788Z</time></trkpt><trkpt lat="39.4317777" lon="17.0572784"><ele>33.666666666666664</ele><time>2026-03-29T12:21:37.796Z</time></trkpt><trkpt lat="39.4316857" lon="17.0572692"><ele>34.333333333333336</ele><time>2026-03-29T12:21:38.786Z</time></trkpt><trkpt lat="39.431608" lon="17.0572613"><ele>35.0</ele><time>2026-03-29T12:21:39.783Z</time></trkpt><trkpt lat="39.4315318" lon="17.0572514"><ele>35.66666666666667</ele><time>2026-03-29T12:21:40.789Z</time></trkpt><trkpt lat="39.431462" lon="17.057231"><ele>36.333333333333336</ele><time>2026-03-29T12:21:41.788Z</time></trkpt><trkpt lat="39.4313915" lon="17.0572039"><ele>37.0</ele><time>2026-03-29T12:21:42.783Z</time></trkpt><trkpt lat="39.4313177" lon="17.0571785"><ele>37.66666666666667</ele><time>2026-03-29T12:21:43.798Z</time></trkpt><trkpt lat="39.4312443" lon="17.0571479"><ele>38.333333333333336</ele><time>2026-03-29T12:21:44.787Z</time></trkpt><trkpt lat="39.4311743" lon="17.057115"><ele>39.0</ele><time>2026-03-29T12:21:45.786Z</time></trkpt><trkpt lat="39.4310992" lon="17.057084"><ele>39.666666666666664</ele><time>2026-03-29T12:21:46.793Z</time></trkpt><trkpt lat="39.4310206" lon="17.0570469"><ele>40.33333333333333</ele><time>2026-03-29T12:21:47.795Z</time></trkpt><trkpt lat="39.4309472" lon="17.0570084"><ele>41.0</ele><time>2026-03-29T12:21:48.782Z</time></trkpt><trkpt lat="39.430873" lon="17.0569683"><ele>41.0</ele><time>2026-03-29T12:21:49.794Z</time></trkpt><trkpt lat="39.4307819" lon="17.0569239"><ele>41.0</ele><time>2026-03-29T12:21:50.792Z</time></trkpt><trkpt lat="39.4306921" lon="17.0568929"><ele>41.0</ele><time>2026-03-29T12:21:51.786Z</time></trkpt><trkpt lat="39.4306" lon="17.0568767"><ele>41.0</ele><time>2026-03-29T12:21:52.786Z</time></trkpt><trkpt lat="39.4305118" lon="17.0568589"><ele>41.0</ele><time>2026-03-29T12:21:53.795Z</time></trkpt><trkpt lat="39.4304317" lon="17.0568574"><ele>42.166666666666664</ele><time>2026-03-29T12:21:54.792Z</time></trkpt><trkpt lat="39.4303526" lon="17.0568628"><ele>43.33333333333333</ele><time>2026-03-29T12:21:55.785Z</time></trkpt><trkpt lat="39.430274" lon="17.0568657"><ele>44.5</ele><time>2026-03-29T12:21:56.788Z</time></trkpt><trkpt lat="39.4302009" lon="17.0568727"><ele>45.666666666666664</ele><time>2026-03-29T12:21:57.806Z</time></trkpt><trkpt lat="39.4301345" lon="17.0568706"><ele>46.833333333333336</ele><time>2026-03-29T12:21:58.784Z</time></trkpt><trkpt lat="39.4300583" lon="17.0568601"><ele>48.0</ele><time>2026-03-29T12:21:59.785Z</time></trkpt><trkpt lat="39.4299826" lon="17.0568468"><ele>48.0</ele><time>2026-03-29T12:22:00.788Z</time></trkpt><trkpt lat="39.4299007" lon="17.0568054"><ele>48.0</ele><time>2026-03-29T12:22:01.793Z</time></trkpt><trkpt lat="39.4298089" lon="17.0567684"><ele>48.0</ele><time>2026-03-29T12:22:02.793Z</time></trkpt><trkpt lat="39.4297" lon="17.05674"><ele>48.0</ele><time>2026-03-29T12:22:03.798Z</time></trkpt><trkpt lat="39.4295844" lon="17.0567185"><ele>48.0</ele><time>2026-03-29T12:22:04.796Z</time></trkpt><trkpt lat="39.4294813" lon="17.0566983"><ele>48.166666666666664</ele><time>2026-03-29T12:22:05.782Z</time></trkpt><trkpt lat="39.4293928" lon="17.0566781"><ele>48.33333333333333</ele><time>2026-03-29T12:22:06.782Z</time></trkpt><trkpt lat="39.4293087" lon="17.056638"><ele>48.5</ele><time>2026-03-29T12:22:07.794Z</time></trkpt><trkpt lat="39.4292225" lon="17.0565914"><ele>48.666666666666664</ele><time>2026-03-29T12:22:08.789Z</time></trkpt><trkpt lat="39.429147" lon="17.0565671"><ele>48.83333333333333</ele><time>2026-03-29T12:22:09.785Z</time></trkpt><trkpt lat="39.4290753" lon="17.0565457"><ele>49.0</ele><time>2026-03-29T12:22:10.793Z</time></trkpt><trkpt lat="39.4290094" lon="17.0565021"><ele>48.99999999999999</ele><time>2026-03-29T12:22:11.791Z</time></trkpt><trkpt lat="39.4289445" lon="17.0564638"><ele>49.0</ele><time>2026-03-29T12:22:12.791Z</time></trkpt><trkpt lat="39.4288475" lon="17.0563959"><ele>49.0</ele><time>2026-03-29T12:22:14.782Z</time></trkpt><trkpt lat="39.4287612" lon="17.0563374"><ele>49.0</ele><time>2026-03-29T12:22:16.788Z</time></trkpt><trkpt lat="39.4287044" lon="17.0562879"><ele>48.99999999999999</ele><time>2026-03-29T12:22:17.804Z</time></trkpt><trkpt lat="39.428635" lon="17.0562468"><ele>49.0</ele><time>2026-03-29T12:22:18.788Z</time></trkpt><trkpt lat="39.4285557" lon="17.0562043"><ele>49.33333333333333</ele><time>2026-03-29T12:22:19.787Z</time></trkpt><trkpt lat="39.4284707" lon="17.0561614"><ele>49.666666666666664</ele><time>2026-03-29T12:22:20.788Z</time></trkpt><trkpt lat="39.4283827" lon="17.0561204"><ele>50.0</ele><time>2026-03-29T12:22:21.805Z</time></trkpt><trkpt lat="39.4283004" lon="17.056087"><ele>50.33333333333333</ele><time>2026-03-29T12:22:22.786Z</time></trkpt><trkpt lat="39.4282242" lon="17.0560606"><ele>50.666666666666664</ele><time>2026-03-29T12:22:23.779Z</time></trkpt><trkpt lat="39.4281425" lon="17.0560357"><ele>51.0</ele><time>2026-03-29T12:22:24.781Z</time></trkpt><trkpt lat="39.4280583" lon="17.0560097"><ele>51.0</ele><time>2026-03-29T12:22:25.783Z</time></trkpt><trkpt lat="39.4279844" lon="17.0559724"><ele>51.0</ele><time>2026-03-29T12:22:26.78Z</time></trkpt><trkpt lat="39.4279075" lon="17.0559215"><ele>51.0</ele><time>2026-03-29T12:22:27.777Z</time></trkpt><trkpt lat="39.427826" lon="17.0558774"><ele>51.0</ele><time>2026-03-29T12:22:28.799Z</time></trkpt><trkpt lat="39.4277393" lon="17.0558269"><ele>51.0</ele><time>2026-03-29T12:22:29.789Z</time></trkpt><trkpt lat="39.4276484" lon="17.0557599"><ele>51.4</ele><time>2026-03-29T12:22:30.786Z</time></trkpt><trkpt lat="39.4275672" lon="17.0557025"><ele>51.8</ele><time>2026-03-29T12:22:31.788Z</time></trkpt><trkpt lat="39.4275079" lon="17.0556497"><ele>52.199999999999996</ele><time>2026-03-29T12:22:32.791Z</time></trkpt><trkpt lat="39.4274689" lon="17.0555443"><ele>52.599999999999994</ele><time>2026-03-29T12:22:33.781Z</time></trkpt><trkpt lat="39.4274268" lon="17.0554149"><ele>53.0</ele><time>2026-03-29T12:22:34.785Z</time></trkpt><trkpt lat="39.4273692" lon="17.055282"><ele>53.0</ele><time>2026-03-29T12:22:35.794Z</time></trkpt><trkpt lat="39.4273123" lon="17.0551512"><ele>53.0</ele><time>2026-03-29T12:22:36.779Z</time></trkpt><trkpt lat="39.4272408" lon="17.0550459"><ele>53.0</ele><time>2026-03-29T12:22:37.781Z</time></trkpt><trkpt lat="39.4271648" lon="17.0549465"><ele>53.0</ele><time>2026-03-29T12:22:38.784Z</time></trkpt><trkpt lat="39.4270851" lon="17.0548666"><ele>53.0</ele><time>2026-03-29T12:22:39.785Z</time></trkpt><trkpt lat="39.4270116" lon="17.0547981"><ele>53.50000000000001</ele><time>2026-03-29T12:22:40.782Z</time></trkpt><trkpt lat="39.4269535" lon="17.0547323"><ele>54.0</ele><time>2026-03-29T12:22:41.779Z</time></trkpt><trkpt lat="39.4268968" lon="17.0546674"><ele>54.5</ele><time>2026-03-29T12:22:42.794Z</time></trkpt><trkpt lat="39.4268632" lon="17.0545746"><ele>55.0</ele><time>2026-03-29T12:22:43.801Z</time></trkpt><trkpt lat="39.4268386" lon="17.054455"><ele>55.50000000000001</ele><time>2026-03-29T12:22:44.785Z</time></trkpt><trkpt lat="39.4268205" lon="17.0543261"><ele>56.0</ele><time>2026-03-29T12:22:45.786Z</time></trkpt><trkpt lat="39.4267925" lon="17.0542105"><ele>56.0</ele><time>2026-03-29T12:22:46.792Z</time></trkpt><trkpt lat="39.4267476" lon="17.0541197"><ele>55.99999999999999</ele><time>2026-03-29T12:22:47.806Z</time></trkpt><trkpt lat="39.4266854" lon="17.0540353"><ele>55.99999999999999</ele><time>2026-03-29T12:22:48.784Z</time></trkpt><trkpt lat="39.4266145" lon="17.0539388"><ele>56.0</ele><time>2026-03-29T12:22:49.783Z</time></trkpt><trkpt lat="39.4265393" lon="17.0538316"><ele>56.0</ele><time>2026-03-29T12:22:50.792Z</time></trkpt><trkpt lat="39.4264589" lon="17.0537225"><ele>56.0</ele><time>2026-03-29T12:22:51.794Z</time></trkpt><trkpt lat="39.4263809" lon="17.0536109"><ele>55.99999999999999</ele><time>2026-03-29T12:22:52.787Z</time></trkpt><trkpt lat="39.4263121" lon="17.0535136"><ele>55.99999999999999</ele><time>2026-03-29T12:22:53.788Z</time></trkpt><trkpt lat="39.4262573" lon="17.0534352"><ele>56.0</ele><time>2026-03-29T12:22:54.784Z</time></trkpt><trkpt lat="39.4262102" lon="17.0533701"><ele>56.0</ele><time>2026-03-29T12:22:55.788Z</time></trkpt><trkpt lat="39.4261002" lon="17.0533188"><ele>55.8</ele><time>2026-03-29T12:22:57.794Z</time></trkpt><trkpt lat="39.4259817" lon="17.0533646"><ele>55.599999999999994</ele><time>2026-03-29T12:22:59.794Z</time></trkpt><trkpt lat="39.4259091" lon="17.0533978"><ele>55.4</ele><time>2026-03-29T12:23:00.788Z</time></trkpt><trkpt lat="39.4258268" lon="17.0534168"><ele>55.2</ele><time>2026-03-29T12:23:01.782Z</time></trkpt><trkpt lat="39.4257283" lon="17.0534252"><ele>55.0</ele><time>2026-03-29T12:23:02.788Z</time></trkpt><trkpt lat="39.4256301" lon="17.0534063"><ele>55.0</ele><time>2026-03-29T12:23:03.795Z</time></trkpt><trkpt lat="39.4255376" lon="17.0534025"><ele>55.0</ele><time>2026-03-29T12:23:04.794Z</time></trkpt><trkpt lat="39.4254453" lon="17.0534193"><ele>55.0</ele><time>2026-03-29T12:23:05.777Z</time></trkpt><trkpt lat="39.4253546" lon="17.0534524"><ele>55.0</ele><time>2026-03-29T12:23:06.786Z</time></trkpt><trkpt lat="39.4252715" lon="17.0534822"><ele>55.0</ele><time>2026-03-29T12:23:07.785Z</time></trkpt><trkpt lat="39.4251824" lon="17.0535128"><ele>54.33333333333333</ele><time>2026-03-29T12:23:08.788Z</time></trkpt><trkpt lat="39.4250915" lon="17.0535108"><ele>53.666666666666664</ele><time>2026-03-29T12:23:09.775Z</time></trkpt><trkpt lat="39.4250236" lon="17.0534904"><ele>53.0</ele><time>2026-03-29T12:23:10.782Z</time></trkpt><trkpt lat="39.4249563" lon="17.0534439"><ele>52.33333333333333</ele><time>2026-03-29T12:23:12.783Z</time></trkpt><trkpt lat="39.4248851" lon="17.0534103"><ele>51.666666666666664</ele><time>2026-03-29T12:23:18.78Z</time></trkpt><trkpt lat="39.4247939" lon="17.0534941"><ele>51.0</ele><time>2026-03-29T12:23:20.777Z</time></trkpt><trkpt lat="39.424732" lon="17.0535795"><ele>51.0</ele><time>2026-03-29T12:23:21.789Z</time></trkpt><trkpt lat="39.4246578" lon="17.0536898"><ele>51.0</ele><time>2026-03-29T12:23:22.783Z</time></trkpt><trkpt lat="39.4245714" lon="17.053809"><ele>51.0</ele><time>2026-03-29T12:23:23.785Z</time></trkpt><trkpt lat="39.4244813" lon="17.053934"><ele>51.0</ele><time>2026-03-29T12:23:24.782Z</time></trkpt><trkpt lat="39.4243971" lon="17.0540626"><ele>51.0</ele><time>2026-03-29T12:23:25.785Z</time></trkpt><trkpt lat="39.424326" lon="17.0541999"><ele>51.0</ele><time>2026-03-29T12:23:26.778Z</time></trkpt><trkpt lat="39.424272" lon="17.0543468"><ele>51.0</ele><time>2026-03-29T12:23:27.787Z</time></trkpt><trkpt lat="39.4242347" lon="17.0544982"><ele>51.0</ele><time>2026-03-29T12:23:28.782Z</time></trkpt><trkpt lat="39.4242121" lon="17.0546435"><ele>51.0</ele><time>2026-03-29T12:23:29.794Z</time></trkpt><trkpt lat="39.4241995" lon="17.054781"><ele>51.0</ele><time>2026-03-29T12:23:30.785Z</time></trkpt><trkpt lat="39.4241914" lon="17.054919"><ele>51.0</ele><time>2026-03-29T12:23:31.793Z</time></trkpt><trkpt lat="39.4241855" lon="17.0550464"><ele>51.0</ele><time>2026-03-29T12:23:32.788Z</time></trkpt><trkpt lat="39.4241809" lon="17.0551696"><ele>51.0</ele><time>2026-03-29T12:23:33.795Z</time></trkpt><trkpt lat="39.4241769" lon="17.0552957"><ele>50.8</ele><time>2026-03-29T12:23:34.782Z</time></trkpt><trkpt lat="39.4241725" lon="17.055425"><ele>50.599999999999994</ele><time>2026-03-29T12:23:35.79Z</time></trkpt><trkpt lat="39.4241653" lon="17.0555547"><ele>50.4</ele><time>2026-03-29T12:23:36.793Z</time></trkpt><trkpt lat="39.424154" lon="17.0556811"><ele>50.2</ele><time>2026-03-29T12:23:37.793Z</time></trkpt><trkpt lat="39.424138" lon="17.0558179"><ele>50.0</ele><time>2026-03-29T12:23:38.782Z</time></trkpt><trkpt lat="39.4241141" lon="17.0559467"><ele>49.8</ele><time>2026-03-29T12:23:39.79Z</time></trkpt><trkpt lat="39.424084" lon="17.0560738"><ele>49.6</ele><time>2026-03-29T12:23:40.784Z</time></trkpt><trkpt lat="39.4240452" lon="17.0561955"><ele>49.400000000000006</ele><time>2026-03-29T12:23:41.788Z</time></trkpt><trkpt lat="39.4239896" lon="17.0563136"><ele>49.2</ele><time>2026-03-29T12:23:42.777Z</time></trkpt><trkpt lat="39.4239213" lon="17.056423"><ele>49.0</ele><time>2026-03-29T12:23:43.786Z</time></trkpt><trkpt lat="39.4238381" lon="17.0565263"><ele>49.5</ele><time>2026-03-29T12:23:44.778Z</time></trkpt><trkpt lat="39.4237421" lon="17.0566187"><ele>50.0</ele><time>2026-03-29T12:23:45.78Z</time></trkpt><trkpt lat="39.4236399" lon="17.0567042"><ele>50.5</ele><time>2026-03-29T12:23:46.783Z</time></trkpt><trkpt lat="39.4235338" lon="17.0567835"><ele>51.0</ele><time>2026-03-29T12:23:47.788Z</time></trkpt><trkpt lat="39.4234254" lon="17.0568608"><ele>51.0</ele><time>2026-03-29T12:23:48.789Z</time></trkpt><trkpt lat="39.4233162" lon="17.0569392"><ele>51.0</ele><time>2026-03-29T12:23:49.78Z</time></trkpt><trkpt lat="39.4232091" lon="17.057028"><ele>51.0</ele><time>2026-03-29T12:23:50.789Z</time></trkpt><trkpt lat="39.4230934" lon="17.0571448"><ele>51.0</ele><time>2026-03-29T12:23:51.788Z</time></trkpt><trkpt lat="39.4229635" lon="17.0573012"><ele>48.666666666666664</ele><time>2026-03-29T12:23:52.78Z</time></trkpt><trkpt lat="39.4228269" lon="17.0574856"><ele>46.33333333333333</ele><time>2026-03-29T12:23:53.776Z</time></trkpt><trkpt lat="39.4226983" lon="17.0576681"><ele>44.0</ele><time>2026-03-29T12:23:54.78Z</time></trkpt><trkpt lat="39.4225801" lon="17.0578428"><ele>44.0</ele><time>2026-03-29T12:23:55.785Z</time></trkpt><trkpt lat="39.4224745" lon="17.0580103"><ele>44.0</ele><time>2026-03-29T12:23:56.78Z</time></trkpt><trkpt lat="39.4223744" lon="17.0581692"><ele>44.0</ele><time>2026-03-29T12:23:57.778Z</time></trkpt><trkpt lat="39.4222752" lon="17.0583212"><ele>44.666666666666664</ele><time>2026-03-29T12:23:58.783Z</time></trkpt><trkpt lat="39.4221633" lon="17.058478"><ele>45.333333333333336</ele><time>2026-03-29T12:23:59.785Z</time></trkpt><trkpt lat="39.42204" lon="17.0586427"><ele>46.0</ele><time>2026-03-29T12:24:00.786Z</time></trkpt><trkpt lat="39.4219096" lon="17.0588137"><ele>44.333333333333336</ele><time>2026-03-29T12:24:01.782Z</time></trkpt><trkpt lat="39.4217836" lon="17.0589765"><ele>42.666666666666664</ele><time>2026-03-29T12:24:02.776Z</time></trkpt><trkpt lat="39.4216642" lon="17.0591225"><ele>41.0</ele><time>2026-03-29T12:24:03.79Z</time></trkpt><trkpt lat="39.4215496" lon="17.0592609"><ele>41.0</ele><time>2026-03-29T12:24:04.774Z</time></trkpt><trkpt lat="39.4214383" lon="17.059391"><ele>41.0</ele><time>2026-03-29T12:24:05.785Z</time></trkpt><trkpt lat="39.4213338" lon="17.0595154"><ele>41.0</ele><time>2026-03-29T12:24:06.775Z</time></trkpt><trkpt lat="39.4212326" lon="17.05964"><ele>41.0</ele><time>2026-03-29T12:24:07.786Z</time></trkpt><trkpt lat="39.421123" lon="17.0597737"><ele>39.666666666666664</ele><time>2026-03-29T12:24:08.777Z</time></trkpt><trkpt lat="39.4209988" lon="17.0599195"><ele>38.333333333333336</ele><time>2026-03-29T12:24:09.785Z</time></trkpt><trkpt lat="39.4208659" lon="17.0600668"><ele>37.0</ele><time>2026-03-29T12:24:10.785Z</time></trkpt><trkpt lat="39.420736" lon="17.060205"><ele>37.0</ele><time>2026-03-29T12:24:11.791Z</time></trkpt><trkpt lat="39.4206092" lon="17.0603322"><ele>37.0</ele><time>2026-03-29T12:24:12.772Z</time></trkpt><trkpt lat="39.420482" lon="17.0604356"><ele>37.0</ele><time>2026-03-29T12:24:13.792Z</time></trkpt><trkpt lat="39.4203548" lon="17.0605165"><ele>34.333333333333336</ele><time>2026-03-29T12:24:14.779Z</time></trkpt><trkpt lat="39.4202257" lon="17.0605925"><ele>31.666666666666664</ele><time>2026-03-29T12:24:15.781Z</time></trkpt><trkpt lat="39.4200895" lon="17.0606706"><ele>29.0</ele><time>2026-03-29T12:24:16.774Z</time></trkpt><trkpt lat="39.4199425" lon="17.0607572"><ele>29.0</ele><time>2026-03-29T12:24:17.787Z</time></trkpt><trkpt lat="39.4197835" lon="17.0608564"><ele>29.0</ele><time>2026-03-29T12:24:18.775Z</time></trkpt><trkpt lat="39.419609" lon="17.0609616"><ele>29.0</ele><time>2026-03-29T12:24:19.777Z</time></trkpt><trkpt lat="39.4194383" lon="17.0610677"><ele>29.0</ele><time>2026-03-29T12:24:20.787Z</time></trkpt><trkpt lat="39.4192936" lon="17.0611664"><ele>29.0</ele><time>2026-03-29T12:24:21.781Z</time></trkpt><trkpt lat="39.4191665" lon="17.0612673"><ele>29.0</ele><time>2026-03-29T12:24:22.781Z</time></trkpt><trkpt lat="39.4190541" lon="17.0613799"><ele>29.0</ele><time>2026-03-29T12:24:23.775Z</time></trkpt><trkpt lat="39.4189652" lon="17.0614995"><ele>29.0</ele><time>2026-03-29T12:24:24.787Z</time></trkpt><trkpt lat="39.4188884" lon="17.0616355"><ele>29.0</ele><time>2026-03-29T12:24:25.793Z</time></trkpt><trkpt lat="39.4188276" lon="17.0617863"><ele>29.0</ele><time>2026-03-29T12:24:26.786Z</time></trkpt><trkpt lat="39.4187846" lon="17.0619557"><ele>28.25</ele><time>2026-03-29T12:24:27.78Z</time></trkpt><trkpt lat="39.4187544" lon="17.0621233"><ele>27.5</ele><time>2026-03-29T12:24:28.773Z</time></trkpt><trkpt lat="39.418736" lon="17.0622836"><ele>26.75</ele><time>2026-03-29T12:24:29.793Z</time></trkpt><trkpt lat="39.4187226" lon="17.0624335"><ele>26.0</ele><time>2026-03-29T12:24:30.78Z</time></trkpt><trkpt lat="39.4187077" lon="17.0625729"><ele>25.833333333333332</ele><time>2026-03-29T12:24:31.784Z</time></trkpt><trkpt lat="39.4186949" lon="17.0627022"><ele>25.666666666666664</ele><time>2026-03-29T12:24:32.774Z</time></trkpt><trkpt lat="39.4186834" lon="17.0628205"><ele>25.5</ele><time>2026-03-29T12:24:33.787Z</time></trkpt><trkpt lat="39.4186767" lon="17.0629289"><ele>25.333333333333336</ele><time>2026-03-29T12:24:34.784Z</time></trkpt><trkpt lat="39.4186669" lon="17.0630236"><ele>25.166666666666668</ele><time>2026-03-29T12:24:35.792Z</time></trkpt><trkpt lat="39.4186423" lon="17.0631025"><ele>25.0</ele><time>2026-03-29T12:24:36.787Z</time></trkpt><trkpt lat="39.4185617" lon="17.0631558"><ele>25.0</ele><time>2026-03-29T12:24:38.786Z</time></trkpt><trkpt lat="39.4184825" lon="17.0630645"><ele>25.0</ele><time>2026-03-29T12:24:40.779Z</time></trkpt><trkpt lat="39.4184331" lon="17.0629912"><ele>25.0</ele><time>2026-03-29T12:24:41.787Z</time></trkpt><trkpt lat="39.4183696" lon="17.0629142"><ele>25.0</ele><time>2026-03-29T12:24:42.784Z</time></trkpt><trkpt lat="39.4182941" lon="17.0628258"><ele>25.0</ele><time>2026-03-29T12:24:43.787Z</time></trkpt><trkpt lat="39.4182114" lon="17.0627296"><ele>25.0</ele><time>2026-03-29T12:24:44.78Z</time></trkpt><trkpt lat="39.418122" lon="17.0626319"><ele>25.0</ele><time>2026-03-29T12:24:45.789Z</time></trkpt><trkpt lat="39.4180353" lon="17.0625173"><ele>25.0</ele><time>2026-03-29T12:24:46.78Z</time></trkpt><trkpt lat="39.4179711" lon="17.0624024"><ele>25.0</ele><time>2026-03-29T12:24:47.793Z</time></trkpt><trkpt lat="39.4179299" lon="17.0622911"><ele>25.0</ele><time>2026-03-29T12:24:48.784Z</time></trkpt><trkpt lat="39.417925" lon="17.0621613"><ele>24.8</ele><time>2026-03-29T12:24:49.79Z</time></trkpt><trkpt lat="39.4179412" lon="17.0620181"><ele>24.6</ele><time>2026-03-29T12:24:50.786Z</time></trkpt><trkpt lat="39.4179517" lon="17.0618903"><ele>24.4</ele><time>2026-03-29T12:24:51.797Z</time></trkpt><trkpt lat="39.4179376" lon="17.0617837"><ele>24.2</ele><time>2026-03-29T12:24:52.783Z</time></trkpt><trkpt lat="39.41789" lon="17.0616904"><ele>24.0</ele><time>2026-03-29T12:24:53.795Z</time></trkpt><trkpt lat="39.4178139" lon="17.0615735"><ele>26.666666666666664</ele><time>2026-03-29T12:24:54.78Z</time></trkpt><trkpt lat="39.4177134" lon="17.0614229"><ele>29.333333333333332</ele><time>2026-03-29T12:24:55.787Z</time></trkpt><trkpt lat="39.4176136" lon="17.0612577"><ele>32.0</ele><time>2026-03-29T12:24:56.782Z</time></trkpt><trkpt lat="39.4175167" lon="17.0610929"><ele>32.0</ele><time>2026-03-29T12:24:57.781Z</time></trkpt><trkpt lat="39.4174372" lon="17.0609633"><ele>32.0</ele><time>2026-03-29T12:24:58.776Z</time></trkpt><trkpt lat="39.4173697" lon="17.0608281"><ele>32.0</ele><time>2026-03-29T12:24:59.783Z</time></trkpt><trkpt lat="39.4173046" lon="17.0606835"><ele>32.0</ele><time>2026-03-29T12:25:00.78Z</time></trkpt><trkpt lat="39.4172363" lon="17.0604991"><ele>31.5</ele><time>2026-03-29T12:25:01.785Z</time></trkpt><trkpt lat="39.4171822" lon="17.0603035"><ele>31.0</ele><time>2026-03-29T12:25:02.775Z</time></trkpt><trkpt lat="39.417131" lon="17.0601316"><ele>30.5</ele><time>2026-03-29T12:25:03.789Z</time></trkpt><trkpt lat="39.4170885" lon="17.0599921"><ele>30.0</ele><time>2026-03-29T12:25:04.787Z</time></trkpt><trkpt lat="39.4170435" lon="17.0598667"><ele>30.0</ele><time>2026-03-29T12:25:05.783Z</time></trkpt><trkpt lat="39.4169961" lon="17.0597402"><ele>30.0</ele><time>2026-03-29T12:25:06.782Z</time></trkpt><trkpt lat="39.4169216" lon="17.0596363"><ele>30.0</ele><time>2026-03-29T12:25:07.782Z</time></trkpt><trkpt lat="39.4168467" lon="17.05954"><ele>30.0</ele><time>2026-03-29T12:25:08.783Z</time></trkpt><trkpt lat="39.4167893" lon="17.0594454"><ele>30.0</ele><time>2026-03-29T12:25:09.785Z</time></trkpt><trkpt lat="39.4167513" lon="17.059349"><ele>30.0</ele><time>2026-03-29T12:25:10.787Z</time></trkpt><trkpt lat="39.4167544" lon="17.059248"><ele>30.0</ele><time>2026-03-29T12:25:11.787Z</time></trkpt><trkpt lat="39.4167907" lon="17.0591538"><ele>30.0</ele><time>2026-03-29T12:25:12.781Z</time></trkpt><trkpt lat="39.4168532" lon="17.0590506"><ele>30.0</ele><time>2026-03-29T12:25:13.778Z</time></trkpt><trkpt lat="39.4169255" lon="17.0589359"><ele>30.0</ele><time>2026-03-29T12:25:14.774Z</time></trkpt><trkpt lat="39.4169977" lon="17.0588275"><ele>30.4</ele><time>2026-03-29T12:25:15.783Z</time></trkpt><trkpt lat="39.4170522" lon="17.0587092"><ele>30.8</ele><time>2026-03-29T12:25:16.786Z</time></trkpt><trkpt lat="39.4171013" lon="17.0585965"><ele>31.200000000000003</ele><time>2026-03-29T12:25:17.777Z</time></trkpt><trkpt lat="39.4171405" lon="17.0584943"><ele>31.6</ele><time>2026-03-29T12:25:18.779Z</time></trkpt><trkpt lat="39.4171682" lon="17.0583945"><ele>32.0</ele><time>2026-03-29T12:25:19.779Z</time></trkpt><trkpt lat="39.4171815" lon="17.0582919"><ele>35.400000000000006</ele><time>2026-03-29T12:25:20.77Z</time></trkpt><trkpt lat="39.4171544" lon="17.0581999"><ele>38.800000000000004</ele><time>2026-03-29T12:25:21.781Z</time></trkpt><trkpt lat="39.4171039" lon="17.0581219"><ele>42.2</ele><time>2026-03-29T12:25:22.785Z</time></trkpt><trkpt lat="39.417034" lon="17.0580299"><ele>45.6</ele><time>2026-03-29T12:25:23.774Z</time></trkpt><trkpt lat="39.4169269" lon="17.0579681"><ele>49.0</ele><time>2026-03-29T12:25:24.777Z</time></trkpt><trkpt lat="39.4168019" lon="17.0579008"><ele>49.0</ele><time>2026-03-29T12:25:25.775Z</time></trkpt><trkpt lat="39.4166798" lon="17.0578266"><ele>49.0</ele><time>2026-03-29T12:25:26.775Z</time></trkpt><trkpt lat="39.4165696" lon="17.0577102"><ele>49.0</ele><time>2026-03-29T12:25:27.798Z</time></trkpt><trkpt lat="39.4164398" lon="17.0575753"><ele>49.0</ele><time>2026-03-29T12:25:28.778Z</time></trkpt><trkpt lat="39.4163134" lon="17.0574011"><ele>46.0</ele><time>2026-03-29T12:25:29.769Z</time></trkpt><trkpt lat="39.4162165" lon="17.0572704"><ele>43.0</ele><time>2026-03-29T12:25:30.777Z</time></trkpt><trkpt lat="39.4161399" lon="17.0571365"><ele>40.0</ele><time>2026-03-29T12:25:31.787Z</time></trkpt><trkpt lat="39.4160737" lon="17.0570092"><ele>37.0</ele><time>2026-03-29T12:25:32.779Z</time></trkpt><trkpt lat="39.41604" lon="17.0568855"><ele>37.0</ele><time>2026-03-29T12:25:33.774Z</time></trkpt><trkpt lat="39.4160006" lon="17.0567706"><ele>37.0</ele><time>2026-03-29T12:25:34.78Z</time></trkpt><trkpt lat="39.415957" lon="17.0566473"><ele>37.0</ele><time>2026-03-29T12:25:35.792Z</time></trkpt><trkpt lat="39.415898" lon="17.0565154"><ele>37.0</ele><time>2026-03-29T12:25:36.783Z</time></trkpt><trkpt lat="39.4158335" lon="17.0563749"><ele>37.0</ele><time>2026-03-29T12:25:37.779Z</time></trkpt><trkpt lat="39.4157673" lon="17.0562167"><ele>37.75</ele><time>2026-03-29T12:25:38.78Z</time></trkpt><trkpt lat="39.4157118" lon="17.0560266"><ele>38.5</ele><time>2026-03-29T12:25:39.784Z</time></trkpt><trkpt lat="39.4156662" lon="17.0558515"><ele>39.25</ele><time>2026-03-29T12:25:40.793Z</time></trkpt><trkpt lat="39.415631" lon="17.0556994"><ele>40.0</ele><time>2026-03-29T12:25:41.778Z</time></trkpt><trkpt lat="39.4155982" lon="17.0555657"><ele>40.66666666666667</ele><time>2026-03-29T12:25:42.783Z</time></trkpt><trkpt lat="39.4155702" lon="17.0554459"><ele>41.333333333333336</ele><time>2026-03-29T12:25:43.797Z</time></trkpt><trkpt lat="39.4155485" lon="17.0553427"><ele>42.0</ele><time>2026-03-29T12:25:44.784Z</time></trkpt><trkpt lat="39.415524" lon="17.0552468"><ele>42.666666666666664</ele><time>2026-03-29T12:25:45.78Z</time></trkpt><trkpt lat="39.4154913" lon="17.0551423"><ele>43.33333333333333</ele><time>2026-03-29T12:25:46.786Z</time></trkpt><trkpt lat="39.4154621" lon="17.0550229"><ele>44.0</ele><time>2026-03-29T12:25:47.794Z</time></trkpt><trkpt lat="39.4154222" lon="17.0548725"><ele>41.0</ele><time>2026-03-29T12:25:48.785Z</time></trkpt><trkpt lat="39.4153836" lon="17.0547113"><ele>38.0</ele><time>2026-03-29T12:25:49.79Z</time></trkpt><trkpt lat="39.41534" lon="17.0545411"><ele>35.0</ele><time>2026-03-29T12:25:50.788Z</time></trkpt><trkpt lat="39.4152868" lon="17.0543391"><ele>32.0</ele><time>2026-03-29T12:25:51.793Z</time></trkpt><trkpt lat="39.4152286" lon="17.0541543"><ele>35.666666666666664</ele><time>2026-03-29T12:25:52.787Z</time></trkpt><trkpt lat="39.4151508" lon="17.0539788"><ele>39.333333333333336</ele><time>2026-03-29T12:25:53.782Z</time></trkpt><trkpt lat="39.4150747" lon="17.0538007"><ele>43.0</ele><time>2026-03-29T12:25:54.785Z</time></trkpt><trkpt lat="39.4150041" lon="17.0536074"><ele>43.0</ele><time>2026-03-29T12:25:55.792Z</time></trkpt><trkpt lat="39.4149476" lon="17.0534009"><ele>43.0</ele><time>2026-03-29T12:25:56.782Z</time></trkpt><trkpt lat="39.4148901" lon="17.0531778"><ele>43.0</ele><time>2026-03-29T12:25:57.79Z</time></trkpt><trkpt lat="39.4148356" lon="17.0529597"><ele>44.5</ele><time>2026-03-29T12:25:58.785Z</time></trkpt><trkpt lat="39.4147936" lon="17.0527704"><ele>46.0</ele><time>2026-03-29T12:25:59.79Z</time></trkpt><trkpt lat="39.4147667" lon="17.0525992"><ele>47.5</ele><time>2026-03-29T12:26:00.783Z</time></trkpt><trkpt lat="39.4147487" lon="17.0524438"><ele>49.0</ele><time>2026-03-29T12:26:01.789Z</time></trkpt><trkpt lat="39.4147371" lon="17.0522842"><ele>51.0</ele><time>2026-03-29T12:26:02.787Z</time></trkpt><trkpt lat="39.414722" lon="17.0521328"><ele>53.0</ele><time>2026-03-29T12:26:03.806Z</time></trkpt><trkpt lat="39.414691" lon="17.0519881"><ele>55.0</ele><time>2026-03-29T12:26:04.787Z</time></trkpt><trkpt lat="39.4146406" lon="17.0518459"><ele>57.0</ele><time>2026-03-29T12:26:05.795Z</time></trkpt><trkpt lat="39.4145697" lon="17.0517085"><ele>55.66666666666667</ele><time>2026-03-29T12:26:06.789Z</time></trkpt><trkpt lat="39.4144884" lon="17.0515641"><ele>54.333333333333336</ele><time>2026-03-29T12:26:07.8Z</time></trkpt><trkpt lat="39.4144182" lon="17.0513945"><ele>53.0</ele><time>2026-03-29T12:26:08.785Z</time></trkpt><trkpt lat="39.4143526" lon="17.0512013"><ele>53.0</ele><time>2026-03-29T12:26:09.792Z</time></trkpt><trkpt lat="39.4142763" lon="17.0510212"><ele>53.0</ele><time>2026-03-29T12:26:10.785Z</time></trkpt><trkpt lat="39.4141946" lon="17.0508682"><ele>53.0</ele><time>2026-03-29T12:26:11.796Z</time></trkpt><trkpt lat="39.414115" lon="17.0507447"><ele>53.0</ele><time>2026-03-29T12:26:12.779Z</time></trkpt><trkpt lat="39.4140135" lon="17.0505945"><ele>55.5</ele><time>2026-03-29T12:26:13.793Z</time></trkpt><trkpt lat="39.4139267" lon="17.0504454"><ele>58.0</ele><time>2026-03-29T12:26:14.783Z</time></trkpt><trkpt lat="39.4138622" lon="17.0503183"><ele>60.5</ele><time>2026-03-29T12:26:15.791Z</time></trkpt><trkpt lat="39.4138205" lon="17.0501875"><ele>63.0</ele><time>2026-03-29T12:26:16.783Z</time></trkpt><trkpt lat="39.4138073" lon="17.0500491"><ele>59.8</ele><time>2026-03-29T12:26:17.795Z</time></trkpt><trkpt lat="39.4138064" lon="17.049913"><ele>56.599999999999994</ele><time>2026-03-29T12:26:18.783Z</time></trkpt><trkpt lat="39.4138135" lon="17.0497768"><ele>53.400000000000006</ele><time>2026-03-29T12:26:19.782Z</time></trkpt><trkpt lat="39.4138061" lon="17.0496448"><ele>50.2</ele><time>2026-03-29T12:26:20.781Z</time></trkpt><trkpt lat="39.4137681" lon="17.0495284"><ele>47.0</ele><time>2026-03-29T12:26:21.793Z</time></trkpt><trkpt lat="39.4137051" lon="17.0494254"><ele>47.0</ele><time>2026-03-29T12:26:22.79Z</time></trkpt><trkpt lat="39.4136139" lon="17.0493565"><ele>47.0</ele><time>2026-03-29T12:26:23.785Z</time></trkpt><trkpt lat="39.4135181" lon="17.0492855"><ele>47.0</ele><time>2026-03-29T12:26:24.778Z</time></trkpt><trkpt lat="39.4134259" lon="17.0491867"><ele>47.0</ele><time>2026-03-29T12:26:25.776Z</time></trkpt><trkpt lat="39.4133431" lon="17.0490846"><ele>48.83333333333333</ele><time>2026-03-29T12:26:26.776Z</time></trkpt><trkpt lat="39.4132699" lon="17.0489929"><ele>50.666666666666664</ele><time>2026-03-29T12:26:27.799Z</time></trkpt><trkpt lat="39.4132049" lon="17.0489156"><ele>52.5</ele><time>2026-03-29T12:26:28.782Z</time></trkpt><trkpt lat="39.4131468" lon="17.0488382"><ele>54.33333333333333</ele><time>2026-03-29T12:26:29.787Z</time></trkpt><trkpt lat="39.4131075" lon="17.0487566"><ele>56.166666666666664</ele><time>2026-03-29T12:26:30.781Z</time></trkpt><trkpt lat="39.4130902" lon="17.0486375"><ele>58.0</ele><time>2026-03-29T12:26:31.792Z</time></trkpt><trkpt lat="39.4130949" lon="17.0484825"><ele>58.0</ele><time>2026-03-29T12:26:32.784Z</time></trkpt><trkpt lat="39.4130799" lon="17.0483269"><ele>58.0</ele><time>2026-03-29T12:26:33.787Z</time></trkpt><trkpt lat="39.4130571" lon="17.0481634"><ele>58.0</ele><time>2026-03-29T12:26:34.785Z</time></trkpt><trkpt lat="39.4130213" lon="17.048006"><ele>58.0</ele><time>2026-03-29T12:26:35.789Z</time></trkpt><trkpt lat="39.4129848" lon="17.0478563"><ele>53.75</ele><time>2026-03-29T12:26:36.778Z</time></trkpt><trkpt lat="39.4129437" lon="17.0477033"><ele>49.5</ele><time>2026-03-29T12:26:37.789Z</time></trkpt><trkpt lat="39.4129233" lon="17.0475391"><ele>45.25</ele><time>2026-03-29T12:26:38.783Z</time></trkpt><trkpt lat="39.4129214" lon="17.0473617"><ele>41.0</ele><time>2026-03-29T12:26:39.788Z</time></trkpt><trkpt lat="39.4129291" lon="17.0472025"><ele>41.0</ele><time>2026-03-29T12:26:40.785Z</time></trkpt><trkpt lat="39.4129565" lon="17.0470656"><ele>41.0</ele><time>2026-03-29T12:26:41.784Z</time></trkpt><trkpt lat="39.4130193" lon="17.0469563"><ele>41.0</ele><time>2026-03-29T12:26:42.78Z</time></trkpt><trkpt lat="39.4130734" lon="17.0468584"><ele>41.0</ele><time>2026-03-29T12:26:43.787Z</time></trkpt><trkpt lat="39.413095" lon="17.0467596"><ele>41.0</ele><time>2026-03-29T12:26:44.777Z</time></trkpt><trkpt lat="39.4130895" lon="17.0466446"><ele>41.25</ele><time>2026-03-29T12:26:45.784Z</time></trkpt><trkpt lat="39.4130682" lon="17.0465037"><ele>41.5</ele><time>2026-03-29T12:26:46.781Z</time></trkpt><trkpt lat="39.4130427" lon="17.0463452"><ele>41.75</ele><time>2026-03-29T12:26:47.794Z</time></trkpt><trkpt lat="39.413017" lon="17.0461854"><ele>42.0</ele><time>2026-03-29T12:26:48.794Z</time></trkpt><trkpt lat="39.4129836" lon="17.0460119"><ele>42.0</ele><time>2026-03-29T12:26:49.796Z</time></trkpt><trkpt lat="39.4129711" lon="17.045812"><ele>42.0</ele><time>2026-03-29T12:26:50.772Z</time></trkpt><trkpt lat="39.4129778" lon="17.0456337"><ele>42.0</ele><time>2026-03-29T12:26:51.794Z</time></trkpt><trkpt lat="39.4129917" lon="17.0454754"><ele>42.0</ele><time>2026-03-29T12:26:52.789Z</time></trkpt><trkpt lat="39.4130146" lon="17.045317"><ele>47.25</ele><time>2026-03-29T12:26:53.782Z</time></trkpt><trkpt lat="39.4130685" lon="17.0451765"><ele>52.5</ele><time>2026-03-29T12:26:54.788Z</time></trkpt><trkpt lat="39.4131318" lon="17.0450236"><ele>57.75</ele><time>2026-03-29T12:26:55.791Z</time></trkpt><trkpt lat="39.4131772" lon="17.0448818"><ele>63.0</ele><time>2026-03-29T12:26:56.78Z</time></trkpt><trkpt lat="39.413203" lon="17.0447275"><ele>63.0</ele><time>2026-03-29T12:26:57.779Z</time></trkpt><trkpt lat="39.4132125" lon="17.0445678"><ele>63.0</ele><time>2026-03-29T12:26:58.791Z</time></trkpt><trkpt lat="39.4132055" lon="17.0444099"><ele>63.0</ele><time>2026-03-29T12:26:59.788Z</time></trkpt><trkpt lat="39.4131955" lon="17.044233"><ele>63.0</ele><time>2026-03-29T12:27:00.788Z</time></trkpt><trkpt lat="39.4131845" lon="17.0440282"><ele>62.0</ele><time>2026-03-29T12:27:01.794Z</time></trkpt><trkpt lat="39.413175" lon="17.0438196"><ele>61.0</ele><time>2026-03-29T12:27:02.782Z</time></trkpt><trkpt lat="39.4131716" lon="17.0436342"><ele>60.0</ele><time>2026-03-29T12:27:03.782Z</time></trkpt><trkpt lat="39.4131678" lon="17.0434777"><ele>59.0</ele><time>2026-03-29T12:27:04.787Z</time></trkpt><trkpt lat="39.4131678" lon="17.0433362"><ele>58.400000000000006</ele><time>2026-03-29T12:27:05.785Z</time></trkpt><trkpt lat="39.4131651" lon="17.0432101"><ele>57.800000000000004</ele><time>2026-03-29T12:27:06.782Z</time></trkpt><trkpt lat="39.4131463" lon="17.0430992"><ele>57.199999999999996</ele><time>2026-03-29T12:27:07.779Z</time></trkpt><trkpt lat="39.413103" lon="17.0430008"><ele>56.599999999999994</ele><time>2026-03-29T12:27:08.779Z</time></trkpt><trkpt lat="39.4130337" lon="17.0429266"><ele>56.0</ele><time>2026-03-29T12:27:09.789Z</time></trkpt><trkpt lat="39.4129402" lon="17.0428739"><ele>56.0</ele><time>2026-03-29T12:27:10.785Z</time></trkpt><trkpt lat="39.4128274" lon="17.0428258"><ele>56.0</ele><time>2026-03-29T12:27:11.79Z</time></trkpt><trkpt lat="39.4127084" lon="17.042776"><ele>56.0</ele><time>2026-03-29T12:27:12.783Z</time></trkpt><trkpt lat="39.4125956" lon="17.0427239"><ele>56.0</ele><time>2026-03-29T12:27:13.784Z</time></trkpt><trkpt lat="39.4124858" lon="17.0426902"><ele>56.0</ele><time>2026-03-29T12:27:14.78Z</time></trkpt><trkpt lat="39.4123778" lon="17.0426835"><ele>56.0</ele><time>2026-03-29T12:27:15.794Z</time></trkpt><trkpt lat="39.4122622" lon="17.0427083"><ele>56.0</ele><time>2026-03-29T12:27:16.782Z</time></trkpt><trkpt lat="39.4121385" lon="17.0427447"><ele>56.0</ele><time>2026-03-29T12:27:17.789Z</time></trkpt><trkpt lat="39.4120099" lon="17.0427814"><ele>56.0</ele><time>2026-03-29T12:27:18.777Z</time></trkpt><trkpt lat="39.4118795" lon="17.0428197"><ele>56.0</ele><time>2026-03-29T12:27:19.796Z</time></trkpt><trkpt lat="39.4117492" lon="17.0428594"><ele>56.0</ele><time>2026-03-29T12:27:20.789Z</time></trkpt><trkpt lat="39.411618" lon="17.0428971"><ele>56.0</ele><time>2026-03-29T12:27:21.777Z</time></trkpt><trkpt lat="39.4114883" lon="17.0429325"><ele>56.0</ele><time>2026-03-29T12:27:22.778Z</time></trkpt><trkpt lat="39.4113659" lon="17.0429669"><ele>55.99999999999999</ele><time>2026-03-29T12:27:23.784Z</time></trkpt><trkpt lat="39.4112532" lon="17.0429991"><ele>55.99999999999999</ele><time>2026-03-29T12:27:24.793Z</time></trkpt><trkpt lat="39.4111512" lon="17.0430282"><ele>56.0</ele><time>2026-03-29T12:27:25.79Z</time></trkpt><trkpt lat="39.4110533" lon="17.0430592"><ele>56.0</ele><time>2026-03-29T12:27:26.78Z</time></trkpt><trkpt lat="39.4109649" lon="17.043091"><ele>54.66666666666667</ele><time>2026-03-29T12:27:27.774Z</time></trkpt><trkpt lat="39.4108866" lon="17.0431138"><ele>53.333333333333336</ele><time>2026-03-29T12:27:28.775Z</time></trkpt><trkpt lat="39.4108115" lon="17.0431204"><ele>52.0</ele><time>2026-03-29T12:27:29.778Z</time></trkpt><trkpt lat="39.4107346" lon="17.0430956"><ele>50.66666666666667</ele><time>2026-03-29T12:27:30.786Z</time></trkpt><trkpt lat="39.4106724" lon="17.0430317"><ele>49.333333333333336</ele><time>2026-03-29T12:27:31.772Z</time></trkpt><trkpt lat="39.4106247" lon="17.0429459"><ele>48.0</ele><time>2026-03-29T12:27:32.779Z</time></trkpt><trkpt lat="39.4105987" lon="17.0428659"><ele>48.0</ele><time>2026-03-29T12:27:33.793Z</time></trkpt><trkpt lat="39.4105653" lon="17.0427694"><ele>48.0</ele><time>2026-03-29T12:27:35.775Z</time></trkpt><trkpt lat="39.4105223" lon="17.0426912"><ele>48.0</ele><time>2026-03-29T12:27:38.782Z</time></trkpt><trkpt lat="39.4104875" lon="17.0425988"><ele>48.0</ele><time>2026-03-29T12:27:40.784Z</time></trkpt><trkpt lat="39.4104876" lon="17.0424901"><ele>48.0</ele><time>2026-03-29T12:27:43.786Z</time></trkpt><trkpt lat="39.4104996" lon="17.0423852"><ele>48.0</ele><time>2026-03-29T12:27:47.792Z</time></trkpt><trkpt lat="39.4105239" lon="17.0422859"><ele>48.4</ele><time>2026-03-29T12:27:49.79Z</time></trkpt><trkpt lat="39.4105484" lon="17.0422018"><ele>48.8</ele><time>2026-03-29T12:27:51.775Z</time></trkpt><trkpt lat="39.4105631" lon="17.0420965"><ele>49.2</ele><time>2026-03-29T12:27:53.786Z</time></trkpt><trkpt lat="39.4105438" lon="17.041976"><ele>49.6</ele><time>2026-03-29T12:27:55.791Z</time></trkpt><trkpt lat="39.4104643" lon="17.0419061"><ele>50.0</ele><time>2026-03-29T12:27:57.789Z</time></trkpt><trkpt lat="39.4103926" lon="17.0420322"><ele>49.16666666666667</ele><time>2026-03-29T12:27:59.789Z</time></trkpt><trkpt lat="39.4103544" lon="17.0421169"><ele>48.333333333333336</ele><time>2026-03-29T12:28:00.775Z</time></trkpt><trkpt lat="39.4103111" lon="17.0421984"><ele>47.5</ele><time>2026-03-29T12:28:01.788Z</time></trkpt><trkpt lat="39.4102626" lon="17.042282"><ele>46.66666666666667</ele><time>2026-03-29T12:28:02.782Z</time></trkpt><trkpt lat="39.4102138" lon="17.0423828"><ele>45.833333333333336</ele><time>2026-03-29T12:28:03.791Z</time></trkpt><trkpt lat="39.4101672" lon="17.0424908"><ele>45.0</ele><time>2026-03-29T12:28:04.775Z</time></trkpt><trkpt lat="39.4101391" lon="17.0426143"><ele>45.0</ele><time>2026-03-29T12:28:05.782Z</time></trkpt><trkpt lat="39.410117" lon="17.0427419"><ele>45.0</ele><time>2026-03-29T12:28:06.78Z</time></trkpt><trkpt lat="39.4101028" lon="17.042872"><ele>45.0</ele><time>2026-03-29T12:28:07.8Z</time></trkpt><trkpt lat="39.4100664" lon="17.0429974"><ele>45.0</ele><time>2026-03-29T12:28:08.791Z</time></trkpt><trkpt lat="39.4100332" lon="17.0431173"><ele>45.0</ele><time>2026-03-29T12:28:09.783Z</time></trkpt><trkpt lat="39.4100142" lon="17.0432414"><ele>45.166666666666664</ele><time>2026-03-29T12:28:10.784Z</time></trkpt><trkpt lat="39.4099942" lon="17.0433631"><ele>45.333333333333336</ele><time>2026-03-29T12:28:11.777Z</time></trkpt><trkpt lat="39.4099804" lon="17.0434804"><ele>45.5</ele><time>2026-03-29T12:28:12.778Z</time></trkpt><trkpt lat="39.4099704" lon="17.0435924"><ele>45.66666666666667</ele><time>2026-03-29T12:28:13.788Z</time></trkpt><trkpt lat="39.4099543" lon="17.0437024"><ele>45.833333333333336</ele><time>2026-03-29T12:28:14.792Z</time></trkpt><trkpt lat="39.4099236" lon="17.0438045"><ele>46.0</ele><time>2026-03-29T12:28:15.781Z</time></trkpt><trkpt lat="39.4098849" lon="17.0439039"><ele>46.0</ele><time>2026-03-29T12:28:16.792Z</time></trkpt><trkpt lat="39.4098537" lon="17.0440164"><ele>46.0</ele><time>2026-03-29T12:28:17.787Z</time></trkpt><trkpt lat="39.4098341" lon="17.0441387"><ele>46.0</ele><time>2026-03-29T12:28:18.774Z</time></trkpt><trkpt lat="39.4098215" lon="17.0442652"><ele>46.0</ele><time>2026-03-29T12:28:19.783Z</time></trkpt><trkpt lat="39.409813" lon="17.0443971"><ele>46.0</ele><time>2026-03-29T12:28:20.785Z</time></trkpt><trkpt lat="39.409801" lon="17.0445299"><ele>46.199999999999996</ele><time>2026-03-29T12:28:21.779Z</time></trkpt><trkpt lat="39.4097902" lon="17.0446609"><ele>46.4</ele><time>2026-03-29T12:28:22.79Z</time></trkpt><trkpt lat="39.4097792" lon="17.04479"><ele>46.6</ele><time>2026-03-29T12:28:23.791Z</time></trkpt><trkpt lat="39.4097621" lon="17.0449178"><ele>46.8</ele><time>2026-03-29T12:28:24.783Z</time></trkpt><trkpt lat="39.4097423" lon="17.0450468"><ele>47.0</ele><time>2026-03-29T12:28:25.784Z</time></trkpt><trkpt lat="39.409722" lon="17.045181"><ele>46.6</ele><time>2026-03-29T12:28:26.785Z</time></trkpt><trkpt lat="39.4096998" lon="17.0453204"><ele>46.2</ele><time>2026-03-29T12:28:27.789Z</time></trkpt><trkpt lat="39.4096803" lon="17.0454633"><ele>45.8</ele><time>2026-03-29T12:28:28.782Z</time></trkpt><trkpt lat="39.409663" lon="17.0456079"><ele>45.4</ele><time>2026-03-29T12:28:29.781Z</time></trkpt><trkpt lat="39.4096468" lon="17.0457522"><ele>45.0</ele><time>2026-03-29T12:28:30.782Z</time></trkpt><trkpt lat="39.4096339" lon="17.0458898"><ele>45.0</ele><time>2026-03-29T12:28:31.794Z</time></trkpt><trkpt lat="39.4096305" lon="17.0460116"><ele>45.0</ele><time>2026-03-29T12:28:32.783Z</time></trkpt><trkpt lat="39.4096417" lon="17.0461322"><ele>45.0</ele><time>2026-03-29T12:28:33.783Z</time></trkpt><trkpt lat="39.4096553" lon="17.0462591"><ele>45.0</ele><time>2026-03-29T12:28:34.787Z</time></trkpt><trkpt lat="39.4096644" lon="17.0463756"><ele>45.0</ele><time>2026-03-29T12:28:35.788Z</time></trkpt><trkpt lat="39.4096486" lon="17.0464831"><ele>48.0</ele><time>2026-03-29T12:28:36.783Z</time></trkpt><trkpt lat="39.4096397" lon="17.0465824"><ele>51.0</ele><time>2026-03-29T12:28:37.78Z</time></trkpt><trkpt lat="39.4096259" lon="17.0466912"><ele>54.0</ele><time>2026-03-29T12:28:38.792Z</time></trkpt><trkpt lat="39.4096062" lon="17.0468186"><ele>57.0</ele><time>2026-03-29T12:28:39.783Z</time></trkpt><trkpt lat="39.4095984" lon="17.0469289"><ele>60.0</ele><time>2026-03-29T12:28:40.776Z</time></trkpt><trkpt lat="39.4095957" lon="17.0470435"><ele>63.0</ele><time>2026-03-29T12:28:41.788Z</time></trkpt><trkpt lat="39.4095859" lon="17.0471633"><ele>63.0</ele><time>2026-03-29T12:28:42.784Z</time></trkpt><trkpt lat="39.4095748" lon="17.0472835"><ele>63.0</ele><time>2026-03-29T12:28:43.777Z</time></trkpt><trkpt lat="39.4095416" lon="17.0474112"><ele>63.0</ele><time>2026-03-29T12:28:44.781Z</time></trkpt><trkpt lat="39.4095013" lon="17.047535"><ele>63.0</ele><time>2026-03-29T12:28:45.783Z</time></trkpt><trkpt lat="39.4094506" lon="17.0476432"><ele>63.0</ele><time>2026-03-29T12:28:46.779Z</time></trkpt><trkpt lat="39.4093896" lon="17.0477367"><ele>64.6</ele><time>2026-03-29T12:28:47.776Z</time></trkpt><trkpt lat="39.4093216" lon="17.047825"><ele>66.19999999999999</ele><time>2026-03-29T12:28:48.777Z</time></trkpt><trkpt lat="39.4092348" lon="17.0479009"><ele>67.8</ele><time>2026-03-29T12:28:49.784Z</time></trkpt><trkpt lat="39.4091525" lon="17.0479577"><ele>69.39999999999999</ele><time>2026-03-29T12:28:50.781Z</time></trkpt><trkpt lat="39.4090581" lon="17.0480201"><ele>71.0</ele><time>2026-03-29T12:28:51.772Z</time></trkpt><trkpt lat="39.4089677" lon="17.0480774"><ele>71.0</ele><time>2026-03-29T12:28:52.777Z</time></trkpt><trkpt lat="39.4088891" lon="17.0481549"><ele>71.0</ele><time>2026-03-29T12:28:53.784Z</time></trkpt><trkpt lat="39.408803" lon="17.0482366"><ele>71.0</ele><time>2026-03-29T12:28:54.78Z</time></trkpt><trkpt lat="39.4087082" lon="17.0483002"><ele>71.0</ele><time>2026-03-29T12:28:55.778Z</time></trkpt><trkpt lat="39.4086045" lon="17.0483564"><ele>71.0</ele><time>2026-03-29T12:28:56.778Z</time></trkpt><trkpt lat="39.4084826" lon="17.0484052"><ele>75.75</ele><time>2026-03-29T12:28:57.783Z</time></trkpt><trkpt lat="39.4083382" lon="17.0484503"><ele>80.5</ele><time>2026-03-29T12:28:58.787Z</time></trkpt><trkpt lat="39.4081996" lon="17.048484"><ele>85.25</ele><time>2026-03-29T12:28:59.779Z</time></trkpt><trkpt lat="39.4080786" lon="17.0485102"><ele>90.0</ele><time>2026-03-29T12:29:00.788Z</time></trkpt><trkpt lat="39.4079506" lon="17.0485299"><ele>92.25</ele><time>2026-03-29T12:29:01.785Z</time></trkpt><trkpt lat="39.4078062" lon="17.0485458"><ele>94.5</ele><time>2026-03-29T12:29:02.79Z</time></trkpt><trkpt lat="39.407662" lon="17.0485544"><ele>96.75</ele><time>2026-03-29T12:29:03.787Z</time></trkpt><trkpt lat="39.4075204" lon="17.0485645"><ele>99.0</ele><time>2026-03-29T12:29:04.774Z</time></trkpt><trkpt lat="39.4073973" lon="17.0485765"><ele>99.0</ele><time>2026-03-29T12:29:05.792Z</time></trkpt><trkpt lat="39.4072879" lon="17.0485837"><ele>99.0</ele><time>2026-03-29T12:29:06.781Z</time></trkpt><trkpt lat="39.4071861" lon="17.0485823"><ele>99.0</ele><time>2026-03-29T12:29:07.774Z</time></trkpt><trkpt lat="39.4070941" lon="17.0485746"><ele>99.0</ele><time>2026-03-29T12:29:08.78Z</time></trkpt><trkpt lat="39.4070117" lon="17.0485608"><ele>99.0</ele><time>2026-03-29T12:29:09.79Z</time></trkpt><trkpt lat="39.4069311" lon="17.0485505"><ele>100.33333333333333</ele><time>2026-03-29T12:29:10.788Z</time></trkpt><trkpt lat="39.4068555" lon="17.0485419"><ele>101.66666666666666</ele><time>2026-03-29T12:29:11.784Z</time></trkpt><trkpt lat="39.4067868" lon="17.0485149"><ele>103.0</ele><time>2026-03-29T12:29:12.778Z</time></trkpt><trkpt lat="39.4067212" lon="17.0484871"><ele>104.33333333333333</ele><time>2026-03-29T12:29:13.77Z</time></trkpt><trkpt lat="39.4066788" lon="17.0484096"><ele>105.66666666666666</ele><time>2026-03-29T12:29:14.783Z</time></trkpt><trkpt lat="39.4066513" lon="17.0483018"><ele>107.0</ele><time>2026-03-29T12:29:15.789Z</time></trkpt><trkpt lat="39.4066416" lon="17.0481753"><ele>107.0</ele><time>2026-03-29T12:29:16.783Z</time></trkpt><trkpt lat="39.4066371" lon="17.0480292"><ele>106.99999999999999</ele><time>2026-03-29T12:29:17.782Z</time></trkpt><trkpt lat="39.4066282" lon="17.0479005"><ele>106.99999999999999</ele><time>2026-03-29T12:29:18.778Z</time></trkpt><trkpt lat="39.4065956" lon="17.0477822"><ele>107.0</ele><time>2026-03-29T12:29:19.786Z</time></trkpt><trkpt lat="39.4065381" lon="17.0476746"><ele>107.0</ele><time>2026-03-29T12:29:20.782Z</time></trkpt><trkpt lat="39.4064643" lon="17.0475761"><ele>107.0</ele><time>2026-03-29T12:29:21.772Z</time></trkpt><trkpt lat="39.4063786" lon="17.0475031"><ele>106.99999999999999</ele><time>2026-03-29T12:29:22.783Z</time></trkpt><trkpt lat="39.406292" lon="17.047455"><ele>106.99999999999999</ele><time>2026-03-29T12:29:23.78Z</time></trkpt><trkpt lat="39.4062131" lon="17.0474111"><ele>107.0</ele><time>2026-03-29T12:29:24.781Z</time></trkpt><trkpt lat="39.4061475" lon="17.0474138"><ele>107.0</ele><time>2026-03-29T12:29:25.772Z</time></trkpt><trkpt lat="39.4060713" lon="17.0475217"><ele>111.49999999999999</ele><time>2026-03-29T12:29:27.782Z</time></trkpt><trkpt lat="39.4060763" lon="17.0476103"><ele>116.0</ele><time>2026-03-29T12:29:28.784Z</time></trkpt><trkpt lat="39.4060856" lon="17.0477047"><ele>120.5</ele><time>2026-03-29T12:29:29.772Z</time></trkpt><trkpt lat="39.4061352" lon="17.0478054"><ele>125.0</ele><time>2026-03-29T12:29:30.785Z</time></trkpt><trkpt lat="39.4061712" lon="17.047931"><ele>129.5</ele><time>2026-03-29T12:29:31.781Z</time></trkpt><trkpt lat="39.4061767" lon="17.0480679"><ele>134.0</ele><time>2026-03-29T12:29:32.774Z</time></trkpt><trkpt lat="39.4061843" lon="17.0481836"><ele>134.0</ele><time>2026-03-29T12:29:33.773Z</time></trkpt><trkpt lat="39.4061615" lon="17.0482615"><ele>134.0</ele><time>2026-03-29T12:29:34.78Z</time></trkpt><trkpt lat="39.4061283" lon="17.0483503"><ele>134.0</ele><time>2026-03-29T12:29:35.791Z</time></trkpt><trkpt lat="39.4060573" lon="17.0484604"><ele>134.0</ele><time>2026-03-29T12:29:36.779Z</time></trkpt><trkpt lat="39.4059946" lon="17.0485796"><ele>134.0</ele><time>2026-03-29T12:29:37.781Z</time></trkpt><trkpt lat="39.4059247" lon="17.0486852"><ele>135.0</ele><time>2026-03-29T12:29:38.791Z</time></trkpt><trkpt lat="39.4058481" lon="17.048789"><ele>136.0</ele><time>2026-03-29T12:29:39.788Z</time></trkpt><trkpt lat="39.4057419" lon="17.0488886"><ele>137.0</ele><time>2026-03-29T12:29:40.793Z</time></trkpt><trkpt lat="39.4056189" lon="17.0489849"><ele>138.0</ele><time>2026-03-29T12:29:41.779Z</time></trkpt><trkpt lat="39.405509" lon="17.0490788"><ele>141.20000000000002</ele><time>2026-03-29T12:29:42.781Z</time></trkpt><trkpt lat="39.4054209" lon="17.0491601"><ele>144.4</ele><time>2026-03-29T12:29:43.788Z</time></trkpt><trkpt lat="39.4053562" lon="17.049247"><ele>147.60000000000002</ele><time>2026-03-29T12:29:44.782Z</time></trkpt><trkpt lat="39.4053067" lon="17.0493451"><ele>150.8</ele><time>2026-03-29T12:29:45.771Z</time></trkpt><trkpt lat="39.4052746" lon="17.049453"><ele>154.0</ele><time>2026-03-29T12:29:46.785Z</time></trkpt><trkpt lat="39.4052688" lon="17.0495608"><ele>154.0</ele><time>2026-03-29T12:29:47.783Z</time></trkpt><trkpt lat="39.405266" lon="17.0496758"><ele>154.0</ele><time>2026-03-29T12:29:48.783Z</time></trkpt><trkpt lat="39.4052744" lon="17.0497992"><ele>154.0</ele><time>2026-03-29T12:29:49.793Z</time></trkpt><trkpt lat="39.4052936" lon="17.0499015"><ele>154.0</ele><time>2026-03-29T12:29:50.782Z</time></trkpt><trkpt lat="39.4053299" lon="17.0499748"><ele>154.0</ele><time>2026-03-29T12:29:51.783Z</time></trkpt><trkpt lat="39.4053784" lon="17.0500335"><ele>154.0</ele><time>2026-03-29T12:29:52.784Z</time></trkpt><trkpt lat="39.4054349" lon="17.0501048"><ele>153.2</ele><time>2026-03-29T12:29:54.785Z</time></trkpt><trkpt lat="39.4055023" lon="17.0502056"><ele>152.4</ele><time>2026-03-29T12:30:08.78Z</time></trkpt><trkpt lat="39.4055826" lon="17.0503155"><ele>151.6</ele><time>2026-03-29T12:30:11.772Z</time></trkpt><trkpt lat="39.4056464" lon="17.0504156"><ele>150.8</ele><time>2026-03-29T12:30:13.791Z</time></trkpt><trkpt lat="39.4055943" lon="17.0504747"><ele>150.0</ele><time>2026-03-29T12:30:16.784Z</time></trkpt><trkpt lat="39.405476" lon="17.0504752"><ele>150.0</ele><time>2026-03-29T12:30:18.78Z</time></trkpt><trkpt lat="39.4053901" lon="17.0504828"><ele>150.0</ele><time>2026-03-29T12:30:19.796Z</time></trkpt><trkpt lat="39.4052993" lon="17.0504884"><ele>150.0</ele><time>2026-03-29T12:30:20.786Z</time></trkpt><trkpt lat="39.4052089" lon="17.0504969"><ele>150.0</ele><time>2026-03-29T12:30:21.775Z</time></trkpt><trkpt lat="39.4051177" lon="17.0505012"><ele>150.0</ele><time>2026-03-29T12:30:22.778Z</time></trkpt><trkpt lat="39.4050313" lon="17.0505059"><ele>150.0</ele><time>2026-03-29T12:30:23.804Z</time></trkpt><trkpt lat="39.4049472" lon="17.0505103"><ele>150.0</ele><time>2026-03-29T12:30:24.788Z</time></trkpt><trkpt lat="39.4048607" lon="17.0505167"><ele>150.0</ele><time>2026-03-29T12:30:25.784Z</time></trkpt><trkpt lat="39.4047746" lon="17.0505224"><ele>150.0</ele><time>2026-03-29T12:30:26.786Z</time></trkpt><trkpt lat="39.40469" lon="17.0505297"><ele>150.0</ele><time>2026-03-29T12:30:27.783Z</time></trkpt><trkpt lat="39.4045929" lon="17.0505346"><ele>150.0</ele><time>2026-03-29T12:30:28.784Z</time></trkpt><trkpt lat="39.4045051" lon="17.0505391"><ele>150.0</ele><time>2026-03-29T12:30:29.778Z</time></trkpt><trkpt lat="39.4044188" lon="17.0505422"><ele>149.8</ele><time>2026-03-29T12:30:30.785Z</time></trkpt><trkpt lat="39.4043245" lon="17.0505472"><ele>149.6</ele><time>2026-03-29T12:30:31.79Z</time></trkpt><trkpt lat="39.4042136" lon="17.0505528"><ele>149.4</ele><time>2026-03-29T12:30:32.783Z</time></trkpt><trkpt lat="39.4041001" lon="17.050557"><ele>149.2</ele><time>2026-03-29T12:30:33.781Z</time></trkpt><trkpt lat="39.4039954" lon="17.0505557"><ele>149.0</ele><time>2026-03-29T12:30:34.783Z</time></trkpt><trkpt lat="39.4039002" lon="17.0505544"><ele>148.6</ele><time>2026-03-29T12:30:35.791Z</time></trkpt><trkpt lat="39.4038037" lon="17.0505445"><ele>148.2</ele><time>2026-03-29T12:30:36.783Z</time></trkpt><trkpt lat="39.4037147" lon="17.050529"><ele>147.79999999999998</ele><time>2026-03-29T12:30:37.787Z</time></trkpt><trkpt lat="39.403628" lon="17.0505044"><ele>147.4</ele><time>2026-03-29T12:30:38.778Z</time></trkpt><trkpt lat="39.4035345" lon="17.0504912"><ele>147.0</ele><time>2026-03-29T12:30:39.793Z</time></trkpt><trkpt lat="39.4034346" lon="17.0504978"><ele>147.0</ele><time>2026-03-29T12:30:40.792Z</time></trkpt><trkpt lat="39.4033406" lon="17.0504931"><ele>147.0</ele><time>2026-03-29T12:30:41.791Z</time></trkpt><trkpt lat="39.4032546" lon="17.0505083"><ele>147.0</ele><time>2026-03-29T12:30:42.785Z</time></trkpt><trkpt lat="39.4031673" lon="17.0505008"><ele>147.0</ele><time>2026-03-29T12:30:43.785Z</time></trkpt><trkpt lat="39.4030818" lon="17.0504593"><ele>147.0</ele><time>2026-03-29T12:30:44.782Z</time></trkpt><trkpt lat="39.403" lon="17.0504212"><ele>147.0</ele><time>2026-03-29T12:30:45.778Z</time></trkpt><trkpt lat="39.4029118" lon="17.0503962"><ele>145.14285714285714</ele><time>2026-03-29T12:30:46.786Z</time></trkpt><trkpt lat="39.4028272" lon="17.050373"><ele>143.28571428571428</ele><time>2026-03-29T12:30:47.788Z</time></trkpt><trkpt lat="39.4027503" lon="17.050372"><ele>141.42857142857144</ele><time>2026-03-29T12:30:48.789Z</time></trkpt><trkpt lat="39.4026783" lon="17.0503789"><ele>139.57142857142856</ele><time>2026-03-29T12:30:49.787Z</time></trkpt><trkpt lat="39.4026071" lon="17.050389"><ele>137.71428571428572</ele><time>2026-03-29T12:30:50.782Z</time></trkpt><trkpt lat="39.4025361" lon="17.0503961"><ele>135.85714285714286</ele><time>2026-03-29T12:30:51.773Z</time></trkpt><trkpt lat="39.4024683" lon="17.0504081"><ele>134.0</ele><time>2026-03-29T12:30:52.782Z</time></trkpt><trkpt lat="39.4024053" lon="17.0504197"><ele>134.0</ele><time>2026-03-29T12:30:53.785Z</time></trkpt><trkpt lat="39.4023007" lon="17.0504331"><ele>134.0</ele><time>2026-03-29T12:30:55.785Z</time></trkpt><trkpt lat="39.4022414" lon="17.050391"><ele>134.0</ele><time>2026-03-29T12:30:56.778Z</time></trkpt><trkpt lat="39.4021759" lon="17.0503518"><ele>134.0</ele><time>2026-03-29T12:30:57.774Z</time></trkpt><trkpt lat="39.4021176" lon="17.050317"><ele>134.0</ele><time>2026-03-29T12:30:58.778Z</time></trkpt><trkpt lat="39.4020108" lon="17.050282"><ele>134.0</ele><time>2026-03-29T12:31:00.773Z</time></trkpt><trkpt lat="39.4019429" lon="17.0502749"><ele>132.14285714285714</ele><time>2026-03-29T12:31:01.772Z</time></trkpt><trkpt lat="39.4018712" lon="17.050284"><ele>130.28571428571428</ele><time>2026-03-29T12:31:02.783Z</time></trkpt><trkpt lat="39.4017944" lon="17.0502899"><ele>128.42857142857142</ele><time>2026-03-29T12:31:03.785Z</time></trkpt><trkpt lat="39.4017186" lon="17.0502821"><ele>126.57142857142857</ele><time>2026-03-29T12:31:04.776Z</time></trkpt><trkpt lat="39.401648" lon="17.0502717"><ele>124.7142857142857</ele><time>2026-03-29T12:31:05.782Z</time></trkpt><trkpt lat="39.4015878" lon="17.0502428"><ele>122.85714285714285</ele><time>2026-03-29T12:31:06.773Z</time></trkpt><trkpt lat="39.401535" lon="17.0501915"><ele>121.0</ele><time>2026-03-29T12:31:07.782Z</time></trkpt><trkpt lat="39.4014782" lon="17.0501253"><ele>121.00000000000001</ele><time>2026-03-29T12:31:08.785Z</time></trkpt><trkpt lat="39.4014272" lon="17.050062"><ele>121.0</ele><time>2026-03-29T12:31:09.782Z</time></trkpt><trkpt lat="39.4013185" lon="17.0500025"><ele>121.0</ele><time>2026-03-29T12:31:11.786Z</time></trkpt><trkpt lat="39.4012543" lon="17.0499967"><ele>121.0</ele><time>2026-03-29T12:31:12.779Z</time></trkpt><trkpt lat="39.4011505" lon="17.0499982"><ele>121.00000000000001</ele><time>2026-03-29T12:31:14.785Z</time></trkpt><trkpt lat="39.4010773" lon="17.0500091"><ele>121.0</ele><time>2026-03-29T12:31:16.783Z</time></trkpt><trkpt lat="39.4010087" lon="17.0500246"><ele>120.33333333333334</ele><time>2026-03-29T12:31:19.779Z</time></trkpt><trkpt lat="39.4009365" lon="17.050028"><ele>119.66666666666667</ele><time>2026-03-29T12:31:22.78Z</time></trkpt><trkpt lat="39.4008538" lon="17.050012"><ele>119.0</ele><time>2026-03-29T12:31:25.781Z</time></trkpt><trkpt lat="39.4007707" lon="17.0499889"><ele>118.33333333333334</ele><time>2026-03-29T12:31:29.786Z</time></trkpt><trkpt lat="39.4007072" lon="17.0499672"><ele>117.66666666666667</ele><time>2026-03-29T12:31:31.796Z</time></trkpt><trkpt lat="39.4006278" lon="17.0499323"><ele>117.0</ele><time>2026-03-29T12:31:34.779Z</time></trkpt><trkpt lat="39.40057" lon="17.0498803"><ele>117.0</ele><time>2026-03-29T12:31:37.781Z</time></trkpt><trkpt lat="39.4005183" lon="17.0498277"><ele>116.99999999999999</ele><time>2026-03-29T12:31:40.781Z</time></trkpt><trkpt lat="39.4004244" lon="17.0497604"><ele>116.99999999999999</ele><time>2026-03-29T12:31:43.778Z</time></trkpt><trkpt lat="39.4003135" lon="17.0497136"><ele>117.0</ele><time>2026-03-29T12:31:45.775Z</time></trkpt><trkpt lat="39.4002147" lon="17.0496578"><ele>117.0</ele><time>2026-03-29T12:31:47.785Z</time></trkpt><trkpt lat="39.4001131" lon="17.0496025"><ele>111.39999999999999</ele><time>2026-03-29T12:31:49.785Z</time></trkpt><trkpt lat="39.4000461" lon="17.0495811"><ele>105.79999999999998</ele><time>2026-03-29T12:31:51.787Z</time></trkpt><trkpt lat="39.4000117" lon="17.04969"><ele>100.2</ele><time>2026-03-29T12:31:54.785Z</time></trkpt><trkpt lat="39.400089" lon="17.0498389"><ele>94.6</ele><time>2026-03-29T12:31:56.777Z</time></trkpt><trkpt lat="39.4001339" lon="17.0499247"><ele>89.0</ele><time>2026-03-29T12:31:57.776Z</time></trkpt><trkpt lat="39.4001655" lon="17.0500102"><ele>88.0</ele><time>2026-03-29T12:31:58.782Z</time></trkpt><trkpt lat="39.4001762" lon="17.0501648"><ele>87.0</ele><time>2026-03-29T12:32:00.783Z</time></trkpt><trkpt lat="39.4001599" lon="17.0502561"><ele>86.0</ele><time>2026-03-29T12:32:02.776Z</time></trkpt><trkpt lat="39.4001432" lon="17.0503528"><ele>85.0</ele><time>2026-03-29T12:32:09.789Z</time></trkpt><trkpt lat="39.4001805" lon="17.0504243"><ele>84.0</ele><time>2026-03-29T12:32:15.783Z</time></trkpt><trkpt lat="39.400222" lon="17.0504872"><ele>83.0</ele><time>2026-03-29T12:32:19.785Z</time></trkpt><trkpt lat="39.4002136" lon="17.0505759"><ele>83.0</ele><time>2026-03-29T12:32:25.786Z</time></trkpt><trkpt lat="39.400218" lon="17.0506607"><ele>83.0</ele><time>2026-03-29T12:32:28.778Z</time></trkpt><trkpt lat="39.4002658" lon="17.0507579"><ele>83.0</ele><time>2026-03-29T12:32:30.786Z</time></trkpt><trkpt lat="39.4003452" lon="17.0508688"><ele>83.0</ele><time>2026-03-29T12:32:32.782Z</time></trkpt><trkpt lat="39.4003753" lon="17.050941"><ele>83.0</ele><time>2026-03-29T12:32:33.777Z</time></trkpt><trkpt lat="39.4003983" lon="17.0510204"><ele>83.0</ele><time>2026-03-29T12:32:34.78Z</time></trkpt><trkpt lat="39.4004294" lon="17.0510983"><ele>83.0</ele><time>2026-03-29T12:32:35.795Z</time></trkpt><trkpt lat="39.4004733" lon="17.051228"><ele>83.0</ele><time>2026-03-29T12:32:37.78Z</time></trkpt><trkpt lat="39.4005319" lon="17.0513391"><ele>83.0</ele><time>2026-03-29T12:32:39.783Z</time></trkpt><trkpt lat="39.4005754" lon="17.0514456"><ele>83.0</ele><time>2026-03-29T12:32:41.783Z</time></trkpt><trkpt lat="39.4006166" lon="17.051512"><ele>83.0</ele><time>2026-03-29T12:32:43.799Z</time></trkpt><trkpt lat="39.400655" lon="17.0515859"><ele>83.0</ele><time>2026-03-29T12:32:50.787Z</time></trkpt><trkpt lat="39.4006976" lon="17.0516527"><ele>82.0</ele><time>2026-03-29T12:32:58.782Z</time></trkpt><trkpt lat="39.4007303" lon="17.0517291"><ele>81.0</ele><time>2026-03-29T12:33:04.782Z</time></trkpt><trkpt lat="39.4007707" lon="17.0518142"><ele>80.0</ele><time>2026-03-29T12:33:08.891Z</time></trkpt><trkpt lat="39.4008046" lon="17.0518879"><ele>79.0</ele><time>2026-03-29T12:33:11.776Z</time></trkpt><trkpt lat="39.4008739" lon="17.0519493"><ele>78.0</ele><time>2026-03-29T12:33:14.778Z</time></trkpt><trkpt lat="39.4009358" lon="17.0519948"><ele>77.0</ele><time>2026-03-29T12:33:17.771Z</time></trkpt><trkpt lat="39.4010034" lon="17.0520105"><ele>76.0</ele><time>2026-03-29T12:33:21.797Z</time></trkpt><trkpt lat="39.4010731" lon="17.0520586"><ele>76.0</ele><time>2026-03-29T12:33:25.798Z</time></trkpt><trkpt lat="39.4011085" lon="17.0521393"><ele>76.0</ele><time>2026-03-29T12:33:30.829Z</time></trkpt><trkpt lat="39.4010943" lon="17.0522386"><ele>76.0</ele><time>2026-03-29T12:33:34.775Z</time></trkpt><trkpt lat="39.4011847" lon="17.0522663"><ele>76.0</ele><time>2026-03-29T12:33:36.79Z</time></trkpt><trkpt lat="39.4012651" lon="17.0522755"><ele>76.0</ele><time>2026-03-29T12:33:37.783Z</time></trkpt><trkpt lat="39.4013342" lon="17.0522893"><ele>76.0</ele><time>2026-03-29T12:33:38.773Z</time></trkpt><trkpt lat="39.4014026" lon="17.0523081"><ele>75.71428571428571</ele><time>2026-03-29T12:33:39.781Z</time></trkpt><trkpt lat="39.4014698" lon="17.0523249"><ele>75.42857142857143</ele><time>2026-03-29T12:33:40.786Z</time></trkpt><trkpt lat="39.4015343" lon="17.0523377"><ele>75.14285714285714</ele><time>2026-03-29T12:33:41.789Z</time></trkpt><trkpt lat="39.4016016" lon="17.0523442"><ele>74.85714285714286</ele><time>2026-03-29T12:33:42.788Z</time></trkpt><trkpt lat="39.4016685" lon="17.0523644"><ele>74.57142857142857</ele><time>2026-03-29T12:33:43.774Z</time></trkpt><trkpt lat="39.4017325" lon="17.0524008"><ele>74.28571428571429</ele><time>2026-03-29T12:33:44.775Z</time></trkpt><trkpt lat="39.4017878" lon="17.0524424"><ele>74.0</ele><time>2026-03-29T12:33:45.783Z</time></trkpt><trkpt lat="39.4018897" lon="17.0525309"><ele>74.0</ele><time>2026-03-29T12:33:47.789Z</time></trkpt><trkpt lat="39.401945" lon="17.0525783"><ele>74.0</ele><time>2026-03-29T12:33:48.779Z</time></trkpt><trkpt lat="39.4020086" lon="17.0526243"><ele>74.0</ele><time>2026-03-29T12:33:49.773Z</time></trkpt><trkpt lat="39.4020661" lon="17.052724"><ele>74.0</ele><time>2026-03-29T12:33:51.782Z</time></trkpt><trkpt lat="39.4020993" lon="17.0528311"><ele>74.0</ele><time>2026-03-29T12:33:53.787Z</time></trkpt><trkpt lat="39.4021074" lon="17.0529249"><ele>74.0</ele><time>2026-03-29T12:33:55.778Z</time></trkpt><trkpt lat="39.4021205" lon="17.0530069"><ele>74.0</ele><time>2026-03-29T12:33:58.789Z</time></trkpt><trkpt lat="39.4021625" lon="17.0530848"><ele>74.0</ele><time>2026-03-29T12:34:08.788Z</time></trkpt><trkpt lat="39.402216" lon="17.0531509"><ele>74.0</ele><time>2026-03-29T12:34:12.782Z</time></trkpt><trkpt lat="39.4022757" lon="17.0532344"><ele>74.0</ele><time>2026-03-29T12:34:15.785Z</time></trkpt><trkpt lat="39.4023396" lon="17.0533304"><ele>74.0</ele><time>2026-03-29T12:34:20.782Z</time></trkpt><trkpt lat="39.4024001" lon="17.053465"><ele>74.16666666666667</ele><time>2026-03-29T12:34:22.776Z</time></trkpt><trkpt lat="39.4024214" lon="17.0536012"><ele>74.33333333333334</ele><time>2026-03-29T12:34:24.786Z</time></trkpt><trkpt lat="39.4024491" lon="17.0536826"><ele>74.5</ele><time>2026-03-29T12:34:27.782Z</time></trkpt><trkpt lat="39.4024891" lon="17.0537648"><ele>74.66666666666667</ele><time>2026-03-29T12:34:30.783Z</time></trkpt><trkpt lat="39.4025438" lon="17.0538197"><ele>74.83333333333333</ele><time>2026-03-29T12:34:33.781Z</time></trkpt><trkpt lat="39.4026017" lon="17.0538593"><ele>75.0</ele><time>2026-03-29T12:34:36.779Z</time></trkpt><trkpt lat="39.4026682" lon="17.053915"><ele>74.99999999999999</ele><time>2026-03-29T12:34:41.797Z</time></trkpt><trkpt lat="39.4027185" lon="17.0539827"><ele>75.0</ele><time>2026-03-29T12:34:46.785Z</time></trkpt><trkpt lat="39.4027773" lon="17.0540446"><ele>75.0</ele><time>2026-03-29T12:34:53.835Z</time></trkpt><trkpt lat="39.4028351" lon="17.0540995"><ele>75.0</ele><time>2026-03-29T12:35:01.783Z</time></trkpt><trkpt lat="39.4028645" lon="17.0541812"><ele>75.0</ele><time>2026-03-29T12:35:06.789Z</time></trkpt><trkpt lat="39.4029206" lon="17.054234"><ele>74.99999999999999</ele><time>2026-03-29T12:35:11.797Z</time></trkpt><trkpt lat="39.4029815" lon="17.054315"><ele>75.0</ele><time>2026-03-29T12:35:14.79Z</time></trkpt><trkpt lat="39.4030253" lon="17.0544001"><ele>74.83333333333333</ele><time>2026-03-29T12:35:16.774Z</time></trkpt><trkpt lat="39.4030658" lon="17.0544827"><ele>74.66666666666667</ele><time>2026-03-29T12:35:18.776Z</time></trkpt><trkpt lat="39.4031297" lon="17.0545421"><ele>74.5</ele><time>2026-03-29T12:35:20.786Z</time></trkpt><trkpt lat="39.4031867" lon="17.0546163"><ele>74.33333333333334</ele><time>2026-03-29T12:35:22.777Z</time></trkpt><trkpt lat="39.4032442" lon="17.0547189"><ele>74.16666666666667</ele><time>2026-03-29T12:35:24.777Z</time></trkpt><trkpt lat="39.4033224" lon="17.0548119"><ele>74.0</ele><time>2026-03-29T12:35:26.775Z</time></trkpt><trkpt lat="39.4034078" lon="17.0548882"><ele>74.0</ele><time>2026-03-29T12:35:28.78Z</time></trkpt><trkpt lat="39.4035155" lon="17.0549533"><ele>74.0</ele><time>2026-03-29T12:35:30.779Z</time></trkpt><trkpt lat="39.4036024" lon="17.0550118"><ele>74.0</ele><time>2026-03-29T12:35:32.785Z</time></trkpt><trkpt lat="39.4036492" lon="17.0551153"><ele>74.0</ele><time>2026-03-29T12:35:34.78Z</time></trkpt><trkpt lat="39.4035871" lon="17.0552423"><ele>74.0</ele><time>2026-03-29T12:35:36.78Z</time></trkpt><trkpt lat="39.4035391" lon="17.0553133"><ele>72.83333333333334</ele><time>2026-03-29T12:35:37.777Z</time></trkpt><trkpt lat="39.4034971" lon="17.055387"><ele>71.66666666666667</ele><time>2026-03-29T12:35:38.784Z</time></trkpt><trkpt lat="39.4034582" lon="17.0554577"><ele>70.5</ele><time>2026-03-29T12:35:39.79Z</time></trkpt><trkpt lat="39.4034003" lon="17.05558"><ele>69.33333333333333</ele><time>2026-03-29T12:35:41.774Z</time></trkpt><trkpt lat="39.4033609" lon="17.0556748"><ele>68.16666666666666</ele><time>2026-03-29T12:35:44.781Z</time></trkpt><trkpt lat="39.4033354" lon="17.0557595"><ele>67.0</ele><time>2026-03-29T12:35:47.782Z</time></trkpt><trkpt lat="39.4033055" lon="17.0558434"><ele>66.4</ele><time>2026-03-29T12:35:53.791Z</time></trkpt><trkpt lat="39.4033096" lon="17.0559297"><ele>65.80000000000001</ele><time>2026-03-29T12:35:57.784Z</time></trkpt><trkpt lat="39.4033272" lon="17.0560552"><ele>65.2</ele><time>2026-03-29T12:36:00.779Z</time></trkpt><trkpt lat="39.4033559" lon="17.056179"><ele>64.60000000000001</ele><time>2026-03-29T12:36:02.778Z</time></trkpt><trkpt lat="39.4033821" lon="17.0562997"><ele>64.0</ele><time>2026-03-29T12:36:04.771Z</time></trkpt><trkpt lat="39.4034259" lon="17.0564207"><ele>63.99999999999999</ele><time>2026-03-29T12:36:06.774Z</time></trkpt><trkpt lat="39.4034633" lon="17.0565416"><ele>64.0</ele><time>2026-03-29T12:36:08.781Z</time></trkpt><trkpt lat="39.4034988" lon="17.0566307"><ele>64.0</ele><time>2026-03-29T12:36:10.785Z</time></trkpt><trkpt lat="39.4035599" lon="17.0567216"><ele>64.0</ele><time>2026-03-29T12:36:12.773Z</time></trkpt><trkpt lat="39.4036113" lon="17.0567873"><ele>63.99999999999999</ele><time>2026-03-29T12:36:14.783Z</time></trkpt><trkpt lat="39.4036705" lon="17.0568704"><ele>64.0</ele><time>2026-03-29T12:36:16.788Z</time></trkpt><trkpt lat="39.4037527" lon="17.0569783"><ele>63.99999999999999</ele><time>2026-03-29T12:36:18.778Z</time></trkpt><trkpt lat="39.403815" lon="17.0571204"><ele>64.0</ele><time>2026-03-29T12:36:20.78Z</time></trkpt><trkpt lat="39.4038353" lon="17.0572117"><ele>64.0</ele><time>2026-03-29T12:36:21.787Z</time></trkpt><trkpt lat="39.4038492" lon="17.0573106"><ele>64.0</ele><time>2026-03-29T12:36:22.779Z</time></trkpt><trkpt lat="39.4038593" lon="17.0573924"><ele>63.99999999999999</ele><time>2026-03-29T12:36:23.775Z</time></trkpt><trkpt lat="39.4038821" lon="17.0575235"><ele>64.0</ele><time>2026-03-29T12:36:25.787Z</time></trkpt><trkpt lat="39.4039246" lon="17.0576204"><ele>63.99999999999999</ele><time>2026-03-29T12:36:27.772Z</time></trkpt><trkpt lat="39.4039845" lon="17.0576913"><ele>64.0</ele><time>2026-03-29T12:36:30.79Z</time></trkpt><trkpt lat="39.4040459" lon="17.0577297"><ele>64.0</ele><time>2026-03-29T12:36:34.779Z</time></trkpt><trkpt lat="39.4041083" lon="17.0577464"><ele>64.0</ele><time>2026-03-29T12:36:40.778Z</time></trkpt><trkpt lat="39.4041819" lon="17.0578123"><ele>63.99999999999999</ele><time>2026-03-29T12:36:43.778Z</time></trkpt><trkpt lat="39.4042408" lon="17.0578722"><ele>64.0</ele><time>2026-03-29T12:36:45.783Z</time></trkpt><trkpt lat="39.404309" lon="17.0579233"><ele>64.0</ele><time>2026-03-29T12:36:47.772Z</time></trkpt><trkpt lat="39.404372" lon="17.0579613"><ele>64.0</ele><time>2026-03-29T12:36:49.791Z</time></trkpt><trkpt lat="39.4044109" lon="17.0580319"><ele>64.0</ele><time>2026-03-29T12:36:51.777Z</time></trkpt><trkpt lat="39.4044492" lon="17.0581593"><ele>64.0</ele><time>2026-03-29T12:36:53.793Z</time></trkpt><trkpt lat="39.4044886" lon="17.0583005"><ele>64.0</ele><time>2026-03-29T12:36:55.778Z</time></trkpt><trkpt lat="39.4045476" lon="17.058445"><ele>64.0</ele><time>2026-03-29T12:36:57.783Z</time></trkpt><trkpt lat="39.4045923" lon="17.058512"><ele>64.0</ele><time>2026-03-29T12:36:58.772Z</time></trkpt><trkpt lat="39.4046337" lon="17.0585753"><ele>64.0</ele><time>2026-03-29T12:36:59.785Z</time></trkpt><trkpt lat="39.4047128" lon="17.0586837"><ele>64.0</ele><time>2026-03-29T12:37:01.77Z</time></trkpt><trkpt lat="39.4048077" lon="17.0588112"><ele>64.0</ele><time>2026-03-29T12:37:03.782Z</time></trkpt><trkpt lat="39.4048663" lon="17.0588768"><ele>63.99999999999999</ele><time>2026-03-29T12:37:04.773Z</time></trkpt><trkpt lat="39.4049242" lon="17.0589391"><ele>64.0</ele><time>2026-03-29T12:37:05.784Z</time></trkpt><trkpt lat="39.4049764" lon="17.0589886"><ele>64.0</ele><time>2026-03-29T12:37:06.783Z</time></trkpt><trkpt lat="39.4050678" lon="17.0590897"><ele>64.0</ele><time>2026-03-29T12:37:08.777Z</time></trkpt><trkpt lat="39.4051041" lon="17.0591611"><ele>63.99999999999999</ele><time>2026-03-29T12:37:09.784Z</time></trkpt><trkpt lat="39.4051299" lon="17.0592478"><ele>64.0</ele><time>2026-03-29T12:37:10.783Z</time></trkpt><trkpt lat="39.4051496" lon="17.0593663"><ele>62.83333333333333</ele><time>2026-03-29T12:37:11.776Z</time></trkpt><trkpt lat="39.4051683" lon="17.0594806"><ele>61.666666666666664</ele><time>2026-03-29T12:37:12.784Z</time></trkpt><trkpt lat="39.4051744" lon="17.0595786"><ele>60.5</ele><time>2026-03-29T12:37:13.776Z</time></trkpt><trkpt lat="39.4051437" lon="17.0596788"><ele>59.33333333333333</ele><time>2026-03-29T12:37:14.77Z</time></trkpt><trkpt lat="39.4051137" lon="17.059768"><ele>58.166666666666664</ele><time>2026-03-29T12:37:15.783Z</time></trkpt><trkpt lat="39.4050766" lon="17.0598442"><ele>57.0</ele><time>2026-03-29T12:37:16.78Z</time></trkpt><trkpt lat="39.405036" lon="17.0599452"><ele>57.0</ele><time>2026-03-29T12:37:17.776Z</time></trkpt><trkpt lat="39.4049975" lon="17.060062"><ele>57.0</ele><time>2026-03-29T12:37:18.772Z</time></trkpt><trkpt lat="39.4049658" lon="17.0601726"><ele>57.0</ele><time>2026-03-29T12:37:19.778Z</time></trkpt><trkpt lat="39.4049395" lon="17.0602816"><ele>57.0</ele><time>2026-03-29T12:37:20.78Z</time></trkpt><trkpt lat="39.4049064" lon="17.0603926"><ele>57.0</ele><time>2026-03-29T12:37:21.777Z</time></trkpt><trkpt lat="39.4048747" lon="17.0604857"><ele>57.0</ele><time>2026-03-29T12:37:22.778Z</time></trkpt><trkpt lat="39.4048302" lon="17.0606207"><ele>57.0</ele><time>2026-03-29T12:37:24.774Z</time></trkpt><trkpt lat="39.4047579" lon="17.0607359"><ele>57.0</ele><time>2026-03-29T12:37:26.785Z</time></trkpt><trkpt lat="39.4047114" lon="17.0608022"><ele>57.0</ele><time>2026-03-29T12:37:27.791Z</time></trkpt><trkpt lat="39.4046603" lon="17.0608557"><ele>57.0</ele><time>2026-03-29T12:37:28.779Z</time></trkpt><trkpt lat="39.4046072" lon="17.0609829"><ele>57.0</ele><time>2026-03-29T12:37:30.776Z</time></trkpt><trkpt lat="39.4046138" lon="17.061124"><ele>56.400000000000006</ele><time>2026-03-29T12:37:32.787Z</time></trkpt><trkpt lat="39.4046845" lon="17.0612724"><ele>55.800000000000004</ele><time>2026-03-29T12:37:34.777Z</time></trkpt><trkpt lat="39.4047383" lon="17.0613391"><ele>55.2</ele><time>2026-03-29T12:37:35.79Z</time></trkpt><trkpt lat="39.4048031" lon="17.0613916"><ele>54.6</ele><time>2026-03-29T12:37:36.784Z</time></trkpt><trkpt lat="39.4048778" lon="17.0614229"><ele>54.0</ele><time>2026-03-29T12:37:37.777Z</time></trkpt><trkpt lat="39.404962" lon="17.0614551"><ele>54.0</ele><time>2026-03-29T12:37:38.783Z</time></trkpt><trkpt lat="39.4050394" lon="17.0614908"><ele>54.00000000000001</ele><time>2026-03-29T12:37:39.8Z</time></trkpt><trkpt lat="39.4051084" lon="17.0615139"><ele>54.00000000000001</ele><time>2026-03-29T12:37:40.781Z</time></trkpt><trkpt lat="39.4052073" lon="17.0615452"><ele>54.0</ele><time>2026-03-29T12:37:42.793Z</time></trkpt><trkpt lat="39.4052877" lon="17.061621"><ele>54.0</ele><time>2026-03-29T12:37:44.779Z</time></trkpt><trkpt lat="39.4052942" lon="17.0617614"><ele>54.0</ele><time>2026-03-29T12:37:46.792Z</time></trkpt><trkpt lat="39.4052861" lon="17.0618456"><ele>54.0</ele><time>2026-03-29T12:37:47.776Z</time></trkpt><trkpt lat="39.4053322" lon="17.0619954"><ele>54.0</ele><time>2026-03-29T12:37:49.781Z</time></trkpt><trkpt lat="39.4053831" lon="17.0620687"><ele>54.0</ele><time>2026-03-29T12:37:50.79Z</time></trkpt><trkpt lat="39.405433" lon="17.0621398"><ele>54.0</ele><time>2026-03-29T12:37:51.788Z</time></trkpt><trkpt lat="39.4054785" lon="17.0622163"><ele>54.0</ele><time>2026-03-29T12:37:52.785Z</time></trkpt><trkpt lat="39.4055168" lon="17.0623053"><ele>53.666666666666664</ele><time>2026-03-29T12:37:53.788Z</time></trkpt><trkpt lat="39.4055401" lon="17.0624095"><ele>53.33333333333333</ele><time>2026-03-29T12:37:54.781Z</time></trkpt><trkpt lat="39.4055611" lon="17.0624953"><ele>53.0</ele><time>2026-03-29T12:37:55.771Z</time></trkpt><trkpt lat="39.4055802" lon="17.0625864"><ele>52.666666666666664</ele><time>2026-03-29T12:37:56.774Z</time></trkpt><trkpt lat="39.4055443" lon="17.0627064"><ele>52.33333333333333</ele><time>2026-03-29T12:37:57.793Z</time></trkpt><trkpt lat="39.4055082" lon="17.0628225"><ele>52.0</ele><time>2026-03-29T12:37:58.777Z</time></trkpt><trkpt lat="39.4054779" lon="17.0629324"><ele>51.666666666666664</ele><time>2026-03-29T12:37:59.771Z</time></trkpt><trkpt lat="39.4054602" lon="17.063022"><ele>51.33333333333333</ele><time>2026-03-29T12:38:00.777Z</time></trkpt><trkpt lat="39.4054679" lon="17.0631393"><ele>51.0</ele><time>2026-03-29T12:38:02.779Z</time></trkpt><trkpt lat="39.4054841" lon="17.0632372"><ele>50.66666666666667</ele><time>2026-03-29T12:38:04.772Z</time></trkpt><trkpt lat="39.4054972" lon="17.0633493"><ele>50.333333333333336</ele><time>2026-03-29T12:38:06.78Z</time></trkpt><trkpt lat="39.4055134" lon="17.0634656"><ele>50.0</ele><time>2026-03-29T12:38:08.781Z</time></trkpt><trkpt lat="39.4055507" lon="17.0635913"><ele>50.0</ele><time>2026-03-29T12:38:10.778Z</time></trkpt><trkpt lat="39.4056061" lon="17.0637071"><ele>50.0</ele><time>2026-03-29T12:38:12.773Z</time></trkpt><trkpt lat="39.4056907" lon="17.0637936"><ele>50.0</ele><time>2026-03-29T12:38:14.777Z</time></trkpt><trkpt lat="39.4057898" lon="17.0638565"><ele>50.0</ele><time>2026-03-29T12:38:16.776Z</time></trkpt><trkpt lat="39.4058515" lon="17.0639402"><ele>50.0</ele><time>2026-03-29T12:38:18.781Z</time></trkpt><trkpt lat="39.4058764" lon="17.0640777"><ele>50.00000000000001</ele><time>2026-03-29T12:38:20.778Z</time></trkpt><trkpt lat="39.4058709" lon="17.0641672"><ele>50.0</ele><time>2026-03-29T12:38:21.798Z</time></trkpt><trkpt lat="39.4058682" lon="17.0642513"><ele>50.0</ele><time>2026-03-29T12:38:22.777Z</time></trkpt><trkpt lat="39.4058708" lon="17.064338"><ele>50.0</ele><time>2026-03-29T12:38:23.782Z</time></trkpt><trkpt lat="39.4058699" lon="17.0644211"><ele>50.00000000000001</ele><time>2026-03-29T12:38:24.783Z</time></trkpt><trkpt lat="39.4058635" lon="17.0645724"><ele>50.0</ele><time>2026-03-29T12:38:26.782Z</time></trkpt><trkpt lat="39.4058583" lon="17.0647303"><ele>50.0</ele><time>2026-03-29T12:38:28.788Z</time></trkpt><trkpt lat="39.4058643" lon="17.0648167"><ele>50.0</ele><time>2026-03-29T12:38:30.773Z</time></trkpt><trkpt lat="39.4058904" lon="17.0648986"><ele>50.0</ele><time>2026-03-29T12:38:37.793Z</time></trkpt><trkpt lat="39.4059107" lon="17.0649775"><ele>50.0</ele><time>2026-03-29T12:38:39.792Z</time></trkpt><trkpt lat="39.4059759" lon="17.0651165"><ele>50.0</ele><time>2026-03-29T12:38:41.785Z</time></trkpt><trkpt lat="39.4060452" lon="17.0652506"><ele>50.00000000000001</ele><time>2026-03-29T12:38:43.782Z</time></trkpt><trkpt lat="39.4060888" lon="17.0653176"><ele>50.0</ele><time>2026-03-29T12:38:44.781Z</time></trkpt><trkpt lat="39.4061064" lon="17.0654426"><ele>50.0</ele><time>2026-03-29T12:38:46.783Z</time></trkpt><trkpt lat="39.406088" lon="17.065522"><ele>50.0</ele><time>2026-03-29T12:38:47.784Z</time></trkpt><trkpt lat="39.4060344" lon="17.0656787"><ele>50.00000000000001</ele><time>2026-03-29T12:38:49.776Z</time></trkpt><trkpt lat="39.406004" lon="17.065752"><ele>50.0</ele><time>2026-03-29T12:38:50.786Z</time></trkpt><trkpt lat="39.4059552" lon="17.0658463"><ele>50.00000000000001</ele><time>2026-03-29T12:38:52.773Z</time></trkpt><trkpt lat="39.4059175" lon="17.0659483"><ele>50.0</ele><time>2026-03-29T12:38:55.782Z</time></trkpt><trkpt lat="39.4059049" lon="17.0660367"><ele>50.0</ele><time>2026-03-29T12:38:57.792Z</time></trkpt><trkpt lat="39.4058989" lon="17.0661351"><ele>50.0</ele><time>2026-03-29T12:38:59.772Z</time></trkpt><trkpt lat="39.4058853" lon="17.0662568"><ele>50.00000000000001</ele><time>2026-03-29T12:39:02.783Z</time></trkpt><trkpt lat="39.4058679" lon="17.0663626"><ele>50.0</ele><time>2026-03-29T12:39:04.782Z</time></trkpt><trkpt lat="39.4058541" lon="17.066449"><ele>50.00000000000001</ele><time>2026-03-29T12:39:06.781Z</time></trkpt><trkpt lat="39.4058277" lon="17.0665323"><ele>50.0</ele><time>2026-03-29T12:39:08.777Z</time></trkpt><trkpt lat="39.4057713" lon="17.0666057"><ele>50.0</ele><time>2026-03-29T12:39:10.786Z</time></trkpt><trkpt lat="39.405744" lon="17.0667183"><ele>50.0</ele><time>2026-03-29T12:39:12.775Z</time></trkpt><trkpt lat="39.4057481" lon="17.0668093"><ele>50.00000000000001</ele><time>2026-03-29T12:39:14.785Z</time></trkpt><trkpt lat="39.4057542" lon="17.0669234"><ele>50.0</ele><time>2026-03-29T12:39:16.785Z</time></trkpt><trkpt lat="39.4057631" lon="17.0670536"><ele>51.333333333333336</ele><time>2026-03-29T12:39:18.778Z</time></trkpt><trkpt lat="39.4057659" lon="17.0671929"><ele>52.66666666666667</ele><time>2026-03-29T12:39:20.783Z</time></trkpt><trkpt lat="39.4057634" lon="17.0673285"><ele>54.0</ele><time>2026-03-29T12:39:22.779Z</time></trkpt><trkpt lat="39.405756" lon="17.0674606"><ele>55.33333333333333</ele><time>2026-03-29T12:39:24.785Z</time></trkpt><trkpt lat="39.4057325" lon="17.0675436"><ele>56.666666666666664</ele><time>2026-03-29T12:39:25.789Z</time></trkpt><trkpt lat="39.4057125" lon="17.0676231"><ele>58.0</ele><time>2026-03-29T12:39:26.782Z</time></trkpt><trkpt lat="39.4056862" lon="17.0677076"><ele>60.33333333333333</ele><time>2026-03-29T12:39:27.781Z</time></trkpt><trkpt lat="39.4056643" lon="17.0677989"><ele>62.666666666666664</ele><time>2026-03-29T12:39:28.777Z</time></trkpt><trkpt lat="39.4056359" lon="17.0679171"><ele>65.0</ele><time>2026-03-29T12:39:29.787Z</time></trkpt><trkpt lat="39.4056007" lon="17.0680434"><ele>67.33333333333333</ele><time>2026-03-29T12:39:30.777Z</time></trkpt><trkpt lat="39.4055664" lon="17.0681509"><ele>69.66666666666667</ele><time>2026-03-29T12:39:31.782Z</time></trkpt><trkpt lat="39.4055336" lon="17.0682444"><ele>72.0</ele><time>2026-03-29T12:39:32.78Z</time></trkpt><trkpt lat="39.4054849" lon="17.0683306"><ele>73.16666666666667</ele><time>2026-03-29T12:39:33.792Z</time></trkpt><trkpt lat="39.4054248" lon="17.0684247"><ele>74.33333333333333</ele><time>2026-03-29T12:39:34.787Z</time></trkpt><trkpt lat="39.405356" lon="17.0685206"><ele>75.5</ele><time>2026-03-29T12:39:35.785Z</time></trkpt><trkpt lat="39.4052877" lon="17.068606"><ele>76.66666666666666</ele><time>2026-03-29T12:39:36.794Z</time></trkpt><trkpt lat="39.4052242" lon="17.0686819"><ele>77.83333333333333</ele><time>2026-03-29T12:39:37.783Z</time></trkpt><trkpt lat="39.4051748" lon="17.0687404"><ele>79.0</ele><time>2026-03-29T12:39:38.78Z</time></trkpt><trkpt lat="39.4050865" lon="17.0688486"><ele>79.0</ele><time>2026-03-29T12:39:40.791Z</time></trkpt><trkpt lat="39.4050291" lon="17.0688937"><ele>79.0</ele><time>2026-03-29T12:39:41.786Z</time></trkpt><trkpt lat="39.4049707" lon="17.0689379"><ele>79.0</ele><time>2026-03-29T12:39:42.781Z</time></trkpt><trkpt lat="39.4048925" lon="17.0689642"><ele>79.0</ele><time>2026-03-29T12:39:43.794Z</time></trkpt><trkpt lat="39.4048218" lon="17.068989"><ele>79.0</ele><time>2026-03-29T12:39:44.778Z</time></trkpt><trkpt lat="39.4047185" lon="17.0690413"><ele>79.0</ele><time>2026-03-29T12:39:46.785Z</time></trkpt><trkpt lat="39.4046263" lon="17.0691103"><ele>79.0</ele><time>2026-03-29T12:39:48.783Z</time></trkpt><trkpt lat="39.4045683" lon="17.0691639"><ele>79.0</ele><time>2026-03-29T12:39:49.775Z</time></trkpt><trkpt lat="39.4045068" lon="17.0692293"><ele>79.0</ele><time>2026-03-29T12:39:50.787Z</time></trkpt><trkpt lat="39.4044449" lon="17.069305"><ele>79.0</ele><time>2026-03-29T12:39:51.8Z</time></trkpt><trkpt lat="39.4043824" lon="17.0693956"><ele>79.0</ele><time>2026-03-29T12:39:52.791Z</time></trkpt><trkpt lat="39.4043085" lon="17.0694956"><ele>79.0</ele><time>2026-03-29T12:39:53.773Z</time></trkpt><trkpt lat="39.4042316" lon="17.0695981"><ele>79.0</ele><time>2026-03-29T12:39:54.786Z</time></trkpt><trkpt lat="39.4041499" lon="17.0697024"><ele>79.0</ele><time>2026-03-29T12:39:55.781Z</time></trkpt><trkpt lat="39.4040649" lon="17.0698117"><ele>79.0</ele><time>2026-03-29T12:39:56.778Z</time></trkpt><trkpt lat="39.4039641" lon="17.0699434"><ele>79.0</ele><time>2026-03-29T12:39:57.788Z</time></trkpt><trkpt lat="39.4038492" lon="17.0700966"><ele>79.75</ele><time>2026-03-29T12:39:58.786Z</time></trkpt><trkpt lat="39.4037386" lon="17.0702392"><ele>80.5</ele><time>2026-03-29T12:39:59.778Z</time></trkpt><trkpt lat="39.4036348" lon="17.0703729"><ele>81.25</ele><time>2026-03-29T12:40:00.782Z</time></trkpt><trkpt lat="39.4035414" lon="17.0705004"><ele>82.0</ele><time>2026-03-29T12:40:01.783Z</time></trkpt><trkpt lat="39.4034468" lon="17.0706252"><ele>82.0</ele><time>2026-03-29T12:40:02.785Z</time></trkpt><trkpt lat="39.4033478" lon="17.0707379"><ele>82.0</ele><time>2026-03-29T12:40:03.795Z</time></trkpt><trkpt lat="39.4032428" lon="17.0708334"><ele>82.0</ele><time>2026-03-29T12:40:04.782Z</time></trkpt><trkpt lat="39.4031268" lon="17.0709143"><ele>82.0</ele><time>2026-03-29T12:40:05.783Z</time></trkpt><trkpt lat="39.4030005" lon="17.0709822"><ele>81.75</ele><time>2026-03-29T12:40:06.776Z</time></trkpt><trkpt lat="39.4028677" lon="17.071032"><ele>81.5</ele><time>2026-03-29T12:40:07.781Z</time></trkpt><trkpt lat="39.4027289" lon="17.0710595"><ele>81.25</ele><time>2026-03-29T12:40:08.79Z</time></trkpt><trkpt lat="39.4025785" lon="17.0710627"><ele>81.0</ele><time>2026-03-29T12:40:09.784Z</time></trkpt><trkpt lat="39.4024038" lon="17.0710557"><ele>81.0</ele><time>2026-03-29T12:40:10.781Z</time></trkpt><trkpt lat="39.4022147" lon="17.0710486"><ele>81.0</ele><time>2026-03-29T12:40:11.774Z</time></trkpt><trkpt lat="39.4020384" lon="17.0710415"><ele>81.0</ele><time>2026-03-29T12:40:12.78Z</time></trkpt><trkpt lat="39.4018801" lon="17.0710401"><ele>80.75</ele><time>2026-03-29T12:40:13.794Z</time></trkpt><trkpt lat="39.4017353" lon="17.071045"><ele>80.5</ele><time>2026-03-29T12:40:14.782Z</time></trkpt><trkpt lat="39.4016014" lon="17.0710551"><ele>80.25</ele><time>2026-03-29T12:40:15.775Z</time></trkpt><trkpt lat="39.4014725" lon="17.0710667"><ele>80.0</ele><time>2026-03-29T12:40:16.783Z</time></trkpt><trkpt lat="39.4013425" lon="17.0710816"><ele>79.75</ele><time>2026-03-29T12:40:17.796Z</time></trkpt><trkpt lat="39.4012176" lon="17.0710935"><ele>79.5</ele><time>2026-03-29T12:40:18.788Z</time></trkpt><trkpt lat="39.401093" lon="17.0711023"><ele>79.25</ele><time>2026-03-29T12:40:19.783Z</time></trkpt><trkpt lat="39.4009687" lon="17.0711156"><ele>79.0</ele><time>2026-03-29T12:40:20.784Z</time></trkpt><trkpt lat="39.4008428" lon="17.0711312"><ele>79.0</ele><time>2026-03-29T12:40:21.791Z</time></trkpt><trkpt lat="39.4007157" lon="17.0711468"><ele>79.0</ele><time>2026-03-29T12:40:22.788Z</time></trkpt><trkpt lat="39.4005864" lon="17.071165"><ele>79.0</ele><time>2026-03-29T12:40:23.778Z</time></trkpt><trkpt lat="39.4004568" lon="17.0711841"><ele>79.0</ele><time>2026-03-29T12:40:24.777Z</time></trkpt><trkpt lat="39.4003265" lon="17.0712073"><ele>80.25</ele><time>2026-03-29T12:40:25.794Z</time></trkpt><trkpt lat="39.4001959" lon="17.0712426"><ele>81.5</ele><time>2026-03-29T12:40:26.777Z</time></trkpt><trkpt lat="39.4000649" lon="17.0712939"><ele>82.75</ele><time>2026-03-29T12:40:27.794Z</time></trkpt><trkpt lat="39.3999319" lon="17.0713609"><ele>84.0</ele><time>2026-03-29T12:40:28.787Z</time></trkpt><trkpt lat="39.3997968" lon="17.0714417"><ele>85.33333333333333</ele><time>2026-03-29T12:40:29.792Z</time></trkpt><trkpt lat="39.3996594" lon="17.0715299"><ele>86.66666666666666</ele><time>2026-03-29T12:40:30.786Z</time></trkpt><trkpt lat="39.399519" lon="17.0716198"><ele>88.0</ele><time>2026-03-29T12:40:31.808Z</time></trkpt><trkpt lat="39.3993752" lon="17.0717037"><ele>88.0</ele><time>2026-03-29T12:40:32.78Z</time></trkpt><trkpt lat="39.3992231" lon="17.0717749"><ele>88.0</ele><time>2026-03-29T12:40:33.792Z</time></trkpt><trkpt lat="39.3990665" lon="17.0718362"><ele>88.0</ele><time>2026-03-29T12:40:34.792Z</time></trkpt><trkpt lat="39.3989067" lon="17.0718925"><ele>89.33333333333333</ele><time>2026-03-29T12:40:35.792Z</time></trkpt><trkpt lat="39.3987443" lon="17.0719496"><ele>90.66666666666667</ele><time>2026-03-29T12:40:36.785Z</time></trkpt><trkpt lat="39.3985819" lon="17.0720074"><ele>92.0</ele><time>2026-03-29T12:40:37.775Z</time></trkpt><trkpt lat="39.398419" lon="17.0720676"><ele>92.0</ele><time>2026-03-29T12:40:38.778Z</time></trkpt><trkpt lat="39.3982566" lon="17.0721279"><ele>92.0</ele><time>2026-03-29T12:40:39.791Z</time></trkpt><trkpt lat="39.3980968" lon="17.0721912"><ele>92.0</ele><time>2026-03-29T12:40:40.78Z</time></trkpt><trkpt lat="39.3979391" lon="17.072263"><ele>91.0</ele><time>2026-03-29T12:40:41.786Z</time></trkpt><trkpt lat="39.3977823" lon="17.0723472"><ele>90.0</ele><time>2026-03-29T12:40:42.78Z</time></trkpt><trkpt lat="39.3976373" lon="17.0724361"><ele>89.0</ele><time>2026-03-29T12:40:43.794Z</time></trkpt><trkpt lat="39.3974978" lon="17.0725298"><ele>89.0</ele><time>2026-03-29T12:40:44.784Z</time></trkpt><trkpt lat="39.3973558" lon="17.0726236"><ele>89.0</ele><time>2026-03-29T12:40:45.79Z</time></trkpt><trkpt lat="39.3972044" lon="17.0727262"><ele>89.0</ele><time>2026-03-29T12:40:46.784Z</time></trkpt><trkpt lat="39.3970582" lon="17.0728297"><ele>91.66666666666667</ele><time>2026-03-29T12:40:47.779Z</time></trkpt><trkpt lat="39.3969204" lon="17.0729269"><ele>94.33333333333334</ele><time>2026-03-29T12:40:48.781Z</time></trkpt><trkpt lat="39.3967796" lon="17.0730283"><ele>97.0</ele><time>2026-03-29T12:40:49.786Z</time></trkpt><trkpt lat="39.3966362" lon="17.0731351"><ele>97.0</ele><time>2026-03-29T12:40:50.779Z</time></trkpt><trkpt lat="39.3964945" lon="17.0732482"><ele>97.0</ele><time>2026-03-29T12:40:51.786Z</time></trkpt><trkpt lat="39.3963568" lon="17.0733672"><ele>97.0</ele><time>2026-03-29T12:40:52.778Z</time></trkpt><trkpt lat="39.3962233" lon="17.0734859"><ele>97.0</ele><time>2026-03-29T12:40:53.787Z</time></trkpt><trkpt lat="39.3961066" lon="17.0735881"><ele>97.0</ele><time>2026-03-29T12:40:54.774Z</time></trkpt><trkpt lat="39.3960159" lon="17.0736646"><ele>97.0</ele><time>2026-03-29T12:40:55.782Z</time></trkpt><trkpt lat="39.3959444" lon="17.0737212"><ele>97.0</ele><time>2026-03-29T12:40:56.794Z</time></trkpt><trkpt lat="39.395883" lon="17.0737679"><ele>97.0</ele><time>2026-03-29T12:40:57.795Z</time></trkpt><trkpt lat="39.3958029" lon="17.0738514"><ele>97.0</ele><time>2026-03-29T12:40:59.777Z</time></trkpt><trkpt lat="39.3958293" lon="17.0739435"><ele>97.0</ele><time>2026-03-29T12:41:03.785Z</time></trkpt><trkpt lat="39.3958991" lon="17.0739377"><ele>97.0</ele><time>2026-03-29T12:41:05.792Z</time></trkpt><trkpt lat="39.3959628" lon="17.0739704"><ele>97.0</ele><time>2026-03-29T12:41:07.793Z</time></trkpt><trkpt lat="39.3960313" lon="17.073998"><ele>97.0</ele><time>2026-03-29T12:41:10.784Z</time></trkpt><trkpt lat="39.3961177" lon="17.0740091"><ele>97.0</ele><time>2026-03-29T12:41:12.779Z</time></trkpt><trkpt lat="39.3961845" lon="17.0739911"><ele>97.0</ele><time>2026-03-29T12:41:13.787Z</time></trkpt><trkpt lat="39.396255" lon="17.0739621"><ele>97.0</ele><time>2026-03-29T12:41:14.777Z</time></trkpt><trkpt lat="39.3963316" lon="17.0739566"><ele>97.0</ele><time>2026-03-29T12:41:15.787Z</time></trkpt><trkpt lat="39.3964182" lon="17.0739575"><ele>97.0</ele><time>2026-03-29T12:41:16.781Z</time></trkpt><trkpt lat="39.3965101" lon="17.0740175"><ele>97.0</ele><time>2026-03-29T12:41:17.778Z</time></trkpt><trkpt lat="39.3965877" lon="17.0740956"><ele>97.0</ele><time>2026-03-29T12:41:18.784Z</time></trkpt><trkpt lat="39.3966861" lon="17.0742262"><ele>94.75</ele><time>2026-03-29T12:41:19.784Z</time></trkpt><trkpt lat="39.3967765" lon="17.0743607"><ele>92.5</ele><time>2026-03-29T12:41:20.78Z</time></trkpt><trkpt lat="39.3968571" lon="17.0744914"><ele>90.25</ele><time>2026-03-29T12:41:21.782Z</time></trkpt><trkpt lat="39.3969406" lon="17.0746079"><ele>88.0</ele><time>2026-03-29T12:41:22.788Z</time></trkpt><trkpt lat="39.3970096" lon="17.0747085"><ele>88.0</ele><time>2026-03-29T12:41:23.796Z</time></trkpt><trkpt lat="39.3971008" lon="17.0748061"><ele>88.0</ele><time>2026-03-29T12:41:24.779Z</time></trkpt><trkpt lat="39.3972119" lon="17.0749052"><ele>88.0</ele><time>2026-03-29T12:41:25.777Z</time></trkpt><trkpt lat="39.3973273" lon="17.0750085"><ele>88.0</ele><time>2026-03-29T12:41:26.781Z</time></trkpt><trkpt lat="39.3974478" lon="17.0751087"><ele>86.25</ele><time>2026-03-29T12:41:27.785Z</time></trkpt><trkpt lat="39.3975618" lon="17.0752196"><ele>84.5</ele><time>2026-03-29T12:41:28.782Z</time></trkpt><trkpt lat="39.3976635" lon="17.0753268"><ele>82.75</ele><time>2026-03-29T12:41:29.781Z</time></trkpt><trkpt lat="39.3977812" lon="17.0754244"><ele>81.0</ele><time>2026-03-29T12:41:30.784Z</time></trkpt><trkpt lat="39.3978976" lon="17.0755291"><ele>80.5</ele><time>2026-03-29T12:41:31.784Z</time></trkpt><trkpt lat="39.3980035" lon="17.0756315"><ele>80.0</ele><time>2026-03-29T12:41:32.772Z</time></trkpt><trkpt lat="39.398091" lon="17.0757149"><ele>79.5</ele><time>2026-03-29T12:41:33.781Z</time></trkpt><trkpt lat="39.3982001" lon="17.0757492"><ele>79.0</ele><time>2026-03-29T12:41:34.785Z</time></trkpt><trkpt lat="39.3983221" lon="17.0758015"><ele>79.0</ele><time>2026-03-29T12:41:35.796Z</time></trkpt><trkpt lat="39.3984429" lon="17.075834"><ele>79.0</ele><time>2026-03-29T12:41:36.781Z</time></trkpt><trkpt lat="39.3985521" lon="17.0759133"><ele>79.0</ele><time>2026-03-29T12:41:37.792Z</time></trkpt><trkpt lat="39.3986644" lon="17.0760022"><ele>79.0</ele><time>2026-03-29T12:41:38.795Z</time></trkpt><trkpt lat="39.3987882" lon="17.0760863"><ele>78.0</ele><time>2026-03-29T12:41:39.801Z</time></trkpt><trkpt lat="39.3989153" lon="17.0761768"><ele>77.0</ele><time>2026-03-29T12:41:40.777Z</time></trkpt><trkpt lat="39.3990383" lon="17.0762626"><ele>76.0</ele><time>2026-03-29T12:41:41.79Z</time></trkpt><trkpt lat="39.3991507" lon="17.0763451"><ele>75.0</ele><time>2026-03-29T12:41:42.782Z</time></trkpt><trkpt lat="39.399245" lon="17.0763871"><ele>75.0</ele><time>2026-03-29T12:41:43.794Z</time></trkpt><trkpt lat="39.3993454" lon="17.0764542"><ele>75.0</ele><time>2026-03-29T12:41:44.784Z</time></trkpt><trkpt lat="39.3994275" lon="17.0765343"><ele>75.0</ele><time>2026-03-29T12:41:45.786Z</time></trkpt><trkpt lat="39.3995072" lon="17.0766422"><ele>75.0</ele><time>2026-03-29T12:41:46.785Z</time></trkpt><trkpt lat="39.3995976" lon="17.0767594"><ele>73.75</ele><time>2026-03-29T12:41:47.799Z</time></trkpt><trkpt lat="39.3996855" lon="17.0768833"><ele>72.5</ele><time>2026-03-29T12:41:48.785Z</time></trkpt><trkpt lat="39.3997889" lon="17.0769917"><ele>71.25</ele><time>2026-03-29T12:41:49.787Z</time></trkpt><trkpt lat="39.3999006" lon="17.0771106"><ele>70.0</ele><time>2026-03-29T12:41:50.787Z</time></trkpt><trkpt lat="39.4000058" lon="17.0772478"><ele>70.0</ele><time>2026-03-29T12:41:51.792Z</time></trkpt><trkpt lat="39.4001151" lon="17.0774055"><ele>70.0</ele><time>2026-03-29T12:41:52.779Z</time></trkpt><trkpt lat="39.4002171" lon="17.0775643"><ele>70.0</ele><time>2026-03-29T12:41:53.78Z</time></trkpt><trkpt lat="39.4003111" lon="17.0777017"><ele>70.0</ele><time>2026-03-29T12:41:54.787Z</time></trkpt><trkpt lat="39.400395" lon="17.0778331"><ele>70.0</ele><time>2026-03-29T12:41:55.794Z</time></trkpt><trkpt lat="39.4004665" lon="17.0779506"><ele>70.0</ele><time>2026-03-29T12:41:56.781Z</time></trkpt><trkpt lat="39.4005348" lon="17.0780501"><ele>70.0</ele><time>2026-03-29T12:41:57.79Z</time></trkpt><trkpt lat="39.4005951" lon="17.0781425"><ele>70.0</ele><time>2026-03-29T12:41:58.784Z</time></trkpt><trkpt lat="39.4006541" lon="17.0782224"><ele>69.66666666666666</ele><time>2026-03-29T12:41:59.791Z</time></trkpt><trkpt lat="39.4007088" lon="17.0783003"><ele>69.33333333333333</ele><time>2026-03-29T12:42:00.787Z</time></trkpt><trkpt lat="39.400774" lon="17.0783614"><ele>69.0</ele><time>2026-03-29T12:42:01.79Z</time></trkpt><trkpt lat="39.4008545" lon="17.0784209"><ele>68.66666666666667</ele><time>2026-03-29T12:42:02.783Z</time></trkpt><trkpt lat="39.4009396" lon="17.0784675"><ele>68.33333333333334</ele><time>2026-03-29T12:42:03.79Z</time></trkpt><trkpt lat="39.401023" lon="17.0785013"><ele>68.0</ele><time>2026-03-29T12:42:04.784Z</time></trkpt><trkpt lat="39.4011097" lon="17.0785392"><ele>68.0</ele><time>2026-03-29T12:42:05.791Z</time></trkpt><trkpt lat="39.4011763" lon="17.0785903"><ele>68.0</ele><time>2026-03-29T12:42:06.782Z</time></trkpt><trkpt lat="39.401243" lon="17.0786524"><ele>68.0</ele><time>2026-03-29T12:42:07.79Z</time></trkpt><trkpt lat="39.4013055" lon="17.0787121"><ele>68.0</ele><time>2026-03-29T12:42:08.779Z</time></trkpt><trkpt lat="39.4013756" lon="17.0787671"><ele>68.0</ele><time>2026-03-29T12:42:09.792Z</time></trkpt><trkpt lat="39.401455" lon="17.0788077"><ele>68.0</ele><time>2026-03-29T12:42:10.788Z</time></trkpt><trkpt lat="39.4015415" lon="17.0788418"><ele>68.2</ele><time>2026-03-29T12:42:11.79Z</time></trkpt><trkpt lat="39.4016347" lon="17.0788766"><ele>68.4</ele><time>2026-03-29T12:42:12.778Z</time></trkpt><trkpt lat="39.4017293" lon="17.0789104"><ele>68.60000000000001</ele><time>2026-03-29T12:42:13.781Z</time></trkpt><trkpt lat="39.4018237" lon="17.0789503"><ele>68.8</ele><time>2026-03-29T12:42:14.777Z</time></trkpt><trkpt lat="39.4019154" lon="17.0789871"><ele>69.0</ele><time>2026-03-29T12:42:15.79Z</time></trkpt><trkpt lat="39.4019902" lon="17.0790272"><ele>69.0</ele><time>2026-03-29T12:42:16.788Z</time></trkpt><trkpt lat="39.4020699" lon="17.0790361"><ele>69.0</ele><time>2026-03-29T12:42:17.786Z</time></trkpt><trkpt lat="39.402169" lon="17.0790255"><ele>69.0</ele><time>2026-03-29T12:42:18.789Z</time></trkpt><trkpt lat="39.4022679" lon="17.0790171"><ele>69.0</ele><time>2026-03-29T12:42:19.786Z</time></trkpt><trkpt lat="39.4023573" lon="17.0790159"><ele>69.0</ele><time>2026-03-29T12:42:20.78Z</time></trkpt><trkpt lat="39.4024393" lon="17.0790258"><ele>69.33333333333333</ele><time>2026-03-29T12:42:21.789Z</time></trkpt><trkpt lat="39.4025194" lon="17.0790639"><ele>69.66666666666667</ele><time>2026-03-29T12:42:22.782Z</time></trkpt><trkpt lat="39.4026025" lon="17.0791116"><ele>70.0</ele><time>2026-03-29T12:42:23.798Z</time></trkpt><trkpt lat="39.402681" lon="17.0791767"><ele>70.33333333333334</ele><time>2026-03-29T12:42:24.788Z</time></trkpt><trkpt lat="39.4027642" lon="17.0792414"><ele>70.66666666666667</ele><time>2026-03-29T12:42:25.795Z</time></trkpt><trkpt lat="39.4028268" lon="17.079297"><ele>71.0</ele><time>2026-03-29T12:42:26.776Z</time></trkpt><trkpt lat="39.4028993" lon="17.079353"><ele>71.0</ele><time>2026-03-29T12:42:27.79Z</time></trkpt><trkpt lat="39.402955" lon="17.0794023"><ele>71.0</ele><time>2026-03-29T12:42:28.789Z</time></trkpt><trkpt lat="39.4030161" lon="17.0794598"><ele>71.0</ele><time>2026-03-29T12:42:31.81Z</time></trkpt><trkpt lat="39.4030803" lon="17.0795193"><ele>71.0</ele><time>2026-03-29T12:42:33.786Z</time></trkpt><trkpt lat="39.4031359" lon="17.0795611"><ele>71.0</ele><time>2026-03-29T12:42:34.792Z</time></trkpt><trkpt lat="39.4032034" lon="17.0796103"><ele>71.0</ele><time>2026-03-29T12:42:35.784Z</time></trkpt><trkpt lat="39.4032681" lon="17.0796463"><ele>71.0</ele><time>2026-03-29T12:42:36.789Z</time></trkpt><trkpt lat="39.4033355" lon="17.0796852"><ele>70.14285714285714</ele><time>2026-03-29T12:42:37.786Z</time></trkpt><trkpt lat="39.4034046" lon="17.0797102"><ele>69.28571428571428</ele><time>2026-03-29T12:42:38.778Z</time></trkpt><trkpt lat="39.4034741" lon="17.0797422"><ele>68.42857142857143</ele><time>2026-03-29T12:42:39.776Z</time></trkpt><trkpt lat="39.4035527" lon="17.0797705"><ele>67.57142857142857</ele><time>2026-03-29T12:42:40.78Z</time></trkpt><trkpt lat="39.4036184" lon="17.0798045"><ele>66.71428571428572</ele><time>2026-03-29T12:42:41.786Z</time></trkpt><trkpt lat="39.4036889" lon="17.0798437"><ele>65.85714285714286</ele><time>2026-03-29T12:42:42.783Z</time></trkpt><trkpt lat="39.4037519" lon="17.0798786"><ele>65.0</ele><time>2026-03-29T12:42:43.78Z</time></trkpt><trkpt lat="39.4038097" lon="17.0799154"><ele>64.16666666666667</ele><time>2026-03-29T12:42:44.787Z</time></trkpt><trkpt lat="39.4039039" lon="17.0799652"><ele>63.333333333333336</ele><time>2026-03-29T12:42:46.779Z</time></trkpt><trkpt lat="39.403968" lon="17.0799953"><ele>62.5</ele><time>2026-03-29T12:42:48.787Z</time></trkpt><trkpt lat="39.4040612" lon="17.080041"><ele>61.66666666666667</ele><time>2026-03-29T12:42:50.78Z</time></trkpt><trkpt lat="39.4041311" lon="17.0800691"><ele>60.833333333333336</ele><time>2026-03-29T12:42:52.781Z</time></trkpt><trkpt lat="39.4042205" lon="17.0800706"><ele>60.0</ele><time>2026-03-29T12:42:56.777Z</time></trkpt><trkpt lat="39.404299" lon="17.0800661"><ele>60.0</ele><time>2026-03-29T12:42:58.781Z</time></trkpt><trkpt lat="39.4044043" lon="17.0800533"><ele>60.0</ele><time>2026-03-29T12:43:00.775Z</time></trkpt><trkpt lat="39.4045156" lon="17.0800286"><ele>60.0</ele><time>2026-03-29T12:43:02.783Z</time></trkpt><trkpt lat="39.4046234" lon="17.0800055"><ele>60.0</ele><time>2026-03-29T12:43:04.782Z</time></trkpt><trkpt lat="39.4047245" lon="17.0799985"><ele>60.0</ele><time>2026-03-29T12:43:06.782Z</time></trkpt><trkpt lat="39.404822" lon="17.0800091"><ele>59.4</ele><time>2026-03-29T12:43:08.78Z</time></trkpt><trkpt lat="39.404922" lon="17.0800128"><ele>58.8</ele><time>2026-03-29T12:43:10.785Z</time></trkpt><trkpt lat="39.4049868" lon="17.0800225"><ele>58.2</ele><time>2026-03-29T12:43:12.789Z</time></trkpt><trkpt lat="39.4050809" lon="17.08007"><ele>57.6</ele><time>2026-03-29T12:43:14.781Z</time></trkpt><trkpt lat="39.4051852" lon="17.0801625"><ele>57.0</ele><time>2026-03-29T12:43:16.778Z</time></trkpt><trkpt lat="39.4052423" lon="17.080204"><ele>57.0</ele><time>2026-03-29T12:43:17.786Z</time></trkpt><trkpt lat="39.4052984" lon="17.0802509"><ele>57.0</ele><time>2026-03-29T12:43:18.78Z</time></trkpt><trkpt lat="39.4053619" lon="17.0803078"><ele>57.0</ele><time>2026-03-29T12:43:19.777Z</time></trkpt><trkpt lat="39.4054367" lon="17.080385"><ele>57.0</ele><time>2026-03-29T12:43:20.785Z</time></trkpt><trkpt lat="39.4055275" lon="17.0804905"><ele>57.0</ele><time>2026-03-29T12:43:21.785Z</time></trkpt><trkpt lat="39.4056234" lon="17.0805981"><ele>57.2</ele><time>2026-03-29T12:43:22.782Z</time></trkpt><trkpt lat="39.4057124" lon="17.0806925"><ele>57.400000000000006</ele><time>2026-03-29T12:43:23.781Z</time></trkpt><trkpt lat="39.4057928" lon="17.0807846"><ele>57.599999999999994</ele><time>2026-03-29T12:43:24.779Z</time></trkpt><trkpt lat="39.4058632" lon="17.0808883"><ele>57.8</ele><time>2026-03-29T12:43:25.789Z</time></trkpt><trkpt lat="39.4059339" lon="17.0810027"><ele>58.0</ele><time>2026-03-29T12:43:26.778Z</time></trkpt><trkpt lat="39.4060088" lon="17.0811034"><ele>58.0</ele><time>2026-03-29T12:43:27.795Z</time></trkpt><trkpt lat="39.406092" lon="17.0811859"><ele>58.0</ele><time>2026-03-29T12:43:28.788Z</time></trkpt><trkpt lat="39.4061848" lon="17.0812506"><ele>58.0</ele><time>2026-03-29T12:43:29.79Z</time></trkpt><trkpt lat="39.4062818" lon="17.0813151"><ele>58.0</ele><time>2026-03-29T12:43:30.781Z</time></trkpt><trkpt lat="39.4063766" lon="17.0814096"><ele>58.0</ele><time>2026-03-29T12:43:31.78Z</time></trkpt><trkpt lat="39.4064641" lon="17.0814878"><ele>57.8</ele><time>2026-03-29T12:43:32.783Z</time></trkpt><trkpt lat="39.4065564" lon="17.0815512"><ele>57.599999999999994</ele><time>2026-03-29T12:43:33.787Z</time></trkpt><trkpt lat="39.4066344" lon="17.0816245"><ele>57.400000000000006</ele><time>2026-03-29T12:43:34.787Z</time></trkpt><trkpt lat="39.4067207" lon="17.0816765"><ele>57.2</ele><time>2026-03-29T12:43:35.796Z</time></trkpt><trkpt lat="39.4068097" lon="17.0817253"><ele>57.0</ele><time>2026-03-29T12:43:36.783Z</time></trkpt><trkpt lat="39.4068991" lon="17.081781"><ele>57.400000000000006</ele><time>2026-03-29T12:43:37.793Z</time></trkpt><trkpt lat="39.4069986" lon="17.0818295"><ele>57.800000000000004</ele><time>2026-03-29T12:43:38.793Z</time></trkpt><trkpt lat="39.4071007" lon="17.0818735"><ele>58.2</ele><time>2026-03-29T12:43:39.787Z</time></trkpt><trkpt lat="39.4071964" lon="17.0819168"><ele>58.6</ele><time>2026-03-29T12:43:40.786Z</time></trkpt><trkpt lat="39.4072779" lon="17.0819523"><ele>59.0</ele><time>2026-03-29T12:43:41.785Z</time></trkpt><trkpt lat="39.4073665" lon="17.0819905"><ele>59.400000000000006</ele><time>2026-03-29T12:43:42.781Z</time></trkpt><trkpt lat="39.4074584" lon="17.0820443"><ele>59.800000000000004</ele><time>2026-03-29T12:43:43.804Z</time></trkpt><trkpt lat="39.4075523" lon="17.082082"><ele>60.199999999999996</ele><time>2026-03-29T12:43:44.791Z</time></trkpt><trkpt lat="39.4076538" lon="17.0821174"><ele>60.599999999999994</ele><time>2026-03-29T12:43:45.791Z</time></trkpt><trkpt lat="39.4077452" lon="17.0821653"><ele>61.0</ele><time>2026-03-29T12:43:46.786Z</time></trkpt><trkpt lat="39.4078271" lon="17.0822102"><ele>61.0</ele><time>2026-03-29T12:43:47.79Z</time></trkpt><trkpt lat="39.4079052" lon="17.0822742"><ele>60.99999999999999</ele><time>2026-03-29T12:43:48.784Z</time></trkpt><trkpt lat="39.4079794" lon="17.0823378"><ele>60.99999999999999</ele><time>2026-03-29T12:43:49.796Z</time></trkpt><trkpt lat="39.4080584" lon="17.0824075"><ele>61.0</ele><time>2026-03-29T12:43:50.79Z</time></trkpt><trkpt lat="39.4081363" lon="17.0824786"><ele>61.0</ele><time>2026-03-29T12:43:51.786Z</time></trkpt><trkpt lat="39.4082142" lon="17.0825536"><ele>60.8</ele><time>2026-03-29T12:43:52.78Z</time></trkpt><trkpt lat="39.4082831" lon="17.082626"><ele>60.599999999999994</ele><time>2026-03-29T12:43:53.786Z</time></trkpt><trkpt lat="39.4083602" lon="17.0827022"><ele>60.4</ele><time>2026-03-29T12:43:54.783Z</time></trkpt><trkpt lat="39.4084544" lon="17.0827945"><ele>60.2</ele><time>2026-03-29T12:43:55.782Z</time></trkpt><trkpt lat="39.4085508" lon="17.0828841"><ele>60.0</ele><time>2026-03-29T12:43:56.776Z</time></trkpt><trkpt lat="39.4086524" lon="17.0829682"><ele>60.0</ele><time>2026-03-29T12:43:57.796Z</time></trkpt><trkpt lat="39.4087528" lon="17.0830478"><ele>60.0</ele><time>2026-03-29T12:43:58.785Z</time></trkpt><trkpt lat="39.4088493" lon="17.0831344"><ele>60.0</ele><time>2026-03-29T12:43:59.775Z</time></trkpt><trkpt lat="39.4089437" lon="17.0832148"><ele>60.0</ele><time>2026-03-29T12:44:00.791Z</time></trkpt><trkpt lat="39.4090393" lon="17.0832916"><ele>59.6</ele><time>2026-03-29T12:44:01.794Z</time></trkpt><trkpt lat="39.4091374" lon="17.0833647"><ele>59.2</ele><time>2026-03-29T12:44:02.789Z</time></trkpt><trkpt lat="39.4092345" lon="17.0834385"><ele>58.8</ele><time>2026-03-29T12:44:03.777Z</time></trkpt><trkpt lat="39.4093281" lon="17.0835132"><ele>58.4</ele><time>2026-03-29T12:44:04.784Z</time></trkpt><trkpt lat="39.4094186" lon="17.0835852"><ele>58.0</ele><time>2026-03-29T12:44:05.789Z</time></trkpt><trkpt lat="39.4095047" lon="17.0836537"><ele>58.0</ele><time>2026-03-29T12:44:06.784Z</time></trkpt><trkpt lat="39.4095923" lon="17.0837164"><ele>58.0</ele><time>2026-03-29T12:44:07.781Z</time></trkpt><trkpt lat="39.40966" lon="17.0837813"><ele>58.0</ele><time>2026-03-29T12:44:08.782Z</time></trkpt><trkpt lat="39.4097148" lon="17.0838675"><ele>58.0</ele><time>2026-03-29T12:44:09.79Z</time></trkpt><trkpt lat="39.4097552" lon="17.0839812"><ele>58.0</ele><time>2026-03-29T12:44:10.782Z</time></trkpt><trkpt lat="39.4097863" lon="17.0841256"><ele>58.0</ele><time>2026-03-29T12:44:11.781Z</time></trkpt><trkpt lat="39.4098198" lon="17.084276"><ele>58.0</ele><time>2026-03-29T12:44:12.782Z</time></trkpt><trkpt lat="39.4098576" lon="17.0844186"><ele>58.0</ele><time>2026-03-29T12:44:13.79Z</time></trkpt><trkpt lat="39.4098992" lon="17.0845559"><ele>58.0</ele><time>2026-03-29T12:44:14.78Z</time></trkpt><trkpt lat="39.4099442" lon="17.084692"><ele>57.99999999999999</ele><time>2026-03-29T12:44:15.778Z</time></trkpt><trkpt lat="39.409988" lon="17.0848137"><ele>58.0</ele><time>2026-03-29T12:44:16.782Z</time></trkpt><trkpt lat="39.4100342" lon="17.0849167"><ele>58.0</ele><time>2026-03-29T12:44:17.788Z</time></trkpt><trkpt lat="39.4100737" lon="17.0850107"><ele>58.0</ele><time>2026-03-29T12:44:18.78Z</time></trkpt><trkpt lat="39.4101077" lon="17.0851094"><ele>57.99999999999999</ele><time>2026-03-29T12:44:19.778Z</time></trkpt><trkpt lat="39.4101375" lon="17.0852109"><ele>58.0</ele><time>2026-03-29T12:44:20.791Z</time></trkpt><trkpt lat="39.4101632" lon="17.0853186"><ele>57.599999999999994</ele><time>2026-03-29T12:44:21.799Z</time></trkpt><trkpt lat="39.4101865" lon="17.0854302"><ele>57.199999999999996</ele><time>2026-03-29T12:44:22.79Z</time></trkpt><trkpt lat="39.4102101" lon="17.0855446"><ele>56.8</ele><time>2026-03-29T12:44:23.782Z</time></trkpt><trkpt lat="39.4102305" lon="17.0856652"><ele>56.4</ele><time>2026-03-29T12:44:24.786Z</time></trkpt><trkpt lat="39.4102438" lon="17.0857843"><ele>56.0</ele><time>2026-03-29T12:44:25.792Z</time></trkpt><trkpt lat="39.4102596" lon="17.085903"><ele>55.599999999999994</ele><time>2026-03-29T12:44:26.788Z</time></trkpt><trkpt lat="39.4102771" lon="17.0860203"><ele>55.199999999999996</ele><time>2026-03-29T12:44:27.784Z</time></trkpt><trkpt lat="39.4102921" lon="17.0861399"><ele>54.800000000000004</ele><time>2026-03-29T12:44:28.782Z</time></trkpt><trkpt lat="39.41031" lon="17.0862677"><ele>54.400000000000006</ele><time>2026-03-29T12:44:29.789Z</time></trkpt><trkpt lat="39.4103329" lon="17.086408"><ele>54.0</ele><time>2026-03-29T12:44:30.785Z</time></trkpt><trkpt lat="39.4103589" lon="17.0865579"><ele>54.0</ele><time>2026-03-29T12:44:31.781Z</time></trkpt><trkpt lat="39.4103844" lon="17.0866942"><ele>54.00000000000001</ele><time>2026-03-29T12:44:32.786Z</time></trkpt><trkpt lat="39.4104097" lon="17.086828"><ele>54.00000000000001</ele><time>2026-03-29T12:44:33.781Z</time></trkpt><trkpt lat="39.4104393" lon="17.0869571"><ele>54.0</ele><time>2026-03-29T12:44:34.785Z</time></trkpt><trkpt lat="39.4104762" lon="17.0870837"><ele>54.0</ele><time>2026-03-29T12:44:35.785Z</time></trkpt><trkpt lat="39.4105133" lon="17.0872104"><ele>53.6</ele><time>2026-03-29T12:44:36.79Z</time></trkpt><trkpt lat="39.4105502" lon="17.0873466"><ele>53.2</ele><time>2026-03-29T12:44:37.793Z</time></trkpt><trkpt lat="39.4105917" lon="17.0874755"><ele>52.800000000000004</ele><time>2026-03-29T12:44:38.787Z</time></trkpt><trkpt lat="39.4106291" lon="17.0876059"><ele>52.400000000000006</ele><time>2026-03-29T12:44:39.778Z</time></trkpt><trkpt lat="39.4106592" lon="17.0877341"><ele>52.0</ele><time>2026-03-29T12:44:40.787Z</time></trkpt><trkpt lat="39.410684" lon="17.0878632"><ele>51.6</ele><time>2026-03-29T12:44:41.794Z</time></trkpt><trkpt lat="39.4107131" lon="17.0879934"><ele>51.2</ele><time>2026-03-29T12:44:42.783Z</time></trkpt><trkpt lat="39.4107434" lon="17.0881197"><ele>50.8</ele><time>2026-03-29T12:44:43.791Z</time></trkpt><trkpt lat="39.4107775" lon="17.0882413"><ele>50.4</ele><time>2026-03-29T12:44:44.793Z</time></trkpt><trkpt lat="39.4108153" lon="17.0883561"><ele>50.0</ele><time>2026-03-29T12:44:45.789Z</time></trkpt><trkpt lat="39.4108564" lon="17.0884727"><ele>49.66666666666667</ele><time>2026-03-29T12:44:46.78Z</time></trkpt><trkpt lat="39.4108953" lon="17.0885863"><ele>49.333333333333336</ele><time>2026-03-29T12:44:47.801Z</time></trkpt><trkpt lat="39.4109278" lon="17.0886902"><ele>49.0</ele><time>2026-03-29T12:44:48.782Z</time></trkpt><trkpt lat="39.4109606" lon="17.0887976"><ele>48.66666666666667</ele><time>2026-03-29T12:44:49.778Z</time></trkpt><trkpt lat="39.411001" lon="17.0889015"><ele>48.333333333333336</ele><time>2026-03-29T12:44:50.785Z</time></trkpt><trkpt lat="39.411043" lon="17.0890009"><ele>48.0</ele><time>2026-03-29T12:44:51.786Z</time></trkpt><trkpt lat="39.4110857" lon="17.0890963"><ele>47.2</ele><time>2026-03-29T12:44:52.788Z</time></trkpt><trkpt lat="39.4111225" lon="17.0891919"><ele>46.4</ele><time>2026-03-29T12:44:53.792Z</time></trkpt><trkpt lat="39.4111552" lon="17.0892664"><ele>45.6</ele><time>2026-03-29T12:44:54.792Z</time></trkpt><trkpt lat="39.4112294" lon="17.0893918"><ele>44.800000000000004</ele><time>2026-03-29T12:44:56.786Z</time></trkpt><trkpt lat="39.4112981" lon="17.0895048"><ele>44.0</ele><time>2026-03-29T12:44:58.782Z</time></trkpt><trkpt lat="39.4113664" lon="17.0896143"><ele>43.5</ele><time>2026-03-29T12:45:00.785Z</time></trkpt><trkpt lat="39.4114061" lon="17.0896876"><ele>43.0</ele><time>2026-03-29T12:45:01.802Z</time></trkpt><trkpt lat="39.4114446" lon="17.0897603"><ele>42.5</ele><time>2026-03-29T12:45:02.794Z</time></trkpt><trkpt lat="39.4114788" lon="17.0898387"><ele>42.0</ele><time>2026-03-29T12:45:03.791Z</time></trkpt><trkpt lat="39.4115084" lon="17.0899218"><ele>41.5</ele><time>2026-03-29T12:45:04.793Z</time></trkpt><trkpt lat="39.411533" lon="17.0899996"><ele>41.0</ele><time>2026-03-29T12:45:05.792Z</time></trkpt><trkpt lat="39.4115769" lon="17.0901432"><ele>39.599999999999994</ele><time>2026-03-29T12:45:07.797Z</time></trkpt><trkpt lat="39.4116122" lon="17.0902917"><ele>38.199999999999996</ele><time>2026-03-29T12:45:09.8Z</time></trkpt><trkpt lat="39.4116454" lon="17.0904441"><ele>36.8</ele><time>2026-03-29T12:45:11.787Z</time></trkpt><trkpt lat="39.4116657" lon="17.0905304"><ele>35.4</ele><time>2026-03-29T12:45:12.789Z</time></trkpt><trkpt lat="39.4116926" lon="17.090622"><ele>34.0</ele><time>2026-03-29T12:45:13.788Z</time></trkpt><trkpt lat="39.4117205" lon="17.0907137"><ele>32.0</ele><time>2026-03-29T12:45:14.781Z</time></trkpt><trkpt lat="39.411748" lon="17.0908113"><ele>30.0</ele><time>2026-03-29T12:45:15.787Z</time></trkpt><trkpt lat="39.411777" lon="17.0909223"><ele>28.0</ele><time>2026-03-29T12:45:16.782Z</time></trkpt><trkpt lat="39.4118058" lon="17.0910413"><ele>26.0</ele><time>2026-03-29T12:45:17.798Z</time></trkpt><trkpt lat="39.4118352" lon="17.0911618"><ele>24.0</ele><time>2026-03-29T12:45:18.789Z</time></trkpt><trkpt lat="39.4118606" lon="17.0912782"><ele>24.0</ele><time>2026-03-29T12:45:19.785Z</time></trkpt><trkpt lat="39.411884" lon="17.0913925"><ele>24.0</ele><time>2026-03-29T12:45:20.787Z</time></trkpt><trkpt lat="39.4118976" lon="17.0915017"><ele>24.0</ele><time>2026-03-29T12:45:21.799Z</time></trkpt><trkpt lat="39.4119095" lon="17.0916028"><ele>24.0</ele><time>2026-03-29T12:45:22.785Z</time></trkpt><trkpt lat="39.411915" lon="17.0916944"><ele>24.0</ele><time>2026-03-29T12:45:23.785Z</time></trkpt><trkpt lat="39.4119136" lon="17.0917759"><ele>24.0</ele><time>2026-03-29T12:45:24.782Z</time></trkpt><trkpt lat="39.4118805" lon="17.0918972"><ele>22.599999999999998</ele><time>2026-03-29T12:45:26.795Z</time></trkpt><trkpt lat="39.4118248" lon="17.0919636"><ele>21.2</ele><time>2026-03-29T12:45:28.785Z</time></trkpt><trkpt lat="39.411774" lon="17.0920576"><ele>19.799999999999997</ele><time>2026-03-29T12:45:30.781Z</time></trkpt><trkpt lat="39.4117874" lon="17.0921765"><ele>18.4</ele><time>2026-03-29T12:45:32.781Z</time></trkpt><trkpt lat="39.4118471" lon="17.0923256"><ele>17.0</ele><time>2026-03-29T12:45:34.779Z</time></trkpt><trkpt lat="39.4118889" lon="17.0924181"><ele>16.0</ele><time>2026-03-29T12:45:35.8Z</time></trkpt><trkpt lat="39.4119263" lon="17.0925153"><ele>15.0</ele><time>2026-03-29T12:45:36.784Z</time></trkpt><trkpt lat="39.4119523" lon="17.092617"><ele>14.0</ele><time>2026-03-29T12:45:37.78Z</time></trkpt><trkpt lat="39.4119636" lon="17.0927257"><ele>13.0</ele><time>2026-03-29T12:45:38.792Z</time></trkpt><trkpt lat="39.4119662" lon="17.0928397"><ele>12.0</ele><time>2026-03-29T12:45:39.789Z</time></trkpt><trkpt lat="39.4119566" lon="17.0929579"><ele>11.0</ele><time>2026-03-29T12:45:40.791Z</time></trkpt><trkpt lat="39.4119379" lon="17.093074"><ele>11.0</ele><time>2026-03-29T12:45:41.777Z</time></trkpt><trkpt lat="39.4119208" lon="17.0931793"><ele>11.0</ele><time>2026-03-29T12:45:42.776Z</time></trkpt><trkpt lat="39.4119135" lon="17.0932636"><ele>11.0</ele><time>2026-03-29T12:45:43.791Z</time></trkpt><trkpt lat="39.4118987" lon="17.0933559"><ele>11.0</ele><time>2026-03-29T12:45:45.789Z</time></trkpt><trkpt lat="39.411838" lon="17.0933819"><ele>11.0</ele><time>2026-03-29T12:45:47.784Z</time></trkpt><trkpt lat="39.4117138" lon="17.0933796"><ele>11.0</ele><time>2026-03-29T12:45:49.783Z</time></trkpt><trkpt lat="39.4116361" lon="17.093377"><ele>10.5</ele><time>2026-03-29T12:45:50.776Z</time></trkpt><trkpt lat="39.411547" lon="17.0933797"><ele>10.0</ele><time>2026-03-29T12:45:51.791Z</time></trkpt><trkpt lat="39.4114589" lon="17.0933991"><ele>9.5</ele><time>2026-03-29T12:45:52.789Z</time></trkpt><trkpt lat="39.4113741" lon="17.0934281"><ele>9.0</ele><time>2026-03-29T12:45:53.781Z</time></trkpt><trkpt lat="39.4112884" lon="17.0934553"><ele>8.5</ele><time>2026-03-29T12:45:54.778Z</time></trkpt><trkpt lat="39.4112036" lon="17.0934681"><ele>8.0</ele><time>2026-03-29T12:45:55.794Z</time></trkpt><trkpt lat="39.411122" lon="17.0934586"><ele>7.800000000000001</ele><time>2026-03-29T12:45:56.785Z</time></trkpt><trkpt lat="39.4110344" lon="17.0934364"><ele>7.6000000000000005</ele><time>2026-03-29T12:45:57.792Z</time></trkpt><trkpt lat="39.4109369" lon="17.093409"><ele>7.3999999999999995</ele><time>2026-03-29T12:45:58.783Z</time></trkpt><trkpt lat="39.4108497" lon="17.0933882"><ele>7.199999999999999</ele><time>2026-03-29T12:45:59.781Z</time></trkpt><trkpt lat="39.4107803" lon="17.093381"><ele>7.0</ele><time>2026-03-29T12:46:00.787Z</time></trkpt><trkpt lat="39.410674" lon="17.0933966"><ele>7.000000000000001</ele><time>2026-03-29T12:46:02.774Z</time></trkpt><trkpt lat="39.410548" lon="17.0934375"><ele>7.0</ele><time>2026-03-29T12:46:04.793Z</time></trkpt><trkpt lat="39.4104829" lon="17.0934667"><ele>7.0</ele><time>2026-03-29T12:46:05.788Z</time></trkpt><trkpt lat="39.4104153" lon="17.0934983"><ele>7.0</ele><time>2026-03-29T12:46:06.784Z</time></trkpt><trkpt lat="39.4103444" lon="17.0935303"><ele>7.000000000000001</ele><time>2026-03-29T12:46:07.785Z</time></trkpt><trkpt lat="39.4102756" lon="17.0935578"><ele>7.0</ele><time>2026-03-29T12:46:08.784Z</time></trkpt><trkpt lat="39.4102135" lon="17.0935843"><ele>7.500000000000001</ele><time>2026-03-29T12:46:10.776Z</time></trkpt><trkpt lat="39.4101795" lon="17.0937042"><ele>8.0</ele><time>2026-03-29T12:46:13.786Z</time></trkpt><trkpt lat="39.4102075" lon="17.0938194"><ele>8.5</ele><time>2026-03-29T12:46:15.788Z</time></trkpt><trkpt lat="39.4102317" lon="17.0939298"><ele>9.0</ele><time>2026-03-29T12:46:17.791Z</time></trkpt><trkpt lat="39.4102057" lon="17.0940105"><ele>9.5</ele><time>2026-03-29T12:46:19.781Z</time></trkpt><trkpt lat="39.410137" lon="17.0940702"><ele>10.0</ele><time>2026-03-29T12:46:21.787Z</time></trkpt><trkpt lat="39.4100303" lon="17.0941095"><ele>10.0</ele><time>2026-03-29T12:46:23.783Z</time></trkpt><trkpt lat="39.4099587" lon="17.0941331"><ele>10.0</ele><time>2026-03-29T12:46:25.776Z</time></trkpt><trkpt lat="39.4099048" lon="17.0941904"><ele>10.0</ele><time>2026-03-29T12:46:28.79Z</time></trkpt><trkpt lat="39.4098557" lon="17.0942708"><ele>10.0</ele><time>2026-03-29T12:46:31.792Z</time></trkpt><trkpt lat="39.409781" lon="17.0943111"><ele>10.0</ele><time>2026-03-29T12:46:34.78Z</time></trkpt><trkpt lat="39.4097137" lon="17.0942931"><ele>10.0</ele><time>2026-03-29T12:46:37.796Z</time></trkpt><trkpt lat="39.4096247" lon="17.0942356"><ele>9.8</ele><time>2026-03-29T12:46:39.784Z</time></trkpt><trkpt lat="39.4095198" lon="17.0941791"><ele>9.6</ele><time>2026-03-29T12:46:41.785Z</time></trkpt><trkpt lat="39.4094022" lon="17.0941374"><ele>9.4</ele><time>2026-03-29T12:46:43.789Z</time></trkpt><trkpt lat="39.4093402" lon="17.0941139"><ele>9.2</ele><time>2026-03-29T12:46:44.79Z</time></trkpt><trkpt lat="39.4092316" lon="17.0940561"><ele>9.0</ele><time>2026-03-29T12:46:46.788Z</time></trkpt><trkpt lat="39.4091317" lon="17.0939857"><ele>9.75</ele><time>2026-03-29T12:46:48.775Z</time></trkpt><trkpt lat="39.4090278" lon="17.0939349"><ele>10.5</ele><time>2026-03-29T12:46:50.784Z</time></trkpt><trkpt lat="39.4089177" lon="17.0938851"><ele>11.25</ele><time>2026-03-29T12:46:52.781Z</time></trkpt><trkpt lat="39.4088068" lon="17.09384"><ele>12.0</ele><time>2026-03-29T12:46:54.784Z</time></trkpt><trkpt lat="39.4086907" lon="17.0938294"><ele>12.0</ele><time>2026-03-29T12:46:56.78Z</time></trkpt><trkpt lat="39.4085775" lon="17.0938423"><ele>12.0</ele><time>2026-03-29T12:46:58.791Z</time></trkpt><trkpt lat="39.408465" lon="17.0938527"><ele>12.0</ele><time>2026-03-29T12:47:00.775Z</time></trkpt><trkpt lat="39.4083509" lon="17.093854"><ele>12.0</ele><time>2026-03-29T12:47:02.778Z</time></trkpt><trkpt lat="39.4082354" lon="17.0938536"><ele>11.999999999999998</ele><time>2026-03-29T12:47:04.776Z</time></trkpt><trkpt lat="39.4081579" lon="17.0938876"><ele>12.0</ele><time>2026-03-29T12:47:05.783Z</time></trkpt><trkpt lat="39.4080764" lon="17.0939171"><ele>12.0</ele><time>2026-03-29T12:47:06.786Z</time></trkpt><trkpt lat="39.4080049" lon="17.0939495"><ele>12.0</ele><time>2026-03-29T12:47:07.783Z</time></trkpt><trkpt lat="39.4079467" lon="17.0939906"><ele>12.0</ele><time>2026-03-29T12:47:08.783Z</time></trkpt><trkpt lat="39.4078898" lon="17.0940379"><ele>11.999999999999998</ele><time>2026-03-29T12:47:09.781Z</time></trkpt><trkpt lat="39.4078354" lon="17.094089"><ele>12.0</ele><time>2026-03-29T12:47:10.784Z</time></trkpt><trkpt lat="39.4077786" lon="17.094143"><ele>12.0</ele><time>2026-03-29T12:47:11.783Z</time></trkpt><trkpt lat="39.4077229" lon="17.094201"><ele>12.0</ele><time>2026-03-29T12:47:12.778Z</time></trkpt><trkpt lat="39.4076661" lon="17.0942517"><ele>12.0</ele><time>2026-03-29T12:47:13.774Z</time></trkpt><trkpt lat="39.4076136" lon="17.0943"><ele>12.0</ele><time>2026-03-29T12:47:14.775Z</time></trkpt><trkpt lat="39.407522" lon="17.0943882"><ele>12.0</ele><time>2026-03-29T12:47:16.783Z</time></trkpt><trkpt lat="39.407423" lon="17.0944893"><ele>12.0</ele><time>2026-03-29T12:47:18.783Z</time></trkpt><trkpt lat="39.4073691" lon="17.0945426"><ele>12.0</ele><time>2026-03-29T12:47:19.786Z</time></trkpt><trkpt lat="39.407318" lon="17.0946014"><ele>12.0</ele><time>2026-03-29T12:47:20.785Z</time></trkpt><trkpt lat="39.4072736" lon="17.0946633"><ele>12.0</ele><time>2026-03-29T12:47:21.796Z</time></trkpt><trkpt lat="39.4071876" lon="17.0947546"><ele>12.0</ele><time>2026-03-29T12:47:23.783Z</time></trkpt><trkpt lat="39.4071091" lon="17.0948306"><ele>12.0</ele><time>2026-03-29T12:47:25.779Z</time></trkpt><trkpt lat="39.4070396" lon="17.0948796"><ele>12.0</ele><time>2026-03-29T12:47:27.781Z</time></trkpt><trkpt lat="39.4069286" lon="17.0949382"><ele>12.166666666666666</ele><time>2026-03-29T12:47:29.79Z</time></trkpt><trkpt lat="39.406868" lon="17.0949667"><ele>12.333333333333332</ele><time>2026-03-29T12:47:30.774Z</time></trkpt><trkpt lat="39.406805" lon="17.0950008"><ele>12.5</ele><time>2026-03-29T12:47:31.785Z</time></trkpt><trkpt lat="39.4067395" lon="17.0950278"><ele>12.666666666666666</ele><time>2026-03-29T12:47:32.781Z</time></trkpt><trkpt lat="39.4066303" lon="17.095058"><ele>12.833333333333332</ele><time>2026-03-29T12:47:34.779Z</time></trkpt><trkpt lat="39.4065438" lon="17.0950874"><ele>13.0</ele><time>2026-03-29T12:47:37.781Z</time></trkpt><trkpt lat="39.4064715" lon="17.0951063"><ele>13.0</ele><time>2026-03-29T12:47:39.789Z</time></trkpt><trkpt lat="39.406368" lon="17.0951177"><ele>13.0</ele><time>2026-03-29T12:47:41.776Z</time></trkpt><trkpt lat="39.4062472" lon="17.095147"><ele>13.0</ele><time>2026-03-29T12:47:43.788Z</time></trkpt><trkpt lat="39.4061342" lon="17.0951791"><ele>13.0</ele><time>2026-03-29T12:47:45.802Z</time></trkpt><trkpt lat="39.4060625" lon="17.0952047"><ele>13.0</ele><time>2026-03-29T12:47:47.78Z</time></trkpt><trkpt lat="39.405996" lon="17.0952353"><ele>13.333333333333332</ele><time>2026-03-29T12:47:49.793Z</time></trkpt><trkpt lat="39.4059413" lon="17.0952816"><ele>13.666666666666666</ele><time>2026-03-29T12:47:51.778Z</time></trkpt><trkpt lat="39.4058877" lon="17.0953371"><ele>14.0</ele><time>2026-03-29T12:47:53.781Z</time></trkpt><trkpt lat="39.4058348" lon="17.095419"><ele>14.333333333333332</ele><time>2026-03-29T12:47:55.781Z</time></trkpt><trkpt lat="39.4057768" lon="17.0955345"><ele>14.666666666666666</ele><time>2026-03-29T12:47:57.784Z</time></trkpt><trkpt lat="39.4057191" lon="17.095631"><ele>15.0</ele><time>2026-03-29T12:47:59.786Z</time></trkpt><trkpt lat="39.4056533" lon="17.0957384"><ele>14.833333333333334</ele><time>2026-03-29T12:48:01.786Z</time></trkpt><trkpt lat="39.4056159" lon="17.0958052"><ele>14.666666666666668</ele><time>2026-03-29T12:48:02.778Z</time></trkpt><trkpt lat="39.4055769" lon="17.0958707"><ele>14.5</ele><time>2026-03-29T12:48:03.77Z</time></trkpt><trkpt lat="39.4055411" lon="17.0959428"><ele>14.333333333333334</ele><time>2026-03-29T12:48:04.774Z</time></trkpt><trkpt lat="39.4055016" lon="17.0960111"><ele>14.166666666666668</ele><time>2026-03-29T12:48:05.791Z</time></trkpt><trkpt lat="39.4054244" lon="17.0961225"><ele>14.0</ele><time>2026-03-29T12:48:07.779Z</time></trkpt><trkpt lat="39.4053413" lon="17.0962174"><ele>14.0</ele><time>2026-03-29T12:48:09.78Z</time></trkpt><trkpt lat="39.4052445" lon="17.0963177"><ele>14.0</ele><time>2026-03-29T12:48:11.781Z</time></trkpt><trkpt lat="39.4051526" lon="17.0964013"><ele>14.0</ele><time>2026-03-29T12:48:13.775Z</time></trkpt><trkpt lat="39.4050554" lon="17.0964624"><ele>14.0</ele><time>2026-03-29T12:48:15.778Z</time></trkpt><trkpt lat="39.4049501" lon="17.096479"><ele>14.0</ele><time>2026-03-29T12:48:17.783Z</time></trkpt><trkpt lat="39.4048664" lon="17.0964924"><ele>13.999999999999998</ele><time>2026-03-29T12:48:19.781Z</time></trkpt><trkpt lat="39.4047788" lon="17.0965121"><ele>13.999999999999998</ele><time>2026-03-29T12:48:21.775Z</time></trkpt><trkpt lat="39.4046724" lon="17.096526"><ele>14.0</ele><time>2026-03-29T12:48:23.787Z</time></trkpt><trkpt lat="39.4045585" lon="17.0965403"><ele>14.0</ele><time>2026-03-29T12:48:25.789Z</time></trkpt><trkpt lat="39.4044497" lon="17.0965679"><ele>14.2</ele><time>2026-03-29T12:48:27.784Z</time></trkpt><trkpt lat="39.4043496" lon="17.0965986"><ele>14.399999999999999</ele><time>2026-03-29T12:48:29.78Z</time></trkpt><trkpt lat="39.4042516" lon="17.0965918"><ele>14.6</ele><time>2026-03-29T12:48:31.786Z</time></trkpt><trkpt lat="39.4041441" lon="17.0965762"><ele>14.8</ele><time>2026-03-29T12:48:33.785Z</time></trkpt><trkpt lat="39.4040209" lon="17.0965398"><ele>15.0</ele><time>2026-03-29T12:48:35.794Z</time></trkpt><trkpt lat="39.4039549" lon="17.096518"><ele>15.6</ele><time>2026-03-29T12:48:36.779Z</time></trkpt><trkpt lat="39.4038854" lon="17.0964971"><ele>16.2</ele><time>2026-03-29T12:48:37.782Z</time></trkpt><trkpt lat="39.403822" lon="17.0964774"><ele>16.8</ele><time>2026-03-29T12:48:38.775Z</time></trkpt><trkpt lat="39.403702" lon="17.0964534"><ele>17.4</ele><time>2026-03-29T12:48:40.776Z</time></trkpt><trkpt lat="39.4035913" lon="17.0964512"><ele>18.0</ele><time>2026-03-29T12:48:42.775Z</time></trkpt><trkpt lat="39.4034963" lon="17.0964705"><ele>18.0</ele><time>2026-03-29T12:48:44.789Z</time></trkpt><trkpt lat="39.4034071" lon="17.0964688"><ele>18.0</ele><time>2026-03-29T12:48:46.785Z</time></trkpt><trkpt lat="39.40334" lon="17.096461"><ele>18.0</ele><time>2026-03-29T12:48:48.791Z</time></trkpt><trkpt lat="39.4032605" lon="17.0964857"><ele>18.0</ele><time>2026-03-29T12:48:51.795Z</time></trkpt><trkpt lat="39.4031838" lon="17.0965627"><ele>18.0</ele><time>2026-03-29T12:48:54.776Z</time></trkpt><trkpt lat="39.4031389" lon="17.096635"><ele>18.0</ele><time>2026-03-29T12:48:56.781Z</time></trkpt><trkpt lat="39.4030969" lon="17.0967162"><ele>18.0</ele><time>2026-03-29T12:48:58.776Z</time></trkpt><trkpt lat="39.4030718" lon="17.0968074"><ele>18.0</ele><time>2026-03-29T12:49:00.778Z</time></trkpt><trkpt lat="39.4030635" lon="17.0969033"><ele>18.0</ele><time>2026-03-29T12:49:02.787Z</time></trkpt><trkpt lat="39.4030162" lon="17.0970054"><ele>18.0</ele><time>2026-03-29T12:49:04.78Z</time></trkpt><trkpt lat="39.4029479" lon="17.0970638"><ele>18.0</ele><time>2026-03-29T12:49:06.781Z</time></trkpt><trkpt lat="39.4028845" lon="17.0970652"><ele>18.0</ele><time>2026-03-29T12:49:08.781Z</time></trkpt><trkpt lat="39.4028086" lon="17.0970715"><ele>18.166666666666668</ele><time>2026-03-29T12:49:11.786Z</time></trkpt><trkpt lat="39.4027444" lon="17.097066"><ele>18.333333333333332</ele><time>2026-03-29T12:49:14.79Z</time></trkpt><trkpt lat="39.402678" lon="17.0970876"><ele>18.5</ele><time>2026-03-29T12:49:16.789Z</time></trkpt><trkpt lat="39.4026018" lon="17.0971579"><ele>18.666666666666664</ele><time>2026-03-29T12:49:18.779Z</time></trkpt><trkpt lat="39.4025076" lon="17.0972576"><ele>18.833333333333332</ele><time>2026-03-29T12:49:20.781Z</time></trkpt><trkpt lat="39.4024543" lon="17.0973076"><ele>19.0</ele><time>2026-03-29T12:49:21.786Z</time></trkpt><trkpt lat="39.4023996" lon="17.097359"><ele>19.0</ele><time>2026-03-29T12:49:22.784Z</time></trkpt><trkpt lat="39.4023455" lon="17.0974082"><ele>19.0</ele><time>2026-03-29T12:49:23.788Z</time></trkpt><trkpt lat="39.4022601" lon="17.0974837"><ele>19.0</ele><time>2026-03-29T12:49:25.783Z</time></trkpt><trkpt lat="39.4021732" lon="17.0975884"><ele>19.0</ele><time>2026-03-29T12:49:27.791Z</time></trkpt><trkpt lat="39.4021536" lon="17.0976738"><ele>19.0</ele><time>2026-03-29T12:49:28.781Z</time></trkpt><trkpt lat="39.4021283" lon="17.0977568"><ele>19.0</ele><time>2026-03-29T12:49:29.779Z</time></trkpt><trkpt lat="39.402103" lon="17.0978337"><ele>19.4</ele><time>2026-03-29T12:49:30.787Z</time></trkpt><trkpt lat="39.4020208" lon="17.0979334"><ele>19.799999999999997</ele><time>2026-03-29T12:49:32.774Z</time></trkpt><trkpt lat="39.4019683" lon="17.0980022"><ele>20.200000000000003</ele><time>2026-03-29T12:49:35.783Z</time></trkpt><trkpt lat="39.401905" lon="17.0980913"><ele>20.6</ele><time>2026-03-29T12:49:41.745Z</time></trkpt><trkpt lat="39.4017893" lon="17.0981145"><ele>21.0</ele><time>2026-03-29T12:49:43.791Z</time></trkpt><trkpt lat="39.4016744" lon="17.0981372"><ele>21.0</ele><time>2026-03-29T12:49:45.781Z</time></trkpt><trkpt lat="39.4015584" lon="17.0981597"><ele>21.0</ele><time>2026-03-29T12:49:47.774Z</time></trkpt><trkpt lat="39.4014898" lon="17.0981662"><ele>21.0</ele><time>2026-03-29T12:49:48.778Z</time></trkpt><trkpt lat="39.4014249" lon="17.0981894"><ele>21.0</ele><time>2026-03-29T12:49:49.783Z</time></trkpt><trkpt lat="39.4013721" lon="17.0982376"><ele>21.0</ele><time>2026-03-29T12:49:50.778Z</time></trkpt><trkpt lat="39.4013253" lon="17.0983105"><ele>21.0</ele><time>2026-03-29T12:49:51.782Z</time></trkpt><trkpt lat="39.4012826" lon="17.0983915"><ele>21.333333333333332</ele><time>2026-03-29T12:49:52.785Z</time></trkpt><trkpt lat="39.401239" lon="17.0984771"><ele>21.666666666666668</ele><time>2026-03-29T12:49:53.786Z</time></trkpt><trkpt lat="39.4011888" lon="17.0985748"><ele>22.0</ele><time>2026-03-29T12:49:54.785Z</time></trkpt><trkpt lat="39.4011372" lon="17.0986771"><ele>22.333333333333336</ele><time>2026-03-29T12:49:55.786Z</time></trkpt><trkpt lat="39.4010937" lon="17.0987625"><ele>22.666666666666668</ele><time>2026-03-29T12:49:56.784Z</time></trkpt><trkpt lat="39.401054" lon="17.0988294"><ele>23.0</ele><time>2026-03-29T12:49:57.782Z</time></trkpt><trkpt lat="39.4010026" lon="17.0988917"><ele>23.0</ele><time>2026-03-29T12:49:58.775Z</time></trkpt><trkpt lat="39.4009413" lon="17.0989529"><ele>23.0</ele><time>2026-03-29T12:49:59.783Z</time></trkpt><trkpt lat="39.4008932" lon="17.0990722"><ele>23.0</ele><time>2026-03-29T12:50:01.773Z</time></trkpt><trkpt lat="39.4009583" lon="17.0991352"><ele>23.0</ele><time>2026-03-29T12:50:03.785Z</time></trkpt><trkpt lat="39.4010671" lon="17.0991232"><ele>23.0</ele><time>2026-03-29T12:50:05.795Z</time></trkpt><trkpt lat="39.4011982" lon="17.0991132"><ele>23.333333333333336</ele><time>2026-03-29T12:50:07.779Z</time></trkpt><trkpt lat="39.4012761" lon="17.0991241"><ele>23.666666666666668</ele><time>2026-03-29T12:50:08.779Z</time></trkpt><trkpt lat="39.4013594" lon="17.0991448"><ele>24.0</ele><time>2026-03-29T12:50:09.794Z</time></trkpt><trkpt lat="39.4014411" lon="17.0991697"><ele>24.333333333333336</ele><time>2026-03-29T12:50:10.786Z</time></trkpt><trkpt lat="39.4015187" lon="17.0992042"><ele>24.666666666666668</ele><time>2026-03-29T12:50:11.776Z</time></trkpt><trkpt lat="39.4015962" lon="17.0992385"><ele>25.0</ele><time>2026-03-29T12:50:12.781Z</time></trkpt><trkpt lat="39.4016619" lon="17.099293"><ele>26.6</ele><time>2026-03-29T12:50:13.789Z</time></trkpt><trkpt lat="39.4016907" lon="17.0993667"><ele>28.2</ele><time>2026-03-29T12:50:14.784Z</time></trkpt><trkpt lat="39.4016567" lon="17.0994898"><ele>29.799999999999997</ele><time>2026-03-29T12:50:16.791Z</time></trkpt><trkpt lat="39.4015814" lon="17.099522"><ele>31.4</ele><time>2026-03-29T12:50:17.788Z</time></trkpt><trkpt lat="39.4014803" lon="17.0995584"><ele>33.0</ele><time>2026-03-29T12:50:18.786Z</time></trkpt><trkpt lat="39.4013692" lon="17.0996339"><ele>34.25</ele><time>2026-03-29T12:50:19.776Z</time></trkpt><trkpt lat="39.4012691" lon="17.0997235"><ele>35.5</ele><time>2026-03-29T12:50:20.78Z</time></trkpt><trkpt lat="39.401184" lon="17.0998293"><ele>36.75</ele><time>2026-03-29T12:50:21.78Z</time></trkpt><trkpt lat="39.4011096" lon="17.0999488"><ele>38.0</ele><time>2026-03-29T12:50:22.782Z</time></trkpt><trkpt lat="39.4010365" lon="17.1000826"><ele>38.0</ele><time>2026-03-29T12:50:23.791Z</time></trkpt><trkpt lat="39.4009574" lon="17.1002272"><ele>38.0</ele><time>2026-03-29T12:50:24.784Z</time></trkpt><trkpt lat="39.4008858" lon="17.100361"><ele>38.0</ele><time>2026-03-29T12:50:25.783Z</time></trkpt><trkpt lat="39.4008269" lon="17.1004673"><ele>38.0</ele><time>2026-03-29T12:50:26.791Z</time></trkpt><trkpt lat="39.4007818" lon="17.1005581"><ele>38.0</ele><time>2026-03-29T12:50:27.788Z</time></trkpt><trkpt lat="39.4007466" lon="17.1006545"><ele>39.8</ele><time>2026-03-29T12:50:28.776Z</time></trkpt><trkpt lat="39.4007229" lon="17.1007612"><ele>41.599999999999994</ele><time>2026-03-29T12:50:29.796Z</time></trkpt><trkpt lat="39.4006963" lon="17.1008752"><ele>43.400000000000006</ele><time>2026-03-29T12:50:30.784Z</time></trkpt><trkpt lat="39.400652" lon="17.1009759"><ele>45.2</ele><time>2026-03-29T12:50:31.781Z</time></trkpt><trkpt lat="39.4005855" lon="17.1010633"><ele>47.0</ele><time>2026-03-29T12:50:32.788Z</time></trkpt><trkpt lat="39.4005" lon="17.1011449"><ele>46.5</ele><time>2026-03-29T12:50:33.802Z</time></trkpt><trkpt lat="39.400397" lon="17.1012269"><ele>46.0</ele><time>2026-03-29T12:50:34.79Z</time></trkpt><trkpt lat="39.4002734" lon="17.1013093"><ele>45.5</ele><time>2026-03-29T12:50:35.792Z</time></trkpt><trkpt lat="39.4001467" lon="17.1013831"><ele>45.0</ele><time>2026-03-29T12:50:36.787Z</time></trkpt><trkpt lat="39.4000201" lon="17.101441"><ele>45.0</ele><time>2026-03-29T12:50:37.794Z</time></trkpt><trkpt lat="39.3998847" lon="17.1014727"><ele>45.0</ele><time>2026-03-29T12:50:38.791Z</time></trkpt><trkpt lat="39.3997389" lon="17.1014813"><ele>45.0</ele><time>2026-03-29T12:50:39.798Z</time></trkpt><trkpt lat="39.3995987" lon="17.1014864"><ele>45.0</ele><time>2026-03-29T12:50:40.78Z</time></trkpt><trkpt lat="39.3994691" lon="17.1015006"><ele>45.25</ele><time>2026-03-29T12:50:41.799Z</time></trkpt><trkpt lat="39.3993484" lon="17.1015168"><ele>45.5</ele><time>2026-03-29T12:50:42.779Z</time></trkpt><trkpt lat="39.3992393" lon="17.1014883"><ele>45.75</ele><time>2026-03-29T12:50:43.792Z</time></trkpt><trkpt lat="39.3991396" lon="17.1014179"><ele>46.0</ele><time>2026-03-29T12:50:44.782Z</time></trkpt><trkpt lat="39.3990348" lon="17.1013115"><ele>46.0</ele><time>2026-03-29T12:50:45.79Z</time></trkpt><trkpt lat="39.3989264" lon="17.1012018"><ele>46.0</ele><time>2026-03-29T12:50:46.791Z</time></trkpt><trkpt lat="39.398807" lon="17.1011168"><ele>46.0</ele><time>2026-03-29T12:50:47.794Z</time></trkpt><trkpt lat="39.398666" lon="17.1010359"><ele>46.0</ele><time>2026-03-29T12:50:48.778Z</time></trkpt><trkpt lat="39.3985206" lon="17.1009565"><ele>46.75</ele><time>2026-03-29T12:50:49.791Z</time></trkpt><trkpt lat="39.3984025" lon="17.100895"><ele>47.5</ele><time>2026-03-29T12:50:50.776Z</time></trkpt><trkpt lat="39.3982991" lon="17.1008586"><ele>48.25</ele><time>2026-03-29T12:50:51.784Z</time></trkpt><trkpt lat="39.3981897" lon="17.1008487"><ele>49.0</ele><time>2026-03-29T12:50:52.787Z</time></trkpt><trkpt lat="39.3980707" lon="17.1008707"><ele>49.0</ele><time>2026-03-29T12:50:53.793Z</time></trkpt><trkpt lat="39.3979401" lon="17.1008939"><ele>49.0</ele><time>2026-03-29T12:50:54.783Z</time></trkpt><trkpt lat="39.3978032" lon="17.1009123"><ele>49.0</ele><time>2026-03-29T12:50:55.782Z</time></trkpt><trkpt lat="39.397671" lon="17.1009229"><ele>49.0</ele><time>2026-03-29T12:50:56.788Z</time></trkpt><trkpt lat="39.3975605" lon="17.100929"><ele>49.0</ele><time>2026-03-29T12:50:57.785Z</time></trkpt><trkpt lat="39.3974719" lon="17.1009444"><ele>49.0</ele><time>2026-03-29T12:50:58.788Z</time></trkpt><trkpt lat="39.3973981" lon="17.1009893"><ele>49.0</ele><time>2026-03-29T12:50:59.785Z</time></trkpt><trkpt lat="39.3973372" lon="17.1010815"><ele>49.0</ele><time>2026-03-29T12:51:00.779Z</time></trkpt><trkpt lat="39.3972897" lon="17.1012155"><ele>49.0</ele><time>2026-03-29T12:51:01.789Z</time></trkpt><trkpt lat="39.3972239" lon="17.1013539"><ele>49.5</ele><time>2026-03-29T12:51:02.783Z</time></trkpt><trkpt lat="39.3971489" lon="17.1014858"><ele>50.0</ele><time>2026-03-29T12:51:03.792Z</time></trkpt><trkpt lat="39.3970437" lon="17.1015785"><ele>50.5</ele><time>2026-03-29T12:51:04.787Z</time></trkpt><trkpt lat="39.3969215" lon="17.1016706"><ele>51.0</ele><time>2026-03-29T12:51:05.79Z</time></trkpt><trkpt lat="39.3967918" lon="17.1017609"><ele>51.25</ele><time>2026-03-29T12:51:06.783Z</time></trkpt><trkpt lat="39.3966563" lon="17.1018417"><ele>51.5</ele><time>2026-03-29T12:51:07.792Z</time></trkpt><trkpt lat="39.39652" lon="17.1018998"><ele>51.75</ele><time>2026-03-29T12:51:08.794Z</time></trkpt><trkpt lat="39.3963856" lon="17.101945"><ele>52.0</ele><time>2026-03-29T12:51:09.795Z</time></trkpt><trkpt lat="39.3962648" lon="17.10201"><ele>52.0</ele><time>2026-03-29T12:51:10.786Z</time></trkpt><trkpt lat="39.3961555" lon="17.1020857"><ele>52.0</ele><time>2026-03-29T12:51:11.784Z</time></trkpt><trkpt lat="39.3960491" lon="17.1021485"><ele>52.0</ele><time>2026-03-29T12:51:12.78Z</time></trkpt><trkpt lat="39.3959313" lon="17.1021902"><ele>52.0</ele><time>2026-03-29T12:51:13.799Z</time></trkpt><trkpt lat="39.3958064" lon="17.1022244"><ele>52.0</ele><time>2026-03-29T12:51:14.777Z</time></trkpt><trkpt lat="39.3956776" lon="17.102278"><ele>52.0</ele><time>2026-03-29T12:51:15.78Z</time></trkpt><trkpt lat="39.3955439" lon="17.1023617"><ele>52.0</ele><time>2026-03-29T12:51:16.785Z</time></trkpt><trkpt lat="39.3953932" lon="17.1024729"><ele>52.33333333333333</ele><time>2026-03-29T12:51:17.794Z</time></trkpt><trkpt lat="39.3952426" lon="17.1025799"><ele>52.66666666666667</ele><time>2026-03-29T12:51:18.782Z</time></trkpt><trkpt lat="39.3951027" lon="17.1026728"><ele>53.0</ele><time>2026-03-29T12:51:19.779Z</time></trkpt><trkpt lat="39.3949743" lon="17.1027523"><ele>53.0</ele><time>2026-03-29T12:51:20.784Z</time></trkpt><trkpt lat="39.3948506" lon="17.1028238"><ele>53.0</ele><time>2026-03-29T12:51:21.793Z</time></trkpt><trkpt lat="39.3947226" lon="17.1028982"><ele>53.0</ele><time>2026-03-29T12:51:22.776Z</time></trkpt><trkpt lat="39.3945882" lon="17.1029761"><ele>53.0</ele><time>2026-03-29T12:51:23.782Z</time></trkpt><trkpt lat="39.3944594" lon="17.1030415"><ele>52.75</ele><time>2026-03-29T12:51:24.783Z</time></trkpt><trkpt lat="39.3943413" lon="17.1030883"><ele>52.5</ele><time>2026-03-29T12:51:25.786Z</time></trkpt><trkpt lat="39.3942294" lon="17.1031276"><ele>52.25</ele><time>2026-03-29T12:51:26.784Z</time></trkpt><trkpt lat="39.3941126" lon="17.1031676"><ele>52.0</ele><time>2026-03-29T12:51:27.8Z</time></trkpt><trkpt lat="39.3939913" lon="17.1032063"><ele>52.0</ele><time>2026-03-29T12:51:28.793Z</time></trkpt><trkpt lat="39.3938756" lon="17.1032366"><ele>52.0</ele><time>2026-03-29T12:51:29.783Z</time></trkpt><trkpt lat="39.3937701" lon="17.1032469"><ele>52.0</ele><time>2026-03-29T12:51:30.786Z</time></trkpt><trkpt lat="39.3936707" lon="17.1032403"><ele>52.0</ele><time>2026-03-29T12:51:31.784Z</time></trkpt><trkpt lat="39.3935736" lon="17.1032241"><ele>52.0</ele><time>2026-03-29T12:51:32.79Z</time></trkpt><trkpt lat="39.393474" lon="17.1032022"><ele>52.400000000000006</ele><time>2026-03-29T12:51:33.787Z</time></trkpt><trkpt lat="39.3933678" lon="17.1031808"><ele>52.800000000000004</ele><time>2026-03-29T12:51:34.785Z</time></trkpt><trkpt lat="39.3932596" lon="17.1031665"><ele>53.2</ele><time>2026-03-29T12:51:35.784Z</time></trkpt><trkpt lat="39.3931541" lon="17.1031558"><ele>53.6</ele><time>2026-03-29T12:51:36.79Z</time></trkpt><trkpt lat="39.3930521" lon="17.1031469"><ele>54.0</ele><time>2026-03-29T12:51:37.795Z</time></trkpt><trkpt lat="39.3929436" lon="17.103136"><ele>54.75</ele><time>2026-03-29T12:51:38.782Z</time></trkpt><trkpt lat="39.3928156" lon="17.1031134"><ele>55.5</ele><time>2026-03-29T12:51:39.778Z</time></trkpt><trkpt lat="39.3926796" lon="17.1030785"><ele>56.25</ele><time>2026-03-29T12:51:40.779Z</time></trkpt><trkpt lat="39.3925532" lon="17.103038"><ele>57.0</ele><time>2026-03-29T12:51:41.8Z</time></trkpt><trkpt lat="39.3924358" lon="17.1029964"><ele>57.0</ele><time>2026-03-29T12:51:42.796Z</time></trkpt><trkpt lat="39.3923196" lon="17.1029575"><ele>57.0</ele><time>2026-03-29T12:51:43.789Z</time></trkpt><trkpt lat="39.3922096" lon="17.102921"><ele>57.0</ele><time>2026-03-29T12:51:44.785Z</time></trkpt><trkpt lat="39.3921049" lon="17.1028895"><ele>57.0</ele><time>2026-03-29T12:51:45.795Z</time></trkpt><trkpt lat="39.3920043" lon="17.1028613"><ele>57.0</ele><time>2026-03-29T12:51:46.785Z</time></trkpt><trkpt lat="39.3918999" lon="17.1028311"><ele>57.25</ele><time>2026-03-29T12:51:47.788Z</time></trkpt><trkpt lat="39.3917907" lon="17.1028027"><ele>57.5</ele><time>2026-03-29T12:51:48.779Z</time></trkpt><trkpt lat="39.391679" lon="17.1027784"><ele>57.75</ele><time>2026-03-29T12:51:49.787Z</time></trkpt><trkpt lat="39.3915661" lon="17.1027558"><ele>58.0</ele><time>2026-03-29T12:51:50.786Z</time></trkpt><trkpt lat="39.3914564" lon="17.1027366"><ele>58.0</ele><time>2026-03-29T12:51:51.795Z</time></trkpt><trkpt lat="39.3913501" lon="17.1027129"><ele>58.0</ele><time>2026-03-29T12:51:52.79Z</time></trkpt><trkpt lat="39.3912528" lon="17.1026854"><ele>58.0</ele><time>2026-03-29T12:51:53.79Z</time></trkpt><trkpt lat="39.3911542" lon="17.102663"><ele>58.0</ele><time>2026-03-29T12:51:54.787Z</time></trkpt><trkpt lat="39.391054" lon="17.1026415"><ele>58.0</ele><time>2026-03-29T12:51:55.802Z</time></trkpt><trkpt lat="39.3909501" lon="17.1026165"><ele>58.25</ele><time>2026-03-29T12:51:56.784Z</time></trkpt><trkpt lat="39.3908424" lon="17.1025878"><ele>58.5</ele><time>2026-03-29T12:51:57.79Z</time></trkpt><trkpt lat="39.3907322" lon="17.1025572"><ele>58.75</ele><time>2026-03-29T12:51:58.781Z</time></trkpt><trkpt lat="39.3906199" lon="17.1025245"><ele>59.0</ele><time>2026-03-29T12:51:59.794Z</time></trkpt><trkpt lat="39.390505" lon="17.1024922"><ele>59.0</ele><time>2026-03-29T12:52:00.785Z</time></trkpt><trkpt lat="39.3903897" lon="17.1024572"><ele>59.0</ele><time>2026-03-29T12:52:01.789Z</time></trkpt><trkpt lat="39.3902752" lon="17.1024175"><ele>59.0</ele><time>2026-03-29T12:52:02.789Z</time></trkpt><trkpt lat="39.3901603" lon="17.1023741"><ele>59.0</ele><time>2026-03-29T12:52:03.793Z</time></trkpt><trkpt lat="39.3900444" lon="17.1023271"><ele>59.0</ele><time>2026-03-29T12:52:04.788Z</time></trkpt><trkpt lat="39.3899284" lon="17.1022779"><ele>59.00000000000001</ele><time>2026-03-29T12:52:05.779Z</time></trkpt><trkpt lat="39.3898171" lon="17.1022363"><ele>59.00000000000001</ele><time>2026-03-29T12:52:06.783Z</time></trkpt><trkpt lat="39.3897282" lon="17.1022125"><ele>59.0</ele><time>2026-03-29T12:52:07.789Z</time></trkpt><trkpt lat="39.3896555" lon="17.1021925"><ele>59.0</ele><time>2026-03-29T12:52:08.788Z</time></trkpt><trkpt lat="39.3895522" lon="17.1021535"><ele>59.6</ele><time>2026-03-29T12:52:10.781Z</time></trkpt><trkpt lat="39.3894668" lon="17.1021339"><ele>60.2</ele><time>2026-03-29T12:52:12.785Z</time></trkpt><trkpt lat="39.3893356" lon="17.1021514"><ele>60.800000000000004</ele><time>2026-03-29T12:52:14.79Z</time></trkpt><trkpt lat="39.3892534" lon="17.1021727"><ele>61.400000000000006</ele><time>2026-03-29T12:52:15.782Z</time></trkpt><trkpt lat="39.3891581" lon="17.1021974"><ele>62.0</ele><time>2026-03-29T12:52:16.793Z</time></trkpt><trkpt lat="39.3890545" lon="17.1022228"><ele>62.0</ele><time>2026-03-29T12:52:17.788Z</time></trkpt><trkpt lat="39.3889504" lon="17.1022325"><ele>62.0</ele><time>2026-03-29T12:52:18.782Z</time></trkpt><trkpt lat="39.3888534" lon="17.1022473"><ele>62.0</ele><time>2026-03-29T12:52:19.78Z</time></trkpt><trkpt lat="39.3887663" lon="17.1022603"><ele>62.0</ele><time>2026-03-29T12:52:20.789Z</time></trkpt><trkpt lat="39.3886832" lon="17.1022715"><ele>62.0</ele><time>2026-03-29T12:52:21.801Z</time></trkpt><trkpt lat="39.3885941" lon="17.1022844"><ele>62.00000000000001</ele><time>2026-03-29T12:52:22.788Z</time></trkpt><trkpt lat="39.3885004" lon="17.1022985"><ele>62.0</ele><time>2026-03-29T12:52:23.791Z</time></trkpt><trkpt lat="39.388406" lon="17.1023136"><ele>62.0</ele><time>2026-03-29T12:52:24.786Z</time></trkpt><trkpt lat="39.3883154" lon="17.1023305"><ele>62.0</ele><time>2026-03-29T12:52:25.787Z</time></trkpt><trkpt lat="39.3882443" lon="17.1023478"><ele>62.00000000000001</ele><time>2026-03-29T12:52:26.786Z</time></trkpt><trkpt lat="39.3881662" lon="17.1023585"><ele>62.0</ele><time>2026-03-29T12:52:27.781Z</time></trkpt><trkpt lat="39.3880791" lon="17.102355"><ele>62.0</ele><time>2026-03-29T12:52:28.784Z</time></trkpt><trkpt lat="39.3879892" lon="17.1023821"><ele>62.0</ele><time>2026-03-29T12:52:29.79Z</time></trkpt><trkpt lat="39.3878968" lon="17.1024002"><ele>62.0</ele><time>2026-03-29T12:52:30.787Z</time></trkpt><trkpt lat="39.3877996" lon="17.1024119"><ele>62.0</ele><time>2026-03-29T12:52:31.78Z</time></trkpt><trkpt lat="39.3877" lon="17.1024312"><ele>62.0</ele><time>2026-03-29T12:52:32.785Z</time></trkpt><trkpt lat="39.3875943" lon="17.1024524"><ele>61.8</ele><time>2026-03-29T12:52:33.796Z</time></trkpt><trkpt lat="39.3874903" lon="17.1024694"><ele>61.6</ele><time>2026-03-29T12:52:34.787Z</time></trkpt><trkpt lat="39.3873991" lon="17.1024848"><ele>61.39999999999999</ele><time>2026-03-29T12:52:35.782Z</time></trkpt><trkpt lat="39.3873092" lon="17.102498"><ele>61.199999999999996</ele><time>2026-03-29T12:52:36.784Z</time></trkpt><trkpt lat="39.3872149" lon="17.1025193"><ele>61.0</ele><time>2026-03-29T12:52:37.792Z</time></trkpt><trkpt lat="39.387123" lon="17.1025394"><ele>61.4</ele><time>2026-03-29T12:52:38.781Z</time></trkpt><trkpt lat="39.3870283" lon="17.1025533"><ele>61.8</ele><time>2026-03-29T12:52:39.78Z</time></trkpt><trkpt lat="39.3869411" lon="17.1025628"><ele>62.199999999999996</ele><time>2026-03-29T12:52:40.782Z</time></trkpt><trkpt lat="39.3868534" lon="17.1025762"><ele>62.599999999999994</ele><time>2026-03-29T12:52:41.793Z</time></trkpt><trkpt lat="39.3867646" lon="17.1025908"><ele>63.0</ele><time>2026-03-29T12:52:42.788Z</time></trkpt><trkpt lat="39.3866734" lon="17.1026032"><ele>63.0</ele><time>2026-03-29T12:52:43.78Z</time></trkpt><trkpt lat="39.3865815" lon="17.102621"><ele>63.0</ele><time>2026-03-29T12:52:44.78Z</time></trkpt><trkpt lat="39.3864917" lon="17.1026434"><ele>63.0</ele><time>2026-03-29T12:52:45.792Z</time></trkpt><trkpt lat="39.3864063" lon="17.1026629"><ele>63.0</ele><time>2026-03-29T12:52:46.787Z</time></trkpt><trkpt lat="39.3863154" lon="17.1026752"><ele>63.0</ele><time>2026-03-29T12:52:48.788Z</time></trkpt><trkpt lat="39.3862477" lon="17.1026895"><ele>63.0</ele><time>2026-03-29T12:52:50.787Z</time></trkpt><trkpt lat="39.3861429" lon="17.1027055"><ele>63.333333333333336</ele><time>2026-03-29T12:52:52.786Z</time></trkpt><trkpt lat="39.3860791" lon="17.1027079"><ele>63.66666666666667</ele><time>2026-03-29T12:52:53.781Z</time></trkpt><trkpt lat="39.3860161" lon="17.1027205"><ele>64.0</ele><time>2026-03-29T12:52:54.781Z</time></trkpt><trkpt lat="39.3859368" lon="17.1027551"><ele>64.33333333333334</ele><time>2026-03-29T12:52:56.793Z</time></trkpt><trkpt lat="39.3859652" lon="17.1028372"><ele>64.66666666666667</ele><time>2026-03-29T12:52:58.787Z</time></trkpt><trkpt lat="39.3860529" lon="17.1029254"><ele>65.0</ele><time>2026-03-29T12:53:00.787Z</time></trkpt><trkpt lat="39.3860854" lon="17.1030624"><ele>65.0</ele><time>2026-03-29T12:53:02.779Z</time></trkpt><trkpt lat="39.386059" lon="17.1031461"><ele>65.0</ele><time>2026-03-29T12:53:03.8Z</time></trkpt><trkpt lat="39.3860176" lon="17.1032427"><ele>65.0</ele><time>2026-03-29T12:53:04.789Z</time></trkpt><trkpt lat="39.3859837" lon="17.1033544"><ele>65.0</ele><time>2026-03-29T12:53:05.78Z</time></trkpt><trkpt lat="39.3859518" lon="17.1034751"><ele>65.0</ele><time>2026-03-29T12:53:06.787Z</time></trkpt><trkpt lat="39.3859228" lon="17.1035877"><ele>65.0</ele><time>2026-03-29T12:53:07.787Z</time></trkpt><trkpt lat="39.3858997" lon="17.1036909"><ele>64.8</ele><time>2026-03-29T12:53:08.791Z</time></trkpt><trkpt lat="39.385901" lon="17.1037823"><ele>64.6</ele><time>2026-03-29T12:53:09.779Z</time></trkpt><trkpt lat="39.3859738" lon="17.1039163"><ele>64.4</ele><time>2026-03-29T12:53:11.792Z</time></trkpt><trkpt lat="39.3860278" lon="17.1040126"><ele>64.2</ele><time>2026-03-29T12:53:13.788Z</time></trkpt><trkpt lat="39.3860882" lon="17.1041202"><ele>64.0</ele><time>2026-03-29T12:53:15.789Z</time></trkpt><trkpt lat="39.3861106" lon="17.1042056"><ele>63.83333333333333</ele><time>2026-03-29T12:53:16.785Z</time></trkpt><trkpt lat="39.386108" lon="17.1043152"><ele>63.666666666666664</ele><time>2026-03-29T12:53:17.793Z</time></trkpt><trkpt lat="39.3860858" lon="17.1044156"><ele>63.5</ele><time>2026-03-29T12:53:18.789Z</time></trkpt><trkpt lat="39.3860827" lon="17.1045094"><ele>63.33333333333333</ele><time>2026-03-29T12:53:19.797Z</time></trkpt><trkpt lat="39.3861367" lon="17.1046414"><ele>63.166666666666664</ele><time>2026-03-29T12:53:21.78Z</time></trkpt><trkpt lat="39.3862027" lon="17.1046717"><ele>63.0</ele><time>2026-03-29T12:53:22.788Z</time></trkpt><trkpt lat="39.3862891" lon="17.1047074"><ele>63.166666666666664</ele><time>2026-03-29T12:53:23.791Z</time></trkpt><trkpt lat="39.3863777" lon="17.1047374"><ele>63.33333333333333</ele><time>2026-03-29T12:53:24.783Z</time></trkpt><trkpt lat="39.3864641" lon="17.104765"><ele>63.5</ele><time>2026-03-29T12:53:25.785Z</time></trkpt><trkpt lat="39.3865559" lon="17.1048024"><ele>63.666666666666664</ele><time>2026-03-29T12:53:26.782Z</time></trkpt><trkpt lat="39.3866355" lon="17.1048445"><ele>63.83333333333333</ele><time>2026-03-29T12:53:27.784Z</time></trkpt><trkpt lat="39.3867103" lon="17.1048891"><ele>64.0</ele><time>2026-03-29T12:53:28.78Z</time></trkpt><trkpt lat="39.3867933" lon="17.1049345"><ele>64.2</ele><time>2026-03-29T12:53:29.797Z</time></trkpt><trkpt lat="39.3868802" lon="17.1049812"><ele>64.4</ele><time>2026-03-29T12:53:30.784Z</time></trkpt><trkpt lat="39.3869701" lon="17.1050293"><ele>64.6</ele><time>2026-03-29T12:53:31.792Z</time></trkpt><trkpt lat="39.3870623" lon="17.1050799"><ele>64.8</ele><time>2026-03-29T12:53:32.783Z</time></trkpt><trkpt lat="39.387154" lon="17.1051314"><ele>65.0</ele><time>2026-03-29T12:53:33.79Z</time></trkpt><trkpt lat="39.3872342" lon="17.1051751"><ele>65.0</ele><time>2026-03-29T12:53:34.783Z</time></trkpt><trkpt lat="39.3873026" lon="17.1052145"><ele>65.0</ele><time>2026-03-29T12:53:35.792Z</time></trkpt><trkpt lat="39.387375" lon="17.105292"><ele>65.0</ele><time>2026-03-29T12:53:37.783Z</time></trkpt><trkpt lat="39.387391" lon="17.1053712"><ele>65.0</ele><time>2026-03-29T12:53:39.804Z</time></trkpt><trkpt lat="39.3873754" lon="17.1054741"><ele>65.0</ele><time>2026-03-29T12:53:41.798Z</time></trkpt><trkpt lat="39.3873123" lon="17.1055516"><ele>65.0</ele><time>2026-03-29T12:53:43.78Z</time></trkpt><trkpt lat="39.3872024" lon="17.1056098"><ele>64.33333333333334</ele><time>2026-03-29T12:53:45.788Z</time></trkpt><trkpt lat="39.3871397" lon="17.1056645"><ele>63.66666666666667</ele><time>2026-03-29T12:53:48.798Z</time></trkpt><trkpt lat="39.3870781" lon="17.1057002"><ele>63.0</ele><time>2026-03-29T12:53:51.794Z</time></trkpt><trkpt lat="39.3870101" lon="17.1057423"><ele>62.33333333333333</ele><time>2026-03-29T12:53:53.784Z</time></trkpt><trkpt lat="39.3869604" lon="17.1057928"><ele>61.666666666666664</ele><time>2026-03-29T12:53:55.802Z</time></trkpt><trkpt lat="39.386918" lon="17.1058823"><ele>61.0</ele><time>2026-03-29T12:53:58.786Z</time></trkpt><trkpt lat="39.386873" lon="17.1059857"><ele>60.166666666666664</ele><time>2026-03-29T12:54:02.789Z</time></trkpt><trkpt lat="39.3868395" lon="17.1060756"><ele>59.33333333333333</ele><time>2026-03-29T12:54:04.791Z</time></trkpt><trkpt lat="39.386838" lon="17.1061827"><ele>58.5</ele><time>2026-03-29T12:54:06.787Z</time></trkpt><trkpt lat="39.3868802" lon="17.1062951"><ele>57.66666666666667</ele><time>2026-03-29T12:54:08.782Z</time></trkpt><trkpt lat="39.3869082" lon="17.1063742"><ele>56.833333333333336</ele><time>2026-03-29T12:54:09.797Z</time></trkpt><trkpt lat="39.3869439" lon="17.1064628"><ele>56.0</ele><time>2026-03-29T12:54:10.78Z</time></trkpt><trkpt lat="39.3869853" lon="17.106553"><ele>56.16666666666667</ele><time>2026-03-29T12:54:11.792Z</time></trkpt><trkpt lat="39.3870254" lon="17.1066457"><ele>56.333333333333336</ele><time>2026-03-29T12:54:12.792Z</time></trkpt><trkpt lat="39.3870632" lon="17.1067412"><ele>56.5</ele><time>2026-03-29T12:54:13.803Z</time></trkpt><trkpt lat="39.3871031" lon="17.1068322"><ele>56.66666666666667</ele><time>2026-03-29T12:54:14.787Z</time></trkpt><trkpt lat="39.3871428" lon="17.1069192"><ele>56.833333333333336</ele><time>2026-03-29T12:54:15.794Z</time></trkpt><trkpt lat="39.3871627" lon="17.1070217"><ele>57.0</ele><time>2026-03-29T12:54:16.788Z</time></trkpt><trkpt lat="39.3871646" lon="17.1071302"><ele>57.0</ele><time>2026-03-29T12:54:17.798Z</time></trkpt><trkpt lat="39.3871561" lon="17.1072316"><ele>57.0</ele><time>2026-03-29T12:54:18.785Z</time></trkpt><trkpt lat="39.3871434" lon="17.1073214"><ele>57.0</ele><time>2026-03-29T12:54:19.785Z</time></trkpt><trkpt lat="39.3871294" lon="17.1074017"><ele>57.0</ele><time>2026-03-29T12:54:20.788Z</time></trkpt><trkpt lat="39.3871203" lon="17.1074824"><ele>57.0</ele><time>2026-03-29T12:54:21.788Z</time></trkpt><trkpt lat="39.3871378" lon="17.1076185"><ele>57.0</ele><time>2026-03-29T12:54:23.795Z</time></trkpt><trkpt lat="39.3871728" lon="17.1077536"><ele>56.42857142857142</ele><time>2026-03-29T12:54:25.787Z</time></trkpt><trkpt lat="39.3871962" lon="17.1078389"><ele>55.85714285714285</ele><time>2026-03-29T12:54:26.782Z</time></trkpt><trkpt lat="39.3872371" lon="17.107911"><ele>55.285714285714285</ele><time>2026-03-29T12:54:27.789Z</time></trkpt><trkpt lat="39.3872807" lon="17.1079731"><ele>54.71428571428571</ele><time>2026-03-29T12:54:28.784Z</time></trkpt><trkpt lat="39.3873315" lon="17.1080341"><ele>54.14285714285714</ele><time>2026-03-29T12:54:29.79Z</time></trkpt><trkpt lat="39.3873839" lon="17.1080944"><ele>53.57142857142857</ele><time>2026-03-29T12:54:30.783Z</time></trkpt><trkpt lat="39.3874548" lon="17.1081578"><ele>53.0</ele><time>2026-03-29T12:54:31.791Z</time></trkpt><trkpt lat="39.3875305" lon="17.1082172"><ele>52.00000000000001</ele><time>2026-03-29T12:54:32.786Z</time></trkpt><trkpt lat="39.3876106" lon="17.1082712"><ele>51.0</ele><time>2026-03-29T12:54:33.795Z</time></trkpt><trkpt lat="39.3876893" lon="17.1083289"><ele>50.0</ele><time>2026-03-29T12:54:34.784Z</time></trkpt><trkpt lat="39.3877696" lon="17.1083896"><ele>49.0</ele><time>2026-03-29T12:54:35.781Z</time></trkpt><trkpt lat="39.3878453" lon="17.1084419"><ele>48.0</ele><time>2026-03-29T12:54:36.781Z</time></trkpt><trkpt lat="39.3879164" lon="17.1084793"><ele>47.0</ele><time>2026-03-29T12:54:37.778Z</time></trkpt><trkpt lat="39.3879907" lon="17.1085041"><ele>47.166666666666664</ele><time>2026-03-29T12:54:38.787Z</time></trkpt><trkpt lat="39.3880629" lon="17.1085449"><ele>47.33333333333333</ele><time>2026-03-29T12:54:39.789Z</time></trkpt><trkpt lat="39.3881323" lon="17.1085862"><ele>47.5</ele><time>2026-03-29T12:54:40.792Z</time></trkpt><trkpt lat="39.3881829" lon="17.1086589"><ele>47.666666666666664</ele><time>2026-03-29T12:54:41.775Z</time></trkpt><trkpt lat="39.3882292" lon="17.108745"><ele>47.833333333333336</ele><time>2026-03-29T12:54:42.79Z</time></trkpt><trkpt lat="39.388278" lon="17.1088351"><ele>48.0</ele><time>2026-03-29T12:54:43.784Z</time></trkpt><trkpt lat="39.3883361" lon="17.1089163"><ele>47.99999999999999</ele><time>2026-03-29T12:54:44.781Z</time></trkpt><trkpt lat="39.3883961" lon="17.1089897"><ele>48.0</ele><time>2026-03-29T12:54:45.776Z</time></trkpt><trkpt lat="39.3884584" lon="17.1090518"><ele>48.0</ele><time>2026-03-29T12:54:46.784Z</time></trkpt><trkpt lat="39.3885164" lon="17.1091218"><ele>48.0</ele><time>2026-03-29T12:54:47.788Z</time></trkpt><trkpt lat="39.3885548" lon="17.1091951"><ele>48.0</ele><time>2026-03-29T12:54:48.786Z</time></trkpt><trkpt lat="39.3885935" lon="17.1092641"><ele>47.99999999999999</ele><time>2026-03-29T12:54:49.779Z</time></trkpt><trkpt lat="39.3886358" lon="17.1093422"><ele>48.0</ele><time>2026-03-29T12:54:50.793Z</time></trkpt><trkpt lat="39.3886936" lon="17.1094361"><ele>48.166666666666664</ele><time>2026-03-29T12:54:52.784Z</time></trkpt><trkpt lat="39.3887573" lon="17.109478"><ele>48.33333333333333</ele><time>2026-03-29T12:54:54.777Z</time></trkpt><trkpt lat="39.3888338" lon="17.1095429"><ele>48.5</ele><time>2026-03-29T12:54:56.784Z</time></trkpt><trkpt lat="39.3888913" lon="17.109642"><ele>48.666666666666664</ele><time>2026-03-29T12:54:58.787Z</time></trkpt><trkpt lat="39.3889198" lon="17.1097473"><ele>48.83333333333333</ele><time>2026-03-29T12:55:00.782Z</time></trkpt><trkpt lat="39.3889303" lon="17.1098353"><ele>49.0</ele><time>2026-03-29T12:55:02.784Z</time></trkpt><trkpt lat="39.3889578" lon="17.1099431"><ele>47.49999999999999</ele><time>2026-03-29T12:55:05.787Z</time></trkpt><trkpt lat="39.3889837" lon="17.1100332"><ele>46.0</ele><time>2026-03-29T12:55:08.781Z</time></trkpt><trkpt lat="39.389011" lon="17.1101074"><ele>44.5</ele><time>2026-03-29T12:55:11.78Z</time></trkpt><trkpt lat="39.3890368" lon="17.1102095"><ele>43.0</ele><time>2026-03-29T12:55:14.788Z</time></trkpt><trkpt lat="39.3890845" lon="17.1103105"><ele>41.5</ele><time>2026-03-29T12:55:16.777Z</time></trkpt><trkpt lat="39.3891631" lon="17.1104421"><ele>40.0</ele><time>2026-03-29T12:55:18.774Z</time></trkpt><trkpt lat="39.3892105" lon="17.1105236"><ele>40.0</ele><time>2026-03-29T12:55:19.788Z</time></trkpt><trkpt lat="39.3892571" lon="17.1105857"><ele>40.0</ele><time>2026-03-29T12:55:20.78Z</time></trkpt><trkpt lat="39.3892783" lon="17.1106983"><ele>40.0</ele><time>2026-03-29T12:55:22.788Z</time></trkpt><trkpt lat="39.3892516" lon="17.1108013"><ele>40.0</ele><time>2026-03-29T12:55:24.781Z</time></trkpt><trkpt lat="39.3892065" lon="17.1108771"><ele>40.0</ele><time>2026-03-29T12:55:26.776Z</time></trkpt><trkpt lat="39.3891647" lon="17.1109861"><ele>40.0</ele><time>2026-03-29T12:55:28.789Z</time></trkpt><trkpt lat="39.3891448" lon="17.1110939"><ele>39.5</ele><time>2026-03-29T12:55:30.789Z</time></trkpt><trkpt lat="39.3890919" lon="17.1112343"><ele>39.0</ele><time>2026-03-29T12:55:32.779Z</time></trkpt><trkpt lat="39.389066" lon="17.1113155"><ele>38.5</ele><time>2026-03-29T12:55:33.781Z</time></trkpt><trkpt lat="39.3890446" lon="17.1114115"><ele>38.0</ele><time>2026-03-29T12:55:34.778Z</time></trkpt><trkpt lat="39.3890197" lon="17.1115174"><ele>37.5</ele><time>2026-03-29T12:55:35.79Z</time></trkpt><trkpt lat="39.3889995" lon="17.1116312"><ele>37.0</ele><time>2026-03-29T12:55:36.788Z</time></trkpt><trkpt lat="39.3889938" lon="17.1117515"><ele>36.2</ele><time>2026-03-29T12:55:37.779Z</time></trkpt><trkpt lat="39.3890067" lon="17.1118735"><ele>35.400000000000006</ele><time>2026-03-29T12:55:38.78Z</time></trkpt><trkpt lat="39.3890332" lon="17.1119974"><ele>34.599999999999994</ele><time>2026-03-29T12:55:39.782Z</time></trkpt><trkpt lat="39.389075" lon="17.1121202"><ele>33.8</ele><time>2026-03-29T12:55:40.785Z</time></trkpt><trkpt lat="39.3891306" lon="17.1122368"><ele>33.0</ele><time>2026-03-29T12:55:41.787Z</time></trkpt><trkpt lat="39.3891889" lon="17.1123469"><ele>32.5</ele><time>2026-03-29T12:55:42.786Z</time></trkpt><trkpt lat="39.3892622" lon="17.1124662"><ele>32.0</ele><time>2026-03-29T12:55:43.792Z</time></trkpt><trkpt lat="39.38935" lon="17.1125858"><ele>31.5</ele><time>2026-03-29T12:55:44.784Z</time></trkpt><trkpt lat="39.389438" lon="17.1127121"><ele>31.0</ele><time>2026-03-29T12:55:45.786Z</time></trkpt><trkpt lat="39.3895261" lon="17.1128338"><ele>31.0</ele><time>2026-03-29T12:55:46.793Z</time></trkpt><trkpt lat="39.3895983" lon="17.1129528"><ele>31.0</ele><time>2026-03-29T12:55:47.79Z</time></trkpt><trkpt lat="39.3896576" lon="17.1130796"><ele>31.0</ele><time>2026-03-29T12:55:48.834Z</time></trkpt><trkpt lat="39.3897026" lon="17.1132043"><ele>31.0</ele><time>2026-03-29T12:55:49.797Z</time></trkpt><trkpt lat="39.3897268" lon="17.1133215"><ele>31.0</ele><time>2026-03-29T12:55:50.782Z</time></trkpt><trkpt lat="39.3897338" lon="17.1134132"><ele>30.8</ele><time>2026-03-29T12:55:51.799Z</time></trkpt><trkpt lat="39.3897482" lon="17.113526"><ele>30.6</ele><time>2026-03-29T12:55:53.778Z</time></trkpt><trkpt lat="39.3897375" lon="17.113693"><ele>30.4</ele><time>2026-03-29T12:55:55.798Z</time></trkpt><trkpt lat="39.3897292" lon="17.1138412"><ele>30.2</ele><time>2026-03-29T12:55:57.774Z</time></trkpt><trkpt lat="39.3897273" lon="17.1139754"><ele>30.0</ele><time>2026-03-29T12:55:59.783Z</time></trkpt><trkpt lat="39.3897314" lon="17.1140667"><ele>30.5</ele><time>2026-03-29T12:56:01.783Z</time></trkpt><trkpt lat="39.3896497" lon="17.1140989"><ele>31.0</ele><time>2026-03-29T12:56:06.785Z</time></trkpt><trkpt lat="39.3895616" lon="17.1141004"><ele>31.5</ele><time>2026-03-29T12:56:08.785Z</time></trkpt><trkpt lat="39.3894913" lon="17.1141355"><ele>32.0</ele><time>2026-03-29T12:56:11.788Z</time></trkpt><trkpt lat="39.3894079" lon="17.114195"><ele>32.5</ele><time>2026-03-29T12:56:13.79Z</time></trkpt><trkpt lat="39.3893492" lon="17.1142398"><ele>33.0</ele><time>2026-03-29T12:56:14.782Z</time></trkpt><trkpt lat="39.3892858" lon="17.1142879"><ele>33.0</ele><time>2026-03-29T12:56:15.791Z</time></trkpt><trkpt lat="39.3891999" lon="17.1143388"><ele>33.0</ele><time>2026-03-29T12:56:16.782Z</time></trkpt><trkpt lat="39.3891126" lon="17.1143806"><ele>33.0</ele><time>2026-03-29T12:56:17.784Z</time></trkpt><trkpt lat="39.3890194" lon="17.1144201"><ele>33.0</ele><time>2026-03-29T12:56:18.781Z</time></trkpt><trkpt lat="39.3889194" lon="17.1144242"><ele>33.0</ele><time>2026-03-29T12:56:19.787Z</time></trkpt><trkpt lat="39.3888294" lon="17.1143997"><ele>34.833333333333336</ele><time>2026-03-29T12:56:20.789Z</time></trkpt><trkpt lat="39.3887456" lon="17.1143806"><ele>36.666666666666664</ele><time>2026-03-29T12:56:21.779Z</time></trkpt><trkpt lat="39.3886795" lon="17.1143761"><ele>38.5</ele><time>2026-03-29T12:56:22.781Z</time></trkpt><trkpt lat="39.3886103" lon="17.1143684"><ele>40.33333333333333</ele><time>2026-03-29T12:56:24.787Z</time></trkpt><trkpt lat="39.388514" lon="17.114358"><ele>42.166666666666664</ele><time>2026-03-29T12:56:26.779Z</time></trkpt><trkpt lat="39.3884275" lon="17.1144103"><ele>44.0</ele><time>2026-03-29T12:56:28.79Z</time></trkpt><trkpt lat="39.3883652" lon="17.1145421"><ele>44.0</ele><time>2026-03-29T12:56:30.78Z</time></trkpt><trkpt lat="39.3883227" lon="17.1146093"><ele>44.0</ele><time>2026-03-29T12:56:31.782Z</time></trkpt><trkpt lat="39.3882672" lon="17.1146766"><ele>44.0</ele><time>2026-03-29T12:56:32.781Z</time></trkpt><trkpt lat="39.3882121" lon="17.1147537"><ele>44.0</ele><time>2026-03-29T12:56:33.772Z</time></trkpt><trkpt lat="39.3881545" lon="17.1148422"><ele>44.0</ele><time>2026-03-29T12:56:34.78Z</time></trkpt><trkpt lat="39.3880851" lon="17.1149368"><ele>44.0</ele><time>2026-03-29T12:56:35.784Z</time></trkpt><trkpt lat="39.3879892" lon="17.1150216"><ele>44.6</ele><time>2026-03-29T12:56:36.779Z</time></trkpt><trkpt lat="39.3878871" lon="17.1150956"><ele>45.2</ele><time>2026-03-29T12:56:37.779Z</time></trkpt><trkpt lat="39.3877835" lon="17.1151518"><ele>45.800000000000004</ele><time>2026-03-29T12:56:38.786Z</time></trkpt><trkpt lat="39.3876771" lon="17.115192"><ele>46.400000000000006</ele><time>2026-03-29T12:56:39.79Z</time></trkpt><trkpt lat="39.3875841" lon="17.1152167"><ele>47.0</ele><time>2026-03-29T12:56:40.779Z</time></trkpt><trkpt lat="39.3875033" lon="17.1152242"><ele>47.0</ele><time>2026-03-29T12:56:41.778Z</time></trkpt><trkpt lat="39.3874129" lon="17.1152277"><ele>47.0</ele><time>2026-03-29T12:56:42.79Z</time></trkpt><trkpt lat="39.38731" lon="17.1151714"><ele>47.0</ele><time>2026-03-29T12:56:43.795Z</time></trkpt><trkpt lat="39.3872017" lon="17.1151227"><ele>47.0</ele><time>2026-03-29T12:56:44.788Z</time></trkpt><trkpt lat="39.3870794" lon="17.1150798"><ele>47.0</ele><time>2026-03-29T12:56:45.782Z</time></trkpt><trkpt lat="39.3869702" lon="17.1150317"><ele>47.0</ele><time>2026-03-29T12:56:46.787Z</time></trkpt><trkpt lat="39.3868627" lon="17.1149611"><ele>47.0</ele><time>2026-03-29T12:56:47.792Z</time></trkpt><trkpt lat="39.3867639" lon="17.1149041"><ele>47.0</ele><time>2026-03-29T12:56:48.785Z</time></trkpt><trkpt lat="39.3866639" lon="17.1148848"><ele>47.0</ele><time>2026-03-29T12:56:49.778Z</time></trkpt><trkpt lat="39.3865642" lon="17.114883"><ele>47.0</ele><time>2026-03-29T12:56:50.781Z</time></trkpt><trkpt lat="39.3864698" lon="17.1148856"><ele>47.33333333333333</ele><time>2026-03-29T12:56:51.785Z</time></trkpt><trkpt lat="39.3863689" lon="17.114891"><ele>47.666666666666664</ele><time>2026-03-29T12:56:52.787Z</time></trkpt><trkpt lat="39.3862783" lon="17.1149021"><ele>48.0</ele><time>2026-03-29T12:56:53.799Z</time></trkpt><trkpt lat="39.3861982" lon="17.1149126"><ele>48.33333333333333</ele><time>2026-03-29T12:56:54.787Z</time></trkpt><trkpt lat="39.3861397" lon="17.1149427"><ele>48.666666666666664</ele><time>2026-03-29T12:56:55.78Z</time></trkpt><trkpt lat="39.3860778" lon="17.1149611"><ele>49.0</ele><time>2026-03-29T12:56:56.778Z</time></trkpt><trkpt lat="39.3860102" lon="17.1149145"><ele>49.0</ele><time>2026-03-29T12:56:57.789Z</time></trkpt><trkpt lat="39.3859417" lon="17.1148453"><ele>49.0</ele><time>2026-03-29T12:56:58.786Z</time></trkpt><trkpt lat="39.3858566" lon="17.1148189"><ele>49.0</ele><time>2026-03-29T12:56:59.788Z</time></trkpt><trkpt lat="39.3857599" lon="17.1148464"><ele>49.0</ele><time>2026-03-29T12:57:00.774Z</time></trkpt><trkpt lat="39.3856571" lon="17.1149108"><ele>49.0</ele><time>2026-03-29T12:57:01.78Z</time></trkpt><trkpt lat="39.3855405" lon="17.1149908"><ele>49.800000000000004</ele><time>2026-03-29T12:57:02.789Z</time></trkpt><trkpt lat="39.385433" lon="17.1150632"><ele>50.6</ele><time>2026-03-29T12:57:03.792Z</time></trkpt><trkpt lat="39.3853545" lon="17.1151457"><ele>51.4</ele><time>2026-03-29T12:57:04.783Z</time></trkpt><trkpt lat="39.3852823" lon="17.1152259"><ele>52.2</ele><time>2026-03-29T12:57:05.783Z</time></trkpt><trkpt lat="39.3852145" lon="17.1153102"><ele>53.0</ele><time>2026-03-29T12:57:06.791Z</time></trkpt><trkpt lat="39.385151" lon="17.1154088"><ele>53.0</ele><time>2026-03-29T12:57:07.793Z</time></trkpt><trkpt lat="39.3851094" lon="17.1155269"><ele>53.0</ele><time>2026-03-29T12:57:08.791Z</time></trkpt><trkpt lat="39.3850795" lon="17.1156411"><ele>53.0</ele><time>2026-03-29T12:57:09.773Z</time></trkpt><trkpt lat="39.3850248" lon="17.1157441"><ele>53.0</ele><time>2026-03-29T12:57:10.782Z</time></trkpt><trkpt lat="39.3849255" lon="17.1158131"><ele>53.0</ele><time>2026-03-29T12:57:11.79Z</time></trkpt><trkpt lat="39.3848361" lon="17.1158778"><ele>53.2</ele><time>2026-03-29T12:57:12.786Z</time></trkpt><trkpt lat="39.3847531" lon="17.1159416"><ele>53.4</ele><time>2026-03-29T12:57:13.786Z</time></trkpt><trkpt lat="39.3846652" lon="17.1160023"><ele>53.60000000000001</ele><time>2026-03-29T12:57:14.782Z</time></trkpt><trkpt lat="39.3845737" lon="17.116084"><ele>53.800000000000004</ele><time>2026-03-29T12:57:15.78Z</time></trkpt><trkpt lat="39.3844901" lon="17.1161624"><ele>54.0</ele><time>2026-03-29T12:57:16.788Z</time></trkpt><trkpt lat="39.3844346" lon="17.1162398"><ele>54.0</ele><time>2026-03-29T12:57:17.783Z</time></trkpt><trkpt lat="39.384368" lon="17.1162841"><ele>54.00000000000001</ele><time>2026-03-29T12:57:18.782Z</time></trkpt><trkpt lat="39.3842632" lon="17.1162675"><ele>54.00000000000001</ele><time>2026-03-29T12:57:19.788Z</time></trkpt><trkpt lat="39.3841532" lon="17.1162428"><ele>54.0</ele><time>2026-03-29T12:57:20.782Z</time></trkpt><trkpt lat="39.3840497" lon="17.1162465"><ele>54.0</ele><time>2026-03-29T12:57:21.792Z</time></trkpt><trkpt lat="39.383971" lon="17.1162701"><ele>54.0</ele><time>2026-03-29T12:57:22.78Z</time></trkpt><trkpt lat="39.3839014" lon="17.1162938"><ele>54.0</ele><time>2026-03-29T12:57:23.796Z</time></trkpt><trkpt lat="39.3838313" lon="17.1163192"><ele>54.0</ele><time>2026-03-29T12:57:24.783Z</time></trkpt><trkpt lat="39.3837532" lon="17.1163448"><ele>54.0</ele><time>2026-03-29T12:57:25.792Z</time></trkpt><trkpt lat="39.3836409" lon="17.1163622"><ele>54.0</ele><time>2026-03-29T12:57:27.788Z</time></trkpt><trkpt lat="39.3835704" lon="17.1163778"><ele>54.0</ele><time>2026-03-29T12:57:28.781Z</time></trkpt><trkpt lat="39.3835058" lon="17.1163932"><ele>53.333333333333336</ele><time>2026-03-29T12:57:29.79Z</time></trkpt><trkpt lat="39.3834422" lon="17.1164089"><ele>52.66666666666667</ele><time>2026-03-29T12:57:30.787Z</time></trkpt><trkpt lat="39.3833937" lon="17.1163446"><ele>52.0</ele><time>2026-03-29T12:57:33.806Z</time></trkpt><trkpt lat="39.3834918" lon="17.1163873"><ele>51.333333333333336</ele><time>2026-03-29T12:57:51.793Z</time></trkpt><trkpt lat="39.3835763" lon="17.1163567"><ele>50.66666666666667</ele><time>2026-03-29T12:57:53.789Z</time></trkpt><trkpt lat="39.3836441" lon="17.1163087"><ele>50.0</ele><time>2026-03-29T12:57:57.791Z</time></trkpt><trkpt lat="39.3837214" lon="17.1162646"><ele>50.0</ele><time>2026-03-29T12:57:59.793Z</time></trkpt><trkpt lat="39.3837829" lon="17.1162311"><ele>50.0</ele><time>2026-03-29T12:58:00.788Z</time></trkpt><trkpt lat="39.3838523" lon="17.1161934"><ele>50.0</ele><time>2026-03-29T12:58:01.789Z</time></trkpt><trkpt lat="39.3839464" lon="17.1161557"><ele>50.0</ele><time>2026-03-29T12:58:02.787Z</time></trkpt><trkpt lat="39.3840578" lon="17.1161242"><ele>50.0</ele><time>2026-03-29T12:58:03.802Z</time></trkpt><trkpt lat="39.3841839" lon="17.1160948"><ele>50.66666666666667</ele><time>2026-03-29T12:58:04.785Z</time></trkpt><trkpt lat="39.3842803" lon="17.1160687"><ele>51.333333333333336</ele><time>2026-03-29T12:58:05.782Z</time></trkpt><trkpt lat="39.3843437" lon="17.1160201"><ele>52.0</ele><time>2026-03-29T12:58:06.787Z</time></trkpt><trkpt lat="39.3843854" lon="17.1159528"><ele>52.66666666666667</ele><time>2026-03-29T12:58:07.797Z</time></trkpt><trkpt lat="39.3844278" lon="17.1158771"><ele>53.333333333333336</ele><time>2026-03-29T12:58:08.791Z</time></trkpt><trkpt lat="39.3844663" lon="17.1158081"><ele>54.0</ele><time>2026-03-29T12:58:09.798Z</time></trkpt><trkpt lat="39.3845018" lon="17.1156594"><ele>58.0</ele><time>2026-03-29T12:58:11.79Z</time></trkpt><trkpt lat="39.3845131" lon="17.1155489"><ele>58.0</ele><time>2026-03-29T12:58:13.803Z</time></trkpt><trkpt lat="39.3844432" lon="17.1154512"><ele>58.0</ele><time>2026-03-29T12:58:15.798Z</time></trkpt><trkpt lat="39.3843728" lon="17.1154362"><ele>58.0</ele><time>2026-03-29T12:58:17.793Z</time></trkpt></trkseg></trk></gpx>